# Wetter Temperatur Luftdruck Luftfeuchtigkeit Sichtweite Windgeschwindigkeit Windrichtung Zeit
1 Clear -11 1016 26 0 2.68 36 21:42 28.01.2020
2 Clear -11 1016 26 0 2.68 36 21:23 28.01.2020
3 Clear -11 1016 26 0 2.68 36 20:58 28.01.2020
4 Clear -11 1016 26 0 2.68 36 20:40 28.01.2020
5 Clear -8 1016 18 0 2.8 37 20:21 28.01.2020
6 Clear -8 1016 18 0 2.8 37 19:39 28.01.2020
7 Clear -8 1016 18 0 2.8 37 19:39 28.01.2020
8 Clear -8 1016 18 0 2.8 37 19:21 28.01.2020
9 Clear -8 1016 18 0 2.8 37 18:59 28.01.2020
10 Clear -8 1016 18 0 2.8 37 18:40 28.01.2020
11 Clear -8 1016 18 0 2.8 37 18:22 28.01.2020
12 Clear -8 1016 18 0 2.8 37 18:22 28.01.2020
13 Clear -8 1016 18 0 2.8 37 17:59 28.01.2020
14 Clear -8 1016 18 0 2.8 37 17:38 28.01.2020
15 Clear -7 1014 13 0 0.5 359 17:19 28.01.2020
16 Clear -7 1014 13 0 0.5 359 16:55 28.01.2020
17 Clear -7 1014 13 0 0.5 359 16:37 28.01.2020
18 Clear -7 1014 13 0 0.5 359 16:19 28.01.2020
19 Clear -7 1014 13 0 0.5 359 15:44 28.01.2020
20 Clear -7 1014 13 0 0.5 359 15:19 28.01.2020
21 Clear -7 1014 13 0 0.5 359 14:57 28.01.2020
22 Clear -7 1014 13 0 0.5 359 14:38 28.01.2020
23 Clear -5 1008 11 0 0.27 257 14:18 28.01.2020
24 Clear -5 1008 11 0 0.27 257 13:39 28.01.2020
25 Clear -4 1008 10 0 1.81 185 13:21 28.01.2020
26 Clear -4 1008 10 0 1.81 185 12:42 28.01.2020
27 Clear -4 1008 10 0 1.81 185 12:24 28.01.2020
28 Clear -4 1008 10 0 1.81 185 11:55 28.01.2020
29 Clear -4 1008 10 0 1.81 185 11:55 28.01.2020
30 Clear -4 1008 10 0 1.81 185 11:37 28.01.2020
31 Clear 4 1005 5 0 4.1 274 11:18 28.01.2020
32 Clear 4 1005 5 0 4.1 274 10:40 28.01.2020
33 Clear 4 1005 5 0 4.1 274 10:22 28.01.2020
34 Clear 4 1005 5 0 4.1 274 09:55 28.01.2020
35 Clear 4 1005 5 0 4.1 274 09:37 28.01.2020
36 Clear 4 1005 5 0 4.1 274 09:18 28.01.2020
37 Clear 4 1005 5 0 4.1 274 08:41 28.01.2020
38 Clear -1 1007 9 0 0.74 31 08:19 28.01.2020
39 Clear -1 1007 9 0 0.74 31 07:38 28.01.2020
40 Clear -1 1007 9 0 0.74 31 06:51 28.01.2020
41 Clear -1 1007 9 0 0.74 31 06:28 28.01.2020
42 Clear -1 1007 9 0 0.74 31 05:55 28.01.2020
43 Clear -1 1007 9 0 0.74 31 05:33 28.01.2020
44 Clear -7 1013 15 0 1.38 37 04:38 28.01.2020
45 Clear -7 1013 15 0 1.38 37 03:33 28.01.2020
46 Clear -7 1013 15 0 1.38 37 02:25 28.01.2020
47 Clear -13 1012 28 0 2.5 37 01:58 28.01.2020
48 Clear -13 1012 28 0 2.5 37 01:40 28.01.2020
49 Clear -13 1012 28 0 2.5 37 01:40 28.01.2020
50 Clear -13 1012 26 0 2.24 37 00:51 28.01.2020
51 Clear -13 1012 26 0 2.24 37 00:29 28.01.2020
52 Clear -13 1012 26 0 2.24 37 23:53 27.01.2020
53 Clear -13 1012 26 0 2.24 37 23:30 27.01.2020
54 Clear -11 1011 22 0 2.3 36 22:59 27.01.2020
55 Clear -11 1011 22 0 2.3 36 22:41 27.01.2020
56 Clear -11 1011 22 0 2.3 36 22:20 27.01.2020
57 Clear -11 1011 22 0 2.3 36 21:57 27.01.2020
58 Clear -11 1011 22 0 2.3 36 21:38 27.01.2020
59 Clear -11 1011 22 0 2.3 36 21:18 27.01.2020
60 Clear -11 1011 22 0 2.3 36 20:55 27.01.2020
61 Clear -11 1011 22 0 2.3 36 20:37 27.01.2020
62 Clear -9 1010 21 0 1.47 316 20:18 27.01.2020
63 Clear -9 1010 18 0 0.98 328 19:41 27.01.2020
64 Clear -9 1010 18 0 0.98 328 19:23 27.01.2020
65 Clear -9 1010 18 0 0.98 328 18:56 27.01.2020
66 Clear -9 1010 18 0 0.98 328 18:38 27.01.2020
67 Clear -9 1010 18 0 0.98 328 18:20 27.01.2020
68 Clear -9 1010 18 0 0.98 328 17:40 27.01.2020
69 Clear -8 1009 12 0 0.81 275 17:21 27.01.2020
70 Clear -8 1009 12 0 0.81 275 16:59 27.01.2020
71 Clear -8 1009 12 0 0.81 275 16:41 27.01.2020
72 Clear -8 1009 12 0 0.81 275 16:23 27.01.2020
73 Clear -8 1009 12 0 0.81 275 15:55 27.01.2020
74 Clear -8 1009 12 0 0.81 275 15:37 27.01.2020
75 Clear -8 1009 12 0 0.81 275 15:19 27.01.2020
76 Clear -8 1009 12 0 0.81 275 15:19 27.01.2020
77 Clear -8 1009 12 0 0.81 275 14:43 27.01.2020
78 Clear -8 1009 12 0 0.81 275 14:23 27.01.2020
79 Clear -6 1004 10 0 1.62 253 13:58 27.01.2020
80 Clear -6 1004 10 0 1.62 253 13:40 27.01.2020
81 Clear -6 1004 12 0 1.05 208 13:20 27.01.2020
82 Clear -6 1004 12 0 1.05 208 12:55 27.01.2020
83 Clear -6 1004 12 0 1.05 208 12:37 27.01.2020
84 Clear -6 1004 12 0 1.05 208 12:18 27.01.2020
85 Clear -6 1004 12 0 1.05 208 11:41 27.01.2020
86 Clear 2 1002 5 0 1.7 279 11:21 27.01.2020
87 Clear 2 1002 5 0 1.7 279 10:43 27.01.2020
88 Clear 2 1002 5 0 1.7 279 10:25 27.01.2020
89 Clear 2 1002 5 0 1.7 279 09:56 27.01.2020
90 Clear 2 1002 5 0 1.7 279 09:38 27.01.2020
91 Clear 2 1002 5 0 1.7 279 09:18 27.01.2020
92 Clear 2 1002 5 0 1.7 279 08:42 27.01.2020
93 Clear -1 1007 12 0 0.68 112 08:20 27.01.2020
94 Clear -1 1007 12 0 0.68 112 07:54 27.01.2020
95 Clear -1 1007 12 0 0.68 112 07:34 27.01.2020
96 Clear -1 1007 12 0 0.68 112 06:53 27.01.2020
97 Clear -1 1007 12 0 0.68 112 06:25 27.01.2020
98 Clear -1 1007 12 0 0.68 112 05:24 27.01.2020
99 Clear -7 1013 24 0 0.54 90 03:49 27.01.2020
100 Clear -7 1013 24 0 0.54 90 02:38 27.01.2020
101 Clear -14 1013 43 0 1.86 42 01:29 27.01.2020
102 Clear -14 1014 44 0 1.58 36 00:58 27.01.2020
103 Clear -14 1014 44 0 1.58 36 00:37 27.01.2020
104 Clear -14 1014 44 0 1.58 36 00:18 27.01.2020
105 Clear -14 1014 44 0 1.58 36 23:41 26.01.2020
106 Clear -13 1013 39 0 1.25 54 23:19 26.01.2020
107 Clear -13 1013 39 0 1.25 54 22:55 26.01.2020
108 Clear -13 1013 39 0 1.25 54 22:37 26.01.2020
109 Clear -13 1013 39 0 1.25 54 22:18 26.01.2020
110 Clear -13 1013 39 0 1.25 54 21:56 26.01.2020
111 Clear -13 1013 39 0 1.25 54 21:38 26.01.2020
112 Clear -13 1013 39 0 1.25 54 21:19 26.01.2020
113 Clear -13 1013 39 0 1.25 54 20:55 26.01.2020
114 Clear -13 1013 39 0 1.25 54 20:36 26.01.2020
115 Clouds -10 1013 28 0 1.65 25 20:18 26.01.2020
116 Clouds -10 1013 27 0 1.15 12 19:56 26.01.2020
117 Clouds -10 1013 27 0 1.15 12 19:37 26.01.2020
118 Clouds -10 1013 27 0 1.15 12 19:37 26.01.2020
119 Clouds -10 1013 27 0 1.15 12 19:18 26.01.2020
120 Clouds -10 1013 27 0 1.15 12 18:41 26.01.2020
121 Clouds -10 1013 27 0 1.15 12 18:22 26.01.2020
122 Clouds -10 1013 27 0 1.15 12 17:58 26.01.2020
123 Clouds -10 1013 27 0 1.15 12 17:58 26.01.2020
124 Clouds -10 1013 27 0 1.15 12 17:39 26.01.2020
125 Clouds -8 1010 20 0 0.29 252 17:20 26.01.2020
126 Clouds -8 1010 20 0 0.29 252 16:58 26.01.2020
127 Clouds -8 1010 20 0 0.29 252 16:39 26.01.2020
128 Clouds -8 1010 20 0 0.29 252 16:39 26.01.2020
129 Clouds -8 1010 20 0 0.29 252 16:39 26.01.2020
130 Clouds -8 1010 20 0 0.29 252 16:39 26.01.2020
131 Clouds -8 1010 20 0 0.29 252 16:20 26.01.2020
132 Clouds -8 1010 20 0 0.29 252 15:58 26.01.2020
133 Clouds -8 1010 20 0 0.29 252 15:39 26.01.2020
134 Clouds -8 1010 20 0 0.29 252 15:18 26.01.2020
135 Clouds -8 1010 20 0 0.29 252 14:40 26.01.2020
136 Clouds -8 1010 20 0 0.29 252 14:40 26.01.2020
137 Clouds -7 1006 17 0 0.59 181 14:21 26.01.2020
138 Clouds -7 1006 17 0 0.59 181 13:55 26.01.2020
139 Clouds -7 1006 17 0 0.59 181 13:37 26.01.2020
140 Clouds -7 1006 17 0 0.87 215 13:18 26.01.2020
141 Clouds -7 1006 17 0 0.87 215 13:18 26.01.2020
142 Clouds -7 1006 17 0 0.87 215 12:41 26.01.2020
143 Clouds -7 1006 17 0 0.87 215 12:23 26.01.2020
144 Clouds -7 1006 17 0 0.87 215 11:57 26.01.2020
145 Clouds -7 1006 17 0 0.87 215 11:39 26.01.2020
146 Clouds 0 1004 10 0 2.21 216 11:19 26.01.2020
147 Clouds 0 1004 10 0 2.21 216 10:58 26.01.2020
148 Clouds 0 1004 10 0 2.21 216 10:38 26.01.2020
149 Clouds 0 1004 10 0 2.21 216 10:20 26.01.2020
150 Clouds 0 1004 10 0 2.21 216 09:57 26.01.2020
151 Clouds 0 1004 10 0 2.21 216 09:39 26.01.2020
152 Clouds 0 1004 10 0 2.21 216 09:39 26.01.2020
153 Clouds 0 1004 10 0 2.21 216 09:20 26.01.2020
154 Clouds 0 1004 10 0 2.21 216 08:43 26.01.2020
155 Clouds 0 1004 10 0 2.21 216 08:22 26.01.2020
156 Clouds -2 1008 13 0 2.2 176 07:57 26.01.2020
157 Clouds -2 1008 13 0 2.2 176 07:39 26.01.2020
158 Clouds -2 1008 13 0 2.2 176 07:21 26.01.2020
159 Clouds -2 1008 13 0 2.2 176 06:31 26.01.2020
160 Clouds -2 1008 13 0 2.2 176 05:32 26.01.2020
161 Clouds -7 1015 17 0 0.98 188 04:45 26.01.2020
162 Clouds -7 1015 17 0 0.98 188 02:54 26.01.2020
163 Clouds -14 1015 32 0 1.48 35 01:49 26.01.2020
164 Clouds -14 1015 32 0 1.48 35 01:25 26.01.2020
165 Clouds -14 1015 35 0 1.48 34 00:48 26.01.2020
166 Clouds -14 1015 35 0 1.48 34 00:29 26.01.2020
167 Clouds -14 1015 35 0 1.48 34 23:41 25.01.2020
168 Clouds -14 1015 35 0 1.48 34 23:22 25.01.2020
169 Clouds -12 1014 22 0 1.44 48 22:58 25.01.2020
170 Clouds -12 1014 22 0 1.44 48 22:40 25.01.2020
171 Clouds -12 1014 22 0 1.44 48 22:19 25.01.2020
172 Clouds -12 1014 22 0 1.44 48 21:57 25.01.2020
173 Clouds -12 1014 22 0 1.44 48 21:38 25.01.2020
174 Clouds -12 1014 22 0 1.44 48 21:20 25.01.2020
175 Clouds -12 1014 22 0 1.44 48 20:44 25.01.2020
176 Clouds -12 1014 22 0 1.44 48 20:25 25.01.2020
177 Clouds -10 1015 19 0 1.84 34 19:55 25.01.2020
178 Clouds -10 1015 17 0 2.23 35 19:37 25.01.2020
179 Clouds -10 1015 19 0 1.84 34 19:18 25.01.2020
180 Clouds -10 1015 19 0 1.84 34 18:42 25.01.2020
181 Clouds -10 1015 17 0 2.23 35 18:21 25.01.2020
182 Clouds -10 1015 19 0 1.84 34 17:58 25.01.2020
183 Clouds -10 1015 19 0 1.84 34 17:38 25.01.2020
184 Clouds -9 1015 14 0 1.2 60 17:18 25.01.2020
185 Clouds -9 1015 14 0 1.2 60 16:42 25.01.2020
186 Clouds -9 1015 14 0 1.2 60 16:23 25.01.2020
187 Clouds -9 1015 14 0 1.2 60 15:58 25.01.2020
188 Clouds -9 1015 14 0 1.2 60 15:39 25.01.2020
189 Clouds -9 1015 14 0 1.2 60 15:21 25.01.2020
190 Clouds -9 1015 14 0 1.2 60 14:43 25.01.2020
191 Clouds -8 1012 13 0 1.41 184 14:19 25.01.2020
192 Clouds -8 1012 13 0 1.41 184 13:54 25.01.2020
193 Clouds -8 1012 13 0 1.41 184 13:36 25.01.2020
194 Clear -9 1012 13 0 0.79 202 13:18 25.01.2020
195 Clear -9 1012 13 0 0.79 202 12:39 25.01.2020
196 Clear -9 1012 13 0 0.79 202 12:20 25.01.2020
197 Clear -9 1012 13 0 0.79 202 11:40 25.01.2020
198 Clear -2 1010 7 0 0.87 86 11:20 25.01.2020
199 Clear -2 1010 7 0 0.87 86 10:56 25.01.2020
200 Clear -2 1010 7 0 0.87 86 10:38 25.01.2020
201 Clear -2 1010 7 0 0.87 86 10:38 25.01.2020
202 Clear -2 1010 7 0 0.87 86 10:18 25.01.2020
203 Clear -2 1010 7 0 0.87 86 09:40 25.01.2020
204 Clear -2 1010 7 0 0.87 86 09:20 25.01.2020
205 Clear -2 1010 7 0 0.87 86 08:43 25.01.2020
206 Clear -6 1018 9 0 0.9 185 08:00 25.01.2020
207 Clear -6 1018 9 0 0.9 185 07:40 25.01.2020
208 Clear -6 1018 9 0 0.9 185 06:44 25.01.2020
209 Clear -6 1018 9 0 0.9 185 06:24 25.01.2020
210 Clear -6 1018 9 0 0.9 185 05:44 25.01.2020
211 Clear -11 1028 15 0 1.07 34 04:24 25.01.2020
212 Clear -11 1028 15 0 1.07 34 03:50 25.01.2020
213 Clear -11 1028 15 0 1.07 34 02:38 25.01.2020
214 Clear -18 1032 29 0 1.86 33 01:58 25.01.2020
215 Clear -18 1032 29 0 1.86 33 01:23 25.01.2020
216 Clear -18 1032 28 0 2.01 36 00:41 25.01.2020
217 Clear -18 1032 28 0 2.01 36 00:41 25.01.2020
218 Clear -18 1032 28 0 2.01 36 00:22 25.01.2020
219 Clear -18 1032 28 0 2.01 36 23:42 24.01.2020
220 Clear -18 1032 28 0 2.01 36 23:24 24.01.2020
221 Clear -16 1031 27 0 1.61 52 22:47 24.01.2020
222 Clear -16 1031 27 0 1.61 52 22:29 24.01.2020
223 Clear -16 1031 27 0 1.61 52 21:59 24.01.2020
224 Clear -16 1031 27 0 1.61 52 21:41 24.01.2020
225 Clear -16 1031 27 0 1.61 52 21:19 24.01.2020
226 Clear -16 1031 27 0 1.61 52 20:44 24.01.2020
227 Clear -17 1031 32 0 1.45 48 20:23 24.01.2020
228 Clouds -15 1031 24 0 0.98 46 19:59 24.01.2020
229 Clouds -15 1031 24 0 0.98 46 19:40 24.01.2020
230 Clouds -15 1031 24 0 0.98 46 19:22 24.01.2020
231 Clouds -15 1031 24 0 0.98 46 18:57 24.01.2020
232 Clouds -15 1031 24 0 0.98 46 18:39 24.01.2020
233 Clouds -15 1031 24 0 0.98 46 18:21 24.01.2020
234 Clouds -15 1031 24 0 0.98 46 18:21 24.01.2020
235 Clouds -15 1031 24 0 0.98 46 17:42 24.01.2020
236 Clouds -13 1030 20 0 0.85 328 17:21 24.01.2020
237 Clouds -13 1030 20 0 0.85 328 16:57 24.01.2020
238 Clouds -13 1030 20 0 0.85 328 16:38 24.01.2020
239 Clouds -13 1030 20 0 0.85 328 16:18 24.01.2020
240 Clouds -13 1030 20 0 0.85 328 15:41 24.01.2020
241 Clouds -13 1030 20 0 0.85 328 15:21 24.01.2020
242 Clouds -13 1030 20 0 0.85 328 14:42 24.01.2020
243 Clouds -13 1030 20 0 0.85 328 14:24 24.01.2020
244 Clouds -10 1024 13 0 1.61 17 13:58 24.01.2020
245 Clouds -10 1024 13 0 1.61 17 13:40 24.01.2020
246 Clouds -10 1024 13 0 1.77 23 13:21 24.01.2020
247 Clouds -10 1024 13 0 1.77 23 12:42 24.01.2020
248 Clouds -10 1024 13 0 1.77 23 12:20 24.01.2020
249 Clouds -10 1024 13 0 1.77 23 11:44 24.01.2020
250 Clouds -6 1019 8 0 5.12 331 11:19 24.01.2020
251 Clouds -6 1019 8 0 5.12 331 10:43 24.01.2020
252 Clouds -6 1019 8 0 5.12 331 10:23 24.01.2020
253 Clouds -6 1019 8 0 5.12 331 09:59 24.01.2020
254 Clouds -6 1019 8 0 5.12 331 09:40 24.01.2020
255 Clouds -6 1019 8 0 5.12 331 09:22 24.01.2020
256 Clouds -6 1019 8 0 5.12 331 08:41 24.01.2020
257 Clouds -6 1022 10 0 4.24 338 08:20 24.01.2020
258 Clouds -7 1022 10 0 3.84 339 07:53 24.01.2020
259 Clouds -7 1022 10 0 3.84 339 07:35 24.01.2020
260 Clouds -7 1022 10 0 3.84 339 06:52 24.01.2020
261 Clouds -7 1022 10 0 3.84 339 06:33 24.01.2020
262 Clouds -7 1022 10 0 3.84 339 05:59 24.01.2020
263 Clear -9 1026 20 0 2.81 350 05:18 24.01.2020
264 Clear -9 1026 20 0 2.81 350 02:54 24.01.2020
265 Clear -9 1026 20 0 2.81 350 02:27 24.01.2020
266 Clouds -14 1026 38 0 2.16 5 01:53 24.01.2020
267 Clouds -14 1026 38 0 2.16 5 01:33 24.01.2020
268 Clouds -15 1027 41 0 1.99 10 00:31 24.01.2020
269 Clouds -15 1027 41 0 1.99 10 23:56 23.01.2020
270 Clouds -15 1027 41 0 1.99 10 23:37 23.01.2020
271 Clouds -12 1022 35 0 2.56 7 23:18 23.01.2020
272 Clouds -12 1022 35 0 2.56 7 22:39 23.01.2020
273 Clouds -12 1022 35 0 2.56 7 22:20 23.01.2020
274 Clouds -12 1022 35 0 2.56 7 21:58 23.01.2020
275 Clouds -12 1022 35 0 2.56 7 21:39 23.01.2020
276 Clouds -12 1022 35 0 2.56 7 21:21 23.01.2020
277 Clouds -12 1022 35 0 2.56 7 20:59 23.01.2020
278 Clouds -12 1022 35 0 2.56 7 20:39 23.01.2020
279 Clouds -11 1018 36 0 2.96 15 20:21 23.01.2020
280 Clouds -11 1018 36 0 2.96 15 19:56 23.01.2020
281 Clouds -11 1018 36 0 2.96 15 19:38 23.01.2020
282 Clouds -11 1018 36 0 2.96 15 19:20 23.01.2020
283 Clouds -11 1018 36 0 2.96 15 18:56 23.01.2020
284 Clouds -11 1018 36 0 2.96 15 18:37 23.01.2020
285 Clouds -11 1018 36 0 2.96 15 18:19 23.01.2020
286 Clouds -11 1018 36 0 2.96 15 17:43 23.01.2020
287 Clouds -9 1015 20 0 3.21 28 17:20 23.01.2020
288 Clouds -9 1015 20 0 3.21 28 16:58 23.01.2020
289 Clouds -9 1015 20 0 3.21 28 16:37 23.01.2020
290 Clouds -9 1015 20 0 3.21 28 16:18 23.01.2020
291 Clouds -9 1015 20 0 3.21 28 15:57 23.01.2020
292 Clouds -9 1015 20 0 3.21 28 15:37 23.01.2020
293 Clouds -9 1015 20 0 3.21 28 15:18 23.01.2020
294 Clouds -9 1015 20 0 3.21 28 14:56 23.01.2020
295 Clouds -9 1015 20 0 3.21 28 14:38 23.01.2020
296 Clouds -6 1008 9 0 3.23 290 14:20 23.01.2020
297 Clouds -6 1008 9 0 3.23 290 13:43 23.01.2020
298 Clouds -6 1008 9 0 3.23 290 13:20 23.01.2020
299 Clouds -6 1007 10 0 2.74 307 12:54 23.01.2020
300 Clouds -7 1007 12 0 0.7 259 12:36 23.01.2020
301 Clouds -6 1007 10 0 2.74 307 12:18 23.01.2020
302 Clouds -6 1007 10 0 2.74 307 11:42 23.01.2020
303 Clouds -7 1007 12 0 0.7 259 11:23 23.01.2020
304 Clouds 1 1001 5 0 7.21 293 10:56 23.01.2020
305 Clouds 1 1001 5 0 7.21 293 10:38 23.01.2020
306 Clouds 1 1001 5 0 7.21 293 10:18 23.01.2020
307 Clouds 1 1001 5 0 7.21 293 09:40 23.01.2020
308 Clouds 1 1002 5 0 9.79 283 09:21 23.01.2020
309 Clouds 1 1002 5 0 9.79 283 08:43 23.01.2020
310 Clouds 1 1002 5 0 9.79 283 08:25 23.01.2020
311 Clear -1 1005 10 0 1.59 198 07:52 23.01.2020
312 Clear -1 1005 10 0 1.59 198 07:27 23.01.2020
313 Clear -1 1005 10 0 1.59 198 06:58 23.01.2020
314 Clear -1 1005 10 0 1.59 198 06:25 23.01.2020
315 Clear -1 1005 10 0 1.59 198 05:59 23.01.2020
316 Clear -7 1014 17 0 1.49 60 04:25 23.01.2020
317 Clear -7 1014 17 0 1.49 60 03:23 23.01.2020
318 Clear -14 1015 43 0 1.23 25 01:53 23.01.2020
319 Clear -13 1016 31 0 1.87 27 00:44 23.01.2020
320 Clear -13 1016 31 0 1.87 27 00:24 23.01.2020
321 Clear -13 1016 31 0 1.87 27 23:46 22.01.2020
322 Clear -13 1016 31 0 1.87 27 23:28 22.01.2020
323 Clear -13 1015 23 0 0.95 359 22:43 22.01.2020
324 Clear -13 1015 23 0 0.95 359 22:25 22.01.2020
325 Clear -13 1015 23 0 0.95 359 21:59 22.01.2020
326 Clear -13 1015 23 0 0.95 359 21:38 22.01.2020
327 Clear -13 1015 23 0 0.95 359 21:19 22.01.2020
328 Clear -13 1015 23 0 0.95 359 20:42 22.01.2020
329 Clear -13 1014 30 0 1.02 41 20:23 22.01.2020
330 Clear -10 1014 21 0 2.24 290 19:59 22.01.2020
331 Clear -10 1014 21 0 2.24 290 19:41 22.01.2020
332 Clear -10 1014 21 0 2.24 290 19:21 22.01.2020
333 Clear -10 1014 21 0 2.24 290 18:59 22.01.2020
334 Clear -10 1014 21 0 2.24 290 18:40 22.01.2020
335 Clear -10 1014 21 0 2.24 290 18:21 22.01.2020
336 Clear -10 1014 21 0 2.24 290 17:59 22.01.2020
337 Clear -10 1014 21 0 2.24 290 17:39 22.01.2020
338 Clear -8 1013 13 0 1.91 251 17:20 22.01.2020
339 Clear -8 1013 13 0 1.91 251 17:20 22.01.2020
340 Clear -8 1013 13 0 1.91 251 16:56 22.01.2020
341 Clear -8 1013 13 0 1.91 251 16:37 22.01.2020
342 Clear -8 1013 13 0 1.91 251 16:18 22.01.2020
343 Clear -8 1013 13 0 1.91 251 15:43 22.01.2020
344 Clear -8 1013 13 0 1.91 251 15:24 22.01.2020
345 Clear -8 1013 13 0 1.91 251 14:59 22.01.2020
346 Clear -8 1013 13 0 1.91 251 14:38 22.01.2020
347 Clouds -5 1009 11 0 2.86 266 14:20 22.01.2020
348 Clouds -5 1009 11 0 2.86 266 13:56 22.01.2020
349 Clouds -5 1009 11 0 2.86 266 13:37 22.01.2020
350 Clouds -4 1008 10 0 3.75 263 13:19 22.01.2020
351 Clouds -4 1008 10 0 3.75 263 12:57 22.01.2020
352 Clouds -4 1008 10 0 3.75 263 12:38 22.01.2020
353 Clouds -4 1008 10 0 3.75 263 12:19 22.01.2020
354 Clouds -4 1008 10 0 3.75 263 11:56 22.01.2020
355 Clouds -4 1008 10 0 3.75 263 11:38 22.01.2020
356 Clouds 2 1006 7 0 9.15 256 11:19 22.01.2020
357 Clouds 2 1006 7 0 9.15 256 10:45 22.01.2020
358 Clouds 2 1006 7 0 9.15 256 10:21 22.01.2020
359 Clouds 2 1006 7 0 9.15 256 09:58 22.01.2020
360 Clouds 2 1006 7 0 9.15 256 09:40 22.01.2020
361 Clouds 2 1006 7 0 9.15 256 09:21 22.01.2020
362 Clouds 2 1006 7 0 9.15 256 08:55 22.01.2020
363 Clouds 2 1006 7 0 9.15 256 08:36 22.01.2020
364 Clear 1 1011 7 0 9.24 273 08:18 22.01.2020
365 Clear 1 1011 7 0 9.24 273 07:42 22.01.2020
366 Clear 1 1011 7 0 9.24 273 07:23 22.01.2020
367 Clear 1 1011 7 0 9.24 273 06:34 22.01.2020
368 Clear 1 1011 7 0 9.24 273 05:45 22.01.2020
369 Clear -3 1017 20 0 2.8 240 04:25 22.01.2020
370 Clear -3 1017 20 0 2.8 240 03:26 22.01.2020
371 Clear -3 1017 20 0 2.8 240 02:42 22.01.2020
372 Clear -12 1018 57 0 0.97 246 00:47 22.01.2020
373 Clear -12 1018 57 0 0.97 246 00:27 22.01.2020
374 Clear -12 1018 57 0 0.97 246 23:57 21.01.2020
375 Clear -12 1018 57 0 0.97 246 23:37 21.01.2020
376 Clear -11 1017 50 0 0.74 210 23:19 21.01.2020
377 Clear -11 1017 50 0 0.74 210 22:40 21.01.2020
378 Clear -11 1017 50 0 0.74 210 22:21 21.01.2020
379 Clear -11 1017 50 0 0.74 210 21:58 21.01.2020
380 Clear -11 1017 50 0 0.74 210 21:38 21.01.2020
381 Clear -11 1017 50 0 0.74 210 21:20 21.01.2020
382 Clear -11 1017 50 0 0.74 210 20:57 21.01.2020
383 Clear -11 1017 50 0 0.74 210 20:38 21.01.2020
384 Clouds -9 1015 38 0 0.64 208 20:20 21.01.2020
385 Clouds -9 1015 38 0 0.64 208 19:57 21.01.2020
386 Clouds -9 1015 38 0 0.64 208 19:39 21.01.2020
387 Clouds -9 1015 38 0 0.64 208 19:20 21.01.2020
388 Clouds -9 1015 38 0 0.64 208 19:20 21.01.2020
389 Clouds -9 1015 38 0 0.64 208 18:55 21.01.2020
390 Clouds -9 1015 38 0 0.64 208 18:37 21.01.2020
391 Clouds -9 1015 38 0 0.64 208 18:18 21.01.2020
392 Clouds -9 1015 38 0 0.64 208 17:45 21.01.2020
393 Clouds -4 1016 19 0 1.84 333 17:20 21.01.2020
394 Clouds -4 1016 19 0 1.84 333 16:59 21.01.2020
395 Clouds -4 1016 19 0 1.84 333 16:37 21.01.2020
396 Clouds -4 1016 19 0 1.84 333 16:37 21.01.2020
397 Clouds -4 1016 19 0 1.84 333 16:19 21.01.2020
398 Clouds -4 1016 19 0 1.84 333 15:54 21.01.2020
399 Clouds -4 1016 19 0 1.84 333 15:36 21.01.2020
400 Clouds -4 1016 19 0 1.84 333 15:18 21.01.2020
401 Clouds -4 1016 19 0 1.84 333 14:38 21.01.2020
402 Clouds -3 1012 14 0 4.51 272 14:20 21.01.2020
403 Clouds -3 1012 14 0 4.51 272 13:40 21.01.2020
404 Clouds -3 1011 14 0 4.54 282 13:19 21.01.2020
405 Clouds -3 1011 14 0 4.54 282 12:45 21.01.2020
406 Clouds -3 1011 14 0 4.54 282 12:27 21.01.2020
407 Clouds -3 1011 14 0 4.54 282 11:58 21.01.2020
408 Clouds -3 1011 14 0 4.54 282 11:40 21.01.2020
409 Clouds 0 1009 11 0 10.18 281 11:21 21.01.2020
410 Clouds 0 1009 11 0 10.18 281 11:21 21.01.2020
411 Clouds 0 1009 11 0 10.18 281 10:55 21.01.2020
412 Clouds 0 1009 11 0 10.18 281 10:37 21.01.2020
413 Clouds 0 1009 11 0 10.18 281 10:18 21.01.2020
414 Clouds 0 1009 11 0 10.18 281 09:41 21.01.2020
415 Clouds 0 1009 11 0 10.18 281 09:22 21.01.2020
416 Clouds 0 1009 11 0 10.18 281 08:50 21.01.2020
417 Clouds 0 1009 11 0 10.18 281 08:30 21.01.2020
418 Clouds 0 1013 10 0 7.34 258 07:59 21.01.2020
419 Clouds 0 1013 10 0 7.34 258 07:40 21.01.2020
420 Clouds 0 1013 10 0 7.34 258 07:40 21.01.2020
421 Clouds 0 1013 10 0 7.34 258 07:21 21.01.2020
422 Clouds 0 1013 10 0 7.34 258 06:49 21.01.2020
423 Clouds 0 1013 10 0 7.34 258 06:29 21.01.2020
424 Clouds 0 1013 10 0 7.34 258 06:29 21.01.2020
425 Clouds 0 1013 10 0 7.34 258 06:29 21.01.2020
426 Clouds 0 1013 10 0 7.34 258 05:42 21.01.2020
427 Clear -6 1019 28 0 2.17 184 04:40 21.01.2020
428 Clear -6 1019 28 0 2.17 184 02:57 21.01.2020
429 Clouds -13 1020 57 0 2.03 153 01:55 21.01.2020
430 Clouds -13 1020 57 0 2.03 153 01:18 21.01.2020
431 Clouds -13 1020 60 0 1.72 157 00:37 21.01.2020
432 Clouds -13 1020 60 0 1.72 157 23:59 20.01.2020
433 Clouds -13 1020 60 0 1.72 157 23:39 20.01.2020
434 Clouds -13 1020 60 0 1.72 157 23:39 20.01.2020
435 Clouds -12 1017 48 0 1.37 142 23:19 20.01.2020
436 Clouds -12 1017 48 0 1.37 142 22:56 20.01.2020
437 Clouds -12 1017 48 0 1.37 142 22:37 20.01.2020
438 Clouds -12 1017 48 0 1.37 142 22:19 20.01.2020
439 Clouds -12 1017 48 0 1.37 142 21:57 20.01.2020
440 Clouds -12 1017 48 0 1.37 142 21:37 20.01.2020
441 Clouds -12 1017 48 0 1.37 142 21:19 20.01.2020
442 Clouds -12 1017 48 0 1.37 142 20:56 20.01.2020
443 Clouds -12 1017 48 0 1.37 142 20:38 20.01.2020
444 Clouds -10 1016 25 0 1.91 137 20:18 20.01.2020
445 Clouds -10 1016 25 0 1.91 137 19:56 20.01.2020
446 Clouds -10 1016 25 0 1.91 137 19:37 20.01.2020
447 Clouds -10 1016 25 0 1.91 137 19:18 20.01.2020
448 Clouds -10 1016 25 0 1.91 137 18:43 20.01.2020
449 Clouds -10 1016 25 0 1.91 137 18:22 20.01.2020
450 Clouds -10 1016 25 0 1.91 137 17:41 20.01.2020
451 Clouds -8 1015 14 0 0.93 159 17:20 20.01.2020
452 Clouds -8 1015 14 0 0.93 159 17:20 20.01.2020
453 Clouds -8 1015 14 0 0.93 159 16:59 20.01.2020
454 Clouds -8 1015 14 0 0.93 159 16:39 20.01.2020
455 Clouds -8 1015 14 0 0.93 159 16:18 20.01.2020
456 Clouds -8 1015 14 0 0.93 159 16:18 20.01.2020
457 Clouds -8 1015 14 0 0.93 159 16:18 20.01.2020
458 Clouds -8 1015 14 0 0.93 159 16:18 20.01.2020
459 Clouds -8 1015 14 0 0.93 159 16:18 20.01.2020
460 Clouds -8 1015 14 0 0.93 159 15:56 20.01.2020
461 Clouds -8 1015 14 0 0.93 159 15:38 20.01.2020
462 Clouds -8 1015 14 0 0.93 159 15:20 20.01.2020
463 Clouds -8 1015 14 0 0.93 159 14:41 20.01.2020
464 Clouds -8 1015 14 0 0.93 159 14:22 20.01.2020
465 Clear -8 1012 12 0 1.25 284 13:58 20.01.2020
466 Clear -8 1012 12 0 1.25 284 13:40 20.01.2020
467 Clouds -6 1011 11 0 3.9 285 13:21 20.01.2020
468 Clouds -6 1011 11 0 3.9 285 12:46 20.01.2020
469 Clouds -6 1011 11 0 3.9 285 12:28 20.01.2020
470 Clouds -6 1011 11 0 3.9 285 11:58 20.01.2020
471 Clouds -6 1011 11 0 3.9 285 11:39 20.01.2020
472 Clear -1 1008 6 0 5.35 247 11:20 20.01.2020
473 Clear -1 1008 6 0 5.35 247 10:48 20.01.2020
474 Clear -1 1008 6 0 5.35 247 10:22 20.01.2020
475 Clear -1 1008 6 0 5.35 247 09:57 20.01.2020
476 Clear -1 1008 6 0 5.35 247 09:39 20.01.2020
477 Clear -1 1008 6 0 5.35 247 09:20 20.01.2020
478 Clear -1 1008 6 0 5.35 247 08:44 20.01.2020
479 Clear -1 1008 6 0 5.35 247 08:26 20.01.2020
480 Clear -3 1012 12 0 3.42 211 07:45 20.01.2020
481 Clear -3 1012 12 0 3.42 211 07:25 20.01.2020
482 Clear -3 1012 12 0 3.42 211 06:54 20.01.2020
483 Clear -3 1012 12 0 3.42 211 06:28 20.01.2020
484 Clear -3 1012 12 0 3.42 211 05:43 20.01.2020
485 Clear -3 1012 12 0 3.42 211 05:22 20.01.2020
486 Clear -7 1018 38 0 1.92 194 04:47 20.01.2020
487 Clear -7 1018 38 0 1.92 194 02:58 20.01.2020
488 Clear -14 1019 66 0 1.18 156 01:55 20.01.2020
489 Clear -14 1019 66 0 1.18 156 01:37 20.01.2020
490 Clear -14 1019 63 0 1.18 162 00:45 20.01.2020
491 Clear -14 1019 63 0 1.18 162 00:24 20.01.2020
492 Clear -14 1019 63 0 1.18 162 23:39 19.01.2020
493 Clear -13 1017 59 0 1.12 149 23:20 19.01.2020
494 Clear -13 1017 59 0 1.12 149 22:57 19.01.2020
495 Clear -13 1017 59 0 1.12 149 22:39 19.01.2020
496 Clear -13 1017 59 0 1.12 149 22:20 19.01.2020
497 Clear -13 1017 59 0 1.12 149 21:57 19.01.2020
498 Clear -13 1017 59 0 1.12 149 21:39 19.01.2020
499 Clear -13 1017 59 0 1.12 149 21:20 19.01.2020
500 Clear -13 1017 59 0 1.12 149 20:57 19.01.2020
501 Clear -13 1017 59 0 1.12 149 20:39 19.01.2020
502 Clear -11 1016 44 0 1.35 163 20:21 19.01.2020
503 Clear -11 1016 44 0 1.35 163 19:57 19.01.2020
504 Clear -11 1016 44 0 1.35 163 19:39 19.01.2020
505 Clear -11 1016 44 0 1.35 163 19:21 19.01.2020
506 Clear -11 1016 44 0 1.35 163 18:59 19.01.2020
507 Clear -11 1016 44 0 1.35 163 18:41 19.01.2020
508 Clear -11 1016 44 0 1.35 163 18:21 19.01.2020
509 Clear -11 1016 44 0 1.35 163 17:59 19.01.2020
510 Clear -11 1016 44 0 1.35 163 17:40 19.01.2020
511 Clear -9 1013 31 0 1.74 178 17:21 19.01.2020
512 Clear -9 1013 31 0 1.74 178 16:59 19.01.2020
513 Clear -9 1013 31 0 1.74 178 16:40 19.01.2020
514 Clear -9 1013 31 0 1.74 178 16:21 19.01.2020
515 Clear -9 1013 31 0 1.74 178 15:59 19.01.2020
516 Clear -9 1013 31 0 1.74 178 15:39 19.01.2020
517 Clear -9 1013 31 0 1.74 178 15:20 19.01.2020
518 Clear -9 1013 31 0 1.74 178 14:59 19.01.2020
519 Clear -9 1013 31 0 1.74 178 14:39 19.01.2020
520 Clouds -5 1008 21 0 6.82 211 14:19 19.01.2020
521 Clouds -5 1008 21 0 6.82 211 13:58 19.01.2020
522 Clouds -5 1008 21 0 6.82 211 13:38 19.01.2020
523 Clouds -5 1008 20 0 7.56 211 13:20 19.01.2020
524 Clouds -5 1008 20 0 7.56 211 12:56 19.01.2020
525 Clouds -5 1008 20 0 7.56 211 12:37 19.01.2020
526 Clouds -5 1008 20 0 7.56 211 12:19 19.01.2020
527 Clouds -5 1008 20 0 7.56 211 11:43 19.01.2020
528 Clouds 0 1004 9 0 8.83 210 11:21 19.01.2020
529 Clouds 0 1004 9 0 8.83 210 10:57 19.01.2020
530 Clouds 0 1004 9 0 8.83 210 10:39 19.01.2020
531 Clouds 0 1004 9 0 8.83 210 10:19 19.01.2020
532 Clouds 0 1004 9 0 8.83 210 09:56 19.01.2020
533 Clouds 0 1004 9 0 8.83 210 09:56 19.01.2020
534 Clouds 0 1004 9 0 8.83 210 09:56 19.01.2020
535 Clouds 0 1004 9 0 8.83 210 09:37 19.01.2020
536 Clouds 0 1004 9 0 8.83 210 09:19 19.01.2020
537 Clouds 0 1004 9 0 8.83 210 08:54 19.01.2020
538 Clouds 0 1004 9 0 8.83 210 08:30 19.01.2020
539 Clear -2 1008 18 0 2.47 147 07:46 19.01.2020
540 Clear -2 1008 18 0 2.47 147 07:27 19.01.2020
541 Clear -2 1008 18 0 2.47 147 06:54 19.01.2020
542 Clear -2 1008 18 0 2.47 147 06:21 19.01.2020
543 Clear -6 1016 43 0 2.85 163 03:51 19.01.2020
544 Clear -6 1016 43 0 2.85 163 02:28 19.01.2020
545 Clear -11 1019 77 0 1.98 140 01:38 19.01.2020
546 Clear -11 1020 74 0 2.02 146 01:18 19.01.2020
547 Clear -11 1020 74 0 2.02 146 01:18 19.01.2020
548 Clear -11 1020 74 0 2.02 146 00:41 19.01.2020
549 Clear -11 1020 74 0 2.02 146 00:41 19.01.2020
550 Clear -11 1020 74 0 2.02 146 00:19 19.01.2020
551 Clear -11 1020 74 0 2.02 146 23:42 18.01.2020
552 Clear -11 1020 74 0 2.02 146 23:24 18.01.2020
553 Clear -10 1018 70 0 2 136 22:58 18.01.2020
554 Clear -10 1018 70 0 2 136 22:40 18.01.2020
555 Clear -10 1018 70 0 2 136 22:21 18.01.2020
556 Clear -10 1018 70 0 2 136 21:58 18.01.2020
557 Clear -10 1018 70 0 2 136 21:38 18.01.2020
558 Clear -10 1018 70 0 2 136 21:20 18.01.2020
559 Clear -10 1018 70 0 2 136 20:55 18.01.2020
560 Clear -10 1018 70 0 2 136 20:36 18.01.2020
561 Clear -8 1017 57 0 2.32 139 20:18 18.01.2020
562 Clear -8 1017 57 0 2.32 139 19:42 18.01.2020
563 Clear -8 1017 57 0 2.32 139 19:24 18.01.2020
564 Clear -8 1017 57 0 2.32 139 18:43 18.01.2020
565 Clear -8 1017 57 0 2.32 139 18:24 18.01.2020
566 Clear -8 1017 57 0 2.32 139 17:57 18.01.2020
567 Clear -8 1017 57 0 2.32 139 17:39 18.01.2020
568 Clear -6 1015 42 0 2.42 149 17:20 18.01.2020
569 Clear -6 1015 42 0 2.42 149 16:56 18.01.2020
570 Clear -6 1015 42 0 2.42 149 16:37 18.01.2020
571 Clear -6 1015 42 0 2.42 149 16:19 18.01.2020
572 Clear -6 1015 42 0 2.42 149 15:43 18.01.2020
573 Clear -6 1015 42 0 2.42 149 15:24 18.01.2020
574 Clear -6 1015 42 0 2.42 149 14:58 18.01.2020
575 Clear -6 1015 42 0 2.42 149 14:39 18.01.2020
576 Clear -2 1008 22 0 1.95 196 14:19 18.01.2020
577 Clear -2 1008 22 0 1.95 196 13:45 18.01.2020
578 Clear -2 1008 22 0 1.95 196 13:27 18.01.2020
579 Clear -2 1009 23 0 1.65 188 12:59 18.01.2020
580 Clear -2 1009 23 0 1.65 188 12:40 18.01.2020
581 Clear -2 1009 23 0 1.65 188 12:21 18.01.2020
582 Clear -2 1009 23 0 1.65 188 11:44 18.01.2020
583 Clear -2 1009 23 0 1.65 188 11:24 18.01.2020
584 Clouds 3 1005 21 0 1.89 111 10:58 18.01.2020
585 Clouds 3 1005 21 0 1.89 111 10:39 18.01.2020
586 Clouds 3 1005 21 0 1.89 111 10:20 18.01.2020
587 Clouds 3 1005 21 0 1.89 111 10:20 18.01.2020
588 Clouds 3 1005 21 0 1.89 111 10:20 18.01.2020
589 Clouds 3 1005 21 0 1.89 111 09:49 18.01.2020
590 Clouds 3 1005 21 0 1.89 111 09:31 18.01.2020
591 Clouds 3 1005 21 0 1.89 111 08:57 18.01.2020
592 Clouds 3 1005 21 0 1.89 111 08:39 18.01.2020
593 Clouds 0 1010 33 0 2.86 177 08:19 18.01.2020
594 Clouds 0 1010 33 0 2.86 177 07:52 18.01.2020
595 Clouds 0 1010 33 0 2.86 177 07:32 18.01.2020
596 Clouds 0 1010 33 0 2.86 177 06:48 18.01.2020
597 Clouds 0 1010 33 0 2.86 177 06:18 18.01.2020
598 Clouds 0 1010 33 0 2.86 177 05:25 18.01.2020
599 Clouds -5 1017 51 0 2.29 170 03:25 18.01.2020
600 Clouds -10 1016 77 0 1.73 153 01:59 18.01.2020
601 Clouds -10 1016 77 0 1.73 153 01:35 18.01.2020
602 Clouds -10 1018 76 0 1.75 132 00:37 18.01.2020
603 Clouds -10 1018 76 0 1.75 132 00:19 18.01.2020
604 Clouds -10 1018 76 0 1.75 132 23:44 17.01.2020
605 Clear -9 1017 73 0 1.8 139 23:20 17.01.2020
606 Clear -9 1017 73 0 1.8 139 22:59 17.01.2020
607 Clear -9 1017 73 0 1.8 139 22:40 17.01.2020
608 Clear -9 1017 73 0 1.8 139 22:18 17.01.2020
609 Clear -9 1017 73 0 1.8 139 21:41 17.01.2020
610 Clear -9 1017 73 0 1.8 139 21:22 17.01.2020
611 Clear -9 1017 73 0 1.8 139 20:58 17.01.2020
612 Clear -9 1017 73 0 1.8 139 20:40 17.01.2020
613 Clear -7 1016 64 0 2.24 133 20:20 17.01.2020
614 Clear -7 1016 64 0 2.24 133 19:57 17.01.2020
615 Clear -7 1016 64 0 2.24 133 19:38 17.01.2020
616 Clear -7 1016 64 0 2.24 133 19:19 17.01.2020
617 Clear -7 1016 64 0 2.24 133 18:57 17.01.2020
618 Clear -7 1016 64 0 2.24 133 18:36 17.01.2020
619 Clear -7 1016 64 0 2.24 133 18:18 17.01.2020
620 Clear -7 1016 64 0 2.24 133 17:39 17.01.2020
621 Clouds -5 1015 49 0 2.96 126 17:21 17.01.2020
622 Clouds -5 1015 49 0 2.96 126 16:44 17.01.2020
623 Clouds -5 1015 49 0 2.96 126 16:21 17.01.2020
624 Clouds -5 1015 49 0 2.96 126 15:58 17.01.2020
625 Clouds -5 1015 49 0 2.96 126 15:58 17.01.2020
626 Clouds -5 1015 49 0 2.96 126 15:40 17.01.2020
627 Clouds -5 1015 49 0 2.96 126 15:22 17.01.2020
628 Clouds -5 1015 49 0 2.96 126 14:43 17.01.2020
629 Clouds -5 1015 49 0 2.96 126 14:25 17.01.2020
630 Clouds -1 1011 27 0 3.56 199 13:46 17.01.2020
631 Clear -3 1011 33 0 1.55 181 13:23 17.01.2020
632 Clear -3 1011 33 0 1.55 181 12:56 17.01.2020
633 Clear -3 1011 33 0 1.55 181 12:37 17.01.2020
634 Clear -3 1011 33 0 1.55 181 12:18 17.01.2020
635 Clear -3 1011 33 0 1.55 181 11:37 17.01.2020
636 Clear 3 1007 24 0 0.56 133 11:18 17.01.2020
637 Clear 3 1007 24 0 0.56 133 10:42 17.01.2020
638 Clear 3 1007 24 0 0.56 133 10:22 17.01.2020
639 Clear 3 1007 24 0 0.56 133 09:57 17.01.2020
640 Clear 3 1007 24 0 0.56 133 09:37 17.01.2020
641 Clear 3 1007 24 0 0.56 133 09:18 17.01.2020
642 Clear 3 1007 24 0 0.56 133 08:42 17.01.2020
643 Clear 3 1007 24 0 0.56 133 08:24 17.01.2020
644 Clear 1 1011 29 0 2.23 164 07:53 17.01.2020
645 Clear 1 1011 29 0 2.23 164 07:31 17.01.2020
646 Clear 1 1011 29 0 2.23 164 06:57 17.01.2020
647 Clear 1 1011 29 0 2.23 164 06:38 17.01.2020
648 Clear 1 1011 29 0 2.23 164 05:38 17.01.2020
649 Clear -5 1018 56 0 2.07 172 03:39 17.01.2020
650 Clear -5 1018 56 0 2.07 172 02:47 17.01.2020
651 Clear -10 1018 81 0 1.72 138 01:47 17.01.2020
652 Clear -10 1019 81 0 1.81 129 01:28 17.01.2020
653 Clear -10 1019 81 0 1.81 129 00:48 17.01.2020
654 Clear -10 1019 81 0 1.81 129 00:23 17.01.2020
655 Clear -10 1019 81 0 1.81 129 23:44 16.01.2020
656 Clear -10 1019 81 0 1.81 129 23:25 16.01.2020
657 Clear -8 1017 74 0 2.22 134 22:56 16.01.2020
658 Clear -8 1017 74 0 2.22 134 22:38 16.01.2020
659 Clear -8 1017 74 0 2.22 134 22:19 16.01.2020
660 Clear -8 1017 74 0 2.22 134 21:54 16.01.2020
661 Clear -8 1017 74 0 2.22 134 21:36 16.01.2020
662 Clear -8 1017 74 0 2.22 134 21:18 16.01.2020
663 Clear -8 1017 74 0 2.22 134 20:40 16.01.2020
664 Clear -6 1015 55 0 2.56 141 20:21 16.01.2020
665 Clear -6 1015 55 0 2.56 141 19:58 16.01.2020
666 Clear -6 1015 55 0 2.56 141 19:40 16.01.2020
667 Clear -6 1015 55 0 2.56 141 19:22 16.01.2020
668 Clear -6 1015 55 0 2.56 141 18:57 16.01.2020
669 Clear -6 1015 55 0 2.56 141 18:38 16.01.2020
670 Clear -6 1015 55 0 2.56 141 18:19 16.01.2020
671 Clear -6 1015 55 0 2.56 141 17:58 16.01.2020
672 Clear -6 1015 55 0 2.56 141 17:39 16.01.2020
673 Clear -3 1014 36 0 2.87 143 17:20 16.01.2020
674 Clear -3 1014 36 0 2.87 143 16:42 16.01.2020
675 Clear -3 1014 36 0 2.87 143 16:24 16.01.2020
676 Clear -3 1014 36 0 2.87 143 15:59 16.01.2020
677 Clear -3 1014 36 0 2.87 143 15:39 16.01.2020
678 Clear -3 1014 36 0 2.87 143 15:20 16.01.2020
679 Clear -3 1014 36 0 2.87 143 14:45 16.01.2020
680 Clear -3 1014 36 0 2.87 143 14:24 16.01.2020
681 Clear -2 1009 38 0 1.09 138 13:56 16.01.2020
682 Clear -2 1009 38 0 1.09 138 13:37 16.01.2020
683 Clear -2 1009 38 0 1.09 138 13:19 16.01.2020
684 Clear -2 1009 38 0 0.99 101 12:42 16.01.2020
685 Clear -2 1009 38 0 0.99 101 12:22 16.01.2020
686 Clear -2 1009 38 0 0.99 101 11:43 16.01.2020
687 Clear -2 1009 38 0 0.99 101 11:43 16.01.2020
688 Clear -2 1009 38 0 0.99 101 11:24 16.01.2020
689 Clear 6 1004 20 0 0.77 99 10:59 16.01.2020
690 Clear 6 1004 20 0 0.77 99 10:38 16.01.2020
691 Clear 6 1004 20 0 0.77 99 10:20 16.01.2020
692 Clear 6 1004 20 0 0.77 99 09:56 16.01.2020
693 Clear 6 1004 20 0 0.77 99 09:37 16.01.2020
694 Clear 6 1004 20 0 0.77 99 09:19 16.01.2020
695 Clear 6 1004 20 0 0.77 99 08:48 16.01.2020
696 Clear 6 1004 16 0 1.24 179 08:29 16.01.2020
697 Clear 2 1008 27 0 2.11 195 07:57 16.01.2020
698 Clear 2 1008 27 0 2.11 195 07:37 16.01.2020
699 Clear 2 1008 27 0 2.11 195 07:18 16.01.2020
700 Clear 2 1008 27 0 2.11 195 06:42 16.01.2020
701 Clear 2 1008 27 0 2.11 195 05:58 16.01.2020
702 Clear 2 1008 27 0 2.11 195 05:40 16.01.2020
703 Clear -3 1017 44 0 1.73 185 04:37 16.01.2020
704 Clear -3 1017 44 0 1.73 185 04:37 16.01.2020
705 Clear -3 1017 44 0 1.73 185 03:28 16.01.2020
706 Clear -3 1017 44 0 1.73 185 02:42 16.01.2020
707 Clear -10 1017 72 0 1.57 129 00:53 16.01.2020
708 Clear -10 1017 72 0 1.57 129 00:24 16.01.2020
709 Clear -10 1017 72 0 1.57 129 23:48 15.01.2020
710 Clear -10 1017 72 0 1.57 129 23:23 15.01.2020
711 Clear -10 1017 72 0 1.57 129 23:23 15.01.2020
712 Clear -8 1017 53 0 1.9 139 22:58 15.01.2020
713 Clear -8 1017 53 0 1.9 139 22:40 15.01.2020
714 Clear -8 1017 53 0 1.9 139 22:19 15.01.2020
715 Clear -8 1017 53 0 1.9 139 21:58 15.01.2020
716 Clear -8 1017 53 0 1.9 139 21:39 15.01.2020
717 Clear -8 1017 53 0 1.9 139 21:20 15.01.2020
718 Clear -8 1017 53 0 1.9 139 20:58 15.01.2020
719 Clear -8 1017 53 0 1.9 139 20:58 15.01.2020
720 Clear -8 1017 53 0 1.9 139 20:40 15.01.2020
721 Clear -6 1016 44 0 1.78 149 20:21 15.01.2020
722 Clear -6 1016 44 0 1.78 149 19:55 15.01.2020
723 Clear -6 1016 44 0 1.78 149 19:37 15.01.2020
724 Clear -6 1016 44 0 1.78 149 19:19 15.01.2020
725 Clear -6 1016 44 0 1.78 149 18:57 15.01.2020
726 Clear -6 1016 44 0 1.78 149 18:57 15.01.2020
727 Clear -6 1016 44 0 1.78 149 18:38 15.01.2020
728 Clear -6 1016 44 0 1.78 149 18:20 15.01.2020
729 Clear -6 1016 44 0 1.78 149 18:20 15.01.2020
730 Clear -6 1016 44 0 1.78 149 17:58 15.01.2020
731 Clear -6 1016 44 0 1.78 149 17:40 15.01.2020
732 Clear -4 1015 30 0 1.33 175 17:21 15.01.2020
733 Clear -4 1015 30 0 1.33 175 16:42 15.01.2020
734 Clear -4 1015 30 0 1.33 175 16:24 15.01.2020
735 Clear -4 1015 30 0 1.33 175 15:59 15.01.2020
736 Clear -4 1015 30 0 1.33 175 15:41 15.01.2020
737 Clear -4 1015 30 0 1.33 175 15:20 15.01.2020
738 Clear -4 1015 30 0 1.33 175 14:45 15.01.2020
739 Clear -3 1011 24 0 1.39 232 14:21 15.01.2020
740 Clear -3 1011 24 0 1.39 232 13:58 15.01.2020
741 Clear -3 1011 24 0 1.39 232 13:40 15.01.2020
742 Clear -3 1011 24 0 1.39 232 13:22 15.01.2020
743 Clear -3 1011 27 0 1.09 226 12:55 15.01.2020
744 Clear -3 1011 27 0 1.09 226 12:36 15.01.2020
745 Clear -3 1011 27 0 1.09 226 12:18 15.01.2020
746 Clear -3 1011 27 0 1.09 226 11:38 15.01.2020
747 Clear 6 1007 15 0 2.13 215 11:20 15.01.2020
748 Clear 6 1007 15 0 2.13 215 10:48 15.01.2020
749 Clear 6 1007 15 0 2.13 215 10:29 15.01.2020
750 Clear 6 1007 15 0 2.13 215 09:59 15.01.2020
751 Clear 6 1007 15 0 2.13 215 09:41 15.01.2020
752 Clear 6 1007 15 0 2.13 215 09:21 15.01.2020
753 Clear 6 1007 15 0 2.13 215 08:44 15.01.2020
754 Clear 6 1007 15 0 2.13 215 08:44 15.01.2020
755 Clear 6 1007 16 0 2.73 189 08:26 15.01.2020
756 Clear 3 1010 27 0 2.7 196 07:54 15.01.2020
757 Clear 3 1010 27 0 2.7 196 07:33 15.01.2020
758 Clear 3 1010 27 0 2.7 196 06:54 15.01.2020
759 Clear 3 1010 27 0 2.7 196 06:28 15.01.2020
760 Clear 3 1010 27 0 2.7 196 05:32 15.01.2020
761 Clear -3 1017 43 0 1.73 168 03:20 15.01.2020
762 Clear -9 1016 68 0 1.46 139 01:48 15.01.2020
763 Clear -9 1016 69 0 1.61 142 01:22 15.01.2020
764 Clear -9 1016 69 0 1.61 142 00:37 15.01.2020
765 Clear -9 1016 69 0 1.61 142 00:19 15.01.2020
766 Clear -9 1016 69 0 1.61 142 23:46 14.01.2020
767 Clear -9 1016 69 0 1.61 142 23:28 14.01.2020
768 Clear -7 1016 53 0 1.66 134 22:57 14.01.2020
769 Clear -7 1016 53 0 1.66 134 22:39 14.01.2020
770 Clear -7 1016 53 0 1.66 134 22:18 14.01.2020
771 Clear -7 1016 53 0 1.66 134 21:57 14.01.2020
772 Clear -7 1016 53 0 1.66 134 21:38 14.01.2020
773 Clear -7 1016 53 0 1.66 134 21:19 14.01.2020
774 Clear -7 1016 53 0 1.66 134 20:42 14.01.2020
775 Clear -7 1016 53 0 1.66 134 20:23 14.01.2020
776 Clear -6 1015 44 0 1.64 154 19:57 14.01.2020
777 Clear -6 1015 44 0 1.64 154 19:39 14.01.2020
778 Clear -6 1015 44 0 1.64 154 19:21 14.01.2020
779 Clear -6 1015 44 0 1.64 154 18:59 14.01.2020
780 Clear -6 1015 44 0 1.64 154 18:40 14.01.2020
781 Clear -6 1015 44 0 1.64 154 18:20 14.01.2020
782 Clear -6 1015 44 0 1.64 154 17:55 14.01.2020
783 Clear -6 1015 44 0 1.64 154 17:36 14.01.2020
784 Clear -4 1014 32 0 1.86 158 17:18 14.01.2020
785 Clear -4 1014 32 0 1.86 158 16:42 14.01.2020
786 Clear -4 1014 32 0 1.86 158 16:22 14.01.2020
787 Clear -4 1014 32 0 1.86 158 15:56 14.01.2020
788 Clear -4 1014 32 0 1.86 158 15:38 14.01.2020
789 Clear -4 1014 32 0 1.86 158 15:19 14.01.2020
790 Clear -4 1014 32 0 1.86 158 14:43 14.01.2020
791 Clear -2 1009 15 0 2.26 299 14:20 14.01.2020
792 Clear -2 1009 15 0 2.26 299 13:55 14.01.2020
793 Clear -2 1009 15 0 2.26 299 13:37 14.01.2020
794 Clear -1 1009 16 0 2.46 304 13:18 14.01.2020
795 Clear -1 1009 16 0 2.46 304 12:41 14.01.2020
796 Clear -1 1009 16 0 2.46 304 12:20 14.01.2020
797 Clear -1 1009 16 0 2.46 304 11:43 14.01.2020
798 Clear -1 1009 16 0 2.46 304 11:23 14.01.2020
799 Clear 9 1004 6 0 4.08 244 10:59 14.01.2020
800 Clear 9 1004 6 0 4.08 244 10:40 14.01.2020
801 Clear 9 1004 6 0 4.08 244 10:20 14.01.2020
802 Clear 9 1004 6 0 4.08 244 09:58 14.01.2020
803 Clear 9 1004 6 0 4.08 244 09:40 14.01.2020
804 Clear 9 1004 6 0 4.08 244 09:20 14.01.2020
805 Clear 9 1004 6 0 4.08 244 08:48 14.01.2020
806 Clear 9 1004 6 0 4.08 244 08:25 14.01.2020
807 Clear 5 1008 22 0 2.79 197 07:56 14.01.2020
808 Clear 5 1008 22 0 2.79 197 07:33 14.01.2020
809 Clear 5 1008 22 0 2.79 197 06:56 14.01.2020
810 Clear 5 1008 22 0 2.79 197 06:34 14.01.2020
811 Clear 5 1008 22 0 2.79 197 05:28 14.01.2020
812 Clear -1 1015 31 0 1.69 168 03:52 14.01.2020
813 Clear -1 1015 31 0 1.69 168 03:52 14.01.2020
814 Clear -1 1015 31 0 1.69 168 02:50 14.01.2020
815 Clear -8 1015 52 0 1.89 143 01:58 14.01.2020
816 Clear -8 1015 49 0 1.83 139 00:53 14.01.2020
817 Clear -8 1015 49 0 1.83 139 00:35 14.01.2020
818 Clear -8 1015 49 0 1.83 139 23:56 13.01.2020
819 Clear -8 1015 49 0 1.83 139 23:37 13.01.2020
820 Clear -6 1015 41 0 1.97 151 23:18 13.01.2020
821 Clear -6 1015 41 0 1.97 151 22:43 13.01.2020
822 Clear -6 1015 41 0 1.97 151 22:22 13.01.2020
823 Clear -6 1015 41 0 1.97 151 22:22 13.01.2020
824 Clear -6 1015 41 0 1.97 151 21:58 13.01.2020
825 Clear -6 1015 41 0 1.97 151 21:38 13.01.2020
826 Clear -6 1015 41 0 1.97 151 21:19 13.01.2020
827 Clear -6 1015 41 0 1.97 151 20:59 13.01.2020
828 Clear -6 1015 41 0 1.97 151 20:59 13.01.2020
829 Clear -6 1015 41 0 1.97 151 20:41 13.01.2020
830 Clear -6 1015 41 0 1.97 151 20:22 13.01.2020
831 Clear -6 1015 41 0 1.97 151 20:22 13.01.2020
832 Clear -7 1014 38 0 1.66 138 20:22 13.01.2020
833 Clear -5 1013 33 0 1.59 101 19:59 13.01.2020
834 Clear -5 1013 33 0 1.59 101 19:40 13.01.2020
835 Clear -5 1013 33 0 1.59 101 19:20 13.01.2020
836 Clear -5 1013 33 0 1.59 101 18:57 13.01.2020
837 Clear -5 1013 33 0 1.59 101 18:37 13.01.2020
838 Clear -5 1013 33 0 1.59 101 18:19 13.01.2020
839 Clear -5 1013 33 0 1.59 101 17:55 13.01.2020
840 Clear -5 1013 33 0 1.59 101 17:36 13.01.2020
841 Clear -5 1013 33 0 1.59 101 17:36 13.01.2020
842 Clear -4 1013 26 0 0.91 144 17:18 13.01.2020
843 Clear -4 1013 26 0 0.91 144 16:40 13.01.2020
844 Clear -4 1013 26 0 0.91 144 16:40 13.01.2020
845 Clear -4 1013 26 0 0.91 144 16:21 13.01.2020
846 Clear -4 1013 26 0 0.91 144 15:54 13.01.2020
847 Clear -4 1013 26 0 0.91 144 15:36 13.01.2020
848 Clear -4 1013 26 0 0.91 144 15:18 13.01.2020
849 Clear -4 1013 26 0 0.91 144 14:42 13.01.2020
850 Clear -4 1013 26 0 0.91 144 14:23 13.01.2020
851 Clear -2 1009 20 0 1.28 170 13:57 13.01.2020
852 Clear -2 1009 20 0 1.28 170 13:39 13.01.2020
853 Clear -2 1009 21 0 1.2 178 13:21 13.01.2020
854 Clear -2 1009 21 0 1.2 178 12:54 13.01.2020
855 Clear -2 1009 21 0 1.2 178 12:36 13.01.2020
856 Clear -2 1009 21 0 1.2 178 12:18 13.01.2020
857 Clear -2 1009 21 0 1.2 178 11:39 13.01.2020
858 Clear 8 1005 8 0 0.53 180 11:19 13.01.2020
859 Clear 8 1005 8 0 0.53 180 10:57 13.01.2020
860 Clear 8 1005 8 0 0.53 180 10:38 13.01.2020
861 Clear 8 1005 8 0 0.53 180 10:20 13.01.2020
862 Clear 8 1005 8 0 0.53 180 10:20 13.01.2020
863 Clear 8 1005 8 0 0.53 180 09:56 13.01.2020
864 Clear 8 1005 8 0 0.53 180 09:38 13.01.2020
865 Clear 8 1005 8 0 0.53 180 09:19 13.01.2020
866 Clear 8 1005 8 0 0.53 180 08:39 13.01.2020
867 Clouds 4 1011 10 0 0.49 231 08:20 13.01.2020
868 Clouds 4 1011 10 0 0.49 231 07:46 13.01.2020
869 Clouds 4 1011 10 0 0.49 231 07:27 13.01.2020
870 Clouds 4 1011 10 0 0.49 231 06:40 13.01.2020
871 Clouds 4 1011 10 0 0.49 231 06:19 13.01.2020
872 Clouds -1 1017 14 0 0.69 56 05:22 13.01.2020
873 Clouds -1 1017 14 0 0.69 56 03:52 13.01.2020
874 Clouds -1 1017 14 0 0.69 56 03:22 13.01.2020
875 Clouds -1 1017 14 0 0.69 56 02:39 13.01.2020
876 Clear -11 1016 48 0 0.98 29 02:18 13.01.2020
877 Clear -11 1016 49 0 1.04 40 00:59 13.01.2020
878 Clear -11 1016 49 0 1.04 40 00:40 13.01.2020
879 Clear -11 1016 49 0 1.04 40 00:21 13.01.2020
880 Clear -11 1016 49 0 1.04 40 23:42 12.01.2020
881 Clear -11 1016 49 0 1.04 40 23:23 12.01.2020
882 Clouds -9 1017 41 0 1.09 25 22:57 12.01.2020
883 Clouds -9 1017 41 0 1.09 25 22:39 12.01.2020
884 Clouds -9 1017 41 0 1.09 25 22:21 12.01.2020
885 Clouds -9 1017 41 0 1.09 25 21:55 12.01.2020
886 Clouds -9 1017 41 0 1.09 25 21:55 12.01.2020
887 Clouds -9 1017 41 0 1.09 25 21:37 12.01.2020
888 Clouds -9 1017 41 0 1.09 25 21:19 12.01.2020
889 Clouds -9 1017 41 0 1.09 25 20:56 12.01.2020
890 Clouds -9 1017 41 0 1.09 25 20:37 12.01.2020
891 Clouds -8 1018 41 0 0.94 16 20:19 12.01.2020
892 Clouds -8 1017 41 0 0.63 20 19:55 12.01.2020
893 Clouds -8 1017 41 0 0.63 20 19:37 12.01.2020
894 Clouds -8 1017 41 0 0.63 20 19:18 12.01.2020
895 Clouds -8 1017 41 0 0.63 20 18:56 12.01.2020
896 Clouds -8 1017 41 0 0.63 20 18:38 12.01.2020
897 Clouds -8 1017 41 0 0.63 20 18:19 12.01.2020
898 Clouds -8 1017 41 0 0.63 20 17:42 12.01.2020
899 Clouds -6 1018 21 0 0.75 21 17:21 12.01.2020
900 Clouds -6 1018 21 0 0.75 21 16:58 12.01.2020
901 Clouds -6 1018 21 0 0.75 21 16:39 12.01.2020
902 Clouds -6 1018 21 0 0.75 21 16:20 12.01.2020
903 Clouds -6 1018 21 0 0.75 21 15:56 12.01.2020
904 Clouds -6 1018 21 0 0.75 21 15:38 12.01.2020
905 Clouds -6 1018 21 0 0.75 21 15:20 12.01.2020
906 Clouds -6 1018 21 0 0.75 21 14:42 12.01.2020
907 Clouds -6 1018 21 0 0.75 21 14:23 12.01.2020
908 Clouds -5 1016 19 0 0.28 301 13:57 12.01.2020
909 Clouds -5 1016 19 0 0.28 301 13:39 12.01.2020
910 Clouds -5 1015 19 0 0.19 295 13:20 12.01.2020
911 Clouds -5 1015 19 0 0.19 295 12:56 12.01.2020
912 Clouds -5 1015 19 0 0.19 295 12:37 12.01.2020
913 Clouds -5 1015 19 0 0.19 295 12:19 12.01.2020
914 Clouds -5 1015 19 0 0.19 295 11:42 12.01.2020
915 Clouds -5 1015 19 0 0.19 295 11:22 12.01.2020
916 Clear 5 1011 9 0 0.41 223 10:56 12.01.2020
917 Clear 5 1011 9 0 0.41 223 10:37 12.01.2020
918 Clear 5 1011 9 0 0.41 223 10:19 12.01.2020
919 Clear 5 1011 9 0 0.41 223 09:42 12.01.2020
920 Clear 5 1011 9 0 0.41 223 09:23 12.01.2020
921 Clear 5 1011 9 0 0.41 223 08:48 12.01.2020
922 Clear 4 1012 8 0 0.52 193 08:24 12.01.2020
923 Clear 1 1017 9 0 0.99 203 07:49 12.01.2020
924 Clear 1 1017 9 0 0.99 203 07:30 12.01.2020
925 Clear 1 1017 9 0 0.99 203 07:00 12.01.2020
926 Clear 1 1017 9 0 0.99 203 06:38 12.01.2020
927 Clear 1 1017 9 0 0.99 203 05:55 12.01.2020
928 Clear -5 1025 15 0 0.76 28 04:56 12.01.2020
929 Clear -5 1025 15 0 0.76 28 03:43 12.01.2020
930 Clear -5 1025 15 0 0.76 28 02:48 12.01.2020
931 Clear -5 1025 15 0 0.76 28 02:24 12.01.2020
932 Clear -13 1026 43 0 1.46 37 01:34 12.01.2020
933 Clear -13 1026 43 0 1.46 37 00:46 12.01.2020
934 Clear -13 1026 43 0 1.46 37 00:22 12.01.2020
935 Clear -13 1026 43 0 1.46 37 23:57 11.01.2020
936 Clear -13 1026 43 0 1.46 37 23:39 11.01.2020
937 Clear -11 1026 33 0 1.84 5 23:18 11.01.2020
938 Clear -11 1026 33 0 1.84 5 22:56 11.01.2020
939 Clear -11 1026 33 0 1.84 5 22:37 11.01.2020
940 Clear -11 1026 33 0 1.84 5 22:19 11.01.2020
941 Clear -11 1026 33 0 1.84 5 21:44 11.01.2020
942 Clear -11 1026 33 0 1.84 5 21:19 11.01.2020
943 Clear -11 1026 33 0 1.84 5 20:57 11.01.2020
944 Clear -11 1026 33 0 1.84 5 20:39 11.01.2020
945 Clear -10 1024 24 0 1.57 346 20:19 11.01.2020
946 Clear -10 1024 24 0 1.57 346 19:57 11.01.2020
947 Clear -10 1024 24 0 1.57 346 19:38 11.01.2020
948 Clear -10 1024 24 0 1.57 346 19:38 11.01.2020
949 Clear -10 1024 24 0 1.57 346 19:20 11.01.2020
950 Clear -10 1024 24 0 1.57 346 18:55 11.01.2020
951 Clear -10 1024 24 0 1.57 346 18:37 11.01.2020
952 Clear -10 1024 24 0 1.57 346 18:18 11.01.2020
953 Clear -10 1024 24 0 1.57 346 17:57 11.01.2020
954 Clear -10 1024 24 0 1.57 346 17:39 11.01.2020
955 Clear -8 1024 19 0 1.88 306 17:18 11.01.2020
956 Clear -8 1024 19 0 1.88 306 16:44 11.01.2020
957 Clear -8 1024 19 0 1.88 306 16:25 11.01.2020
958 Clear -8 1024 19 0 1.88 306 15:56 11.01.2020
959 Clear -8 1024 19 0 1.88 306 15:38 11.01.2020
960 Clear -8 1024 19 0 1.88 306 15:20 11.01.2020
961 Clear -8 1024 19 0 1.88 306 14:46 11.01.2020
962 Clear -8 1024 19 0 1.88 306 14:46 11.01.2020
963 Clear -8 1024 19 0 1.88 306 14:25 11.01.2020
964 Clear -8 1024 19 0 1.88 306 14:25 11.01.2020
965 Clouds -6 1020 15 0 1.77 289 13:58 11.01.2020
966 Clouds -6 1020 15 0 1.77 289 13:38 11.01.2020
967 Clouds -6 1020 15 0 1.69 302 13:20 11.01.2020
968 Clouds -6 1020 15 0 1.69 302 12:56 11.01.2020
969 Clouds -6 1020 15 0 1.69 302 12:37 11.01.2020
970 Clouds -6 1020 15 0 1.69 302 12:19 11.01.2020
971 Clouds -6 1020 15 0 1.69 302 11:42 11.01.2020
972 Clouds -6 1020 15 0 1.69 302 11:24 11.01.2020
973 Clear 2 1016 6 0 7.54 287 10:50 11.01.2020
974 Clear 2 1016 6 0 7.54 287 10:30 11.01.2020
975 Clear 2 1016 6 0 7.54 287 09:44 11.01.2020
976 Clear 2 1016 6 0 7.54 287 09:21 11.01.2020
977 Clear 2 1016 6 0 7.54 287 09:21 11.01.2020
978 Clear 2 1016 6 0 7.54 287 08:59 11.01.2020
979 Clear 2 1016 6 0 7.54 287 08:40 11.01.2020
980 Clear -4 1020 15 0 1.06 141 08:19 11.01.2020
981 Clear -4 1020 15 0 1.06 141 07:43 11.01.2020
982 Clear -4 1020 15 0 1.06 141 07:24 11.01.2020
983 Clear -4 1020 15 0 1.06 141 06:43 11.01.2020
984 Clear -4 1020 15 0 1.06 141 05:31 11.01.2020
985 Clear -10 1028 29 0 1.34 33 04:43 11.01.2020
986 Clear -10 1028 29 0 1.34 33 04:25 11.01.2020
987 Clear -10 1028 29 0 1.34 33 02:48 11.01.2020
988 Clear -16 1029 51 0 1.73 35 01:48 11.01.2020
989 Clear -16 1029 51 0 1.73 35 01:30 11.01.2020
990 Clear -16 1030 53 0 1.63 35 00:58 11.01.2020
991 Clear -16 1030 53 0 1.63 35 00:29 11.01.2020
992 Clear -16 1030 53 0 1.63 35 23:59 10.01.2020
993 Clear -16 1030 53 0 1.63 35 23:39 10.01.2020
994 Clear -14 1029 50 0 2.02 39 23:20 10.01.2020
995 Clear -14 1029 50 0 2.02 39 22:54 10.01.2020
996 Clear -14 1029 50 0 2.02 39 22:36 10.01.2020
997 Clear -14 1029 50 0 2.02 39 22:18 10.01.2020
998 Clear -14 1029 50 0 2.02 39 21:41 10.01.2020
999 Clear -14 1029 50 0 2.02 39 21:21 10.01.2020
1000 Clear -14 1029 50 0 2.02 39 20:59 10.01.2020
1001 Clear -14 1029 50 0 2.02 39 20:41 10.01.2020
1002 Clear -14 1028 51 0 2.04 38 20:23 10.01.2020
1003 Clear -13 1028 48 0 2.36 34 19:42 10.01.2020
1004 Clear -13 1028 48 0 2.36 34 19:21 10.01.2020
1005 Clear -13 1028 48 0 2.36 34 18:58 10.01.2020
1006 Clear -13 1028 48 0 2.36 34 18:40 10.01.2020
1007 Clear -13 1028 48 0 2.36 34 18:19 10.01.2020
1008 Clear -13 1028 48 0 2.36 34 17:57 10.01.2020
1009 Clear -13 1028 48 0 2.36 34 17:38 10.01.2020
1010 Clear -10 1028 42 0 3.04 38 17:20 10.01.2020
1011 Clear -10 1028 42 0 3.04 38 17:20 10.01.2020
1012 Clear -10 1028 42 0 3.04 38 16:55 10.01.2020
1013 Clear -10 1028 42 0 3.04 38 16:37 10.01.2020
1014 Clear -10 1028 42 0 3.04 38 16:19 10.01.2020
1015 Clear -10 1028 42 0 3.04 38 15:55 10.01.2020
1016 Clear -10 1028 42 0 3.04 38 15:36 10.01.2020
1017 Clear -10 1028 42 0 3.04 38 15:36 10.01.2020
1018 Clear -10 1028 42 0 3.04 38 15:18 10.01.2020
1019 Clear -10 1028 42 0 3.04 38 14:54 10.01.2020
1020 Clear -10 1028 42 0 3.04 38 14:36 10.01.2020
1021 Clouds -8 1022 25 0 2.3 58 14:18 10.01.2020
1022 Clouds -8 1022 25 0 2.3 58 13:41 10.01.2020
1023 Clouds -8 1023 23 0 2.1 65 13:23 10.01.2020
1024 Clouds -8 1023 23 0 2.1 65 12:58 10.01.2020
1025 Clouds -8 1023 23 0 2.1 65 12:38 10.01.2020
1026 Clouds -8 1023 23 0 2.1 65 12:19 10.01.2020
1027 Clouds -8 1023 23 0 2.1 65 11:55 10.01.2020
1028 Clouds -8 1023 23 0 2.1 65 11:37 10.01.2020
1029 Clouds -2 1017 11 0 0.7 64 11:18 10.01.2020
1030 Clouds -2 1017 11 0 0.7 64 10:43 10.01.2020
1031 Clouds -2 1017 11 0 0.7 64 10:24 10.01.2020
1032 Clouds -2 1017 11 0 0.7 64 09:56 10.01.2020
1033 Clouds -2 1017 11 0 0.7 64 09:38 10.01.2020
1034 Clouds -2 1017 11 0 0.7 64 09:20 10.01.2020
1035 Clouds -2 1017 11 0 0.7 64 08:42 10.01.2020
1036 Clouds -3 1017 15 0 1.52 94 08:23 10.01.2020
1037 Clouds -3 1017 15 0 1.52 94 08:23 10.01.2020
1038 Clouds -4 1020 24 0 1.61 52 07:46 10.01.2020
1039 Clouds -4 1020 24 0 1.61 52 07:26 10.01.2020
1040 Clouds -4 1020 24 0 1.61 52 06:50 10.01.2020
1041 Clouds -4 1020 24 0 1.61 52 06:26 10.01.2020
1042 Clouds -4 1020 24 0 1.61 52 05:51 10.01.2020
1043 Clouds -7 1025 42 0 0.86 42 03:45 10.01.2020
1044 Clouds -7 1025 42 0 0.86 42 03:22 10.01.2020
1045 Clouds -7 1025 42 0 0.86 42 02:49 10.01.2020
1046 Clear -13 1025 69 0 1.17 116 01:47 10.01.2020
1047 Clear -13 1025 69 0 1.17 116 01:28 10.01.2020
1048 Clear -13 1025 70 0 0.97 112 00:44 10.01.2020
1049 Clear -13 1025 70 0 0.97 112 23:58 09.01.2020
1050 Clear -13 1025 70 0 0.97 112 23:39 09.01.2020
1051 Clear -12 1021 65 0 1.7 136 23:20 09.01.2020
1052 Clear -12 1021 65 0 1.7 136 22:58 09.01.2020
1053 Clear -12 1021 65 0 1.7 136 22:39 09.01.2020
1054 Clear -12 1021 65 0 1.7 136 22:39 09.01.2020
1055 Clear -12 1021 65 0 1.7 136 22:19 09.01.2020
1056 Clear -12 1021 65 0 1.7 136 22:19 09.01.2020
1057 Clear -12 1021 65 0 1.7 136 21:57 09.01.2020
1058 Clear -12 1021 65 0 1.7 136 21:38 09.01.2020
1059 Clear -12 1021 65 0 1.7 136 21:19 09.01.2020
1060 Clear -12 1021 65 0 1.7 136 20:58 09.01.2020
1061 Clear -12 1021 65 0 1.7 136 20:39 09.01.2020
1062 Clear -10 1018 56 0 2.11 140 20:20 09.01.2020
1063 Clear -10 1018 56 0 2.11 140 19:58 09.01.2020
1064 Clear -10 1018 56 0 2.11 140 19:38 09.01.2020
1065 Clear -10 1018 56 0 2.11 140 19:19 09.01.2020
1066 Clear -10 1018 56 0 2.11 140 18:56 09.01.2020
1067 Clear -10 1018 56 0 2.11 140 18:37 09.01.2020
1068 Clear -10 1018 56 0 2.11 140 18:19 09.01.2020
1069 Clear -10 1018 56 0 2.11 140 17:41 09.01.2020
1070 Clear -10 1018 56 0 2.11 140 17:41 09.01.2020
1071 Clear -8 1015 46 0 2.45 155 17:19 09.01.2020
1072 Clear -8 1015 46 0 2.45 155 16:56 09.01.2020
1073 Clear -8 1015 46 0 2.45 155 16:36 09.01.2020
1074 Clear -8 1015 46 0 2.45 155 16:18 09.01.2020
1075 Clear -8 1015 46 0 2.45 155 15:41 09.01.2020
1076 Clear -8 1015 46 0 2.45 155 15:20 09.01.2020
1077 Clear -8 1015 46 0 2.45 155 14:55 09.01.2020
1078 Clear -8 1015 46 0 2.45 155 14:36 09.01.2020
1079 Clear -8 1015 46 0 2.45 155 14:36 09.01.2020
1080 Clouds -6 1009 30 0 1.63 263 14:18 09.01.2020
1081 Clouds -6 1009 30 0 1.63 263 13:54 09.01.2020
1082 Clouds -6 1009 30 0 1.63 263 13:36 09.01.2020
1083 Clouds -6 1009 30 0 1.41 257 13:18 09.01.2020
1084 Clouds -6 1009 30 0 1.41 257 12:41 09.01.2020
1085 Clouds -6 1009 30 0 1.41 257 12:22 09.01.2020
1086 Clouds -6 1009 30 0 1.41 257 11:59 09.01.2020
1087 Clouds -6 1009 30 0 1.41 257 11:41 09.01.2020
1088 Clouds -6 1009 30 0 1.41 257 11:22 09.01.2020
1089 Clouds 0 1004 18 0 2.47 180 10:55 09.01.2020
1090 -273 0 0 0 0 0 10:37 09.01.2020
1091 Clouds 0 1004 18 0 2.47 180 10:19 09.01.2020
1092 Clouds 0 1004 18 0 2.47 180 09:41 09.01.2020
1093 Clouds 0 1004 18 0 2.47 180 09:22 09.01.2020
1094 Clouds 0 1004 18 0 2.47 180 08:56 09.01.2020
1095 Clouds 0 1004 18 0 2.47 180 08:37 09.01.2020
1096 Clouds -2 1008 33 0 2.4 173 08:19 09.01.2020
1097 Clouds -2 1008 30 0 2.26 183 07:44 09.01.2020
1098 Clouds -2 1008 30 0 2.26 183 07:24 09.01.2020
1099 Clouds -2 1008 30 0 2.26 183 06:39 09.01.2020
1100 Clouds -2 1008 30 0 2.26 183 06:21 09.01.2020
1101 Clouds -2 1008 30 0 2.26 183 05:50 09.01.2020
1102 Clouds -8 1016 55 0 1.99 179 04:45 09.01.2020
1103 Clouds -8 1016 55 0 1.99 179 03:54 09.01.2020
1104 Clouds -8 1016 55 0 1.99 179 02:55 09.01.2020
1105 Clouds -8 1016 55 0 1.99 179 02:30 09.01.2020
1106 Clouds -12 1018 82 0 1.08 119 01:40 09.01.2020
1107 Clouds -12 1020 79 0 1.61 154 00:44 09.01.2020
1108 Clouds -12 1020 79 0 1.61 154 00:22 09.01.2020
1109 Clouds -12 1020 79 0 1.61 154 23:56 08.01.2020
1110 Clouds -12 1020 79 0 1.61 154 23:37 08.01.2020
1111 Clear -12 1019 84 0 1.94 135 23:19 08.01.2020
1112 Clear -12 1019 84 0 1.94 135 22:39 08.01.2020
1113 Clear -12 1019 84 0 1.94 135 22:21 08.01.2020
1114 Clear -12 1019 84 0 1.94 135 22:21 08.01.2020
1115 Clear -12 1019 84 0 1.94 135 21:58 08.01.2020
1116 Clear -12 1019 84 0 1.94 135 21:39 08.01.2020
1117 Clear -12 1019 84 0 1.94 135 21:20 08.01.2020
1118 Clear -12 1019 84 0 1.94 135 20:58 08.01.2020
1119 Clear -12 1019 84 0 1.94 135 20:40 08.01.2020
1120 Clouds -9 1018 78 0 2.54 142 20:20 08.01.2020
1121 Clouds -9 1018 78 0 2.54 142 19:57 08.01.2020
1122 Clouds -9 1018 78 0 2.54 142 19:37 08.01.2020
1123 Clouds -9 1018 78 0 2.54 142 19:19 08.01.2020
1124 Clouds -9 1018 78 0 2.54 142 18:56 08.01.2020
1125 Clouds -9 1018 78 0 2.54 142 18:37 08.01.2020
1126 Clouds -9 1018 78 0 2.54 142 18:18 08.01.2020
1127 Clouds -9 1018 78 0 2.54 142 17:56 08.01.2020
1128 Clouds -9 1018 78 0 2.54 142 17:37 08.01.2020
1129 Clouds -7 1017 57 0 2.64 122 17:18 08.01.2020
1130 Clouds -7 1017 57 0 2.64 122 16:54 08.01.2020
1131 Clouds -7 1017 57 0 2.64 122 16:36 08.01.2020
1132 Clouds -7 1017 57 0 2.64 122 16:18 08.01.2020
1133 Clouds -7 1017 57 0 2.64 122 15:41 08.01.2020
1134 Clouds -7 1017 57 0 2.64 122 15:21 08.01.2020
1135 Clouds -7 1017 57 0 2.64 122 14:57 08.01.2020
1136 Clouds -7 1017 57 0 2.64 122 14:39 08.01.2020
1137 Clouds -6 1012 39 0 1.04 310 14:20 08.01.2020
1138 Clouds -6 1012 39 0 1.04 310 13:40 08.01.2020
1139 Clouds -5 1012 34 0 1.36 137 13:19 08.01.2020
1140 Clouds -5 1012 34 0 1.36 137 12:42 08.01.2020
1141 Clouds -5 1012 34 0 1.36 137 12:19 08.01.2020
1142 Clouds -5 1012 34 0 1.36 137 11:55 08.01.2020
1143 Clouds -5 1012 34 0 1.36 137 11:37 08.01.2020
1144 Clouds 2 1008 16 0 3.83 197 11:19 08.01.2020
1145 Clouds 2 1008 16 0 3.83 197 10:55 08.01.2020
1146 Clouds 2 1008 16 0 3.83 197 10:37 08.01.2020
1147 Clouds 2 1008 16 0 3.83 197 10:18 08.01.2020
1148 Clouds 2 1008 16 0 3.83 197 09:41 08.01.2020
1149 Clouds 2 1008 16 0 3.83 197 09:19 08.01.2020
1150 Clouds 2 1008 16 0 3.83 197 08:57 08.01.2020
1151 Clouds 2 1008 16 0 3.83 197 08:37 08.01.2020
1152 Clear -2 1011 35 0 2.37 173 08:19 08.01.2020
1153 Clear -2 1011 35 0 2.37 173 07:49 08.01.2020
1154 Clear -2 1011 35 0 2.37 173 07:30 08.01.2020
1155 Clear -2 1011 35 0 2.37 173 06:48 08.01.2020
1156 Clear -2 1011 35 0 2.37 173 06:24 08.01.2020
1157 Clear -2 1011 35 0 2.37 173 05:41 08.01.2020
1158 Clear -7 1017 57 0 2.39 169 04:57 08.01.2020
1159 Clear -7 1017 57 0 2.39 169 04:25 08.01.2020
1160 Clear -7 1017 57 0 2.39 169 02:45 08.01.2020
1161 Clear -7 1017 57 0 2.39 169 02:22 08.01.2020
1162 Clouds -12 1019 83 0 2.12 128 01:48 08.01.2020
1163 Clouds -12 1019 83 0 2.12 128 01:23 08.01.2020
1164 Clouds -12 1019 87 0 1.87 131 00:38 08.01.2020
1165 Clouds -12 1019 87 0 1.87 131 00:20 08.01.2020
1166 Clouds -12 1019 87 0 1.87 131 23:43 07.01.2020
1167 Clear -10 1017 76 0 2.34 133 23:20 07.01.2020
1168 Clear -10 1017 76 0 2.34 133 22:40 07.01.2020
1169 Clear -10 1017 76 0 2.34 133 22:20 07.01.2020
1170 Clear -10 1017 76 0 2.34 133 21:57 07.01.2020
1171 Clear -10 1017 76 0 2.34 133 21:38 07.01.2020
1172 Clear -10 1017 76 0 2.34 133 21:20 07.01.2020
1173 Clear -10 1017 76 0 2.34 133 20:55 07.01.2020
1174 Clear -10 1017 76 0 2.34 133 20:37 07.01.2020
1175 Clouds -8 1017 50 0 2.18 133 20:19 07.01.2020
1176 Clouds -8 1017 50 0 2.18 133 19:38 07.01.2020
1177 Clouds -8 1017 50 0 2.18 133 19:20 07.01.2020
1178 Clouds -8 1017 50 0 2.18 133 18:58 07.01.2020
1179 Clouds -8 1017 50 0 2.18 133 18:40 07.01.2020
1180 Clouds -8 1017 50 0 2.18 133 18:19 07.01.2020
1181 Clouds -8 1017 50 0 2.18 133 17:59 07.01.2020
1182 Clouds -8 1017 50 0 2.18 133 17:39 07.01.2020
1183 Clouds -4 1016 25 0 0.73 179 17:21 07.01.2020
1184 Clouds -4 1016 25 0 0.73 179 16:57 07.01.2020
1185 Clouds -4 1016 25 0 0.73 179 16:38 07.01.2020
1186 Clouds -4 1016 25 0 0.73 179 16:19 07.01.2020
1187 Clouds -4 1016 25 0 0.73 179 15:58 07.01.2020
1188 Clouds -4 1016 25 0 0.73 179 15:39 07.01.2020
1189 Clouds -4 1016 25 0 0.73 179 15:21 07.01.2020
1190 Clouds -4 1016 25 0 0.73 179 14:54 07.01.2020
1191 Clouds -4 1016 25 0 0.73 179 14:36 07.01.2020
1192 Clouds -5 1011 23 0 2.18 289 14:18 07.01.2020
1193 Clouds -5 1011 23 0 2.18 289 13:39 07.01.2020
1194 Clouds -4 1012 22 0 1.26 160 13:19 07.01.2020
1195 Clouds -4 1012 22 0 1.26 160 12:41 07.01.2020
1196 Clouds -4 1012 22 0 1.26 160 12:20 07.01.2020
1197 Clouds -4 1012 22 0 1.26 160 11:57 07.01.2020
1198 Clouds -4 1012 22 0 1.26 160 11:38 07.01.2020
1199 Clouds 3 1007 13 0 3.18 206 11:20 07.01.2020
1200 Clouds 3 1007 13 0 3.18 206 10:42 07.01.2020
1201 Clouds 3 1007 13 0 3.18 206 10:24 07.01.2020
1202 Clouds 3 1007 13 0 3.18 206 09:58 07.01.2020
1203 Clouds 3 1007 13 0 3.18 206 09:38 07.01.2020
1204 Clouds 3 1007 13 0 3.18 206 09:20 07.01.2020
1205 Clouds 3 1007 13 0 3.18 206 08:43 07.01.2020
1206 Clouds 3 1006 14 0 2 165 08:25 07.01.2020
1207 Clear 0 1010 18 0 2.21 193 07:54 07.01.2020
1208 Clear 0 1010 18 0 2.21 193 07:28 07.01.2020
1209 Clear 0 1010 18 0 2.21 193 07:28 07.01.2020
1210 Clear 0 1010 18 0 2.21 193 07:28 07.01.2020
1211 Clear 0 1010 18 0 2.21 193 06:53 07.01.2020
1212 Clear 0 1010 18 0 2.21 193 06:34 07.01.2020
1213 Clear 0 1010 18 0 2.21 193 05:55 07.01.2020
1214 Clear -6 1017 20 0 1.82 181 04:39 07.01.2020
1215 Clear -6 1017 20 0 1.82 181 03:27 07.01.2020
1216 Clouds -12 1018 34 0 1.8 151 02:22 07.01.2020
1217 Clouds -12 1018 34 0 1.8 151 01:52 07.01.2020
1218 Clouds -12 1018 34 0 1.54 146 01:30 07.01.2020
1219 Clouds -12 1018 34 0 1.54 146 00:37 07.01.2020
1220 Clouds -12 1018 34 0 1.54 146 00:37 07.01.2020
1221 Clouds -12 1018 34 0 1.54 146 00:18 07.01.2020
1222 Clouds -12 1018 34 0 1.54 146 23:39 06.01.2020
1223 Clouds -12 1018 31 0 1.29 134 23:21 06.01.2020
1224 Clouds -12 1018 31 0 1.29 134 22:58 06.01.2020
1225 Clouds -12 1018 31 0 1.29 134 22:39 06.01.2020
1226 Clouds -12 1018 31 0 1.29 134 22:21 06.01.2020
1227 Clouds -12 1018 31 0 1.29 134 21:56 06.01.2020
1228 Clouds -12 1018 31 0 1.29 134 21:38 06.01.2020
1229 Clouds -12 1018 31 0 1.29 134 21:19 06.01.2020
1230 Clouds -12 1018 31 0 1.29 134 21:19 06.01.2020
1231 Clouds -12 1018 31 0 1.29 134 20:56 06.01.2020
1232 Clouds -12 1018 31 0 1.29 134 20:37 06.01.2020
1233 Clouds -10 1018 38 0 1.25 140 20:19 06.01.2020
1234 Clouds -10 1018 39 0 1.19 114 19:55 06.01.2020
1235 Clouds -10 1018 39 0 1.19 114 19:37 06.01.2020
1236 Clouds -10 1018 39 0 1.19 114 19:19 06.01.2020
1237 Clouds -10 1018 39 0 1.19 114 18:45 06.01.2020
1238 Clouds -10 1018 39 0 1.19 114 18:21 06.01.2020
1239 Clouds -10 1018 39 0 1.19 114 17:56 06.01.2020
1240 Clouds -10 1018 39 0 1.19 114 17:37 06.01.2020
1241 Clouds -9 1019 40 0 0.79 194 17:18 06.01.2020
1242 Clouds -9 1019 40 0 0.79 194 16:42 06.01.2020
1243 Clouds -9 1019 40 0 0.79 194 16:42 06.01.2020
1244 Clouds -9 1019 40 0 0.79 194 16:23 06.01.2020
1245 Clouds -9 1019 40 0 0.79 194 15:59 06.01.2020
1246 Clouds -9 1019 40 0 0.79 194 15:37 06.01.2020
1247 Clouds -9 1019 40 0 0.79 194 15:37 06.01.2020
1248 Clouds -9 1019 40 0 0.79 194 15:18 06.01.2020
1249 Clouds -9 1019 40 0 0.79 194 14:42 06.01.2020
1250 Clouds -9 1019 40 0 0.79 194 14:23 06.01.2020
1251 Clouds -9 1019 40 0 0.79 194 14:23 06.01.2020
1252 Clouds -9 1019 40 0 0.79 194 14:23 06.01.2020
1253 Clouds -5 1017 23 0 2.53 321 13:59 06.01.2020
1254 Clouds -5 1017 23 0 2.53 321 13:39 06.01.2020
1255 Clouds -6 1017 21 0 1.11 281 13:21 06.01.2020
1256 Clouds -6 1017 21 0 1.11 281 12:58 06.01.2020
1257 Clouds -6 1017 21 0 1.11 281 12:39 06.01.2020
1258 Clouds -6 1017 21 0 1.11 281 12:39 06.01.2020
1259 Clouds -6 1017 21 0 1.11 281 12:19 06.01.2020
1260 Clouds -6 1017 21 0 1.11 281 11:43 06.01.2020
1261 Clouds -6 1017 21 0 1.11 281 11:24 06.01.2020
1262 Clouds 2 1013 7 0 7.31 283 11:00 06.01.2020
1263 Clouds 2 1013 7 0 7.31 283 10:41 06.01.2020
1264 Clouds 2 1013 7 0 7.31 283 10:21 06.01.2020
1265 Clouds 2 1013 7 0 7.31 283 09:42 06.01.2020
1266 Clouds 2 1013 7 0 7.31 283 09:24 06.01.2020
1267 Clouds 2 1013 7 0 7.31 283 08:57 06.01.2020
1268 Clouds 2 1013 7 0 7.31 283 08:38 06.01.2020
1269 Clouds 2 1013 7 0 7.31 283 08:38 06.01.2020
1270 Clouds -5 1018 14 0 2.19 168 07:58 06.01.2020
1271 Clouds -5 1018 14 0 2.19 168 07:39 06.01.2020
1272 Clouds -5 1018 14 0 2.19 168 06:53 06.01.2020
1273 Clouds -5 1018 14 0 2.19 168 06:35 06.01.2020
1274 Clouds -5 1018 14 0 2.19 168 05:48 06.01.2020
1275 Clouds -5 1018 14 0 2.19 168 05:23 06.01.2020
1276 Clouds -10 1027 24 0 0.33 203 04:23 06.01.2020
1277 Clouds -10 1027 24 0 0.33 203 03:30 06.01.2020
1278 Clouds -10 1027 24 0 0.33 203 02:27 06.01.2020
1279 Clear -17 1032 49 0 0.77 348 01:53 06.01.2020
1280 Clear -17 1032 49 0 0.77 348 01:30 06.01.2020
1281 Clear -17 1032 49 0 0.86 348 00:46 06.01.2020
1282 Clear -17 1032 49 0 0.86 348 00:27 06.01.2020
1283 Clear -17 1032 49 0 0.86 348 23:57 05.01.2020
1284 Clear -17 1032 49 0 0.86 348 23:57 05.01.2020
1285 Clear -17 1032 49 0 0.86 348 23:38 05.01.2020
1286 Clear -15 1029 43 0 1.96 336 23:20 05.01.2020
1287 Clear -15 1029 43 0 1.96 336 22:40 05.01.2020
1288 Clear -15 1029 43 0 1.96 336 22:21 05.01.2020
1289 Clear -15 1029 43 0 1.96 336 21:58 05.01.2020
1290 Clear -15 1029 43 0 1.96 336 21:40 05.01.2020
1291 Clear -15 1029 43 0 1.96 336 21:20 05.01.2020
1292 Clear -15 1029 43 0 1.96 336 20:56 05.01.2020
1293 Clear -15 1029 43 0 1.96 336 20:38 05.01.2020
1294 Clouds -13 1024 50 0 1.93 283 20:19 05.01.2020
1295 Clouds -13 1024 50 0 1.93 283 19:58 05.01.2020
1296 Clouds -13 1024 50 0 1.93 283 19:38 05.01.2020
1297 Clouds -13 1024 50 0 1.93 283 19:20 05.01.2020
1298 Clouds -13 1024 50 0 1.93 283 19:20 05.01.2020
1299 Clouds -13 1024 50 0 1.93 283 18:55 05.01.2020
1300 Clouds -13 1024 50 0 1.93 283 18:37 05.01.2020
1301 Clouds -13 1024 50 0 1.93 283 18:19 05.01.2020
1302 Clouds -13 1024 50 0 1.93 283 17:57 05.01.2020
1303 Clouds -13 1024 50 0 1.93 283 17:38 05.01.2020
1304 Clouds -13 1024 50 0 1.93 283 17:38 05.01.2020
1305 Clouds -13 1024 50 0 1.93 283 17:38 05.01.2020
1306 Clouds -12 1019 58 0 1.44 242 17:19 05.01.2020
1307 Clouds -12 1019 58 0 1.44 242 16:56 05.01.2020
1308 Clouds -12 1019 58 0 1.44 242 16:38 05.01.2020
1309 Clouds -12 1019 58 0 1.44 242 16:19 05.01.2020
1310 Clouds -12 1019 58 0 1.44 242 15:39 05.01.2020
1311 Clouds -12 1019 58 0 1.44 242 15:38 05.01.2020
1312 Clouds -12 1019 58 0 1.44 242 15:20 05.01.2020
1313 Clouds -12 1019 58 0 1.44 242 14:56 05.01.2020
1314 Clouds -12 1019 58 0 1.44 242 14:38 05.01.2020
1315 Snow -9 1012 51 0 0.54 179 14:19 05.01.2020
1316 Snow -9 1012 51 0 0.54 179 13:56 05.01.2020
1317 Snow -9 1012 51 0 0.54 179 13:56 05.01.2020
1318 Snow -9 1012 51 0 0.54 179 13:37 05.01.2020
1319 Snow -9 1012 51 0 0.54 179 13:18 05.01.2020
1320 Snow -9 1012 51 0 0.54 179 13:18 05.01.2020
1321 Snow -9 1012 73 0 1.36 143 12:55 05.01.2020
1322 Snow -9 1012 73 0 1.36 143 12:37 05.01.2020
1323 Snow -9 1012 73 0 1.36 143 12:18 05.01.2020
1324 Snow -9 1012 73 0 1.36 143 11:43 05.01.2020
1325 Snow -5 1005 38 0 3.23 173 11:20 05.01.2020
1326 Snow -5 1005 38 0 3.23 173 10:58 05.01.2020
1327 Snow -5 1005 38 0 3.23 173 10:39 05.01.2020
1328 Snow -5 1005 38 0 3.23 173 10:39 05.01.2020
1329 Snow -5 1005 38 0 3.23 173 10:39 05.01.2020
1330 Snow -5 1005 38 0 3.23 173 10:39 05.01.2020
1331 Snow -5 1005 38 0 3.23 173 10:19 05.01.2020
1332 Snow -5 1005 38 0 3.23 173 09:42 05.01.2020
1333 Snow -5 1005 38 0 3.23 173 09:22 05.01.2020
1334 Snow -5 1005 38 0 3.23 173 08:50 05.01.2020
1335 Snow -5 1005 38 0 3.23 173 08:31 05.01.2020
1336 Clouds -5 1006 32 0 2.85 187 07:57 05.01.2020
1337 Clouds -5 1006 32 0 2.85 187 07:38 05.01.2020
1338 Clouds -5 1006 32 0 2.85 187 07:20 05.01.2020
1339 Clouds -5 1006 32 0 2.85 187 06:21 05.01.2020
1340 Clouds -5 1006 32 0 2.85 187 05:33 05.01.2020
1341 Clouds -9 1010 62 0 2.09 176 04:48 05.01.2020
1342 Clouds -9 1010 62 0 2.09 176 04:18 05.01.2020
1343 Clouds -9 1010 62 0 2.09 176 02:50 05.01.2020
1344 Clouds -9 1010 62 0 2.09 176 02:32 05.01.2020
1345 Clouds -11 1012 70 0 1.78 143 01:49 05.01.2020
1346 Clouds -12 1013 70 0 1.49 142 01:19 05.01.2020
1347 Clouds -12 1013 70 0 1.49 142 00:55 05.01.2020
1348 Clouds -12 1013 70 0 1.49 142 00:36 05.01.2020
1349 Clouds -12 1013 70 0 1.49 142 00:18 05.01.2020
1350 Clouds -12 1013 70 0 1.49 142 23:40 04.01.2020
1351 Clouds -11 1012 63 0 1.6 146 23:20 04.01.2020
1352 Clouds -11 1012 63 0 1.6 146 22:40 04.01.2020
1353 Clouds -11 1012 63 0 1.6 146 22:22 04.01.2020
1354 Clouds -11 1012 63 0 1.6 146 21:58 04.01.2020
1355 Clouds -11 1012 63 0 1.6 146 21:40 04.01.2020
1356 Clouds -11 1012 63 0 1.6 146 21:22 04.01.2020
1357 Clouds -11 1012 63 0 1.6 146 20:59 04.01.2020
1358 Clouds -11 1012 63 0 1.6 146 20:40 04.01.2020
1359 Clouds -9 1010 50 0 2.12 143 20:22 04.01.2020
1360 Clouds -9 1010 50 0 2.12 143 19:57 04.01.2020
1361 Clouds -9 1010 50 0 2.12 143 19:38 04.01.2020
1362 Clouds -9 1010 50 0 2.12 143 19:20 04.01.2020
1363 Clouds -9 1010 50 0 2.12 143 18:56 04.01.2020
1364 Clouds -9 1010 50 0 2.12 143 18:37 04.01.2020
1365 Clouds -9 1010 50 0 2.12 143 18:19 04.01.2020
1366 Clouds -9 1010 50 0 2.12 143 17:42 04.01.2020
1367 Clouds -9 1010 50 0 2.12 143 17:24 04.01.2020
1368 Clouds -6 1009 38 0 2.79 148 16:59 04.01.2020
1369 Clouds -6 1009 38 0 2.79 148 16:40 04.01.2020
1370 Clouds -6 1009 38 0 2.79 148 16:22 04.01.2020
1371 Clouds -6 1009 38 0 2.79 148 15:56 04.01.2020
1372 Clouds -6 1009 38 0 2.79 148 15:38 04.01.2020
1373 Clouds -6 1009 38 0 2.79 148 15:19 04.01.2020
1374 Clouds -6 1009 38 0 2.79 148 14:54 04.01.2020
1375 Clouds -6 1009 38 0 2.79 148 14:36 04.01.2020
1376 Clouds -7 1006 47 0 1.42 179 14:18 04.01.2020
1377 Clouds -7 1006 47 0 1.42 179 13:39 04.01.2020
1378 Snow -7 1006 57 0 1.2 130 13:20 04.01.2020
1379 Snow -7 1006 57 0 1.2 130 12:59 04.01.2020
1380 Snow -7 1006 57 0 1.2 130 12:40 04.01.2020
1381 Snow -7 1006 57 0 1.2 130 12:40 04.01.2020
1382 Snow -7 1006 57 0 1.2 130 12:19 04.01.2020
1383 Snow -7 1006 57 0 1.2 130 11:57 04.01.2020
1384 Snow -7 1006 57 0 1.2 130 11:38 04.01.2020
1385 Snow -3 1003 42 0 1.6 217 11:19 04.01.2020
1386 Snow -3 1003 42 0 1.6 217 10:41 04.01.2020
1387 Snow -3 1003 42 0 1.6 217 10:22 04.01.2020
1388 Snow -3 1003 42 0 1.6 217 09:50 04.01.2020
1389 Snow -3 1003 42 0 1.6 217 09:26 04.01.2020
1390 Snow -3 1003 42 0 1.6 217 09:26 04.01.2020
1391 Snow -3 1003 42 0 1.6 217 08:58 04.01.2020
1392 Snow -3 1003 42 0 1.6 217 08:39 04.01.2020
1393 Clouds -3 1007 32 0 2.83 192 08:20 04.01.2020
1394 Clouds -3 1008 31 0 2.57 186 07:42 04.01.2020
1395 Clouds -3 1008 31 0 2.57 186 06:52 04.01.2020
1396 Clouds -3 1008 31 0 2.57 186 06:33 04.01.2020
1397 Clouds -7 1013 59 0 2.03 186 05:19 04.01.2020
1398 Clouds -7 1013 59 0 2.03 186 04:34 04.01.2020
1399 Clouds -7 1013 59 0 2.03 186 03:43 04.01.2020
1400 Clouds -7 1013 59 0 2.03 186 03:18 04.01.2020
1401 Clouds -10 1015 84 0 0.91 178 02:21 04.01.2020
1402 Clouds -10 1015 84 0 0.91 178 01:55 04.01.2020
1403 Clouds -10 1015 84 0 0.91 178 01:31 04.01.2020
1404 Clouds -10 1015 83 0 0.89 167 00:43 04.01.2020
1405 Clouds -10 1015 83 0 0.89 167 00:23 04.01.2020
1406 Clouds -10 1015 83 0 0.89 167 23:44 03.01.2020
1407 Clouds -10 1015 83 0 0.89 167 23:25 03.01.2020
1408 Clouds -11 1014 84 0 1.49 165 22:41 03.01.2020
1409 Clouds -11 1014 84 0 1.49 165 22:20 03.01.2020
1410 Clouds -11 1014 84 0 1.49 165 21:59 03.01.2020
1411 Clouds -11 1014 84 0 1.49 165 21:39 03.01.2020
1412 Clouds -11 1014 84 0 1.49 165 21:19 03.01.2020
1413 Clouds -11 1014 84 0 1.49 165 21:19 03.01.2020
1414 Clouds -11 1014 84 0 1.49 165 20:59 03.01.2020
1415 Clouds -11 1014 84 0 1.49 165 20:41 03.01.2020
1416 Snow -11 1014 88 0 0.17 168 20:18 03.01.2020
1417 Snow -11 1014 88 0 0.17 168 19:57 03.01.2020
1418 Snow -11 1014 88 0 0.17 168 19:38 03.01.2020
1419 Snow -11 1014 88 0 0.17 168 19:20 03.01.2020
1420 Snow -11 1014 88 0 0.17 168 18:44 03.01.2020
1421 Snow -11 1014 88 0 0.17 168 18:25 03.01.2020
1422 Snow -11 1014 88 0 0.17 168 17:56 03.01.2020
1423 Snow -11 1014 88 0 0.17 168 17:38 03.01.2020
1424 Snow -11 1014 88 0 0.17 168 17:38 03.01.2020
1425 Snow -9 1015 91 0 0.19 301 17:19 03.01.2020
1426 Snow -9 1015 91 0 0.19 301 16:42 03.01.2020
1427 Snow -9 1015 91 0 0.19 301 16:24 03.01.2020
1428 Snow -9 1015 91 0 0.19 301 15:57 03.01.2020
1429 Snow -9 1015 91 0 0.19 301 15:39 03.01.2020
1430 Snow -9 1015 91 0 0.19 301 15:18 03.01.2020
1431 Snow -9 1015 91 0 0.19 301 14:39 03.01.2020
1432 Clouds -5 1013 51 0 0.86 175 14:19 03.01.2020
1433 Clouds -5 1013 51 0 0.86 175 13:56 03.01.2020
1434 Clouds -6 1013 52 0 0.8 189 13:37 03.01.2020
1435 Clouds -6 1013 52 0 0.8 189 13:19 03.01.2020
1436 Clouds -6 1013 52 0 0.8 189 12:39 03.01.2020
1437 Clouds -6 1013 52 0 0.8 189 12:21 03.01.2020
1438 Clouds -6 1013 52 0 0.8 189 11:48 03.01.2020
1439 Clouds -6 1013 52 0 0.8 189 11:29 03.01.2020
1440 Clouds -2 1012 29 0 2.6 157 10:47 03.01.2020
1441 Clouds -2 1012 29 0 2.6 157 10:27 03.01.2020
1442 Clouds -2 1012 29 0 2.6 157 09:59 03.01.2020
1443 Clouds -2 1012 29 0 2.6 157 09:40 03.01.2020
1444 Clouds -2 1012 29 0 2.6 157 09:22 03.01.2020
1445 Clouds -2 1012 29 0 2.6 157 08:57 03.01.2020
1446 Clouds -2 1012 29 0 2.6 157 08:38 03.01.2020
1447 Clouds -3 1017 26 0 2.66 181 08:19 03.01.2020
1448 Clouds -3 1017 26 0 2.66 181 07:40 03.01.2020
1449 Clouds -3 1017 26 0 2.66 181 07:19 03.01.2020
1450 Clouds -3 1017 26 0 2.66 181 06:51 03.01.2020
1451 Clouds -3 1017 26 0 2.66 181 06:33 03.01.2020
1452 Clouds -3 1017 26 0 2.66 181 05:47 03.01.2020
1453 Clouds -7 1023 50 0 1.79 158 04:27 03.01.2020
1454 Clouds -7 1023 50 0 1.79 158 03:18 03.01.2020
1455 Clouds -7 1023 50 0 1.79 158 02:45 03.01.2020
1456 Clear -13 1024 79 0 1.59 155 01:45 03.01.2020
1457 Clouds -12 1024 76 0 1.41 100 00:56 03.01.2020
1458 Clouds -12 1024 76 0 1.41 100 00:32 03.01.2020
1459 Clouds -12 1024 76 0 1.41 100 23:58 02.01.2020
1460 Clouds -12 1024 76 0 1.41 100 23:39 02.01.2020
1461 Clouds -11 1023 68 0 1.97 138 23:19 02.01.2020
1462 Clouds -11 1023 68 0 1.97 138 22:57 02.01.2020
1463 Clouds -11 1023 68 0 1.97 138 22:39 02.01.2020
1464 Clouds -11 1023 68 0 1.97 138 22:18 02.01.2020
1465 Clouds -11 1023 68 0 1.97 138 21:54 02.01.2020
1466 Clouds -11 1023 68 0 1.97 138 21:36 02.01.2020
1467 Clouds -11 1023 68 0 1.97 138 21:36 02.01.2020
1468 Clouds -11 1023 68 0 1.97 138 21:18 02.01.2020
1469 Clouds -11 1023 68 0 1.97 138 20:40 02.01.2020
1470 Clear -10 1022 56 0 1.85 137 20:21 02.01.2020
1471 Clear -10 1022 56 0 1.85 137 19:56 02.01.2020
1472 Clear -10 1022 56 0 1.85 137 19:38 02.01.2020
1473 Clear -10 1022 56 0 1.85 137 19:19 02.01.2020
1474 Clear -10 1022 56 0 1.85 137 18:58 02.01.2020
1475 Clear -10 1022 56 0 1.85 137 18:40 02.01.2020
1476 Clear -10 1022 56 0 1.85 137 18:22 02.01.2020
1477 Clear -10 1022 56 0 1.85 137 17:57 02.01.2020
1478 Clear -10 1022 56 0 1.85 137 17:37 02.01.2020
1479 Clouds -8 1021 46 0 1.64 142 17:19 02.01.2020
1480 Clouds -8 1021 46 0 1.64 142 16:57 02.01.2020
1481 Clouds -8 1021 46 0 1.64 142 16:38 02.01.2020
1482 Clouds -8 1021 46 0 1.64 142 16:20 02.01.2020
1483 Clouds -8 1021 46 0 1.64 142 15:56 02.01.2020
1484 Clouds -8 1021 46 0 1.64 142 15:37 02.01.2020
1485 Clouds -8 1021 46 0 1.64 142 15:19 02.01.2020
1486 Clouds -8 1021 46 0 1.64 142 14:54 02.01.2020
1487 Clouds -8 1021 46 0 1.64 142 14:54 02.01.2020
1488 Clouds -8 1021 46 0 1.64 142 14:36 02.01.2020
1489 Clouds -6 1018 37 0 0.79 153 14:18 02.01.2020
1490 Clouds -6 1018 37 0 0.79 153 13:45 02.01.2020
1491 Clouds -6 1018 37 0 0.79 153 13:26 02.01.2020
1492 Clouds -6 1018 44 0 1.58 39 12:43 02.01.2020
1493 Clouds -6 1018 44 0 1.58 39 12:24 02.01.2020
1494 Clouds -6 1018 44 0 1.58 39 11:43 02.01.2020
1495 Clouds -6 1018 44 0 1.58 39 11:24 02.01.2020
1496 Clouds 0 1015 24 0 1.42 246 10:56 02.01.2020
1497 Clouds 0 1015 24 0 1.42 246 10:37 02.01.2020
1498 Clouds 0 1015 24 0 1.42 246 10:18 02.01.2020
1499 Clouds 0 1015 24 0 1.42 246 09:41 02.01.2020
1500 Clouds 0 1015 24 0 1.42 246 09:22 02.01.2020
1501 Clouds 0 1015 24 0 1.42 246 08:44 02.01.2020
1502 Clouds 0 1015 24 0 1.42 246 08:25 02.01.2020
1503 Clouds -2 1019 27 0 3.05 177 07:48 02.01.2020
1504 Clouds -2 1019 27 0 3.05 177 07:28 02.01.2020
1505 Clouds -2 1019 27 0 3.05 177 06:43 02.01.2020
1506 Clouds -2 1019 27 0 3.05 177 05:58 02.01.2020
1507 Clouds -6 1026 42 0 1.99 164 04:40 02.01.2020
1508 Clouds -6 1026 42 0 1.99 164 04:21 02.01.2020
1509 Clouds -6 1026 42 0 1.99 164 02:28 02.01.2020
1510 Clouds -12 1026 69 0 2.05 146 01:57 02.01.2020
1511 Clouds -12 1026 69 0 2.05 146 01:32 02.01.2020
1512 Clouds -13 1026 70 0 1.73 139 00:53 02.01.2020
1513 Clouds -13 1026 70 0 1.73 139 00:32 02.01.2020
1514 Clouds -13 1026 70 0 1.73 139 23:48 01.01.2020
1515 Clouds -13 1026 70 0 1.73 139 23:25 01.01.2020
1516 Clouds -11 1025 51 0 1.85 135 22:55 01.01.2020
1517 Clouds -11 1025 51 0 1.85 135 22:37 01.01.2020
1518 Clouds -11 1025 51 0 1.85 135 22:18 01.01.2020
1519 Clouds -11 1025 51 0 1.85 135 21:42 01.01.2020
1520 Clouds -11 1025 51 0 1.85 135 21:21 01.01.2020
1521 Clouds -11 1025 51 0 1.85 135 20:59 01.01.2020
1522 Clouds -11 1025 51 0 1.85 135 20:39 01.01.2020
1523 Clouds -10 1025 39 0 2.4 150 20:21 01.01.2020
1524 Clouds -10 1025 39 0 2.4 150 19:58 01.01.2020
1525 Clouds -10 1025 39 0 2.4 150 19:39 01.01.2020
1526 Clouds -10 1025 39 0 2.4 150 19:20 01.01.2020
1527 Clouds -10 1025 39 0 2.4 150 18:57 01.01.2020
1528 Clouds -10 1025 39 0 2.4 150 18:39 01.01.2020
1529 Clouds -10 1025 39 0 2.4 150 18:20 01.01.2020
1530 Clouds -10 1025 39 0 2.4 150 17:59 01.01.2020
1531 Clouds -10 1025 39 0 2.4 150 17:40 01.01.2020
1532 Clouds -8 1024 28 0 2.22 152 17:20 01.01.2020
1533 Clouds -8 1024 28 0 2.22 152 16:59 01.01.2020
1534 Clouds -8 1024 28 0 2.22 152 16:38 01.01.2020
1535 Clouds -8 1024 28 0 2.22 152 16:20 01.01.2020
1536 Clouds -8 1024 28 0 2.22 152 15:57 01.01.2020
1537 Clouds -8 1024 28 0 2.22 152 15:57 01.01.2020
1538 Clouds -8 1024 28 0 2.22 152 15:38 01.01.2020
1539 Clouds -8 1024 28 0 2.22 152 15:20 01.01.2020
1540 Clouds -8 1024 28 0 2.22 152 14:56 01.01.2020
1541 Clouds -8 1024 28 0 2.22 152 14:37 01.01.2020
1542 Clouds -7 1020 19 0 1.26 158 14:19 01.01.2020
1543 Clouds -7 1020 19 0 1.26 158 14:19 01.01.2020
1544 Clouds -7 1020 19 0 1.26 158 13:55 01.01.2020
1545 Clouds -7 1020 19 0 1.26 158 13:36 01.01.2020
1546 Clouds -7 1020 19 0 0.97 114 13:18 01.01.2020
1547 Clouds -7 1020 19 0 0.97 114 12:40 01.01.2020
1548 Clouds -7 1020 19 0 0.97 114 12:20 01.01.2020
1549 Clouds -7 1020 19 0 0.97 114 11:58 01.01.2020
1550 Clouds -7 1020 19 0 0.97 114 11:58 01.01.2020
1551 Clouds -7 1020 19 0 0.97 114 11:39 01.01.2020
1552 Clouds -1 1017 11 0 1.1 170 11:20 01.01.2020
1553 Clouds -1 1017 11 0 1.1 170 10:55 01.01.2020
1554 Clouds -1 1017 11 0 1.1 170 10:55 01.01.2020
1555 Clouds -1 1017 11 0 1.1 170 10:37 01.01.2020
1556 Clouds -1 1017 11 0 1.1 170 10:18 01.01.2020
1557 Clouds -1 1017 11 0 1.1 170 09:40 01.01.2020
1558 Clouds -1 1017 11 0 1.1 170 09:22 01.01.2020
1559 Clouds -1 1017 11 0 1.1 170 08:57 01.01.2020
1560 Clouds -1 1017 11 0 1.1 170 08:57 01.01.2020
1561 Clouds -1 1017 11 0 1.1 170 08:38 01.01.2020
1562 Clouds -1 1017 11 0 1.1 170 08:38 01.01.2020
1563 Clouds -4 1020 15 0 2.45 184 08:20 01.01.2020
1564 Clouds -4 1020 15 0 2.45 184 07:57 01.01.2020
1565 Clouds -4 1020 15 0 2.45 184 07:39 01.01.2020
1566 Clouds -4 1020 15 0 2.45 184 06:55 01.01.2020
1567 Clouds -4 1020 15 0 2.45 184 06:36 01.01.2020
1568 Clouds -4 1020 15 0 2.45 184 05:48 01.01.2020
1569 Clouds -8 1026 29 0 2.11 176 04:20 01.01.2020
1570 Clouds -8 1026 29 0 2.11 176 03:39 01.01.2020
1571 Clouds -8 1026 29 0 2.11 176 03:21 01.01.2020
1572 Clouds -8 1026 29 0 2.11 176 02:41 01.01.2020
1573 Clouds -8 1026 29 0 2.11 176 02:22 01.01.2020
1574 Clear -14 1026 56 0 1.72 146 01:41 01.01.2020
1575 Clear -14 1026 56 0 1.72 146 01:22 01.01.2020
1576 Clear -14 1026 56 0 1.71 144 00:45 01.01.2020
1577 Clear -14 1026 56 0 1.71 144 00:26 01.01.2020
1578 Clear -14 1026 56 0 1.71 144 23:56 31.12.2019
1579 Clear -14 1026 56 0 1.71 144 23:36 31.12.2019
1580 Clear -12 1026 56 0 1.94 132 23:18 31.12.2019
1581 Clear -12 1026 56 0 1.94 132 22:55 31.12.2019
1582 Clear -12 1026 56 0 1.94 132 22:36 31.12.2019
1583 Clear -12 1026 56 0 1.94 132 22:18 31.12.2019
1584 Clear -12 1026 56 0 1.94 132 21:42 31.12.2019
1585 Clear -12 1026 56 0 1.94 132 21:24 31.12.2019
1586 Clear -12 1026 56 0 1.94 132 20:57 31.12.2019
1587 Clear -12 1026 56 0 1.94 132 20:57 31.12.2019
1588 Clear -12 1026 56 0 1.94 132 20:38 31.12.2019
1589 Clear -12 1026 56 0 1.94 132 20:38 31.12.2019
1590 Clouds -10 1024 46 0 1.89 135 20:20 31.12.2019
1591 Clear -11 1023 47 0 1.8 139 19:55 31.12.2019
1592 Clear -11 1023 47 0 1.8 139 19:37 31.12.2019
1593 Clear -11 1023 47 0 1.8 139 19:18 31.12.2019
1594 Clear -11 1023 47 0 1.8 139 18:55 31.12.2019
1595 Clear -11 1023 47 0 1.8 139 18:37 31.12.2019
1596 Clear -11 1023 47 0 1.8 139 18:19 31.12.2019
1597 Clear -11 1023 47 0 1.8 139 17:55 31.12.2019
1598 Clear -11 1023 47 0 1.8 139 17:36 31.12.2019
1599 Clear -8 1022 35 0 2.53 149 17:18 31.12.2019
1600 Clear -8 1022 35 0 2.53 149 16:55 31.12.2019
1601 Clear -8 1022 35 0 2.53 149 16:36 31.12.2019
1602 Clear -8 1022 35 0 2.53 149 16:18 31.12.2019
1603 Clear -8 1022 35 0 2.53 149 15:55 31.12.2019
1604 Clear -8 1022 35 0 2.53 149 15:37 31.12.2019
1605 Clear -8 1022 35 0 2.53 149 15:19 31.12.2019
1606 Clear -8 1022 35 0 2.53 149 14:55 31.12.2019
1607 Clear -8 1022 35 0 2.53 149 14:37 31.12.2019
1608 Clear -8 1022 35 0 2.53 149 14:37 31.12.2019
1609 Clouds -5 1017 21 0 2.83 147 14:18 31.12.2019
1610 Clouds -5 1017 21 0 2.83 147 13:55 31.12.2019
1611 Clouds -5 1017 21 0 2.83 147 13:37 31.12.2019
1612 Clouds -5 1017 22 0 2.91 152 13:19 31.12.2019
1613 Clouds -5 1017 22 0 2.91 152 12:55 31.12.2019
1614 Clouds -5 1017 22 0 2.91 152 12:37 31.12.2019
1615 Clouds -5 1017 22 0 2.91 152 12:18 31.12.2019
1616 Clouds -5 1017 22 0 2.91 152 11:54 31.12.2019
1617 Clouds -5 1017 22 0 2.91 152 11:36 31.12.2019
1618 Clouds 1 1014 13 0 1.62 186 11:18 31.12.2019
1619 Clouds 1 1014 13 0 1.62 186 10:54 31.12.2019
1620 Clouds 1 1014 13 0 1.62 186 10:36 31.12.2019
1621 Clouds 1 1014 13 0 1.62 186 10:18 31.12.2019
1622 Clouds 1 1014 13 0 1.62 186 09:55 31.12.2019
1623 Clouds 1 1014 13 0 1.62 186 09:37 31.12.2019
1624 Clouds 1 1014 13 0 1.62 186 09:37 31.12.2019
1625 Clouds 1 1014 13 0 1.62 186 09:18 31.12.2019
1626 Clouds 1 1014 13 0 1.62 186 08:42 31.12.2019
1627 Clouds 1 1014 13 0 1.62 186 08:42 31.12.2019
1628 Clouds -1 1017 19 0 2.88 183 08:22 31.12.2019
1629 Clouds -1 1017 19 0 2.88 183 07:45 31.12.2019
1630 Clouds -1 1017 19 0 2.88 183 07:22 31.12.2019
1631 Clouds -1 1017 19 0 2.88 183 06:51 31.12.2019
1632 Clouds -1 1017 19 0 2.88 183 06:27 31.12.2019
1633 Clouds -6 1023 38 0 2.23 169 04:55 31.12.2019
1634 Clouds -6 1023 38 0 2.23 169 04:25 31.12.2019
1635 Clouds -6 1023 38 0 2.23 169 02:57 31.12.2019
1636 Clear -13 1023 71 0 1.9 145 02:21 31.12.2019
1637 Clear -13 1023 71 0 1.9 145 02:21 31.12.2019
1638 Clear -13 1023 71 0 1.9 145 01:50 31.12.2019
1639 Clear -13 1023 70 0 1.83 145 01:31 31.12.2019
1640 Clear -13 1023 70 0 1.83 145 00:49 31.12.2019
1641 Clear -13 1023 70 0 1.83 145 00:26 31.12.2019
1642 Clear -13 1023 70 0 1.83 145 23:59 30.12.2019
1643 Clear -13 1023 70 0 1.83 145 23:41 30.12.2019
1644 Clear -13 1023 70 0 1.83 145 23:23 30.12.2019
1645 Clear -11 1021 57 0 1.81 141 22:59 30.12.2019
1646 Clear -11 1021 57 0 1.81 141 22:41 30.12.2019
1647 Clear -11 1021 57 0 1.81 141 22:22 30.12.2019
1648 Clear -11 1021 57 0 1.81 141 21:57 30.12.2019
1649 Clear -11 1021 57 0 1.81 141 21:39 30.12.2019
1650 Clear -11 1021 57 0 1.81 141 21:39 30.12.2019
1651 Clear -11 1021 57 0 1.81 141 21:20 30.12.2019
1652 Clear -11 1021 57 0 1.81 141 20:59 30.12.2019
1653 Clear -11 1021 57 0 1.81 141 20:41 30.12.2019
1654 Clear -9 1020 40 0 2.14 139 20:20 30.12.2019
1655 Clear -9 1020 40 0 2.14 139 19:59 30.12.2019
1656 Clear -9 1020 40 0 2.14 139 19:39 30.12.2019
1657 Clear -9 1020 40 0 2.14 139 19:20 30.12.2019
1658 Clear -9 1020 40 0 2.14 139 18:59 30.12.2019
1659 Clear -9 1020 40 0 2.14 139 18:41 30.12.2019
1660 Clear -9 1020 40 0 2.14 139 18:20 30.12.2019
1661 Clear -9 1020 40 0 2.14 139 17:58 30.12.2019
1662 Clear -9 1020 40 0 2.14 139 17:40 30.12.2019
1663 Clear -7 1020 22 0 2.63 142 17:19 30.12.2019
1664 Clear -7 1020 22 0 2.63 142 16:58 30.12.2019
1665 Clear -7 1020 22 0 2.63 142 16:38 30.12.2019
1666 Clear -7 1020 22 0 2.63 142 16:20 30.12.2019
1667 Clear -7 1020 22 0 2.63 142 15:56 30.12.2019
1668 Clear -7 1020 22 0 2.63 142 15:37 30.12.2019
1669 Clear -7 1020 22 0 2.63 142 15:19 30.12.2019
1670 Clear -7 1020 22 0 2.63 142 14:43 30.12.2019
1671 Clouds -6 1014 14 0 1.54 197 14:21 30.12.2019
1672 Clouds -6 1014 14 0 1.54 197 13:58 30.12.2019
1673 Clouds -6 1014 14 0 1.54 197 13:40 30.12.2019
1674 Clouds -6 1014 14 0 1.54 197 13:40 30.12.2019
1675 Clouds -7 1014 14 0 1.29 207 13:22 30.12.2019
1676 Clouds -7 1014 14 0 1.29 207 12:56 30.12.2019
1677 Clouds -7 1014 14 0 1.29 207 12:37 30.12.2019
1678 Clouds -7 1014 14 0 1.29 207 12:18 30.12.2019
1679 Clouds -7 1014 14 0 1.29 207 11:45 30.12.2019
1680 Clouds 3 1011 6 0 0.81 222 11:20 30.12.2019
1681 Clouds 3 1011 6 0 0.81 222 10:59 30.12.2019
1682 Clouds 3 1011 6 0 0.81 222 10:40 30.12.2019
1683 Clouds 3 1011 6 0 0.81 222 10:19 30.12.2019
1684 Clouds 3 1011 6 0 0.81 222 09:42 30.12.2019
1685 Clouds 3 1011 6 0 0.81 222 09:21 30.12.2019
1686 Clouds 3 1011 6 0 0.81 222 08:57 30.12.2019
1687 Clouds 3 1011 6 0 0.81 222 08:38 30.12.2019
1688 Clear 1 1014 10 0 1.75 201 08:19 30.12.2019
1689 Clear 1 1014 10 0 1.76 201 07:44 30.12.2019
1690 Clear 1 1014 10 0 1.76 201 07:18 30.12.2019
1691 Clear 1 1014 10 0 1.76 201 06:30 30.12.2019
1692 Clear -4 1021 11 0 1.23 172 04:29 30.12.2019
1693 Clear -4 1021 11 0 1.23 172 03:43 30.12.2019
1694 Clear -4 1021 11 0 1.23 172 02:45 30.12.2019
1695 Clear -4 1021 11 0 1.23 172 02:25 30.12.2019
1696 Clear -14 1020 46 0 1.3 138 01:27 30.12.2019
1697 Clear -14 1020 47 0 1.14 141 00:56 30.12.2019
1698 Clear -14 1020 47 0 1.14 141 00:36 30.12.2019
1699 Clear -14 1020 47 0 1.14 141 23:42 29.12.2019
1700 Clear -14 1020 47 0 1.14 141 23:24 29.12.2019
1701 Clear -13 1019 47 0 1.01 118 22:58 29.12.2019
1702 Clear -13 1019 47 0 1.01 118 22:38 29.12.2019
1703 Clear -13 1019 47 0 1.01 118 22:20 29.12.2019
1704 Clear -13 1019 47 0 1.01 118 21:55 29.12.2019
1705 Clear -13 1019 47 0 1.01 118 21:55 29.12.2019
1706 Clear -13 1019 47 0 1.01 118 21:37 29.12.2019
1707 Clear -13 1019 47 0 1.01 118 21:18 29.12.2019
1708 Clear -13 1019 47 0 1.01 118 20:55 29.12.2019
1709 Clear -13 1019 47 0 1.01 118 20:37 29.12.2019
1710 Clear -11 1019 36 0 0.98 141 20:18 29.12.2019
1711 Clear -11 1019 36 0 0.98 141 19:55 29.12.2019
1712 Clear -11 1019 36 0 0.98 141 19:37 29.12.2019
1713 Clear -11 1019 36 0 0.98 141 19:18 29.12.2019
1714 Clear -11 1019 36 0 0.98 141 18:54 29.12.2019
1715 Clear -11 1019 36 0 0.98 141 18:36 29.12.2019
1716 Clear -11 1019 36 0 0.98 141 18:18 29.12.2019
1717 Clear -11 1019 36 0 0.98 141 17:55 29.12.2019
1718 Clear -11 1019 36 0 0.98 141 17:36 29.12.2019
1719 Clear -10 1019 36 0 0.58 187 17:18 29.12.2019
1720 Clear -10 1019 36 0 0.58 187 16:55 29.12.2019
1721 Clear -10 1019 36 0 0.58 187 16:36 29.12.2019
1722 Clear -10 1019 36 0 0.58 187 16:18 29.12.2019
1723 Clear -10 1019 36 0 0.58 187 15:55 29.12.2019
1724 Clear -10 1019 36 0 0.58 187 15:37 29.12.2019
1725 Clear -10 1019 36 0 0.58 187 15:18 29.12.2019
1726 Clear -10 1019 36 0 0.58 187 14:55 29.12.2019
1727 Clear -10 1019 36 0 0.58 187 14:37 29.12.2019
1728 Clear -9 1015 14 0 0.39 213 14:18 29.12.2019
1729 Clear -9 1015 14 0 0.39 213 13:41 29.12.2019
1730 Clear -9 1015 14 0 0.39 213 13:22 29.12.2019
1731 Clear -9 1015 14 0 0.43 249 12:59 29.12.2019
1732 Clear -9 1015 14 0 0.43 249 12:41 29.12.2019
1733 Clear -9 1015 14 0 0.43 249 12:22 29.12.2019
1734 Clear -9 1015 14 0 0.43 249 11:54 29.12.2019
1735 Clear -9 1015 14 0 0.43 249 11:36 29.12.2019
1736 Clear 1 1012 6 0 1.28 196 11:18 29.12.2019
1737 Clear 1 1012 6 0 1.28 196 10:41 29.12.2019
1738 Clear 1 1012 6 0 1.28 196 10:20 29.12.2019
1739 Clear 1 1012 6 0 1.28 196 09:54 29.12.2019
1740 Clear 1 1012 6 0 1.28 196 09:36 29.12.2019
1741 Clear 1 1012 6 0 1.28 196 09:18 29.12.2019
1742 Clear 1 1012 6 0 1.28 196 08:44 29.12.2019
1743 Clear 0 1012 6 0 1.34 195 08:24 29.12.2019
1744 Clear -2 1016 9 0 1.38 202 07:54 29.12.2019
1745 Clear -2 1016 9 0 1.38 202 07:27 29.12.2019
1746 Clear -2 1016 9 0 1.38 202 06:53 29.12.2019
1747 Clear -2 1016 9 0 1.38 202 06:23 29.12.2019
1748 Clear -2 1016 9 0 1.38 202 05:48 29.12.2019
1749 Clear -7 1023 13 0 0.24 30 04:34 29.12.2019
1750 Clear -7 1023 13 0 0.24 30 03:40 29.12.2019
1751 Clear -7 1023 13 0 0.24 30 02:49 29.12.2019
1752 Clear -16 1024 46 0 0.58 57 02:19 29.12.2019
1753 Clear -16 1024 46 0 0.58 57 01:31 29.12.2019
1754 Clear -16 1024 46 0 0.6 38 00:51 29.12.2019
1755 Clear -16 1024 46 0 0.6 38 00:27 29.12.2019
1756 Clear -16 1024 46 0 0.6 38 23:56 28.12.2019
1757 Clear -16 1024 46 0 0.6 38 23:37 28.12.2019
1758 Clear -15 1024 41 0 0.51 101 23:18 28.12.2019
1759 Clear -15 1024 41 0 0.51 101 22:38 28.12.2019
1760 Clear -15 1024 41 0 0.51 101 22:38 28.12.2019
1761 Clear -15 1024 41 0 0.51 101 22:19 28.12.2019
1762 Clear -15 1024 41 0 0.51 101 21:57 28.12.2019
1763 Clear -15 1024 41 0 0.51 101 21:38 28.12.2019
1764 Clear -15 1024 41 0 0.51 101 21:38 28.12.2019
1765 Clear -15 1024 41 0 0.51 101 21:20 28.12.2019
1766 Clear -15 1024 41 0 0.51 101 20:55 28.12.2019
1767 Clear -15 1024 41 0 0.51 101 20:36 28.12.2019
1768 Clear -14 1024 28 0 0.44 158 20:18 28.12.2019
1769 Clear -14 1024 28 0 0.44 158 19:54 28.12.2019
1770 Clear -14 1024 28 0 0.44 158 19:36 28.12.2019
1771 Clear -14 1024 28 0 0.44 158 19:18 28.12.2019
1772 Clear -14 1024 28 0 0.44 158 18:43 28.12.2019
1773 Clear -14 1024 28 0 0.44 158 18:20 28.12.2019
1774 Clear -14 1024 28 0 0.44 158 17:59 28.12.2019
1775 Clear -14 1024 28 0 0.44 158 17:41 28.12.2019
1776 Clear -12 1024 20 0 1.04 155 17:21 28.12.2019
1777 Clear -12 1024 20 0 1.04 155 16:55 28.12.2019
1778 Clear -12 1024 20 0 1.04 155 16:37 28.12.2019
1779 Clear -12 1024 20 0 1.04 155 16:19 28.12.2019
1780 Clear -12 1024 20 0 1.04 155 15:43 28.12.2019
1781 Clear -12 1024 20 0 1.04 155 15:22 28.12.2019
1782 Clear -12 1024 20 0 1.04 155 14:55 28.12.2019
1783 Clear -12 1024 20 0 1.04 155 14:37 28.12.2019
1784 Clear -10 1021 18 0 1.22 176 14:18 28.12.2019
1785 Clear -10 1021 18 0 1.22 176 13:42 28.12.2019
1786 Clear -10 1021 18 0 1.22 176 13:21 28.12.2019
1787 Clear -10 1021 19 0 1.23 180 12:58 28.12.2019
1788 Clear -10 1021 19 0 1.23 180 12:40 28.12.2019
1789 Clear -10 1021 19 0 1.23 180 12:21 28.12.2019
1790 Clear -10 1021 19 0 1.23 180 11:40 28.12.2019
1791 Clear -4 1019 12 0 0.81 148 11:21 28.12.2019
1792 Clear -4 1019 12 0 0.81 148 10:59 28.12.2019
1793 Clear -4 1019 12 0 0.81 148 10:41 28.12.2019
1794 Clear -4 1019 12 0 0.81 148 10:20 28.12.2019
1795 Clear -4 1019 12 0 0.81 148 09:54 28.12.2019
1796 Clear -4 1019 12 0 0.81 148 09:36 28.12.2019
1797 Clear -4 1019 12 0 0.81 148 09:18 28.12.2019
1798 Clear -4 1019 12 0 0.81 148 08:43 28.12.2019
1799 Clear -6 1020 28 0 1.87 349 08:24 28.12.2019
1800 Clear -8 1025 30 0 1.36 339 07:48 28.12.2019
1801 Clear -8 1025 30 0 1.36 339 07:23 28.12.2019
1802 Clear -8 1025 30 0 1.36 339 05:51 28.12.2019
1803 Clear -13 1033 50 0 1.86 21 03:48 28.12.2019
1804 Clear -13 1033 50 0 1.86 21 02:51 28.12.2019
1805 Clear -13 1033 50 0 1.86 21 02:31 28.12.2019
1806 Clear -18 1035 67 0 2.57 25 01:56 28.12.2019
1807 Clear -18 1035 67 0 2.57 25 01:56 28.12.2019
1808 Clear -18 1036 69 0 2.56 21 01:24 28.12.2019
1809 Clear -18 1036 69 0 2.56 21 00:50 28.12.2019
1810 Clear -18 1036 69 0 2.56 21 00:30 28.12.2019
1811 Clear -18 1036 69 0 2.56 21 23:58 27.12.2019
1812 Clear -18 1036 69 0 2.56 21 23:39 27.12.2019
1813 Clear -17 1033 64 0 2.87 22 23:19 27.12.2019
1814 Clear -17 1033 64 0 2.87 22 22:57 27.12.2019
1815 Clear -17 1033 64 0 2.87 22 22:38 27.12.2019
1816 Clear -17 1033 64 0 2.87 22 22:38 27.12.2019
1817 Clear -17 1033 64 0 2.87 22 22:19 27.12.2019
1818 Clear -17 1033 64 0 2.87 22 21:43 27.12.2019
1819 Clear -17 1033 64 0 2.87 22 21:43 27.12.2019
1820 Clear -17 1033 64 0 2.87 22 21:25 27.12.2019
1821 Clear -17 1033 64 0 2.87 22 20:58 27.12.2019
1822 Clear -17 1033 64 0 2.87 22 20:40 27.12.2019
1823 Clear -16 1030 61 0 2.9 19 20:21 27.12.2019
1824 Clear -16 1030 60 0 2.75 19 19:41 27.12.2019
1825 Clear -16 1030 60 0 2.75 19 19:20 27.12.2019
1826 Clear -16 1030 60 0 2.75 19 18:57 27.12.2019
1827 Clear -16 1030 60 0 2.75 19 18:37 27.12.2019
1828 Clear -16 1030 60 0 2.75 19 18:19 27.12.2019
1829 Clear -16 1030 60 0 2.75 19 17:56 27.12.2019
1830 Clear -16 1030 60 0 2.75 19 17:38 27.12.2019
1831 Clear -14 1025 54 0 3.33 17 17:18 27.12.2019
1832 Clear -14 1025 54 0 3.33 17 16:56 27.12.2019
1833 Clear -14 1025 54 0 3.33 17 16:37 27.12.2019
1834 Clear -14 1025 54 0 3.33 17 16:19 27.12.2019
1835 Clear -14 1025 54 0 3.33 17 15:43 27.12.2019
1836 Clear -14 1025 54 0 3.33 17 15:20 27.12.2019
1837 Clear -14 1025 54 0 3.33 17 14:57 27.12.2019
1838 Clear -14 1025 54 0 3.33 17 14:38 27.12.2019
1839 Snow -11 1018 69 0 3.12 15 14:20 27.12.2019
1840 Snow -11 1018 69 0 3.12 15 13:48 27.12.2019
1841 Snow -11 1018 62 0 3.48 20 13:25 27.12.2019
1842 Snow -11 1018 62 0 3.48 20 12:58 27.12.2019
1843 Snow -11 1018 62 0 3.48 20 12:39 27.12.2019
1844 Snow -11 1018 62 0 3.48 20 12:21 27.12.2019
1845 Snow -11 1018 62 0 3.48 20 11:44 27.12.2019
1846 Snow -11 1018 62 0 3.48 20 11:24 27.12.2019
1847 Snow -5 1013 44 0 2.41 9 10:56 27.12.2019
1848 Snow -5 1013 44 0 2.41 9 10:38 27.12.2019
1849 Snow -5 1013 44 0 2.41 9 10:20 27.12.2019
1850 Snow -5 1013 44 0 2.41 9 09:43 27.12.2019
1851 Snow -5 1013 44 0 2.41 9 09:21 27.12.2019
1852 Snow -5 1013 44 0 2.41 9 08:58 27.12.2019
1853 Snow -5 1013 44 0 2.41 9 08:36 27.12.2019
1854 Snow -7 1015 48 0 1.65 356 07:51 27.12.2019
1855 Snow -7 1015 48 0 1.65 356 07:32 27.12.2019
1856 Snow -7 1015 48 0 1.65 356 06:37 27.12.2019
1857 Snow -7 1015 48 0 1.65 356 05:37 27.12.2019
1858 Snow -9 1019 83 0 1.01 37 03:44 27.12.2019
1859 Clouds -10 1018 76 0 1.23 102 02:21 27.12.2019
1860 Clouds -10 1018 76 0 1.23 102 01:38 27.12.2019
1861 Clouds -11 1018 79 0 1.02 84 01:19 27.12.2019
1862 Clouds -11 1018 79 0 1.02 84 00:43 27.12.2019
1863 Clouds -11 1018 79 0 1.02 84 00:24 27.12.2019
1864 Clouds -11 1018 79 0 1.02 84 00:24 27.12.2019
1865 Clouds -11 1018 79 0 1.02 84 23:42 26.12.2019
1866 Clouds -11 1015 66 0 1.48 104 23:22 26.12.2019
1867 Clouds -11 1015 66 0 1.48 104 22:57 26.12.2019
1868 Clouds -11 1015 66 0 1.48 104 22:37 26.12.2019
1869 Clouds -11 1015 66 0 1.48 104 22:18 26.12.2019
1870 Clouds -11 1015 66 0 1.48 104 21:39 26.12.2019
1871 Clouds -11 1015 66 0 1.48 104 21:21 26.12.2019
1872 Clouds -11 1015 66 0 1.48 104 20:47 26.12.2019
1873 Clouds -10 1015 62 0 1.3 107 20:23 26.12.2019
1874 Clouds -9 1013 53 0 2.24 135 19:59 26.12.2019
1875 Clouds -9 1013 53 0 2.24 135 19:40 26.12.2019
1876 Clouds -9 1013 53 0 2.24 135 19:22 26.12.2019
1877 Clouds -9 1013 53 0 2.24 135 18:58 26.12.2019
1878 Clouds -9 1013 53 0 2.24 135 18:40 26.12.2019
1879 Clouds -9 1013 53 0 2.24 135 18:20 26.12.2019
1880 Clouds -9 1013 53 0 2.24 135 17:57 26.12.2019
1881 Clouds -9 1013 53 0 2.24 135 17:38 26.12.2019
1882 Clouds -9 1013 53 0 2.24 135 17:38 26.12.2019
1883 Clouds -7 1011 41 0 2.9 147 17:19 26.12.2019
1884 Clouds -7 1011 41 0 2.9 147 16:45 26.12.2019
1885 Clouds -7 1011 41 0 2.9 147 16:24 26.12.2019
1886 Clouds -7 1011 41 0 2.9 147 15:56 26.12.2019
1887 Clouds -7 1011 41 0 2.9 147 15:38 26.12.2019
1888 Clouds -7 1011 41 0 2.9 147 15:18 26.12.2019
1889 Clouds -7 1011 41 0 2.9 147 14:41 26.12.2019
1890 Clouds -7 1011 41 0 2.9 147 14:22 26.12.2019
1891 Clouds -4 1007 37 0 1.31 181 13:45 26.12.2019
1892 Clouds -5 1007 37 0 1.64 217 13:23 26.12.2019
1893 Clouds -5 1007 37 0 1.64 217 12:58 26.12.2019
1894 Clouds -5 1007 37 0 1.64 217 12:40 26.12.2019
1895 Clouds -5 1007 37 0 1.64 217 12:21 26.12.2019
1896 Clouds -5 1007 37 0 1.64 217 11:58 26.12.2019
1897 Clouds -5 1007 37 0 1.64 217 11:39 26.12.2019
1898 Clouds 0 1004 25 0 3.3 187 11:20 26.12.2019
1899 Clouds 0 1004 25 0 3.3 187 10:49 26.12.2019
1900 Clouds 0 1004 25 0 3.3 187 10:20 26.12.2019
1901 Clouds 0 1004 25 0 3.3 187 09:54 26.12.2019
1902 Clouds 0 1004 25 0 3.3 187 09:32 26.12.2019
1903 Clouds 0 1004 25 0 3.3 187 08:57 26.12.2019
1904 Clouds 0 1004 25 0 3.3 187 08:38 26.12.2019
1905 Clear -2 1009 32 0 2.45 185 08:20 26.12.2019
1906 Clear -2 1009 32 0 2.45 185 07:31 26.12.2019
1907 Clear -2 1009 32 0 2.45 185 06:56 26.12.2019
1908 Clear -2 1009 32 0 2.45 185 06:33 26.12.2019
1909 Clear -2 1009 32 0 2.45 185 05:57 26.12.2019
1910 Clear -2 1009 32 0 2.45 185 05:38 26.12.2019
1911 Clear -6 1015 42 0 0.82 152 04:32 26.12.2019
1912 Clear -6 1015 42 0 0.82 152 03:20 26.12.2019
1913 Clear -6 1015 42 0 0.82 152 02:40 26.12.2019
1914 Clear -13 1015 69 0 0.9 103 02:20 26.12.2019
1915 Clear -13 1015 69 0 0.9 103 01:42 26.12.2019
1916 Clear -13 1015 72 0 1.03 104 01:24 26.12.2019
1917 Clear -13 1015 72 0 1.03 104 00:42 26.12.2019
1918 Clear -13 1015 72 0 1.03 104 00:22 26.12.2019
1919 Clear -13 1015 72 0 1.03 104 23:56 25.12.2019
1920 Clear -13 1015 72 0 1.03 104 23:36 25.12.2019
1921 Clear -11 1013 65 0 1.42 128 23:18 25.12.2019
1922 Clear -11 1013 65 0 1.42 128 22:55 25.12.2019
1923 Clear -11 1013 65 0 1.42 128 22:36 25.12.2019
1924 Clear -11 1013 65 0 1.42 128 22:18 25.12.2019
1925 Clear -11 1013 65 0 1.42 128 21:40 25.12.2019
1926 -273 0 0 0 0 0 21:22 25.12.2019
1927 Clear -11 1013 65 0 1.42 128 20:58 25.12.2019
1928 Clear -11 1013 65 0 1.42 128 20:40 25.12.2019
1929 Clear -9 1013 36 0 1.81 144 20:18 25.12.2019
1930 Clear -9 1013 36 0 1.81 144 19:57 25.12.2019
1931 Clear -9 1013 36 0 1.81 144 19:39 25.12.2019
1932 Clear -9 1013 36 0 1.81 144 19:21 25.12.2019
1933 Clear -9 1013 36 0 1.81 144 18:39 25.12.2019
1934 Clear -9 1013 36 0 1.81 144 18:20 25.12.2019
1935 Clear -9 1013 36 0 1.81 144 17:43 25.12.2019
1936 Clear -8 1012 14 0 1.86 158 17:21 25.12.2019
1937 Clear -8 1012 14 0 1.86 158 16:59 25.12.2019
1938 Clear -8 1012 14 0 1.86 158 16:39 25.12.2019
1939 Clear -8 1012 14 0 1.86 158 16:19 25.12.2019
1940 Clear -8 1012 14 0 1.86 158 16:19 25.12.2019
1941 Clear -8 1012 14 0 1.86 158 15:58 25.12.2019
1942 Clear -8 1012 14 0 1.86 158 15:39 25.12.2019
1943 Clear -8 1012 14 0 1.86 158 15:39 25.12.2019
1944 Clear -8 1012 14 0 1.86 158 15:21 25.12.2019
1945 Clear -8 1012 14 0 1.86 158 14:58 25.12.2019
1946 Clear -8 1012 14 0 1.86 158 14:40 25.12.2019
1947 Clear -5 1008 7 0 3.24 312 14:21 25.12.2019
1948 Clear -5 1008 7 0 3.24 312 14:21 25.12.2019
1949 Clear -5 1008 7 0 3.24 312 14:21 25.12.2019
1950 Clear -5 1008 7 0 3.24 312 13:57 25.12.2019
1951 Clear -5 1008 7 0 3.24 312 13:38 25.12.2019
1952 Clear -5 1008 7 0 3.24 312 13:19 25.12.2019
1953 Clear -6 1008 7 0 2.59 295 12:40 25.12.2019
1954 Clear -6 1008 7 0 2.59 295 12:20 25.12.2019
1955 Clear -6 1008 7 0 2.59 295 11:55 25.12.2019
1956 Clear -6 1008 7 0 2.59 295 11:55 25.12.2019
1957 Clear -6 1008 7 0 2.59 295 11:37 25.12.2019
1958 Clear 5 1002 3 0 8.96 272 11:18 25.12.2019
1959 Clear 5 1002 3 0 8.96 272 10:38 25.12.2019
1960 Clear 5 1002 3 0 8.96 272 10:19 25.12.2019
1961 Clear 5 1002 3 0 8.96 272 09:50 25.12.2019
1962 Clear 5 1002 3 0 8.96 272 09:32 25.12.2019
1963 Clear 5 1002 3 0 8.96 272 08:51 25.12.2019
1964 Clear 5 1002 3 0 8.96 272 08:30 25.12.2019
1965 Clear 1 1007 9 0 2.63 203 07:50 25.12.2019
1966 Clear 1 1007 9 0 2.63 203 07:32 25.12.2019
1967 Clear 1 1007 9 0 2.63 203 06:51 25.12.2019
1968 Clear 1 1007 9 0 2.63 203 06:22 25.12.2019
1969 Clear -5 1012 24 0 1.79 161 05:18 25.12.2019
1970 Clear -5 1012 24 0 1.79 161 04:39 25.12.2019
1971 Clear -5 1012 24 0 1.79 161 04:20 25.12.2019
1972 Clear -5 1012 24 0 1.79 161 03:41 25.12.2019
1973 Clear -5 1012 24 0 1.79 161 02:53 25.12.2019
1974 Clear -5 1012 24 0 1.79 161 02:27 25.12.2019
1975 Clear -14 1013 50 0 0.91 160 01:25 25.12.2019
1976 Clear -14 1013 58 0 1.17 146 00:54 25.12.2019
1977 Clear -14 1013 58 0 1.17 146 00:54 25.12.2019
1978 Clear -14 1013 58 0 1.17 146 00:32 25.12.2019
1979 Clear -14 1013 58 0 1.17 146 23:57 24.12.2019
1980 Clear -14 1013 58 0 1.17 146 23:38 24.12.2019
1981 Clear -11 1013 46 0 1.59 172 23:20 24.12.2019
1982 Clear -11 1013 46 0 1.59 172 22:41 24.12.2019
1983 Clear -11 1013 46 0 1.59 172 22:21 24.12.2019
1984 Clear -11 1013 46 0 1.59 172 21:44 24.12.2019
1985 Clear -11 1013 46 0 1.59 172 21:23 24.12.2019
1986 Clear -11 1013 46 0 1.59 172 20:59 24.12.2019
1987 Clear -11 1013 46 0 1.59 172 20:40 24.12.2019
1988 Clear -10 1014 37 0 1.38 218 20:19 24.12.2019
1989 Clear -10 1014 29 0 1.38 167 19:45 24.12.2019
1990 Clear -10 1014 29 0 1.38 167 19:20 24.12.2019
1991 Clear -10 1014 29 0 1.38 167 18:57 24.12.2019
1992 Clear -10 1014 29 0 1.38 167 18:38 24.12.2019
1993 Clear -10 1014 29 0 1.38 167 18:18 24.12.2019
1994 Clear -10 1014 29 0 1.38 167 17:39 24.12.2019
1995 Clear -8 1013 16 0 1.03 189 17:21 24.12.2019
1996 Clear -8 1013 16 0 1.03 189 16:56 24.12.2019
1997 Clear -8 1013 16 0 1.03 189 16:38 24.12.2019
1998 Clear -8 1013 16 0 1.03 189 16:20 24.12.2019
1999 Clear -8 1013 16 0 1.03 189 15:56 24.12.2019
2000 Clear -8 1013 16 0 1.03 189 15:36 24.12.2019
2001 Clear -8 1013 16 0 1.03 189 15:18 24.12.2019
2002 Clear -8 1013 16 0 1.03 189 14:56 24.12.2019
2003 Clear -8 1013 16 0 1.03 189 14:38 24.12.2019
2004 Clear -5 1009 11 0 2.35 278 14:20 24.12.2019
2005 Clear -5 1009 11 0 2.35 278 13:55 24.12.2019
2006 Clear -5 1009 11 0 2.35 278 13:37 24.12.2019
2007 Clear -5 1009 13 0 2.97 298 13:19 24.12.2019
2008 Clear -5 1009 13 0 2.97 298 12:55 24.12.2019
2009 Clear -5 1009 13 0 2.97 298 12:36 24.12.2019
2010 Clear -5 1009 13 0 2.97 298 12:18 24.12.2019
2011 Clear -5 1009 13 0 2.97 298 11:55 24.12.2019
2012 Clear -5 1009 13 0 2.97 298 11:36 24.12.2019
2013 Clear 4 1004 8 0 4.51 254 11:18 24.12.2019
2014 Clear 4 1004 8 0 4.51 254 10:55 24.12.2019
2015 Clear 4 1004 8 0 4.51 254 10:55 24.12.2019
2016 Clear 4 1004 8 0 4.51 254 10:37 24.12.2019
2017 Clear 4 1004 8 0 4.51 254 10:19 24.12.2019
2018 Clear 4 1004 8 0 4.51 254 09:54 24.12.2019
2019 Clear 4 1004 8 0 4.51 254 09:36 24.12.2019
2020 Clear 4 1004 8 0 4.51 254 09:18 24.12.2019
2021 Clear 4 1004 8 0 4.51 254 08:43 24.12.2019
2022 Clouds 1 1008 28 0 3.5 191 08:20 24.12.2019
2023 Clouds 0 1008 26 0 2.68 189 07:45 24.12.2019
2024 Clouds 0 1008 26 0 2.68 189 07:25 24.12.2019
2025 Clouds 0 1008 26 0 2.68 189 06:58 24.12.2019
2026 Clouds 0 1008 26 0 2.68 189 06:38 24.12.2019
2027 Clouds 0 1008 26 0 2.68 189 06:18 24.12.2019
2028 Clouds -5 1015 44 0 2.19 184 05:20 24.12.2019
2029 Clouds -5 1015 44 0 2.19 184 04:44 24.12.2019
2030 Clouds -5 1015 44 0 2.19 184 03:50 24.12.2019
2031 Clouds -5 1015 44 0 2.19 184 03:18 24.12.2019
2032 Clouds -11 1016 71 0 1.76 149 02:21 24.12.2019
2033 Clouds -11 1016 71 0 1.76 149 01:50 24.12.2019
2034 Clouds -11 1016 73 0 1.58 147 01:21 24.12.2019
2035 Clouds -11 1016 73 0 1.58 147 00:45 24.12.2019
2036 Clouds -11 1016 73 0 1.58 147 00:23 24.12.2019
2037 Clouds -11 1016 73 0 1.58 147 23:56 23.12.2019
2038 Clouds -11 1016 73 0 1.58 147 23:37 23.12.2019
2039 Clear -10 1015 62 0 1.89 137 23:19 23.12.2019
2040 Clear -10 1015 62 0 1.89 137 22:56 23.12.2019
2041 Clear -10 1015 62 0 1.89 137 22:36 23.12.2019
2042 Clear -10 1015 62 0 1.89 137 22:18 23.12.2019
2043 Clear -10 1015 62 0 1.89 137 21:55 23.12.2019
2044 Clear -10 1015 62 0 1.89 137 21:36 23.12.2019
2045 Clear -10 1015 62 0 1.89 137 21:18 23.12.2019
2046 Clear -10 1015 62 0 1.89 137 20:56 23.12.2019
2047 Clear -10 1015 62 0 1.89 137 20:38 23.12.2019
2048 Clear -8 1015 55 0 1.61 136 20:18 23.12.2019
2049 Clear -8 1015 55 0 1.61 136 19:55 23.12.2019
2050 Clear -8 1015 55 0 1.61 136 19:37 23.12.2019
2051 Clear -8 1015 55 0 1.61 136 19:19 23.12.2019
2052 Clear -8 1015 55 0 1.61 136 18:55 23.12.2019
2053 Clear -8 1015 55 0 1.61 136 18:37 23.12.2019
2054 Clear -8 1015 55 0 1.61 136 18:19 23.12.2019
2055 Clear -8 1015 55 0 1.61 136 17:55 23.12.2019
2056 Clear -8 1015 55 0 1.61 136 17:37 23.12.2019
2057 Clear -7 1014 24 0 1.54 157 17:18 23.12.2019
2058 Clear -7 1014 24 0 1.54 157 16:42 23.12.2019
2059 Clear -7 1014 24 0 1.54 157 16:19 23.12.2019
2060 Clear -7 1014 24 0 1.54 157 15:59 23.12.2019
2061 Clear -7 1014 24 0 1.54 157 15:38 23.12.2019
2062 Clear -7 1014 24 0 1.54 157 15:20 23.12.2019
2063 Clear -7 1014 24 0 1.54 157 14:59 23.12.2019
2064 Clear -7 1014 24 0 1.54 157 14:41 23.12.2019
2065 Clear -7 1014 24 0 1.54 157 14:23 23.12.2019
2066 Clear -6 1009 13 0 0.97 191 13:58 23.12.2019
2067 Clear -6 1009 13 0 0.97 191 13:40 23.12.2019
2068 Clear -6 1009 13 0 0.97 191 13:22 23.12.2019
2069 Clear -6 1009 13 0 0.97 191 13:22 23.12.2019
2070 Clear -5 1009 15 0 1.32 206 12:58 23.12.2019
2071 Clear -5 1009 15 0 1.32 206 12:39 23.12.2019
2072 Clear -5 1009 15 0 1.32 206 12:20 23.12.2019
2073 Clear -5 1009 15 0 1.32 206 11:44 23.12.2019
2074 Clear -5 1009 15 0 1.32 206 11:44 23.12.2019
2075 Clear -5 1009 15 0 1.32 206 11:26 23.12.2019
2076 Clear 3 1006 7 0 0.86 211 10:59 23.12.2019
2077 Clear 3 1006 7 0 0.86 211 10:41 23.12.2019
2078 Clear 3 1006 7 0 0.86 211 10:21 23.12.2019
2079 Clear 3 1006 7 0 0.86 211 09:59 23.12.2019
2080 Clear 3 1006 7 0 0.86 211 09:40 23.12.2019
2081 Clear 3 1006 7 0 0.86 211 09:21 23.12.2019
2082 Clear 3 1006 7 0 0.86 211 08:58 23.12.2019
2083 Clear 3 1006 7 0 0.86 211 08:40 23.12.2019
2084 Clear 2 1010 6 0 1.59 193 08:22 23.12.2019
2085 Clear 2 1010 6 0 1.59 193 07:48 23.12.2019
2086 Clear 2 1010 6 0 1.59 193 07:21 23.12.2019
2087 Clear 2 1010 6 0 1.59 193 06:57 23.12.2019
2088 Clear 2 1010 6 0 1.59 193 06:26 23.12.2019
2089 Clear 2 1010 6 0 1.59 193 05:56 23.12.2019
2090 Clear 2 1010 6 0 1.59 193 05:29 23.12.2019
2091 Clear -2 1016 9 0 0.33 116 04:34 23.12.2019
2092 Clear -2 1016 9 0 0.33 116 03:26 23.12.2019
2093 Clear -2 1016 9 0 0.33 116 02:42 23.12.2019
2094 Clear -12 1016 38 0 1.2 1 02:19 23.12.2019
2095 Clear -12 1016 38 0 1.2 1 01:43 23.12.2019
2096 Clear -12 1015 39 0 1 2 01:25 23.12.2019
2097 Clear -12 1015 39 0 1 2 00:44 23.12.2019
2098 Clear -12 1015 39 0 1 2 00:23 23.12.2019
2099 Clear -12 1015 39 0 1 2 23:40 22.12.2019
2100 Clear -11 1015 30 0 1.66 350 23:22 22.12.2019
2101 Clear -11 1015 30 0 1.66 350 22:58 22.12.2019
2102 Clear -11 1015 30 0 1.66 350 22:40 22.12.2019
2103 Clear -11 1015 30 0 1.66 350 22:22 22.12.2019
2104 Clear -11 1015 30 0 1.66 350 21:58 22.12.2019
2105 Clear -11 1015 30 0 1.66 350 21:40 22.12.2019
2106 Clear -11 1015 30 0 1.66 350 21:21 22.12.2019
2107 Clear -11 1015 30 0 1.66 350 20:58 22.12.2019
2108 Clear -11 1015 30 0 1.66 350 20:39 22.12.2019
2109 Clear -9 1014 25 0 1.99 308 20:19 22.12.2019
2110 Clear -9 1014 25 0 1.99 308 19:57 22.12.2019
2111 Clear -9 1014 25 0 1.99 308 19:39 22.12.2019
2112 Clear -9 1014 25 0 1.99 308 19:19 22.12.2019
2113 Clear -9 1014 25 0 1.99 308 18:42 22.12.2019
2114 Clear -9 1014 25 0 1.99 308 18:24 22.12.2019
2115 Clear -9 1014 25 0 1.99 308 17:56 22.12.2019
2116 Clear -9 1014 25 0 1.99 308 17:38 22.12.2019
2117 Clear -4 1013 12 0 3.64 329 17:19 22.12.2019
2118 Clear -4 1013 12 0 3.64 329 16:57 22.12.2019
2119 Clear -4 1013 12 0 3.64 329 16:38 22.12.2019
2120 Clear -4 1013 12 0 3.64 329 16:20 22.12.2019
2121 Clear -4 1013 12 0 3.64 329 15:56 22.12.2019
2122 Clear -4 1013 12 0 3.64 329 15:56 22.12.2019
2123 Clear -4 1013 12 0 3.64 329 15:38 22.12.2019
2124 Clear -4 1013 12 0 3.64 329 15:19 22.12.2019
2125 Clear -4 1013 12 0 3.64 329 14:55 22.12.2019
2126 Clear -4 1013 12 0 3.64 329 14:37 22.12.2019
2127 Clear -2 1009 9 0 4.36 296 14:18 22.12.2019
2128 Clear -2 1009 9 0 4.36 296 13:55 22.12.2019
2129 Clear -2 1009 9 0 4.36 296 13:36 22.12.2019
2130 Clear -2 1009 9 0 4.36 296 13:36 22.12.2019
2131 Clear -2 1009 10 0 3.87 286 13:18 22.12.2019
2132 Clear -2 1009 10 0 3.87 286 12:55 22.12.2019
2133 Clear -2 1009 10 0 3.87 286 12:55 22.12.2019
2134 Clear -2 1009 10 0 3.87 286 12:37 22.12.2019
2135 Clear -2 1009 10 0 3.87 286 12:18 22.12.2019
2136 Clear -2 1009 10 0 3.87 286 11:56 22.12.2019
2137 Clear -2 1009 10 0 3.87 286 11:37 22.12.2019
2138 Clear 7 1002 4 0 12.99 271 11:18 22.12.2019
2139 Clear 7 1002 4 0 12.99 271 10:54 22.12.2019
2140 Clear 7 1002 4 0 12.99 271 10:36 22.12.2019
2141 Clear 7 1002 4 0 12.99 271 10:18 22.12.2019
2142 Clear 7 1002 4 0 12.99 271 09:56 22.12.2019
2143 Clear 7 1002 4 0 12.99 271 09:37 22.12.2019
2144 Clear 7 1002 4 0 12.99 271 09:19 22.12.2019
2145 Clear 7 1002 4 0 12.99 271 08:39 22.12.2019
2146 Clear 6 1004 7 0 3.98 244 08:21 22.12.2019
2147 Clear 6 1004 7 0 3.98 244 07:40 22.12.2019
2148 Clear 6 1004 7 0 3.98 244 07:21 22.12.2019
2149 Clear 6 1004 7 0 3.98 244 06:41 22.12.2019
2150 Clear 6 1004 7 0 3.98 244 06:21 22.12.2019
2151 Clear 6 1004 7 0 3.98 244 05:29 22.12.2019
2152 Clear -1 1011 31 0 2.67 190 04:31 22.12.2019
2153 Clear -1 1011 31 0 2.67 190 03:58 22.12.2019
2154 Clear -1 1011 31 0 2.67 190 02:43 22.12.2019
2155 Clear -1 1011 31 0 2.67 190 02:43 22.12.2019
2156 Clear -1 1011 31 0 2.67 190 02:43 22.12.2019
2157 Clear -8 1010 60 0 1.73 149 01:54 22.12.2019
2158 Clear -8 1010 60 0 1.73 149 01:31 22.12.2019
2159 Clear -8 1011 59 0 1.8 158 00:48 22.12.2019
2160 Clear -8 1011 59 0 1.8 158 00:28 22.12.2019
2161 Clear -8 1011 59 0 1.8 158 23:57 21.12.2019
2162 Clear -8 1011 59 0 1.8 158 23:39 21.12.2019
2163 Clear -7 1010 50 0 1.35 136 23:20 21.12.2019
2164 Clear -7 1010 50 0 1.35 136 22:46 21.12.2019
2165 Clear -7 1010 50 0 1.35 136 22:46 21.12.2019
2166 Clear -7 1010 50 0 1.35 136 22:20 21.12.2019
2167 Clear -7 1010 50 0 1.35 136 21:58 21.12.2019
2168 Clear -7 1010 50 0 1.35 136 21:39 21.12.2019
2169 Clear -7 1010 50 0 1.35 136 21:20 21.12.2019
2170 Clear -7 1010 50 0 1.35 136 20:59 21.12.2019
2171 Clear -7 1010 50 0 1.35 136 20:41 21.12.2019
2172 Clear -5 1008 28 0 1.78 118 20:22 21.12.2019
2173 Clear -5 1008 28 0 1.78 118 19:58 21.12.2019
2174 Clear -5 1008 28 0 1.78 118 19:40 21.12.2019
2175 Clear -5 1008 28 0 1.78 118 19:19 21.12.2019
2176 Clear -5 1008 28 0 1.78 118 18:55 21.12.2019
2177 Clear -5 1008 28 0 1.78 118 18:37 21.12.2019
2178 Clear -5 1008 28 0 1.78 118 18:19 21.12.2019
2179 Clear -5 1008 28 0 1.78 118 17:55 21.12.2019
2180 Clear -5 1008 28 0 1.78 118 17:36 21.12.2019
2181 Clear -4 1008 27 0 0.42 202 17:18 21.12.2019
2182 Clear -4 1008 27 0 0.42 202 17:18 21.12.2019
2183 Clear -4 1008 27 0 0.42 202 16:41 21.12.2019
2184 Clear -4 1008 27 0 0.42 202 16:19 21.12.2019
2185 Clear -4 1008 27 0 0.42 202 15:57 21.12.2019
2186 Clear -4 1008 27 0 0.42 202 15:39 21.12.2019
2187 Clear -4 1008 27 0 0.42 202 15:20 21.12.2019
2188 Clear -4 1008 27 0 0.42 202 14:57 21.12.2019
2189 Clear -4 1008 27 0 0.42 202 14:39 21.12.2019
2190 Clear -4 1008 27 0 0.42 202 14:39 21.12.2019
2191 Clouds 0 1004 13 0 2.85 305 14:20 21.12.2019
2192 Clouds 0 1004 13 0 2.85 305 13:56 21.12.2019
2193 Clouds 0 1004 13 0 2.85 305 13:38 21.12.2019
2194 Clear 0 1005 12 0 2.43 286 13:18 21.12.2019
2195 Clear 0 1005 12 0 2.43 286 12:55 21.12.2019
2196 Clear 0 1005 12 0 2.43 286 12:37 21.12.2019
2197 Clear 0 1005 12 0 2.43 286 12:18 21.12.2019
2198 Clear 0 1005 12 0 2.43 286 11:44 21.12.2019
2199 Clear 0 1005 12 0 2.43 286 11:26 21.12.2019
2200 Clouds 9 999 6 0 13.74 265 10:57 21.12.2019
2201 Clouds 9 999 6 0 13.74 265 10:57 21.12.2019
2202 Clouds 9 999 6 0 13.74 265 10:38 21.12.2019
2203 Clouds 9 999 6 0 13.74 265 10:38 21.12.2019
2204 Clouds 9 999 6 0 13.74 265 10:20 21.12.2019
2205 Clouds 9 999 6 0 13.74 265 09:56 21.12.2019
2206 Clouds 9 999 6 0 13.74 265 09:37 21.12.2019
2207 Clouds 9 999 6 0 13.74 265 09:18 21.12.2019
2208 Clouds 9 999 6 0 13.74 265 08:44 21.12.2019
2209 Clouds 9 999 6 0 13.74 265 08:25 21.12.2019
2210 Clouds 9 1002 6 0 12.11 265 07:46 21.12.2019
2211 Clouds 9 1002 6 0 12.11 265 07:22 21.12.2019
2212 Clouds 9 1002 6 0 12.11 265 06:46 21.12.2019
2213 Clouds 9 1002 6 0 12.11 265 06:26 21.12.2019
2214 Clouds 9 1002 6 0 12.11 265 05:55 21.12.2019
2215 Clouds 2 1008 15 0 2.9 204 04:58 21.12.2019
2216 Clouds 2 1008 15 0 2.9 204 03:59 21.12.2019
2217 Clouds 2 1008 15 0 2.9 204 03:37 21.12.2019
2218 Clouds -6 1009 28 0 1.58 155 02:18 21.12.2019
2219 Clouds -6 1009 28 0 1.58 155 01:38 21.12.2019
2220 Clouds -7 1009 41 0 1.51 187 01:20 21.12.2019
2221 Clouds -7 1009 41 0 1.51 187 00:37 21.12.2019
2222 Clouds -7 1009 41 0 1.51 187 00:18 21.12.2019
2223 Clouds -7 1009 41 0 1.51 187 23:38 20.12.2019
2224 Clouds -5 1009 36 0 2.2 263 23:19 20.12.2019
2225 Clouds -5 1009 36 0 2.2 263 22:57 20.12.2019
2226 Clouds -5 1009 36 0 2.2 263 22:36 20.12.2019
2227 Clouds -5 1009 36 0 2.2 263 22:18 20.12.2019
2228 Clouds -5 1009 36 0 2.2 263 21:40 20.12.2019
2229 Clouds -5 1009 36 0 2.2 263 21:20 20.12.2019
2230 Clouds -5 1009 36 0 2.2 263 20:56 20.12.2019
2231 Clouds -5 1009 36 0 2.2 263 20:36 20.12.2019
2232 Clouds -4 1010 29 0 2.45 285 20:18 20.12.2019
2233 Clouds -4 1010 33 0 1.08 226 19:42 20.12.2019
2234 Clouds -4 1010 33 0 1.08 226 19:21 20.12.2019
2235 Clouds -4 1010 33 0 1.08 226 18:58 20.12.2019
2236 Clouds -4 1010 33 0 1.08 226 18:39 20.12.2019
2237 Clouds -4 1010 33 0 1.08 226 18:21 20.12.2019
2238 Clouds -4 1010 33 0 1.08 226 17:55 20.12.2019
2239 Clouds -4 1010 33 0 1.08 226 17:37 20.12.2019
2240 Clouds -1 1009 17 0 3.2 306 17:18 20.12.2019
2241 Clouds -1 1009 17 0 3.2 306 16:41 20.12.2019
2242 Clouds -1 1009 17 0 3.2 306 16:21 20.12.2019
2243 Clouds -1 1009 17 0 3.2 306 15:57 20.12.2019
2244 Clouds -1 1009 17 0 3.2 306 15:39 20.12.2019
2245 Clouds -1 1009 17 0 3.2 306 15:21 20.12.2019
2246 Clouds -1 1009 17 0 3.2 306 14:59 20.12.2019
2247 Clouds -1 1009 17 0 3.2 306 14:41 20.12.2019
2248 Clouds -1 1009 17 0 3.2 306 14:23 20.12.2019
2249 Clouds 2 1005 14 0 5.2 288 13:56 20.12.2019
2250 Clouds 2 1005 14 0 5.2 288 13:37 20.12.2019
2251 Clouds 2 1005 14 0 5.2 288 13:18 20.12.2019
2252 Clouds 2 1005 14 0 5.92 285 12:55 20.12.2019
2253 Clouds 2 1005 14 0 5.92 285 12:36 20.12.2019
2254 Clouds 2 1005 14 0 5.92 285 12:18 20.12.2019
2255 Clouds 2 1005 14 0 5.92 285 11:56 20.12.2019
2256 Clouds 2 1005 14 0 5.92 285 11:37 20.12.2019
2257 Clouds 8 1000 8 0 12.29 263 11:18 20.12.2019
2258 Clouds 8 1000 8 0 12.29 263 10:54 20.12.2019
2259 Clouds 8 1000 8 0 12.29 263 10:36 20.12.2019
2260 Clouds 8 1000 8 0 12.29 263 10:18 20.12.2019
2261 Clouds 8 1000 8 0 12.29 263 09:41 20.12.2019
2262 Clouds 8 1000 8 0 12.29 263 09:21 20.12.2019
2263 Clouds 8 1000 8 0 12.29 263 09:21 20.12.2019
2264 Clouds 8 1000 8 0 12.29 263 08:54 20.12.2019
2265 Clouds 8 1000 8 0 12.29 263 08:36 20.12.2019
2266 Clear 8 1003 7 0 10.09 270 08:18 20.12.2019
2267 Clear 8 1003 7 0 10.09 270 07:41 20.12.2019
2268 Clear 8 1003 7 0 10.09 270 07:22 20.12.2019
2269 Clear 8 1003 7 0 10.09 270 06:52 20.12.2019
2270 Clear 8 1003 7 0 10.09 270 06:33 20.12.2019
2271 Clear 8 1003 7 0 10.09 270 05:56 20.12.2019
2272 Clear 8 1003 7 0 10.09 270 05:38 20.12.2019
2273 Clear 0 1009 15 0 1.91 197 04:46 20.12.2019
2274 Clear 0 1009 15 0 1.91 197 03:33 20.12.2019
2275 Clear 0 1009 15 0 1.91 197 02:45 20.12.2019
2276 Clear 0 1009 15 0 1.91 197 02:45 20.12.2019
2277 Clouds -10 1010 48 0 0.64 321 01:54 20.12.2019
2278 Clouds -10 1010 48 0 0.64 321 01:34 20.12.2019
2279 Clouds -10 1010 49 0 0.37 327 00:53 20.12.2019
2280 Clouds -10 1010 49 0 0.37 327 00:34 20.12.2019
2281 Clouds -10 1010 49 0 0.37 327 23:57 19.12.2019
2282 Clouds -10 1010 49 0 0.37 327 23:38 19.12.2019
2283 Clouds -10 1010 49 0 0.37 327 23:38 19.12.2019
2284 Clear -8 1011 45 0 1.79 287 23:19 19.12.2019
2285 Clear -8 1011 45 0 1.79 287 23:19 19.12.2019
2286 Clear -8 1011 45 0 1.79 287 22:38 19.12.2019
2287 Clear -8 1011 45 0 1.79 287 22:20 19.12.2019
2288 Clear -8 1011 45 0 1.79 287 21:56 19.12.2019
2289 Clear -8 1011 45 0 1.79 287 21:38 19.12.2019
2290 Clear -8 1011 45 0 1.79 287 21:19 19.12.2019
2291 Clear -8 1011 45 0 1.79 287 20:56 19.12.2019
2292 Clear -8 1011 45 0 1.79 287 20:37 19.12.2019
2293 Clouds -7 1010 42 0 1.74 260 20:19 19.12.2019
2294 Clouds -7 1010 42 0 1.74 260 19:58 19.12.2019
2295 Clouds -7 1010 42 0 1.74 260 19:39 19.12.2019
2296 Clouds -7 1010 42 0 1.74 260 19:19 19.12.2019
2297 Clouds -7 1010 42 0 1.74 260 19:19 19.12.2019
2298 Clouds -7 1010 42 0 1.74 260 19:19 19.12.2019
2299 Clouds -7 1010 42 0 1.74 260 18:56 19.12.2019
2300 Clouds -7 1010 42 0 1.74 260 18:38 19.12.2019
2301 Clouds -7 1010 42 0 1.74 260 18:18 19.12.2019
2302 Clouds -7 1010 42 0 1.74 260 17:55 19.12.2019
2303 Clouds -7 1010 42 0 1.74 260 17:37 19.12.2019
2304 Clouds -7 1010 42 0 1.74 260 17:37 19.12.2019
2305 Clouds -5 1011 22 0 1.52 309 17:18 19.12.2019
2306 Clouds -5 1011 22 0 1.52 309 16:55 19.12.2019
2307 Clouds -5 1011 22 0 1.52 309 16:36 19.12.2019
2308 Clouds -5 1011 22 0 1.52 309 16:18 19.12.2019
2309 Clouds -5 1011 22 0 1.52 309 15:55 19.12.2019
2310 Clouds -5 1011 22 0 1.52 309 15:36 19.12.2019
2311 Clouds -5 1011 22 0 1.52 309 15:18 19.12.2019
2312 Clouds -5 1011 22 0 1.52 309 14:42 19.12.2019
2313 Clouds -1 1009 14 0 3.57 222 14:20 19.12.2019
2314 Clouds -1 1009 14 0 3.57 222 13:58 19.12.2019
2315 Clouds -1 1009 14 0 3.57 222 13:38 19.12.2019
2316 Clouds -2 1009 16 0 2.57 243 13:19 19.12.2019
2317 Clouds -2 1009 16 0 2.57 243 12:57 19.12.2019
2318 Clouds -2 1009 16 0 2.57 243 12:39 19.12.2019
2319 Clouds -2 1009 16 0 2.57 243 12:39 19.12.2019
2320 Clouds -2 1009 16 0 2.57 243 12:19 19.12.2019
2321 Clouds -2 1009 16 0 2.57 243 11:58 19.12.2019
2322 Clouds -2 1009 16 0 2.57 243 11:40 19.12.2019
2323 Clouds 6 1007 9 0 8.29 268 11:18 19.12.2019
2324 Clouds 6 1007 9 0 8.29 268 10:56 19.12.2019
2325 Clouds 6 1007 9 0 8.29 268 10:38 19.12.2019
2326 Clouds 6 1007 9 0 8.29 268 10:19 19.12.2019
2327 Clouds 6 1007 9 0 8.29 268 09:54 19.12.2019
2328 Clouds 6 1007 9 0 8.29 268 09:36 19.12.2019
2329 Clouds 6 1007 9 0 8.29 268 09:18 19.12.2019
2330 Clouds 6 1007 9 0 8.29 268 08:41 19.12.2019
2331 Clouds 6 1010 8 0 10.86 282 08:19 19.12.2019
2332 Clouds 6 1010 8 0 10.86 282 07:58 19.12.2019
2333 Clouds 6 1010 8 0 10.86 282 07:38 19.12.2019
2334 Clouds 6 1010 8 0 10.86 282 07:20 19.12.2019
2335 Clouds 6 1010 8 0 10.86 282 06:50 19.12.2019
2336 Clouds 6 1010 8 0 10.86 282 06:30 19.12.2019
2337 Clouds 6 1010 8 0 10.86 282 05:55 19.12.2019
2338 Clouds 6 1010 8 0 10.86 282 05:36 19.12.2019
2339 Clear -1 1016 10 0 1.59 176 04:52 19.12.2019
2340 Clear -1 1016 10 0 1.59 176 03:23 19.12.2019
2341 Clear -1 1016 10 0 1.59 176 02:23 19.12.2019
2342 Clouds -11 1017 36 0 0.91 196 01:23 19.12.2019
2343 Clouds -11 1017 36 0 0.91 196 00:44 19.12.2019
2344 Clouds -11 1017 36 0 0.91 196 00:24 19.12.2019
2345 Clouds -11 1017 36 0 0.91 196 23:58 18.12.2019
2346 Clouds -11 1017 36 0 0.91 196 23:38 18.12.2019
2347 Clouds -10 1016 18 0 0.66 187 23:19 18.12.2019
2348 Clouds -10 1016 18 0 0.66 187 22:56 18.12.2019
2349 Clouds -10 1016 18 0 0.66 187 22:37 18.12.2019
2350 Clouds -10 1016 18 0 0.66 187 22:19 18.12.2019
2351 Clouds -10 1016 18 0 0.66 187 21:57 18.12.2019
2352 Clouds -10 1016 18 0 0.66 187 21:39 18.12.2019
2353 Clouds -10 1016 18 0 0.66 187 21:19 18.12.2019
2354 Clouds -10 1016 18 0 0.66 187 20:55 18.12.2019
2355 Clouds -10 1016 18 0 0.66 187 20:37 18.12.2019
2356 Clouds -10 1016 18 0 0.66 187 20:37 18.12.2019
2357 Clouds -8 1017 14 0 0.62 287 20:19 18.12.2019
2358 Clouds -8 1017 14 0 0.62 287 19:55 18.12.2019
2359 Clouds -8 1017 14 0 0.62 287 19:37 18.12.2019
2360 Clouds -8 1017 14 0 0.62 287 19:18 18.12.2019
2361 Clouds -8 1017 14 0 0.62 287 18:44 18.12.2019
2362 Clouds -8 1017 14 0 0.62 287 18:25 18.12.2019
2363 Clouds -8 1017 14 0 0.62 287 17:57 18.12.2019
2364 Clouds -8 1017 14 0 0.62 287 17:39 18.12.2019
2365 Clouds -7 1019 13 0 1.2 61 17:20 18.12.2019
2366 Clouds -7 1019 13 0 1.2 61 16:57 18.12.2019
2367 Clouds -7 1019 13 0 1.2 61 16:39 18.12.2019
2368 Clouds -7 1019 13 0 1.2 61 16:20 18.12.2019
2369 Clouds -7 1019 13 0 1.2 61 15:56 18.12.2019
2370 Clouds -7 1019 13 0 1.2 61 15:37 18.12.2019
2371 Clouds -7 1019 13 0 1.2 61 15:19 18.12.2019
2372 Clouds -7 1019 13 0 1.2 61 14:42 18.12.2019
2373 Clouds -6 1016 15 0 0.87 346 14:22 18.12.2019
2374 Clouds -6 1016 15 0 0.87 346 13:57 18.12.2019
2375 Clouds -6 1016 15 0 0.87 346 13:39 18.12.2019
2376 Clouds -6 1016 16 0 1.45 16 13:20 18.12.2019
2377 Clouds -6 1016 16 0 1.45 16 12:59 18.12.2019
2378 Clouds -6 1016 16 0 1.45 16 12:59 18.12.2019
2379 Clouds -6 1016 16 0 1.45 16 12:39 18.12.2019
2380 Clouds -6 1016 16 0 1.45 16 12:20 18.12.2019
2381 Clouds -6 1016 16 0 1.45 16 11:56 18.12.2019
2382 Clouds -6 1016 16 0 1.45 16 11:38 18.12.2019
2383 Clouds -6 1016 16 0 1.45 16 11:38 18.12.2019
2384 Clouds 3 1013 8 0 7.01 298 11:19 18.12.2019
2385 Clouds 3 1013 8 0 7.01 298 10:57 18.12.2019
2386 Clouds 3 1013 8 0 7.01 298 10:39 18.12.2019
2387 Clouds 3 1013 8 0 7.01 298 10:20 18.12.2019
2388 Clouds 3 1013 8 0 7.01 298 09:57 18.12.2019
2389 Clouds 3 1013 8 0 7.01 298 09:19 18.12.2019
2390 Clouds 3 1013 8 0 7.01 298 08:42 18.12.2019
2391 Clouds 3 1013 8 0 7.01 298 08:24 18.12.2019
2392 Clouds 2 1016 6 0 5.73 325 07:56 18.12.2019
2393 Clouds 2 1016 6 0 5.73 325 07:56 18.12.2019
2394 Clouds 2 1016 6 0 5.73 325 07:38 18.12.2019
2395 Clouds 2 1016 6 0 5.73 325 07:19 18.12.2019
2396 Clouds 2 1016 6 0 5.73 325 06:50 18.12.2019
2397 Clouds 2 1016 6 0 5.73 325 06:22 18.12.2019
2398 Clouds 2 1016 6 0 5.73 325 05:34 18.12.2019
2399 Clear -6 1021 18 0 1.8 16 03:46 18.12.2019
2400 Clear -6 1021 18 0 1.8 16 02:44 18.12.2019
2401 Clear -6 1021 18 0 1.8 16 02:26 18.12.2019
2402 Clear -13 1021 33 0 2.48 16 01:43 18.12.2019
2403 Clear -13 1022 37 0 2.34 25 01:25 18.12.2019
2404 Clear -13 1022 37 0 2.34 25 00:42 18.12.2019
2405 Clear -13 1022 37 0 2.34 25 00:24 18.12.2019
2406 Clear -13 1022 37 0 2.34 25 23:58 17.12.2019
2407 Clear -13 1022 37 0 2.34 25 23:40 17.12.2019
2408 Clear -12 1020 37 0 1.11 1 23:21 17.12.2019
2409 Clear -12 1020 37 0 1.11 1 22:57 17.12.2019
2410 Clear -12 1020 37 0 1.11 1 22:39 17.12.2019
2411 Clear -12 1020 37 0 1.11 1 22:19 17.12.2019
2412 Clear -12 1020 37 0 1.11 1 21:57 17.12.2019
2413 Clear -12 1020 37 0 1.11 1 21:38 17.12.2019
2414 Clear -12 1020 37 0 1.11 1 21:20 17.12.2019
2415 Clear -12 1020 37 0 1.11 1 20:59 17.12.2019
2416 Clear -12 1020 37 0 1.11 1 20:39 17.12.2019
2417 Clouds -11 1020 24 0 0.72 254 20:19 17.12.2019
2418 Clouds -11 1020 24 0 0.72 254 19:57 17.12.2019
2419 Clouds -11 1020 24 0 0.72 254 19:39 17.12.2019
2420 Clouds -11 1020 24 0 0.72 254 19:19 17.12.2019
2421 Clouds -11 1020 24 0 0.72 254 18:57 17.12.2019
2422 Clouds -11 1020 24 0 0.72 254 18:57 17.12.2019
2423 Clouds -11 1020 24 0 0.72 254 18:37 17.12.2019
2424 Clouds -11 1020 24 0 0.72 254 18:19 17.12.2019
2425 Clouds -11 1020 24 0 0.72 254 17:54 17.12.2019
2426 Clouds -11 1020 24 0 0.72 254 17:36 17.12.2019
2427 Clouds -9 1020 28 0 0.37 10 17:18 17.12.2019
2428 Clouds -9 1020 28 0 0.37 10 16:54 17.12.2019
2429 Clouds -9 1020 28 0 0.37 10 16:36 17.12.2019
2430 Clouds -9 1020 28 0 0.37 10 16:18 17.12.2019
2431 Clouds -9 1020 28 0 0.37 10 15:38 17.12.2019
2432 Clouds -9 1020 28 0 0.37 10 15:20 17.12.2019
2433 Clouds -9 1020 28 0 0.37 10 14:56 17.12.2019
2434 Clouds -9 1020 28 0 0.37 10 14:38 17.12.2019
2435 Clouds -5 1016 22 0 2.7 308 14:19 17.12.2019
2436 Clouds -5 1016 22 0 2.7 308 13:58 17.12.2019
2437 Clouds -5 1016 22 0 2.7 308 13:39 17.12.2019
2438 Clouds -5 1016 28 0 3.55 333 13:19 17.12.2019
2439 Clouds -5 1016 28 0 3.55 333 12:59 17.12.2019
2440 Clouds -5 1016 28 0 3.55 333 12:38 17.12.2019
2441 Clouds -5 1016 28 0 3.55 333 12:38 17.12.2019
2442 Clouds -5 1016 28 0 3.55 333 12:18 17.12.2019
2443 Clouds -5 1016 28 0 3.55 333 11:57 17.12.2019
2444 Clouds -5 1016 28 0 3.55 333 11:37 17.12.2019
2445 Clouds 0 1012 12 0 3.36 255 11:18 17.12.2019
2446 Clouds 0 1012 12 0 3.36 255 10:57 17.12.2019
2447 Clouds 0 1012 12 0 3.36 255 10:38 17.12.2019
2448 Clouds 0 1012 12 0 3.36 255 10:19 17.12.2019
2449 Clouds 0 1012 12 0 3.36 255 10:19 17.12.2019
2450 Clouds 0 1012 12 0 3.36 255 09:56 17.12.2019
2451 Clouds 0 1012 12 0 3.36 255 09:38 17.12.2019
2452 Clouds 0 1012 12 0 3.36 255 09:18 17.12.2019
2453 Clouds 0 1012 12 0 3.36 255 08:54 17.12.2019
2454 Clouds 0 1012 12 0 3.36 255 08:36 17.12.2019
2455 Clouds -2 1015 28 0 2.13 194 08:18 17.12.2019
2456 Clouds -2 1015 28 0 2.13 194 07:42 17.12.2019
2457 Clouds -2 1015 28 0 2.13 194 07:22 17.12.2019
2458 Clouds -2 1015 28 0 2.13 194 06:50 17.12.2019
2459 Clouds -2 1015 28 0 2.13 194 06:32 17.12.2019
2460 Clouds -2 1015 28 0 2.13 194 05:50 17.12.2019
2461 Clouds -2 1015 28 0 2.13 194 05:31 17.12.2019
2462 Clouds -6 1020 47 0 2.06 168 04:00 17.12.2019
2463 Clouds -6 1020 47 0 2.06 168 02:26 17.12.2019
2464 Clear -12 1019 77 0 1.54 135 01:22 17.12.2019
2465 Clear -12 1019 77 0 1.54 135 00:48 17.12.2019
2466 Clear -12 1019 77 0 1.54 135 00:22 17.12.2019
2467 Clear -12 1019 77 0 1.54 135 23:58 16.12.2019
2468 Clear -12 1019 77 0 1.54 135 23:40 16.12.2019
2469 Clear -10 1018 69 0 1.76 139 23:18 16.12.2019
2470 Clear -10 1018 69 0 1.76 139 22:55 16.12.2019
2471 Clear -10 1018 69 0 1.76 139 22:36 16.12.2019
2472 Clear -10 1018 69 0 1.76 139 22:18 16.12.2019
2473 Clear -10 1018 69 0 1.76 139 21:54 16.12.2019
2474 Clear -10 1018 69 0 1.76 139 21:36 16.12.2019
2475 Clear -10 1018 69 0 1.76 139 21:18 16.12.2019
2476 Clear -10 1018 69 0 1.76 139 20:56 16.12.2019
2477 Clear -10 1018 69 0 1.76 139 20:37 16.12.2019
2478 Clear -10 1018 69 0 1.76 139 20:37 16.12.2019
2479 Clear -9 1017 53 0 2.15 143 20:18 16.12.2019
2480 Clear -9 1017 53 0 2.15 143 19:55 16.12.2019
2481 Clear -9 1017 53 0 2.15 143 19:36 16.12.2019
2482 Clear -9 1017 53 0 2.15 143 19:18 16.12.2019
2483 Clear -9 1017 53 0 2.15 143 18:54 16.12.2019
2484 Clear -9 1017 53 0 2.15 143 18:36 16.12.2019
2485 Clear -9 1017 53 0 2.15 143 18:18 16.12.2019
2486 Clear -9 1017 53 0 2.15 143 17:55 16.12.2019
2487 Clear -9 1017 53 0 2.15 143 17:37 16.12.2019
2488 Clear -7 1017 39 0 2.4 146 17:18 16.12.2019
2489 Clear -7 1017 39 0 2.4 146 16:54 16.12.2019
2490 Clear -7 1017 39 0 2.4 146 16:36 16.12.2019
2491 Clear -7 1017 39 0 2.4 146 16:18 16.12.2019
2492 Clear -7 1017 39 0 2.4 146 15:54 16.12.2019
2493 Clear -7 1017 39 0 2.4 146 15:36 16.12.2019
2494 Clear -7 1017 39 0 2.4 146 15:18 16.12.2019
2495 Clear -7 1017 39 0 2.4 146 14:54 16.12.2019
2496 Clear -7 1017 39 0 2.4 146 14:36 16.12.2019
2497 Clear -5 1013 28 0 0.46 40 14:18 16.12.2019
2498 Clear -5 1013 28 0 0.46 40 13:38 16.12.2019
2499 Clear -6 1013 32 0 0.53 180 13:20 16.12.2019
2500 Clear -6 1013 32 0 0.53 180 12:58 16.12.2019
2501 Clear -5 1012 29 0 1.22 130 12:58 16.12.2019
2502 Clear -5 1012 29 0 1.22 130 12:40 16.12.2019
2503 Clear -5 1012 29 0 1.22 130 12:20 16.12.2019
2504 Clear -6 1013 32 0 0.53 180 11:59 16.12.2019
2505 Clear -5 1012 29 0 1.22 130 11:41 16.12.2019
2506 Clear 1 1009 20 0 0.53 90 11:22 16.12.2019
2507 Clear 1 1009 20 0 0.53 90 10:59 16.12.2019
2508 Clear 1 1009 20 0 0.53 90 10:40 16.12.2019
2509 Clear 0 1010 21 0 1.09 195 10:21 16.12.2019
2510 Clear 0 1010 21 0 1.09 195 09:47 16.12.2019
2511 Clear 0 1010 21 0 1.09 195 09:29 16.12.2019
2512 Clear 0 1010 21 0 1.09 195 08:58 16.12.2019
2513 Clear 1 1009 20 0 0.53 90 08:38 16.12.2019
2514 Clear -1 1013 26 0 2.71 199 08:19 16.12.2019
2515 Clear -1 1013 26 0 2.71 199 07:51 16.12.2019
2516 Clear -1 1013 26 0 2.71 199 07:31 16.12.2019
2517 Clear -1 1013 26 0 2.71 199 07:31 16.12.2019
2518 Clear -1 1013 26 0 2.71 199 06:48 16.12.2019
2519 Clear -1 1013 26 0 2.71 199 06:27 16.12.2019
2520 Clear -1 1013 26 0 2.71 199 05:58 16.12.2019
2521 Clear -1 1013 26 0 2.71 199 05:39 16.12.2019
2522 Clear -5 1019 43 0 2.22 183 05:21 16.12.2019
2523 Clear -5 1019 43 0 2.22 183 02:50 16.12.2019
2524 Clear -11 1020 75 0 1.79 146 01:45 16.12.2019
2525 Clear -11 1020 73 0 1.59 138 00:56 16.12.2019
2526 Clear -11 1020 73 0 1.59 138 00:37 16.12.2019
2527 Clear -11 1020 73 0 1.59 138 00:18 16.12.2019
2528 Clear -11 1020 73 0 1.59 138 23:41 15.12.2019
2529 Clear -10 1019 67 0 1.84 135 23:22 15.12.2019
2530 Clear -10 1019 67 0 1.84 135 22:57 15.12.2019
2531 Clear -10 1019 67 0 1.84 135 22:57 15.12.2019
2532 Clear -10 1019 67 0 1.84 135 22:38 15.12.2019
2533 Clear -10 1019 67 0 1.84 135 22:19 15.12.2019
2534 Clear -10 1019 67 0 1.84 135 21:57 15.12.2019
2535 Clear -10 1019 67 0 1.84 135 21:38 15.12.2019
2536 Clear -10 1019 67 0 1.84 135 21:38 15.12.2019
2537 Clear -10 1019 67 0 1.84 135 21:19 15.12.2019
2538 Clear -10 1019 67 0 1.84 135 21:19 15.12.2019
2539 Clear -10 1019 67 0 1.84 135 20:58 15.12.2019
2540 Clear -10 1019 67 0 1.84 135 20:39 15.12.2019
2541 Clear -10 1019 67 0 1.84 135 20:39 15.12.2019
2542 Clouds -9 1017 51 0 1.73 131 20:20 15.12.2019
2543 Clouds -9 1017 54 0 1.74 134 19:58 15.12.2019
2544 Clouds -9 1017 54 0 1.74 134 19:39 15.12.2019
2545 Clouds -9 1017 54 0 1.74 134 19:19 15.12.2019
2546 Clouds -9 1017 51 0 1.73 131 18:57 15.12.2019
2547 Clouds -9 1017 51 0 1.73 131 18:57 15.12.2019
2548 Clouds -9 1017 51 0 1.73 131 18:39 15.12.2019
2549 Clouds -9 1017 54 0 1.74 134 18:19 15.12.2019
2550 Clouds -9 1017 54 0 1.74 134 17:56 15.12.2019
2551 Clouds -9 1017 54 0 1.74 134 17:37 15.12.2019
2552 Clouds -9 1017 54 0 1.74 134 17:37 15.12.2019
2553 Clouds -6 1015 33 0 2.47 182 17:19 15.12.2019
2554 Clouds -6 1015 33 0 2.47 182 16:57 15.12.2019
2555 Clouds -6 1015 33 0 2.47 182 16:39 15.12.2019
2556 Clouds -6 1015 33 0 2.47 182 16:20 15.12.2019
2557 Clouds -6 1015 33 0 2.47 182 15:55 15.12.2019
2558 Clouds -7 1016 37 0 2.37 162 15:55 15.12.2019
2559 Clouds -6 1015 33 0 2.47 182 15:55 15.12.2019
2560 Clouds -7 1016 37 0 2.37 162 15:37 15.12.2019
2561 Clouds -6 1015 33 0 2.47 182 15:18 15.12.2019
2562 Clouds -6 1015 33 0 2.47 182 14:55 15.12.2019
2563 Clouds -7 1016 37 0 2.37 162 14:36 15.12.2019
2564 Clouds -2 1011 23 0 5.01 189 14:18 15.12.2019
2565 Clouds -2 1012 27 0 3.57 202 13:56 15.12.2019
2566 Clouds -2 1011 23 0 5.01 189 13:37 15.12.2019
2567 Clouds -2 1012 27 0 3.57 202 13:19 15.12.2019
2568 Clouds -2 1012 27 0 3.57 202 13:19 15.12.2019
2569 Clouds -2 1011 23 0 5.01 189 12:56 15.12.2019
2570 Clouds -2 1011 23 0 5.01 189 12:38 15.12.2019
2571 Clouds -2 1011 23 0 5.01 189 12:20 15.12.2019
2572 Clouds -2 1011 23 0 5.01 189 11:39 15.12.2019
2573 Clouds 2 1009 16 0 4.63 165 11:20 15.12.2019
2574 Clouds 2 1009 16 0 4.63 165 10:59 15.12.2019
2575 Clouds 2 1009 16 0 4.63 165 10:41 15.12.2019
2576 Clouds 2 1009 16 0 4.63 165 10:20 15.12.2019
2577 Clouds 2 1009 16 0 4.63 165 09:59 15.12.2019
2578 Clouds 2 1009 16 0 4.63 165 09:39 15.12.2019
2579 Clouds 2 1009 16 0 4.63 165 09:20 15.12.2019
2580 Clouds 2 1009 16 0 4.63 165 08:56 15.12.2019
2581 Clouds 2 1009 16 0 4.63 165 08:38 15.12.2019
2582 Clear -1 1012 27 0 2.85 170 08:20 15.12.2019
2583 Clear -1 1012 27 0 2.85 170 07:55 15.12.2019
2584 Clear -1 1012 27 0 2.85 170 07:33 15.12.2019
2585 Clear -1 1012 27 0 2.85 170 06:31 15.12.2019
2586 Clear -1 1012 27 0 2.85 170 05:51 15.12.2019
2587 Clear -1 1012 27 0 2.85 170 05:25 15.12.2019
2588 Clear -5 1019 48 0 2.67 163 04:24 15.12.2019
2589 Clear -5 1019 48 0 2.67 163 03:22 15.12.2019
2590 Clear -5 1019 48 0 2.67 163 02:33 15.12.2019
2591 Clear -10 1020 79 0 1.9 140 01:44 15.12.2019
2592 Clear -10 1020 79 0 1.9 140 01:25 15.12.2019
2593 Clear -11 1020 78 0 1.89 139 00:54 15.12.2019
2594 Clear -11 1020 78 0 1.89 139 00:35 15.12.2019
2595 Clear -11 1020 78 0 1.89 139 23:58 14.12.2019
2596 Clear -11 1020 78 0 1.89 139 23:39 14.12.2019
2597 Clear -9 1019 69 0 2.08 140 23:18 14.12.2019
2598 Clear -9 1019 69 0 2.08 140 22:57 14.12.2019
2599 Clear -9 1019 69 0 2.08 140 22:39 14.12.2019
2600 Clear -9 1019 69 0 2.08 140 22:20 14.12.2019
2601 Clear -9 1019 69 0 2.08 140 21:55 14.12.2019
2602 Clear -9 1019 69 0 2.08 140 21:55 14.12.2019
2603 Clear -9 1019 69 0 2.08 140 21:37 14.12.2019
2604 Clear -9 1019 69 0 2.08 140 21:18 14.12.2019
2605 Clear -9 1019 69 0 2.08 140 20:55 14.12.2019
2606 Clear -9 1019 69 0 2.08 140 20:55 14.12.2019
2607 Clear -9 1019 69 0 2.08 140 20:37 14.12.2019
2608 Clear -9 1019 69 0 2.08 140 20:37 14.12.2019
2609 Clouds -7 1017 57 0 2.18 144 20:19 14.12.2019
2610 Clouds -7 1017 57 0 2.18 144 19:40 14.12.2019
2611 Clouds -7 1017 57 0 2.18 144 19:21 14.12.2019
2612 Clouds -7 1017 57 0 2.18 144 18:58 14.12.2019
2613 Clouds -7 1017 57 0 2.18 144 18:39 14.12.2019
2614 Clouds -7 1017 57 0 2.18 144 18:21 14.12.2019
2615 Clouds -7 1017 57 0 2.18 144 17:59 14.12.2019
2616 Clouds -7 1017 57 0 2.18 144 17:41 14.12.2019
2617 Clouds -5 1017 45 0 2.06 134 17:22 14.12.2019
2618 Clouds -5 1017 45 0 2.06 134 16:42 14.12.2019
2619 Clouds -5 1017 45 0 2.06 134 16:20 14.12.2019
2620 Clouds -5 1017 45 0 2.06 134 15:57 14.12.2019
2621 Clouds -5 1017 45 0 2.06 134 15:38 14.12.2019
2622 Clouds -5 1017 45 0 2.06 134 15:38 14.12.2019
2623 Clouds -5 1017 45 0 2.06 134 15:19 14.12.2019
2624 Clouds -5 1017 45 0 2.06 134 14:57 14.12.2019
2625 -273 0 0 0 0 0 14:38 14.12.2019
2626 Rain -2 1013 36 0 1.22 24 14:19 14.12.2019
2627 Rain -2 1013 36 0 1.22 24 13:44 14.12.2019
2628 Clouds -3 1013 32 0 1.42 97 13:20 14.12.2019
2629 Clouds -3 1012 36 0 1.1 17 12:58 14.12.2019
2630 Clouds -3 1012 36 0 1.1 17 12:40 14.12.2019
2631 Clouds -3 1012 36 0 1.1 17 12:21 14.12.2019
2632 Clouds -3 1012 36 0 1.1 17 11:58 14.12.2019
2633 Clouds -3 1013 32 0 1.42 97 11:39 14.12.2019
2634 Clouds 2 1009 22 0 1.96 261 11:19 14.12.2019
2635 Clouds 2 1009 22 0 1.96 261 10:57 14.12.2019
2636 Clouds 2 1009 22 0 1.96 261 10:39 14.12.2019
2637 Clouds 2 1009 22 0 1.96 261 10:20 14.12.2019
2638 Clouds 2 1009 22 0 1.96 261 09:57 14.12.2019
2639 Clouds 2 1009 22 0 1.96 261 09:38 14.12.2019
2640 Clouds 2 1009 22 0 1.96 261 09:18 14.12.2019
2641 Clouds 2 1009 23 0 1.5 259 08:42 14.12.2019
2642 Clouds 0 1013 32 0 1.98 169 08:19 14.12.2019
2643 Clouds 0 1013 32 0 1.98 169 07:44 14.12.2019
2644 Clouds 0 1013 32 0 1.98 169 07:23 14.12.2019
2645 Clouds 0 1013 32 0 1.98 169 06:56 14.12.2019
2646 Clouds 0 1013 32 0 1.98 169 06:37 14.12.2019
2647 Clouds 0 1013 32 0 1.98 169 05:58 14.12.2019
2648 Clouds -4 1019 44 0 2.54 181 04:47 14.12.2019
2649 Clouds -4 1019 44 0 2.54 181 02:31 14.12.2019
2650 Clouds -9 1020 68 0 1.67 154 01:56 14.12.2019
2651 Clouds -9 1020 68 0 1.67 154 01:56 14.12.2019
2652 Clouds -9 1020 68 0 1.67 154 01:37 14.12.2019
2653 Clouds -9 1020 68 0 1.23 150 00:47 14.12.2019
2654 Clouds -9 1020 68 0 1.23 150 00:27 14.12.2019
2655 Clouds -9 1020 68 0 1.23 150 23:56 13.12.2019
2656 Clouds -9 1020 68 0 1.23 150 23:37 13.12.2019
2657 Clouds -8 1020 64 0 1.79 143 23:18 13.12.2019
2658 Clouds -8 1020 64 0 1.79 143 22:40 13.12.2019
2659 Clouds -8 1020 64 0 1.79 143 22:19 13.12.2019
2660 Clouds -8 1020 64 0 1.79 143 21:56 13.12.2019
2661 Clouds -8 1020 64 0 1.79 143 21:37 13.12.2019
2662 Clouds -8 1020 64 0 1.79 143 21:19 13.12.2019
2663 Clouds -8 1020 64 0 1.79 143 20:42 13.12.2019
2664 Clouds -8 1020 64 0 1.79 143 20:23 13.12.2019
2665 Clouds -5 1020 56 0 1.82 152 19:59 13.12.2019
2666 Clouds -5 1020 56 0 1.82 152 19:41 13.12.2019
2667 Clouds -5 1020 56 0 1.82 152 19:22 13.12.2019
2668 Clouds -5 1020 56 0 1.82 152 18:59 13.12.2019
2669 Clouds -5 1020 56 0 1.82 152 18:40 13.12.2019
2670 Clouds -5 1020 56 0 1.82 152 18:19 13.12.2019
2671 Clouds -5 1020 56 0 1.82 152 17:55 13.12.2019
2672 Clouds -5 1020 56 0 1.82 152 17:37 13.12.2019
2673 Snow -4 1019 65 0 0.6 142 17:18 13.12.2019
2674 Snow -4 1019 65 0 0.6 142 16:54 13.12.2019
2675 Snow -4 1019 65 0 0.6 142 16:36 13.12.2019
2676 Snow -4 1019 65 0 0.6 142 16:18 13.12.2019
2677 Snow -4 1019 65 0 0.6 142 15:38 13.12.2019
2678 Snow -4 1019 65 0 0.6 142 15:20 13.12.2019
2679 Snow -4 1019 65 0 0.6 142 14:41 13.12.2019
2680 Snow -3 1016 60 0 1.49 334 14:21 13.12.2019
2681 Snow -3 1016 60 0 1.49 334 13:58 13.12.2019
2682 Snow -3 1016 60 0 1.49 334 13:39 13.12.2019
2683 Snow -2 1016 61 0 2.94 302 13:21 13.12.2019
2684 Snow -2 1016 61 0 2.94 302 12:42 13.12.2019
2685 Snow -2 1016 61 0 2.94 302 12:20 13.12.2019
2686 Snow -2 1016 61 0 2.94 302 11:57 13.12.2019
2687 Snow -2 1016 61 0 2.94 302 11:57 13.12.2019
2688 Snow -2 1016 61 0 2.94 302 11:39 13.12.2019
2689 Clouds 1 1012 33 0 1.5 215 11:21 13.12.2019
2690 Clouds 1 1012 33 0 1.5 215 10:43 13.12.2019
2691 Clouds 1 1012 33 0 1.5 215 10:23 13.12.2019
2692 Clouds 1 1012 33 0 1.5 215 09:59 13.12.2019
2693 Clouds 1 1012 33 0 1.5 215 09:39 13.12.2019
2694 Clouds 1 1012 33 0 1.5 215 09:19 13.12.2019
2695 Clouds 1 1012 33 0 1.5 215 08:42 13.12.2019
2696 Clouds 1 1012 36 0 2.19 188 08:24 13.12.2019
2697 Clouds 1 1014 27 0 2.93 198 07:46 13.12.2019
2698 Clouds 1 1014 27 0 2.93 198 07:23 13.12.2019
2699 Clouds 1 1014 27 0 2.93 198 06:55 13.12.2019
2700 Clouds 1 1014 27 0 2.93 198 06:29 13.12.2019
2701 Clouds 1 1014 27 0 2.93 198 05:47 13.12.2019
2702 Clouds 1 1014 27 0 2.93 198 05:28 13.12.2019
2703 Clouds -2 1019 37 0 1.93 162 04:46 13.12.2019
2704 Clouds -2 1019 37 0 1.93 162 03:48 13.12.2019
2705 Clouds -2 1019 37 0 1.93 162 02:34 13.12.2019
2706 Clouds -8 1019 72 0 2.2 127 01:48 13.12.2019
2707 Clouds -8 1019 72 0 2.2 127 01:19 13.12.2019
2708 Clouds -8 1019 68 0 1.95 131 00:45 13.12.2019
2709 Clouds -8 1019 68 0 1.95 131 00:22 13.12.2019
2710 Clouds -8 1019 68 0 1.95 131 23:41 12.12.2019
2711 Clouds -7 1017 63 0 2.11 131 23:22 12.12.2019
2712 Clouds -7 1017 63 0 2.11 131 22:56 12.12.2019
2713 Clouds -7 1017 63 0 2.11 131 22:38 12.12.2019
2714 Clouds -7 1017 63 0 2.11 131 22:19 12.12.2019
2715 Clouds -7 1017 63 0 2.11 131 21:55 12.12.2019
2716 Clouds -7 1017 63 0 2.11 131 21:37 12.12.2019
2717 Clouds -7 1017 63 0 2.11 131 21:19 12.12.2019
2718 Clouds -7 1017 63 0 2.11 131 20:57 12.12.2019
2719 Clouds -7 1017 63 0 2.11 131 20:38 12.12.2019
2720 Clouds -5 1017 58 0 2.35 128 20:20 12.12.2019
2721 Clouds -5 1016 54 0 2.66 129 19:55 12.12.2019
2722 Clouds -5 1016 54 0 2.66 129 19:37 12.12.2019
2723 Clouds -5 1016 54 0 2.66 129 19:18 12.12.2019
2724 Clouds -5 1016 54 0 2.66 129 18:55 12.12.2019
2725 Clouds -5 1016 54 0 2.66 129 18:36 12.12.2019
2726 Clouds -5 1016 54 0 2.66 129 18:18 12.12.2019
2727 Clouds -5 1016 54 0 2.66 129 17:55 12.12.2019
2728 Clouds -5 1016 54 0 2.66 129 17:37 12.12.2019
2729 Clouds -3 1016 35 0 2.37 158 17:18 12.12.2019
2730 Clouds -3 1016 35 0 2.37 158 16:42 12.12.2019
2731 Clouds -3 1016 35 0 2.37 158 16:21 12.12.2019
2732 Clouds -3 1016 35 0 2.37 158 15:59 12.12.2019
2733 Clouds -3 1016 35 0 2.37 158 15:41 12.12.2019
2734 Clouds -3 1016 35 0 2.37 158 15:19 12.12.2019
2735 Clouds -3 1016 35 0 2.37 158 14:57 12.12.2019
2736 Clouds -3 1016 35 0 2.37 158 14:36 12.12.2019
2737 Clouds -2 1011 29 0 1.1 239 14:18 12.12.2019
2738 Clouds -2 1011 29 0 1.1 239 13:54 12.12.2019
2739 Clouds -2 1011 29 0 1.1 239 13:36 12.12.2019
2740 Clouds -2 1011 30 0 0.72 221 13:18 12.12.2019
2741 Clouds -2 1011 30 0 0.72 221 13:18 12.12.2019
2742 Clouds -2 1011 30 0 0.72 221 12:42 12.12.2019
2743 Clouds -2 1011 30 0 0.72 221 12:23 12.12.2019
2744 Clouds -2 1011 30 0 0.72 221 11:59 12.12.2019
2745 Clouds -2 1011 30 0 0.72 221 11:40 12.12.2019
2746 Clouds 6 1007 15 0 2.69 196 11:22 12.12.2019
2747 Clouds 6 1007 15 0 2.69 196 10:59 12.12.2019
2748 Clouds 6 1007 15 0 2.69 196 10:40 12.12.2019
2749 Clouds 6 1007 15 0 2.69 196 10:22 12.12.2019
2750 Clouds 6 1007 15 0 2.69 196 09:56 12.12.2019
2751 Clouds 6 1007 15 0 2.69 196 09:38 12.12.2019
2752 Clouds 6 1007 15 0 2.69 196 09:20 12.12.2019
2753 Clouds 6 1007 15 0 2.69 196 08:48 12.12.2019
2754 Clouds 6 1007 15 0 2.69 196 08:29 12.12.2019
2755 Clouds 3 1009 20 0 2.49 195 07:56 12.12.2019
2756 Clouds 3 1009 20 0 2.49 195 07:37 12.12.2019
2757 Clouds 3 1009 20 0 2.49 195 07:19 12.12.2019
2758 Clouds 3 1009 20 0 2.49 195 06:41 12.12.2019
2759 Clouds 3 1009 20 0 2.49 195 06:22 12.12.2019
2760 Clouds 3 1009 20 0 2.49 195 05:32 12.12.2019
2761 Clouds -3 1016 37 0 1.2 165 04:47 12.12.2019
2762 Clouds -3 1016 37 0 1.2 165 02:43 12.12.2019
2763 Clouds -3 1016 37 0 1.2 165 02:24 12.12.2019
2764 Clouds -9 1017 61 0 1.19 151 01:59 12.12.2019
2765 Clouds -9 1017 61 0 1.19 151 01:36 12.12.2019
2766 Clouds -9 1017 59 0 1.15 150 00:50 12.12.2019
2767 Clouds -9 1017 59 0 1.15 150 00:22 12.12.2019
2768 Clouds -9 1017 59 0 1.15 150 23:58 11.12.2019
2769 Clouds -9 1017 59 0 1.15 150 23:38 11.12.2019
2770 Clouds -8 1016 25 0 0.99 186 23:18 11.12.2019
2771 Clouds -8 1016 25 0 0.99 186 22:56 11.12.2019
2772 Clouds -8 1016 25 0 0.99 186 22:38 11.12.2019
2773 Clouds -8 1016 25 0 0.99 186 22:19 11.12.2019
2774 Clouds -8 1016 25 0 0.99 186 21:55 11.12.2019
2775 Clouds -8 1016 25 0 0.99 186 21:36 11.12.2019
2776 Clouds -8 1016 25 0 0.99 186 21:18 11.12.2019
2777 Clouds -8 1016 25 0 0.99 186 21:18 11.12.2019
2778 Clouds -8 1016 25 0 0.99 186 20:55 11.12.2019
2779 Clouds -8 1016 25 0 0.99 186 20:36 11.12.2019
2780 Clouds -7 1014 18 0 1.59 318 20:18 11.12.2019
2781 Clouds -7 1014 18 0 1.59 318 19:42 11.12.2019
2782 Clouds -7 1014 18 0 1.59 318 19:23 11.12.2019
2783 Clouds -7 1014 18 0 1.59 318 18:59 11.12.2019
2784 Clouds -7 1014 18 0 1.59 318 18:40 11.12.2019
2785 Clouds -7 1014 18 0 1.59 318 18:20 11.12.2019
2786 Clouds -7 1014 18 0 1.59 318 17:57 11.12.2019
2787 Clouds -7 1014 18 0 1.59 318 17:38 11.12.2019
2788 Clouds -5 1014 14 0 1.65 287 17:18 11.12.2019
2789 Clouds -5 1014 14 0 1.65 287 16:56 11.12.2019
2790 Clouds -5 1014 14 0 1.65 287 16:37 11.12.2019
2791 Clouds -5 1014 14 0 1.65 287 16:19 11.12.2019
2792 Clouds -5 1014 14 0 1.65 287 15:57 11.12.2019
2793 Clouds -5 1014 14 0 1.65 287 15:37 11.12.2019
2794 Clouds -5 1014 14 0 1.65 287 15:19 11.12.2019
2795 Clouds -5 1014 14 0 1.65 287 14:55 11.12.2019
2796 Clouds -5 1014 14 0 1.65 287 14:55 11.12.2019
2797 Clouds -5 1014 14 0 1.65 287 14:37 11.12.2019
2798 Clouds -3 1008 12 0 1.99 274 14:18 11.12.2019
2799 Clouds -3 1008 12 0 1.99 274 13:44 11.12.2019
2800 Clouds -3 1008 13 0 1.79 246 13:23 11.12.2019
2801 Clouds -3 1008 13 0 1.79 246 12:59 11.12.2019
2802 Clouds -3 1008 13 0 1.79 246 12:40 11.12.2019
2803 Clouds -3 1008 13 0 1.79 246 12:22 11.12.2019
2804 Clouds -3 1008 13 0 1.79 246 11:58 11.12.2019
2805 Clouds -3 1008 13 0 1.79 246 11:39 11.12.2019
2806 Clouds -3 1008 13 0 1.79 246 11:39 11.12.2019
2807 Clouds 5 1004 7 0 9.97 251 11:19 11.12.2019
2808 Clouds 5 1004 7 0 9.97 251 10:59 11.12.2019
2809 Clouds 5 1004 7 0 9.97 251 10:40 11.12.2019
2810 Clouds 5 1004 7 0 9.97 251 10:22 11.12.2019
2811 Clouds 5 1004 7 0 9.97 251 09:58 11.12.2019
2812 Clouds 5 1004 7 0 9.97 251 09:38 11.12.2019
2813 Clouds 5 1004 7 0 9.97 251 09:19 11.12.2019
2814 Clouds 5 1004 7 0 9.97 251 08:56 11.12.2019
2815 Clouds 5 1004 7 0 9.97 251 08:37 11.12.2019
2816 Clouds 4 1007 8 0 7.91 265 08:18 11.12.2019
2817 Clouds 4 1008 10 0 7.12 252 07:44 11.12.2019
2818 Clouds 4 1008 10 0 7.12 252 07:24 11.12.2019
2819 Clouds 4 1008 10 0 7.12 252 06:46 11.12.2019
2820 Clouds 4 1008 10 0 7.12 252 06:25 11.12.2019
2821 Clouds 4 1008 10 0 7.12 252 05:56 11.12.2019
2822 Clouds 4 1008 10 0 7.12 252 05:36 11.12.2019
2823 Clouds -1 1014 36 0 2.43 155 04:53 11.12.2019
2824 Clouds -1 1014 36 0 2.43 155 03:37 11.12.2019
2825 Clouds -1 1014 36 0 2.43 155 02:39 11.12.2019
2826 Clouds -9 1013 68 0 0.39 10 01:22 11.12.2019
2827 Clouds -6 1013 59 0 1.71 41 00:45 11.12.2019
2828 Clouds -6 1013 59 0 1.71 41 00:19 11.12.2019
2829 Clouds -6 1013 59 0 1.71 41 23:46 10.12.2019
2830 Clouds -6 1013 59 0 1.71 41 23:26 10.12.2019
2831 Clouds -5 1012 50 0 3.41 53 22:57 10.12.2019
2832 Clouds -5 1012 50 0 3.41 53 22:39 10.12.2019
2833 Clouds -5 1012 50 0 3.41 53 22:21 10.12.2019
2834 Clouds -5 1012 50 0 3.41 53 21:54 10.12.2019
2835 Clouds -5 1012 50 0 3.41 53 21:36 10.12.2019
2836 Clouds -5 1012 50 0 3.41 53 21:18 10.12.2019
2837 Clouds -5 1012 50 0 3.41 53 20:56 10.12.2019
2838 Clouds -5 1012 50 0 3.41 53 20:37 10.12.2019
2839 Clouds -5 1012 45 0 3.02 28 20:18 10.12.2019
2840 Clouds -5 1012 45 0 3.02 28 19:44 10.12.2019
2841 Clouds -5 1012 45 0 3.02 28 19:26 10.12.2019
2842 Clouds -5 1012 45 0 3.02 28 18:59 10.12.2019
2843 Clouds -5 1012 45 0 3.02 28 18:39 10.12.2019
2844 Clouds -5 1012 45 0 3.02 28 18:20 10.12.2019
2845 Clouds -5 1012 45 0 3.02 28 17:55 10.12.2019
2846 Clouds -5 1012 45 0 3.02 28 17:37 10.12.2019
2847 Clouds -3 1012 21 0 1.87 344 17:19 10.12.2019
2848 Clouds -3 1012 21 0 1.87 344 16:43 10.12.2019
2849 Clouds -3 1012 21 0 1.87 344 16:20 10.12.2019
2850 Clouds -3 1012 21 0 1.87 344 16:20 10.12.2019
2851 Clouds -3 1012 21 0 1.87 344 15:58 10.12.2019
2852 Clouds -3 1012 21 0 1.87 344 15:37 10.12.2019
2853 Clouds -3 1012 21 0 1.87 344 15:18 10.12.2019
2854 Clouds -3 1012 21 0 1.87 344 15:18 10.12.2019
2855 Clouds -3 1012 21 0 1.87 344 15:18 10.12.2019
2856 Clouds -3 1012 21 0 1.87 344 14:55 10.12.2019
2857 Clouds -3 1012 21 0 1.87 344 14:37 10.12.2019
2858 Clouds -1 1009 17 0 2.27 338 14:19 10.12.2019
2859 Clouds -1 1009 17 0 2.27 338 13:56 10.12.2019
2860 Clouds -1 1009 17 0 2.27 338 13:37 10.12.2019
2861 Clouds -1 1009 17 0 2.27 338 13:18 10.12.2019
2862 Clouds 0 1010 17 0 2.92 5 12:40 10.12.2019
2863 Clouds 0 1010 17 0 2.92 5 12:22 10.12.2019
2864 Clouds 0 1010 17 0 2.92 5 11:42 10.12.2019
2865 Clouds 0 1010 17 0 2.92 5 11:24 10.12.2019
2866 Clouds 6 1006 9 0 4.11 256 10:57 10.12.2019
2867 Clouds 6 1006 9 0 4.11 256 10:38 10.12.2019
2868 Clouds 6 1006 9 0 4.11 256 10:20 10.12.2019
2869 Clouds 6 1006 9 0 4.11 256 09:56 10.12.2019
2870 Clouds 6 1006 9 0 4.11 256 09:56 10.12.2019
2871 Clouds 6 1006 9 0 4.11 256 09:38 10.12.2019
2872 Clouds 6 1006 9 0 4.11 256 09:38 10.12.2019
2873 Clouds 6 1006 9 0 4.11 256 09:19 10.12.2019
2874 Clouds 6 1006 9 0 4.11 256 08:55 10.12.2019
2875 Clouds 6 1006 9 0 4.11 256 08:37 10.12.2019
2876 Clear 3 1010 9 0 0.86 167 08:18 10.12.2019
2877 Clear 3 1010 9 0 0.86 167 07:44 10.12.2019
2878 Clear 3 1010 9 0 0.86 167 07:25 10.12.2019
2879 Clear 3 1010 9 0 0.86 167 06:48 10.12.2019
2880 Clear 3 1010 9 0 0.86 167 06:22 10.12.2019
2881 Clear 3 1010 9 0 0.86 167 05:55 10.12.2019
2882 Clear -2 1016 17 0 0.78 27 04:58 10.12.2019
2883 Clear -2 1016 17 0 0.78 27 03:47 10.12.2019
2884 Clear -2 1016 17 0 0.78 27 02:48 10.12.2019
2885 Clouds -10 1017 39 0 1.91 32 01:51 10.12.2019
2886 Clouds -11 1017 43 0 1.63 31 01:26 10.12.2019
2887 Clouds -11 1017 43 0 1.63 31 00:49 10.12.2019
2888 Clouds -11 1017 43 0 1.63 31 00:24 10.12.2019
2889 Clouds -11 1017 43 0 1.63 31 23:43 09.12.2019
2890 Clouds -11 1017 43 0 1.63 31 23:24 09.12.2019
2891 Clouds -9 1017 26 0 1.95 41 22:58 09.12.2019
2892 Clouds -9 1017 26 0 1.95 41 22:40 09.12.2019
2893 Clouds -9 1017 26 0 1.95 41 22:21 09.12.2019
2894 Clouds -9 1017 26 0 1.95 41 21:58 09.12.2019
2895 Clouds -9 1017 26 0 1.95 41 21:39 09.12.2019
2896 Clouds -9 1017 26 0 1.95 41 21:19 09.12.2019
2897 Clouds -9 1017 26 0 1.95 41 20:57 09.12.2019
2898 Clouds -9 1017 26 0 1.95 41 20:39 09.12.2019
2899 Clouds -7 1018 18 0 2.08 35 20:20 09.12.2019
2900 Clouds -7 1018 18 0 2.08 35 19:57 09.12.2019
2901 Clouds -7 1018 18 0 2.08 35 19:39 09.12.2019
2902 Clouds -7 1018 18 0 2.08 35 19:20 09.12.2019
2903 Clouds -7 1018 18 0 2.08 35 18:59 09.12.2019
2904 Clouds -7 1018 18 0 2.08 35 18:40 09.12.2019
2905 Clouds -7 1018 18 0 2.08 35 18:20 09.12.2019
2906 Clouds -7 1018 18 0 2.08 35 17:59 09.12.2019
2907 Clouds -7 1018 18 0 2.08 35 17:40 09.12.2019
2908 Clouds -6 1019 9 0 0.29 24 17:21 09.12.2019
2909 Clouds -6 1019 9 0 0.29 24 16:56 09.12.2019
2910 Clouds -6 1019 9 0 0.29 24 16:38 09.12.2019
2911 Clouds -6 1019 9 0 0.29 24 16:20 09.12.2019
2912 Clouds -6 1019 9 0 0.29 24 15:56 09.12.2019
2913 Clouds -6 1019 9 0 0.29 24 15:56 09.12.2019
2914 Clouds -6 1019 9 0 0.29 24 15:37 09.12.2019
2915 Clouds -6 1019 9 0 0.29 24 15:19 09.12.2019
2916 Clouds -6 1019 9 0 0.29 24 14:58 09.12.2019
2917 Clouds -6 1019 9 0 0.29 24 14:39 09.12.2019
2918 Clouds -3 1017 8 0 1.75 68 14:18 09.12.2019
2919 Clouds -3 1017 8 0 1.75 68 13:55 09.12.2019
2920 Clouds -3 1017 8 0 1.75 68 13:36 09.12.2019
2921 Clouds -3 1017 8 0 1.78 65 13:18 09.12.2019
2922 Clouds -3 1017 8 0 1.78 65 12:54 09.12.2019
2923 Clouds -3 1017 8 0 1.78 65 12:36 09.12.2019
2924 Clouds -3 1017 8 0 1.78 65 12:18 09.12.2019
2925 Clouds -3 1017 8 0 1.78 65 11:40 09.12.2019
2926 Clear 5 1015 4 0 2.8 310 11:21 09.12.2019
2927 Clear 5 1015 4 0 2.8 310 10:57 09.12.2019
2928 Clear 5 1015 4 0 2.8 310 10:38 09.12.2019
2929 Clear 5 1015 4 0 2.8 310 10:19 09.12.2019
2930 Clear 5 1015 4 0 2.8 310 09:44 09.12.2019
2931 Clear 5 1015 4 0 2.8 310 09:25 09.12.2019
2932 Clear 5 1015 4 0 2.8 310 08:57 09.12.2019
2933 Clear 5 1015 4 0 2.8 310 08:39 09.12.2019
2934 Clear 4 1018 4 0 1.94 298 08:20 09.12.2019
2935 Clear 4 1018 4 0 1.94 298 07:49 09.12.2019
2936 Clear 4 1018 4 0 1.94 298 07:30 09.12.2019
2937 Clear 4 1018 4 0 1.94 298 06:55 09.12.2019
2938 Clear 4 1018 4 0 1.94 298 06:30 09.12.2019
2939 Clear 4 1018 4 0 1.94 298 05:42 09.12.2019
2940 Clear -1 1023 10 0 0.41 75 05:20 09.12.2019
2941 Clear -1 1023 10 0 0.41 75 04:27 09.12.2019
2942 Clear -1 1023 10 0 0.41 75 04:27 09.12.2019
2943 Clear -1 1023 10 0 0.41 75 02:28 09.12.2019
2944 Clear -10 1023 32 0 1.48 25 01:46 09.12.2019
2945 Clouds -10 1023 37 0 1.61 35 00:58 09.12.2019
2946 Clouds -10 1023 37 0 1.61 35 00:33 09.12.2019
2947 Clouds -10 1023 37 0 1.61 35 23:55 08.12.2019
2948 Clouds -10 1023 37 0 1.61 35 23:37 08.12.2019
2949 Clouds -8 1022 29 0 2.43 22 23:19 08.12.2019
2950 Clouds -8 1022 29 0 2.43 22 22:56 08.12.2019
2951 Clouds -8 1022 29 0 2.43 22 22:38 08.12.2019
2952 Clouds -8 1022 29 0 2.43 22 22:18 08.12.2019
2953 Clouds -8 1022 29 0 2.43 22 21:56 08.12.2019
2954 Clouds -8 1022 29 0 2.43 22 21:37 08.12.2019
2955 Clouds -8 1022 29 0 2.43 22 21:19 08.12.2019
2956 Clouds -8 1022 29 0 2.43 22 21:19 08.12.2019
2957 Clouds -8 1022 29 0 2.43 22 20:55 08.12.2019
2958 Clouds -8 1022 29 0 2.43 22 20:55 08.12.2019
2959 Clouds -8 1022 29 0 2.43 22 20:37 08.12.2019
2960 Clouds -8 1021 20 0 1.42 25 20:19 08.12.2019
2961 Clouds -8 1021 20 0 1.42 25 19:55 08.12.2019
2962 Clouds -8 1021 20 0 1.42 25 19:36 08.12.2019
2963 Clouds -8 1021 20 0 1.42 25 19:18 08.12.2019
2964 Clouds -8 1021 20 0 1.42 25 19:18 08.12.2019
2965 Clouds -8 1021 20 0 1.42 25 18:54 08.12.2019
2966 Clouds -8 1021 20 0 1.42 25 18:36 08.12.2019
2967 Clouds -8 1021 20 0 1.42 25 18:18 08.12.2019
2968 Clouds -8 1021 20 0 1.42 25 17:54 08.12.2019
2969 Clouds -8 1021 20 0 1.42 25 17:36 08.12.2019
2970 Clouds -5 1021 16 0 1.96 315 17:18 08.12.2019
2971 Clouds -5 1021 16 0 1.96 315 17:18 08.12.2019
2972 Clouds -5 1021 16 0 1.96 315 16:55 08.12.2019
2973 Clouds -5 1021 16 0 1.96 315 16:37 08.12.2019
2974 Clouds -5 1021 16 0 1.96 315 16:18 08.12.2019
2975 Clouds -5 1021 16 0 1.96 315 15:37 08.12.2019
2976 Clouds -5 1021 16 0 1.96 315 15:18 08.12.2019
2977 Clouds -5 1021 16 0 1.96 315 14:57 08.12.2019
2978 Clouds -5 1021 16 0 1.96 315 14:38 08.12.2019
2979 Clouds -3 1018 14 0 0.16 189 14:20 08.12.2019
2980 Clouds -3 1018 14 0 0.16 189 13:42 08.12.2019
2981 Clouds -3 1018 14 0 0.16 189 13:23 08.12.2019
2982 Clouds -4 1018 15 0 0.45 149 12:59 08.12.2019
2983 Clouds -4 1018 15 0 0.45 149 12:41 08.12.2019
2984 Clouds -4 1018 15 0 0.45 149 12:23 08.12.2019
2985 Clouds -4 1018 15 0 0.45 149 11:59 08.12.2019
2986 Clouds -4 1018 15 0 0.45 149 11:38 08.12.2019
2987 Clouds 4 1015 8 0 1.52 118 11:19 08.12.2019
2988 Clouds 4 1015 8 0 1.52 118 10:58 08.12.2019
2989 Clouds 4 1015 8 0 1.52 118 10:38 08.12.2019
2990 Clouds 4 1015 8 0 1.52 118 10:19 08.12.2019
2991 Clouds 4 1015 8 0 1.52 118 09:56 08.12.2019
2992 Clouds 4 1015 8 0 1.52 118 09:37 08.12.2019
2993 Clouds 4 1015 8 0 1.52 118 09:37 08.12.2019
2994 Clouds 4 1015 8 0 1.52 118 09:19 08.12.2019
2995 Clouds 4 1015 8 0 1.52 118 08:57 08.12.2019
2996 Clouds 4 1015 8 0 1.52 118 08:36 08.12.2019
2997 Clear 2 1017 12 0 0.47 171 08:18 08.12.2019
2998 Clear 2 1017 12 0 0.47 171 07:42 08.12.2019
2999 Clear 2 1017 12 0 0.47 171 07:19 08.12.2019
3000 Clear 2 1017 12 0 0.47 171 06:47 08.12.2019
3001 Clear 2 1017 12 0 0.47 171 06:22 08.12.2019
3002 Clear 2 1017 12 0 0.47 171 05:35 08.12.2019
3003 Clear -2 1024 17 0 0.94 25 04:59 08.12.2019
3004 Clear -2 1024 17 0 0.94 25 03:47 08.12.2019
3005 Clear -2 1024 17 0 0.94 25 03:20 08.12.2019
3006 Clear -2 1024 17 0 0.94 25 02:34 08.12.2019
3007 Clouds -10 1023 33 0 1.93 38 01:48 08.12.2019
3008 Clear -10 1023 34 0 1.87 38 00:59 08.12.2019
3009 Clear -10 1023 34 0 1.87 38 00:39 08.12.2019
3010 Clear -10 1023 34 0 1.87 38 00:19 08.12.2019
3011 Clear -10 1023 34 0 1.87 38 23:40 07.12.2019
3012 Clouds -8 1022 29 0 2.75 34 23:20 07.12.2019
3013 Clouds -8 1022 29 0 2.75 34 22:56 07.12.2019
3014 Clouds -8 1022 29 0 2.75 34 22:38 07.12.2019
3015 Clouds -8 1022 29 0 2.75 34 22:20 07.12.2019
3016 Clouds -8 1022 29 0 2.75 34 21:56 07.12.2019
3017 Clouds -8 1022 29 0 2.75 34 21:38 07.12.2019
3018 Clouds -8 1022 29 0 2.75 34 21:19 07.12.2019
3019 Clouds -8 1022 29 0 2.75 34 20:55 07.12.2019
3020 Clouds -8 1022 29 0 2.75 34 20:36 07.12.2019
3021 Clouds -7 1022 21 0 2.72 31 20:18 07.12.2019
3022 Clouds -7 1022 21 0 2.72 31 19:55 07.12.2019
3023 Clouds -7 1022 21 0 2.72 31 19:36 07.12.2019
3024 Clouds -7 1022 21 0 2.72 31 19:18 07.12.2019
3025 Clouds -7 1022 21 0 2.72 31 18:44 07.12.2019
3026 Clouds -7 1022 21 0 2.72 31 18:19 07.12.2019
3027 Clouds -7 1022 21 0 2.72 31 17:57 07.12.2019
3028 Clouds -7 1022 21 0 2.72 31 17:39 07.12.2019
3029 Clouds -5 1022 13 0 1.55 26 17:20 07.12.2019
3030 Clouds -5 1022 13 0 1.55 26 16:56 07.12.2019
3031 Clouds -5 1022 13 0 1.55 26 16:56 07.12.2019
3032 Clouds -5 1022 13 0 1.55 26 16:37 07.12.2019
3033 Clouds -5 1022 13 0 1.55 26 16:19 07.12.2019
3034 Clouds -5 1022 13 0 1.55 26 15:42 07.12.2019
3035 Clouds -5 1022 13 0 1.55 26 15:23 07.12.2019
3036 Clouds -5 1022 13 0 1.55 26 15:23 07.12.2019
3037 Clouds -5 1022 13 0 1.55 26 14:57 07.12.2019
3038 Clouds -5 1022 13 0 1.55 26 14:39 07.12.2019
3039 Clear -4 1019 13 0 1.14 161 14:18 07.12.2019
3040 Clear -4 1019 13 0 1.14 161 13:41 07.12.2019
3041 Clear -4 1019 13 0 1.14 161 13:41 07.12.2019
3042 Clear -4 1019 21 0 0.73 159 13:21 07.12.2019
3043 Clear -4 1019 21 0 0.73 159 12:59 07.12.2019
3044 Clear -4 1019 21 0 0.73 159 12:40 07.12.2019
3045 Clear -4 1019 21 0 0.73 159 12:22 07.12.2019
3046 Clear -4 1019 21 0 0.73 159 11:57 07.12.2019
3047 Clear -4 1019 21 0 0.73 159 11:39 07.12.2019
3048 Clear 5 1016 7 0 1.43 142 11:20 07.12.2019
3049 Clear 5 1016 7 0 1.43 142 10:38 07.12.2019
3050 Clear 5 1016 7 0 1.43 142 10:19 07.12.2019
3051 Clear 5 1016 7 0 1.43 142 09:42 07.12.2019
3052 Clear 5 1016 7 0 1.43 142 09:22 07.12.2019
3053 Clear 5 1016 7 0 1.43 142 08:59 07.12.2019
3054 Clear 5 1016 7 0 1.43 142 08:39 07.12.2019
3055 Clouds 3 1019 9 0 0.89 183 08:21 07.12.2019
3056 Clouds 3 1019 9 0 0.89 183 07:45 07.12.2019
3057 Clouds 3 1019 9 0 0.89 183 07:25 07.12.2019
3058 Clouds 3 1019 9 0 0.89 183 06:48 07.12.2019
3059 Clouds 3 1019 9 0 0.89 183 06:25 07.12.2019
3060 Clouds 3 1019 9 0 0.89 183 05:25 07.12.2019
3061 Clouds -2 1025 13 0 0.83 30 03:56 07.12.2019
3062 Clouds -2 1025 13 0 0.83 30 03:18 07.12.2019
3063 Clouds -10 1026 28 0 1.99 39 02:21 07.12.2019
3064 Clouds -10 1025 28 0 1.9 43 01:34 07.12.2019
3065 Clouds -10 1025 28 0 1.9 43 00:52 07.12.2019
3066 Clouds -10 1025 28 0 1.9 43 00:19 07.12.2019
3067 Clouds -10 1025 28 0 1.9 43 23:56 06.12.2019
3068 Clouds -10 1025 28 0 1.9 43 23:36 06.12.2019
3069 Clouds -7 1025 23 0 2.61 35 23:18 06.12.2019
3070 Clouds -7 1025 23 0 2.61 35 22:38 06.12.2019
3071 Clouds -7 1025 23 0 2.61 35 22:19 06.12.2019
3072 Clouds -7 1025 23 0 2.61 35 21:57 06.12.2019
3073 Clouds -7 1025 23 0 2.61 35 21:38 06.12.2019
3074 Clouds -7 1025 23 0 2.61 35 21:19 06.12.2019
3075 Clouds -7 1025 23 0 2.61 35 20:42 06.12.2019
3076 Clouds -7 1025 23 0 2.61 35 20:42 06.12.2019
3077 Clouds -7 1025 23 0 2.61 35 20:24 06.12.2019
3078 Clouds -6 1024 19 0 2.61 28 19:59 06.12.2019
3079 Clouds -6 1024 19 0 2.61 28 19:40 06.12.2019
3080 Clouds -6 1024 19 0 2.61 28 19:21 06.12.2019
3081 Clouds -6 1024 19 0 2.61 28 18:56 06.12.2019
3082 Clouds -6 1024 19 0 2.61 28 18:38 06.12.2019
3083 Clouds -6 1024 19 0 2.61 28 18:19 06.12.2019
3084 Clouds -6 1024 19 0 2.61 28 17:55 06.12.2019
3085 Clouds -6 1024 19 0 2.61 28 17:37 06.12.2019
3086 Clouds -4 1023 16 0 1.98 10 17:19 06.12.2019
3087 Clouds -4 1023 16 0 1.98 10 16:42 06.12.2019
3088 Clouds -4 1023 16 0 1.98 10 16:24 06.12.2019
3089 Clouds -4 1023 16 0 1.98 10 15:59 06.12.2019
3090 Clouds -4 1023 16 0 1.98 10 15:40 06.12.2019
3091 Clouds -4 1023 16 0 1.98 10 15:18 06.12.2019
3092 Clouds -4 1023 16 0 1.98 10 14:56 06.12.2019
3093 Clouds -4 1023 16 0 1.98 10 14:37 06.12.2019
3094 Clear -4 1020 18 0 0.48 142 14:18 06.12.2019
3095 Clear -4 1020 18 0 0.48 142 13:42 06.12.2019
3096 Clear -4 1020 18 0 0.39 184 13:24 06.12.2019
3097 Clear -4 1020 18 0 0.39 184 12:42 06.12.2019
3098 Clear -4 1020 18 0 0.39 184 12:22 06.12.2019
3099 Clear -4 1020 18 0 0.39 184 11:57 06.12.2019
3100 Clear -4 1020 18 0 0.39 184 11:39 06.12.2019
3101 Clear 5 1016 8 0 1.22 156 11:19 06.12.2019
3102 Clear 5 1016 8 0 1.22 156 10:43 06.12.2019
3103 Clear 5 1016 8 0 1.22 156 10:21 06.12.2019
3104 Clear 5 1016 8 0 1.22 156 09:58 06.12.2019
3105 Clear 5 1016 8 0 1.22 156 09:37 06.12.2019
3106 Clear 5 1016 8 0 1.22 156 09:19 06.12.2019
3107 Clear 5 1016 8 0 1.22 156 08:45 06.12.2019
3108 Clear 5 1016 8 0 1.22 156 08:26 06.12.2019
3109 Clouds 2 1020 10 0 0.89 186 07:44 06.12.2019
3110 Clouds 2 1020 10 0 0.89 186 07:24 06.12.2019
3111 Clouds 2 1020 10 0 0.89 186 06:59 06.12.2019
3112 Clouds 2 1020 10 0 0.89 186 06:28 06.12.2019
3113 Clouds 2 1020 10 0 0.89 186 05:53 06.12.2019
3114 Clear -3 1027 14 0 1.06 24 05:21 06.12.2019
3115 Clouds -12 1028 30 0 1.72 29 02:19 06.12.2019
3116 Clouds -12 1028 30 0 1.72 29 01:29 06.12.2019
3117 Clouds -11 1027 29 0 1.73 25 00:40 06.12.2019
3118 Clouds -11 1027 29 0 1.73 25 00:20 06.12.2019
3119 Clouds -11 1027 29 0 1.73 25 23:45 05.12.2019
3120 Clouds -10 1027 24 0 1.88 25 23:19 05.12.2019
3121 Clouds -10 1027 24 0 1.88 25 22:57 05.12.2019
3122 Clouds -10 1027 24 0 1.88 25 22:37 05.12.2019
3123 Clouds -10 1027 24 0 1.88 25 22:18 05.12.2019
3124 Clouds -10 1027 24 0 1.88 25 21:44 05.12.2019
3125 Clouds -10 1027 24 0 1.88 25 21:25 05.12.2019
3126 Clouds -10 1027 24 0 1.88 25 20:59 05.12.2019
3127 Clouds -10 1027 24 0 1.88 25 20:40 05.12.2019
3128 Clear -9 1028 17 0 1.41 19 20:20 05.12.2019
3129 Clear -10 1028 17 0 1.29 19 19:57 05.12.2019
3130 Clear -10 1028 17 0 1.29 19 19:57 05.12.2019
3131 Clear -10 1028 17 0 1.29 19 19:39 05.12.2019
3132 Clear -10 1028 17 0 1.29 19 19:20 05.12.2019
3133 Clear -10 1028 17 0 1.29 19 18:57 05.12.2019
3134 Clear -10 1028 17 0 1.29 19 18:37 05.12.2019
3135 Clear -10 1028 17 0 1.29 19 18:19 05.12.2019
3136 Clear -10 1028 17 0 1.29 19 18:19 05.12.2019
3137 Clear -10 1028 17 0 1.29 19 17:39 05.12.2019
3138 Clear -8 1028 15 0 0.71 39 17:20 05.12.2019
3139 Clear -8 1028 15 0 0.71 39 16:57 05.12.2019
3140 Clear -8 1028 15 0 0.71 39 16:39 05.12.2019
3141 Clear -8 1028 15 0 0.71 39 16:21 05.12.2019
3142 Clear -8 1028 15 0 0.71 39 16:21 05.12.2019
3143 Clear -8 1028 15 0 0.71 39 15:56 05.12.2019
3144 Clear -8 1028 15 0 0.71 39 15:38 05.12.2019
3145 Clear -8 1028 15 0 0.71 39 15:19 05.12.2019
3146 Clear -8 1028 15 0 0.71 39 14:55 05.12.2019
3147 Clear -8 1028 15 0 0.71 39 14:37 05.12.2019
3148 Clear -8 1028 15 0 0.71 39 14:37 05.12.2019
3149 Clear -7 1027 13 0 0.47 302 14:18 05.12.2019
3150 Clear -7 1027 13 0 0.47 302 13:56 05.12.2019
3151 Clear -7 1027 13 0 0.47 302 13:38 05.12.2019
3152 Clear -7 1027 13 0 0.55 328 13:19 05.12.2019
3153 Clear -7 1027 13 0 0.55 328 12:55 05.12.2019
3154 Clear -7 1027 13 0 0.55 328 12:37 05.12.2019
3155 Clear -7 1027 13 0 0.55 328 12:19 05.12.2019
3156 Clear -7 1027 13 0 0.55 328 11:39 05.12.2019
3157 Clear 1 1023 6 0 0.16 93 11:20 05.12.2019
3158 Clear 1 1023 6 0 0.16 93 10:57 05.12.2019
3159 Clear 1 1023 6 0 0.16 93 10:39 05.12.2019
3160 Clear 1 1023 6 0 0.16 93 10:18 05.12.2019
3161 Clear 1 1023 6 0 0.16 93 09:54 05.12.2019
3162 Clear 1 1023 6 0 0.16 93 09:36 05.12.2019
3163 Clear 1 1023 6 0 0.16 93 09:18 05.12.2019
3164 Clear 1 1023 6 0 0.16 93 08:39 05.12.2019
3165 Clear -1 1027 7 0 0.34 210 08:20 05.12.2019
3166 Clear -1 1027 7 0 0.34 210 07:56 05.12.2019
3167 Clear -1 1027 7 0 0.34 210 07:36 05.12.2019
3168 Clear -1 1027 7 0 0.34 210 07:18 05.12.2019
3169 Clear -1 1027 7 0 0.34 210 06:42 05.12.2019
3170 Clear -1 1027 7 0 0.34 210 06:21 05.12.2019
3171 Clear -1 1027 7 0 0.34 210 05:48 05.12.2019
3172 Clear -1 1027 7 0 0.34 210 05:23 05.12.2019
3173 Clear -6 1034 11 0 1.11 18 04:25 05.12.2019
3174 Clear -6 1034 11 0 1.11 18 04:25 05.12.2019
3175 Clear -6 1034 11 0 1.11 18 02:54 05.12.2019
3176 Clear -6 1034 11 0 1.11 18 02:25 05.12.2019
3177 Clear -13 1036 25 0 2.14 23 01:55 05.12.2019
3178 Clouds -13 1035 25 0 2.07 23 01:27 05.12.2019
3179 Clear -13 1036 25 0 2.14 23 01:27 05.12.2019
3180 Clouds -13 1035 25 0 2.07 23 00:54 05.12.2019
3181 Clouds -13 1035 25 0 2.07 23 00:36 05.12.2019
3182 Clouds -13 1035 25 0 2.07 23 00:18 05.12.2019
3183 Clouds -13 1035 25 0 2.07 23 23:40 04.12.2019
3184 Clear -12 1035 25 0 2.57 28 23:22 04.12.2019
3185 Clear -12 1035 25 0 2.57 28 22:57 04.12.2019
3186 Clear -12 1035 25 0 2.57 28 22:36 04.12.2019
3187 Clear -12 1035 25 0 2.57 28 22:18 04.12.2019
3188 Clear -12 1035 25 0 2.57 28 21:55 04.12.2019
3189 Clear -12 1035 25 0 2.57 28 21:37 04.12.2019
3190 Clear -12 1035 25 0 2.57 28 21:18 04.12.2019
3191 Clear -12 1035 25 0 2.57 28 20:56 04.12.2019
3192 Clear -12 1035 25 0 2.57 28 20:37 04.12.2019
3193 Clear -10 1035 22 0 2.48 37 20:19 04.12.2019
3194 Clear -10 1035 22 0 2.48 37 19:40 04.12.2019
3195 Clear -10 1035 22 0 2.48 37 19:22 04.12.2019
3196 Clear -10 1035 22 0 2.48 37 18:58 04.12.2019
3197 Clear -10 1035 22 0 2.48 37 18:40 04.12.2019
3198 Clear -10 1035 22 0 2.48 37 18:22 04.12.2019
3199 Clear -10 1035 22 0 2.48 37 17:57 04.12.2019
3200 Clear -10 1035 22 0 2.48 37 17:38 04.12.2019
3201 Clear -8 1036 14 0 1.56 18 17:18 04.12.2019
3202 Clear -8 1036 14 0 1.56 18 16:40 04.12.2019
3203 Clear -8 1036 14 0 1.56 18 16:40 04.12.2019
3204 Clear -8 1036 14 0 1.56 18 16:20 04.12.2019
3205 Clear -8 1036 14 0 1.56 18 15:58 04.12.2019
3206 Clear -8 1036 14 0 1.56 18 15:40 04.12.2019
3207 Clear -8 1036 14 0 1.56 18 15:20 04.12.2019
3208 Clear -8 1036 14 0 1.56 18 14:59 04.12.2019
3209 Clear -8 1036 14 0 1.56 18 14:40 04.12.2019
3210 Clear -7 1031 11 0 1.97 357 14:21 04.12.2019
3211 Clear -7 1031 11 0 1.97 357 13:55 04.12.2019
3212 Clear -7 1031 11 0 1.97 357 13:36 04.12.2019
3213 Clear -6 1031 11 0 1.96 3 13:18 04.12.2019
3214 Clear -6 1031 11 0 1.96 3 12:41 04.12.2019
3215 Clear -6 1031 11 0 1.96 3 12:23 04.12.2019
3216 Clear -6 1031 11 0 1.96 3 11:44 04.12.2019
3217 Clear -6 1031 11 0 1.96 3 11:26 04.12.2019
3218 Clear 1 1027 5 0 7.65 330 10:58 04.12.2019
3219 Clear 1 1027 5 0 7.65 330 10:40 04.12.2019
3220 Clear 1 1027 5 0 7.65 330 10:21 04.12.2019
3221 Clear 1 1027 5 0 7.65 330 09:44 04.12.2019
3222 Clear 1 1027 5 0 7.65 330 09:24 04.12.2019
3223 Clear 1 1027 5 0 7.65 330 09:24 04.12.2019
3224 Clear 1 1027 5 0 7.65 330 08:54 04.12.2019
3225 Clear 1 1027 5 0 7.65 330 08:36 04.12.2019
3226 Clear 1 1027 5 0 5.77 324 08:18 04.12.2019
3227 Clear 1 1027 5 0 5.77 324 07:41 04.12.2019
3228 Clear 1 1027 5 0 5.77 324 07:22 04.12.2019
3229 Clear 1 1027 5 0 5.77 324 06:33 04.12.2019
3230 Clear 1 1027 5 0 5.77 324 05:47 04.12.2019
3231 Clear -4 1032 19 0 1.01 341 04:39 04.12.2019
3232 Clear -4 1032 19 0 1.01 341 03:53 04.12.2019
3233 Clear -12 1032 53 0 1.26 8 02:19 04.12.2019
3234 Clear -12 1032 57 0 1.26 25 00:50 04.12.2019
3235 Clear -12 1032 57 0 1.26 25 00:22 04.12.2019
3236 Clear -12 1032 57 0 1.26 25 23:56 03.12.2019
3237 Clear -12 1032 57 0 1.26 25 23:37 03.12.2019
3238 Clear -10 1031 53 0 1.72 11 23:18 03.12.2019
3239 Clear -10 1031 53 0 1.72 11 22:40 03.12.2019
3240 Clear -10 1031 53 0 1.72 11 22:19 03.12.2019
3241 Clear -10 1031 53 0 1.72 11 21:57 03.12.2019
3242 Clear -10 1031 53 0 1.72 11 21:37 03.12.2019
3243 Clear -10 1031 53 0 1.72 11 21:19 03.12.2019
3244 Clear -10 1031 53 0 1.72 11 20:56 03.12.2019
3245 Clear -10 1031 53 0 1.72 11 20:38 03.12.2019
3246 Clouds -8 1029 46 0 1.87 23 20:18 03.12.2019
3247 Clouds -8 1029 51 0 2.07 25 19:54 03.12.2019
3248 Clouds -8 1029 51 0 2.07 25 19:36 03.12.2019
3249 Clouds -8 1029 51 0 2.07 25 19:18 03.12.2019
3250 Clouds -8 1029 51 0 2.07 25 18:55 03.12.2019
3251 Clouds -8 1029 51 0 2.07 25 18:37 03.12.2019
3252 Clouds -8 1029 51 0 2.07 25 18:18 03.12.2019
3253 Clouds -8 1029 51 0 2.07 25 17:40 03.12.2019
3254 Clouds -5 1026 23 0 2.91 349 17:19 03.12.2019
3255 -273 0 0 0 0 0 16:59 03.12.2019
3256 Clouds -5 1026 23 0 2.91 349 16:59 03.12.2019
3257 Clouds -5 1026 23 0 2.91 349 16:40 03.12.2019
3258 Clouds -5 1026 23 0 2.91 349 16:40 03.12.2019
3259 Clouds -5 1026 23 0 2.91 349 16:21 03.12.2019
3260 -273 0 0 0 0 0 15:59 03.12.2019
3261 Clouds -5 1026 23 0 2.91 349 15:39 03.12.2019
3262 Clouds -5 1026 23 0 2.91 349 15:39 03.12.2019
3263 Clouds -5 1026 23 0 2.91 349 15:19 03.12.2019
3264 Clouds -5 1026 23 0 2.91 349 14:54 03.12.2019
3265 Clouds -5 1026 23 0 2.91 349 14:36 03.12.2019
3266 Clouds -3 1021 17 0 2.44 338 14:18 03.12.2019
3267 Clouds -3 1021 17 0 2.44 338 13:38 03.12.2019
3268 Clouds -4 1022 18 0 2.63 333 13:20 03.12.2019
3269 Clouds -4 1022 18 0 2.63 333 12:57 03.12.2019
3270 Clouds -4 1022 18 0 2.63 333 12:37 03.12.2019
3271 Clouds -4 1022 18 0 2.63 333 12:18 03.12.2019
3272 Clouds -4 1022 18 0 2.63 333 11:56 03.12.2019
3273 Clouds -4 1022 18 0 2.63 333 11:37 03.12.2019
3274 Clouds 2 1016 9 0 5.92 283 11:19 03.12.2019
3275 Clouds 2 1016 9 0 5.92 283 10:54 03.12.2019
3276 Clouds 2 1016 9 0 5.92 283 10:36 03.12.2019
3277 Clouds 2 1016 9 0 5.92 283 10:18 03.12.2019
3278 Clouds 2 1016 9 0 5.92 283 09:40 03.12.2019
3279 Clouds 2 1016 9 0 5.92 283 09:22 03.12.2019
3280 Clouds 2 1016 9 0 5.92 283 08:56 03.12.2019
3281 Clouds 2 1016 9 0 5.92 283 08:38 03.12.2019
3282 Clouds 1 1018 24 0 1.62 206 08:19 03.12.2019
3283 Clouds 1 1018 22 0 1.27 218 07:50 03.12.2019
3284 Clouds 1 1018 22 0 1.27 218 07:24 03.12.2019
3285 Clouds 1 1018 22 0 1.27 218 06:24 03.12.2019
3286 Clouds 1 1018 22 0 1.27 218 05:59 03.12.2019
3287 Clouds -4 1022 59 0 0.55 116 04:55 03.12.2019
3288 Clouds -4 1022 59 0 0.55 116 03:41 03.12.2019
3289 Clouds -4 1022 59 0 0.55 116 03:20 03.12.2019
3290 Clouds -4 1022 59 0 0.55 116 02:50 03.12.2019
3291 Clouds -4 1022 59 0 0.55 116 02:31 03.12.2019
3292 Snow -7 1021 79 0 2.07 49 01:53 03.12.2019
3293 Snow -7 1021 79 0 2.07 49 01:34 03.12.2019
3294 Snow -7 1021 85 0 1.71 56 00:57 03.12.2019
3295 Snow -7 1021 85 0 1.71 56 00:39 03.12.2019
3296 Snow -7 1021 85 0 1.71 56 00:20 03.12.2019
3297 Snow -7 1021 85 0 1.71 56 23:43 02.12.2019
3298 Clear -8 1018 72 0 1.23 93 23:20 02.12.2019
3299 Clear -8 1018 72 0 1.23 93 22:43 02.12.2019
3300 Clear -8 1018 72 0 1.23 93 22:23 02.12.2019
3301 Clear -8 1018 72 0 1.23 93 21:59 02.12.2019
3302 Clear -8 1018 72 0 1.23 93 21:39 02.12.2019
3303 Clear -8 1018 72 0 1.23 93 21:39 02.12.2019
3304 Clear -8 1018 72 0 1.23 93 21:39 02.12.2019
3305 Clear -8 1018 72 0 1.23 93 21:20 02.12.2019
3306 Clear -8 1018 72 0 1.23 93 20:57 02.12.2019
3307 Clear -8 1018 72 0 1.23 93 20:38 02.12.2019
3308 Clear -6 1017 58 0 2.03 144 20:20 02.12.2019
3309 Clear -6 1017 57 0 2.04 143 19:56 02.12.2019
3310 Clear -6 1017 57 0 2.04 143 19:56 02.12.2019
3311 Clear -6 1017 57 0 2.04 143 19:38 02.12.2019
3312 Clear -6 1017 57 0 2.04 143 19:20 02.12.2019
3313 Clear -6 1017 57 0 2.04 143 18:48 02.12.2019
3314 Clear -6 1017 57 0 2.04 143 18:24 02.12.2019
3315 Clear -6 1017 57 0 2.04 143 17:59 02.12.2019
3316 Clear -6 1017 57 0 2.04 143 17:40 02.12.2019
3317 Clear -4 1016 41 0 2.05 146 17:20 02.12.2019
3318 Clear -4 1016 41 0 2.05 146 16:57 02.12.2019
3319 Clear -4 1016 41 0 2.05 146 16:39 02.12.2019
3320 Clear -4 1016 41 0 2.05 146 16:18 02.12.2019
3321 Clear -4 1016 41 0 2.05 146 15:56 02.12.2019
3322 Clear -4 1016 41 0 2.05 146 15:38 02.12.2019
3323 Clear -4 1016 41 0 2.05 146 15:19 02.12.2019
3324 Clear -4 1016 41 0 2.05 146 14:40 02.12.2019
3325 Clouds -2 1014 33 0 1.53 189 14:20 02.12.2019
3326 Clouds -2 1014 33 0 1.53 189 13:59 02.12.2019
3327 Clouds -2 1014 33 0 1.53 189 13:41 02.12.2019
3328 Clouds -2 1013 36 0 1.63 163 13:20 02.12.2019
3329 Clouds -2 1013 36 0 1.63 163 13:20 02.12.2019
3330 Clouds -2 1013 36 0 1.63 163 12:59 02.12.2019
3331 Clouds -2 1013 36 0 1.63 163 12:40 02.12.2019
3332 Clouds -2 1013 36 0 1.63 163 12:20 02.12.2019
3333 Clouds -2 1013 36 0 1.63 163 11:56 02.12.2019
3334 Clouds -2 1013 36 0 1.63 163 11:37 02.12.2019
3335 Clouds 5 1009 19 0 2.3 178 11:18 02.12.2019
3336 Clouds 5 1009 19 0 2.3 178 10:56 02.12.2019
3337 Clouds 5 1009 19 0 2.3 178 10:37 02.12.2019
3338 Clouds 5 1009 19 0 2.3 178 10:19 02.12.2019
3339 Clouds 5 1009 19 0 2.3 178 09:41 02.12.2019
3340 Clouds 5 1009 19 0 2.3 178 09:19 02.12.2019
3341 Clouds 5 1009 19 0 2.3 178 08:58 02.12.2019
3342 Clouds 5 1009 19 0 2.3 178 08:40 02.12.2019
3343 Clear 2 1013 34 0 3.34 187 08:21 02.12.2019
3344 Clear 2 1013 34 0 3.34 187 07:44 02.12.2019
3345 Clear 2 1013 34 0 3.34 187 07:23 02.12.2019
3346 Clear 2 1013 34 0 3.34 187 06:57 02.12.2019
3347 Clear 2 1013 34 0 3.34 187 06:57 02.12.2019
3348 Clear 2 1013 34 0 3.34 187 06:38 02.12.2019
3349 Clear 2 1013 34 0 3.34 187 05:36 02.12.2019
3350 Clear -2 1019 49 0 2.19 175 04:40 02.12.2019
3351 Clear -2 1019 49 0 2.19 175 02:55 02.12.2019
3352 Clear -2 1019 49 0 2.19 175 02:36 02.12.2019
3353 Clear -9 1019 77 0 1.88 134 01:28 02.12.2019
3354 Clear -9 1019 77 0 1.88 134 00:59 02.12.2019
3355 Clear -9 1019 77 0 1.88 134 00:28 02.12.2019
3356 Clear -9 1019 77 0 1.88 134 23:56 01.12.2019
3357 Clear -9 1019 77 0 1.88 134 23:38 01.12.2019
3358 Clear -7 1017 56 0 2.03 138 23:19 01.12.2019
3359 Clear -7 1017 56 0 2.03 138 22:56 01.12.2019
3360 Clear -7 1017 56 0 2.03 138 22:37 01.12.2019
3361 Clear -7 1017 56 0 2.03 138 22:18 01.12.2019
3362 Clear -7 1017 56 0 2.03 138 21:55 01.12.2019
3363 Clear -7 1017 56 0 2.03 138 21:37 01.12.2019
3364 Clear -7 1017 56 0 2.03 138 21:18 01.12.2019
3365 Clear -7 1017 56 0 2.03 138 20:56 01.12.2019
3366 Clear -7 1017 56 0 2.03 138 20:37 01.12.2019
3367 Clear -5 1017 40 0 1.83 140 20:19 01.12.2019
3368 Clear -5 1017 40 0 1.83 140 20:19 01.12.2019
3369 Clear -5 1017 40 0 1.83 140 19:55 01.12.2019
3370 Clear -5 1017 40 0 1.83 140 19:36 01.12.2019
3371 Clear -5 1017 40 0 1.83 140 19:18 01.12.2019
3372 Clear -5 1017 40 0 1.83 140 19:18 01.12.2019
3373 Clear -5 1017 40 0 1.83 140 18:55 01.12.2019
3374 Clear -5 1017 40 0 1.83 140 18:55 01.12.2019
3375 Clear -5 1017 40 0 1.83 140 18:36 01.12.2019
3376 Clear -5 1017 40 0 1.83 140 18:18 01.12.2019
3377 Clear -5 1017 40 0 1.83 140 17:55 01.12.2019
3378 Clear -5 1017 40 0 1.83 140 17:37 01.12.2019
3379 Clear -4 1017 19 0 1.55 193 17:19 01.12.2019
3380 Clear -4 1017 19 0 1.55 193 16:43 01.12.2019
3381 Clear -4 1017 19 0 1.55 193 16:23 01.12.2019
3382 Clear -4 1017 19 0 1.55 193 15:53 01.12.2019
3383 Clear -4 1017 19 0 1.55 193 15:33 01.12.2019
3384 Clear -4 1017 19 0 1.55 193 14:58 01.12.2019
3385 Clear -4 1017 19 0 1.55 193 14:58 01.12.2019
3386 Clear -4 1017 19 0 1.55 193 14:58 01.12.2019
3387 Clear -4 1017 19 0 1.55 193 14:37 01.12.2019
3388 Clear -2 1014 14 0 2 302 14:18 01.12.2019
3389 Clear -2 1014 14 0 2 302 13:40 01.12.2019
3390 Clear -2 1014 14 0 2.27 305 13:21 01.12.2019
3391 Clear -2 1014 14 0 2.27 305 12:47 01.12.2019
3392 Clear -2 1014 14 0 2.27 305 12:19 01.12.2019
3393 Clear -2 1014 14 0 2.27 305 12:19 01.12.2019
3394 Clear -2 1014 14 0 2.27 305 12:19 01.12.2019
3395 Clear -2 1014 14 0 2.27 305 11:43 01.12.2019
3396 Clear -2 1014 14 0 2.27 305 11:43 01.12.2019
3397 Clear -2 1014 14 0 2.27 305 11:43 01.12.2019
3398 Clear -2 1014 14 0 2.27 305 11:24 01.12.2019
3399 Clear -2 1014 14 0 2.27 305 11:24 01.12.2019
3400 Clear 6 1010 7 0 8.61 274 10:45 01.12.2019
3401 Clear 6 1010 7 0 8.61 274 10:22 01.12.2019
3402 Clear 6 1010 7 0 8.61 274 09:59 01.12.2019
3403 Clear 6 1010 7 0 8.61 274 09:40 01.12.2019
3404 Clear 6 1010 7 0 8.61 274 09:21 01.12.2019
3405 Clear 6 1010 7 0 8.61 274 08:49 01.12.2019
3406 Clear 3 1014 17 0 2.92 196 08:22 01.12.2019
3407 Clear 3 1014 18 0 2.48 188 07:52 01.12.2019
3408 Clear 3 1014 18 0 2.48 188 07:32 01.12.2019
3409 Clear 3 1014 18 0 2.48 188 07:32 01.12.2019
3410 Clear 3 1014 18 0 2.48 188 06:58 01.12.2019
3411 Clear 3 1014 18 0 2.48 188 06:36 01.12.2019
3412 Clear 3 1014 18 0 2.48 188 05:50 01.12.2019
3413 Clear -2 1021 24 0 0.94 49 04:53 01.12.2019
3414 Clear -2 1021 24 0 0.94 49 04:21 01.12.2019
3415 Clear -2 1021 24 0 0.94 49 02:38 01.12.2019
3416 Clear -10 1022 55 0 0.53 76 02:20 01.12.2019
3417 Clear -10 1022 55 0 0.53 76 01:52 01.12.2019
3418 Clear -10 1022 55 0 0.53 76 01:26 01.12.2019
3419 Clear -10 1022 58 0 0.85 48 00:44 01.12.2019
3420 Clear -10 1022 58 0 0.85 48 00:24 01.12.2019
3421 Clear -10 1022 58 0 0.85 48 23:44 30.11.2019
3422 Clear -10 1022 58 0 0.85 48 23:24 30.11.2019
3423 Clear -9 1020 53 0 0.07 79 22:58 30.11.2019
3424 Clear -9 1020 53 0 0.07 79 22:39 30.11.2019
3425 Clear -9 1020 53 0 0.07 79 22:20 30.11.2019
3426 Clear -9 1020 53 0 0.07 79 21:47 30.11.2019
3427 Clear -9 1020 53 0 0.07 79 21:28 30.11.2019
3428 Clear -9 1020 53 0 0.07 79 20:57 30.11.2019
3429 Clear -9 1020 53 0 0.07 79 20:39 30.11.2019
3430 Clear -7 1020 37 0 0.75 54 20:19 30.11.2019
3431 Clear -7 1020 36 0 0.57 43 19:56 30.11.2019
3432 Clear -7 1020 36 0 0.57 43 19:38 30.11.2019
3433 Clear -7 1020 36 0 0.57 43 19:20 30.11.2019
3434 Clear -7 1020 36 0 0.57 43 18:58 30.11.2019
3435 Clear -7 1020 36 0 0.57 43 18:38 30.11.2019
3436 Clear -7 1020 36 0 0.57 43 18:19 30.11.2019
3437 Clear -7 1020 36 0 0.57 43 17:58 30.11.2019
3438 Clear -7 1020 36 0 0.57 43 17:39 30.11.2019
3439 Clear -5 1019 21 0 1.53 251 17:20 30.11.2019
3440 Clear -5 1019 21 0 1.53 251 16:56 30.11.2019
3441 Clear -5 1019 21 0 1.53 251 16:38 30.11.2019
3442 Clear -5 1019 21 0 1.53 251 16:20 30.11.2019
3443 Clear -5 1019 21 0 1.53 251 15:42 30.11.2019
3444 Clear -5 1019 21 0 1.53 251 15:19 30.11.2019
3445 Clear -5 1019 21 0 1.53 251 14:57 30.11.2019
3446 Clear -5 1019 21 0 1.53 251 14:38 30.11.2019
3447 Clear -5 1019 21 0 1.53 251 14:38 30.11.2019
3448 Clouds -2 1016 19 0 2.62 309 14:19 30.11.2019
3449 Clouds -2 1016 19 0 2.62 309 13:58 30.11.2019
3450 Clouds -2 1016 19 0 2.62 309 13:38 30.11.2019
3451 Clouds -2 1015 22 0 3.44 305 13:19 30.11.2019
3452 Clouds -2 1015 22 0 3.44 305 12:47 30.11.2019
3453 Clouds -2 1015 22 0 3.44 305 12:28 30.11.2019
3454 Clouds -2 1015 22 0 3.44 305 11:57 30.11.2019
3455 Clouds -2 1015 22 0 3.44 305 11:57 30.11.2019
3456 Clouds -2 1015 22 0 3.44 305 11:38 30.11.2019
3457 Clouds 5 1011 10 0 8.05 259 11:18 30.11.2019
3458 Clouds 5 1011 10 0 8.05 259 10:44 30.11.2019
3459 Clouds 5 1011 10 0 8.05 259 10:21 30.11.2019
3460 Clouds 5 1011 10 0 8.05 259 09:50 30.11.2019
3461 Clouds 5 1011 10 0 8.05 259 09:30 30.11.2019
3462 Clouds 5 1011 10 0 8.05 259 08:56 30.11.2019
3463 Clouds 5 1011 10 0 8.05 259 08:56 30.11.2019
3464 Clouds 5 1011 10 0 8.05 259 08:38 30.11.2019
3465 Clouds 2 1014 26 0 3.68 193 08:18 30.11.2019
3466 Clouds 2 1014 26 0 3.68 193 08:18 30.11.2019
3467 Clouds 2 1014 26 0 3.68 193 07:42 30.11.2019
3468 Clouds 2 1014 26 0 3.68 193 07:23 30.11.2019
3469 Clouds 2 1014 26 0 3.68 193 06:46 30.11.2019
3470 Clouds 2 1014 26 0 3.68 193 06:27 30.11.2019
3471 Clouds -2 1019 47 0 2.51 173 05:23 30.11.2019
3472 Clouds -2 1019 47 0 2.51 173 03:38 30.11.2019
3473 Clouds -2 1019 47 0 2.51 173 02:26 30.11.2019
3474 Clear -7 1020 71 0 2.21 147 01:51 30.11.2019
3475 Clear -8 1020 71 0 1.94 142 01:24 30.11.2019
3476 Clear -8 1020 71 0 1.94 142 00:45 30.11.2019
3477 Clear -8 1020 71 0 1.94 142 00:27 30.11.2019
3478 Clear -8 1020 71 0 1.94 142 23:44 29.11.2019
3479 Clear -8 1020 71 0 1.94 142 23:25 29.11.2019
3480 Clear -8 1020 71 0 1.94 142 23:25 29.11.2019
3481 Clear -6 1018 64 0 1.88 143 22:49 29.11.2019
3482 Clear -6 1018 64 0 1.88 143 22:27 29.11.2019
3483 Clear -6 1018 64 0 1.88 143 21:58 29.11.2019
3484 Clear -6 1018 64 0 1.88 143 21:40 29.11.2019
3485 Clear -6 1018 64 0 1.88 143 21:22 29.11.2019
3486 Clear -6 1018 64 0 1.88 143 20:56 29.11.2019
3487 Clear -6 1018 64 0 1.88 143 20:36 29.11.2019
3488 Clear -5 1019 52 0 1.95 139 20:18 29.11.2019
3489 Clear -5 1019 52 0 1.95 139 19:54 29.11.2019
3490 Clear -5 1019 52 0 1.95 139 19:36 29.11.2019
3491 Clear -5 1019 52 0 1.95 139 19:18 29.11.2019
3492 Clear -5 1019 52 0 1.95 139 18:41 29.11.2019
3493 Clear -5 1019 52 0 1.95 139 18:41 29.11.2019
3494 Clear -5 1019 52 0 1.95 139 18:23 29.11.2019
3495 Clear -5 1019 52 0 1.95 139 17:57 29.11.2019
3496 Clear -5 1019 52 0 1.95 139 17:39 29.11.2019
3497 Clear -3 1018 42 0 2.04 142 17:20 29.11.2019
3498 Clear -3 1018 42 0 2.04 142 16:43 29.11.2019
3499 Clear -3 1018 42 0 2.04 142 16:21 29.11.2019
3500 Clear -3 1018 42 0 2.04 142 15:56 29.11.2019
3501 Clear -3 1018 42 0 2.04 142 15:37 29.11.2019
3502 Clear -3 1018 42 0 2.04 142 15:19 29.11.2019
3503 Clear -3 1018 42 0 2.04 142 14:40 29.11.2019
3504 Clouds -1 1016 25 0 1.06 231 14:21 29.11.2019
3505 Clouds -1 1016 25 0 1.06 231 13:57 29.11.2019
3506 Clouds -1 1016 25 0 1.06 231 13:37 29.11.2019
3507 Clear -1 1016 23 0 0.72 231 13:19 29.11.2019
3508 Clear -1 1016 23 0 0.72 231 12:42 29.11.2019
3509 Clear -1 1016 23 0 0.72 231 12:24 29.11.2019
3510 Clear -1 1016 23 0 0.72 231 11:56 29.11.2019
3511 Clear -1 1016 23 0 0.72 231 11:38 29.11.2019
3512 Clear 5 1011 13 0 1.68 228 11:19 29.11.2019
3513 Clear 5 1011 13 0 1.68 228 10:57 29.11.2019
3514 Clear 5 1011 13 0 1.68 228 10:38 29.11.2019
3515 Clear 5 1011 13 0 1.68 228 10:20 29.11.2019
3516 Clear 5 1011 13 0 1.68 228 09:57 29.11.2019
3517 Clear 5 1011 13 0 1.68 228 09:57 29.11.2019
3518 Clear 5 1011 13 0 1.68 228 09:38 29.11.2019
3519 Clear 5 1011 13 0 1.68 228 09:20 29.11.2019
3520 Clear 5 1011 13 0 1.68 228 08:54 29.11.2019
3521 Clear 5 1011 13 0 1.68 228 08:36 29.11.2019
3522 Clear 3 1015 26 0 2.76 185 08:18 29.11.2019
3523 Clear 3 1015 26 0 2.76 185 07:41 29.11.2019
3524 Clear 3 1015 26 0 2.76 185 07:23 29.11.2019
3525 Clear 3 1015 26 0 2.76 185 06:46 29.11.2019
3526 Clear 3 1015 26 0 2.76 185 06:27 29.11.2019
3527 Clear 3 1015 26 0 2.76 185 05:32 29.11.2019
3528 Clouds -1 1021 44 0 2.6 174 04:56 29.11.2019
3529 Clouds -1 1021 44 0 2.6 174 03:37 29.11.2019
3530 Clouds -1 1021 44 0 2.6 174 03:18 29.11.2019
3531 Clear -7 1023 77 0 1.59 142 02:22 29.11.2019
3532 Clear -7 1023 77 0 1.59 142 01:27 29.11.2019
3533 Clear -7 1023 78 0 1.49 146 00:51 29.11.2019
3534 Clear -7 1023 78 0 1.49 146 00:23 29.11.2019
3535 Clear -7 1023 78 0 1.49 146 23:59 28.11.2019
3536 Clear -7 1023 78 0 1.49 146 23:39 28.11.2019
3537 Clear -6 1022 72 0 1.57 135 23:21 28.11.2019
3538 Clear -6 1022 72 0 1.57 135 23:21 28.11.2019
3539 Clear -6 1022 72 0 1.57 135 22:56 28.11.2019
3540 Clear -6 1022 72 0 1.57 135 22:37 28.11.2019
3541 Clear -6 1022 72 0 1.57 135 22:18 28.11.2019
3542 Clear -6 1022 72 0 1.57 135 21:42 28.11.2019
3543 Clear -6 1022 72 0 1.57 135 21:21 28.11.2019
3544 Clear -6 1022 72 0 1.57 135 20:59 28.11.2019
3545 Clear -6 1022 72 0 1.57 135 20:41 28.11.2019
3546 Clear -5 1022 55 0 1.54 136 20:22 28.11.2019
3547 Clear -5 1022 55 0 1.54 136 19:57 28.11.2019
3548 Clear -5 1022 55 0 1.54 136 19:38 28.11.2019
3549 Clear -5 1022 55 0 1.54 136 19:19 28.11.2019
3550 Clear -5 1022 55 0 1.54 136 18:57 28.11.2019
3551 Clear -5 1022 55 0 1.54 136 18:39 28.11.2019
3552 Clear -5 1022 55 0 1.54 136 18:18 28.11.2019
3553 Clear -5 1022 55 0 1.54 136 17:58 28.11.2019
3554 Clear -5 1022 55 0 1.54 136 17:58 28.11.2019
3555 Clear -5 1022 55 0 1.54 136 17:58 28.11.2019
3556 Clear -5 1022 55 0 1.54 136 17:40 28.11.2019
3557 Clear -3 1021 38 0 1.9 156 17:20 28.11.2019
3558 Clear -3 1021 38 0 1.9 156 16:40 28.11.2019
3559 Clear -3 1021 38 0 1.9 156 16:19 28.11.2019
3560 Clear -3 1021 38 0 1.9 156 15:58 28.11.2019
3561 Clear -3 1021 38 0 1.9 156 15:40 28.11.2019
3562 Clear -3 1021 38 0 1.9 156 15:20 28.11.2019
3563 Clear -3 1021 38 0 1.9 156 15:20 28.11.2019
3564 Clear -3 1021 38 0 1.9 156 14:58 28.11.2019
3565 Clear -3 1021 38 0 1.9 156 14:39 28.11.2019
3566 Clouds 0 1019 24 0 2.23 206 14:20 28.11.2019
3567 Clouds 0 1019 24 0 2.23 206 13:43 28.11.2019
3568 Clouds 1 1018 24 0 3 188 13:24 28.11.2019
3569 Clouds 1 1018 24 0 3 188 12:57 28.11.2019
3570 Clouds 1 1018 24 0 3 188 12:38 28.11.2019
3571 Clouds 1 1018 24 0 3 188 12:20 28.11.2019
3572 Clouds 1 1018 24 0 3 188 11:56 28.11.2019
3573 Clouds 1 1018 24 0 3 188 11:37 28.11.2019
3574 Clouds 7 1015 13 0 5.08 208 11:19 28.11.2019
3575 Clouds 7 1015 13 0 5.08 208 11:19 28.11.2019
3576 Clouds 7 1015 13 0 5.08 208 10:42 28.11.2019
3577 Clouds 7 1015 13 0 5.08 208 10:22 28.11.2019
3578 Clouds 7 1015 13 0 5.08 208 09:58 28.11.2019
3579 Clouds 7 1015 13 0 5.08 208 09:40 28.11.2019
3580 Clouds 7 1015 13 0 5.08 208 09:20 28.11.2019
3581 Clouds 7 1015 13 0 5.08 208 08:44 28.11.2019
3582 Clear 4 1018 27 0 1.37 212 08:22 28.11.2019
3583 Clear 4 1018 27 0 1.37 212 07:58 28.11.2019
3584 Clear 4 1018 27 0 1.37 212 07:39 28.11.2019
3585 Clear 4 1018 27 0 1.37 212 07:21 28.11.2019
3586 Clear 4 1018 27 0 1.37 212 06:41 28.11.2019
3587 Clear 4 1018 27 0 1.37 212 05:58 28.11.2019
3588 Clear 4 1018 27 0 1.37 212 05:40 28.11.2019
3589 Clear 0 1025 48 0 2.52 175 04:51 28.11.2019
3590 Clear 0 1025 48 0 2.52 175 02:32 28.11.2019
3591 Clear -6 1026 78 0 1.71 137 01:25 28.11.2019
3592 Clear -6 1026 78 0 1.71 137 00:42 28.11.2019
3593 Clear -6 1026 78 0 1.71 137 00:19 28.11.2019
3594 Clear -6 1026 78 0 1.71 137 23:39 27.11.2019
3595 Clear -5 1025 69 0 1.87 145 23:21 27.11.2019
3596 Clear -5 1025 69 0 1.87 145 22:58 27.11.2019
3597 Clear -5 1025 69 0 1.87 145 22:38 27.11.2019
3598 Clear -5 1025 69 0 1.87 145 22:19 27.11.2019
3599 Clear -5 1025 69 0 1.87 145 21:56 27.11.2019
3600 Clear -5 1025 69 0 1.87 145 21:56 27.11.2019
3601 Clear -5 1025 69 0 1.87 145 21:37 27.11.2019
3602 Clear -5 1025 69 0 1.87 145 21:19 27.11.2019
3603 Clear -5 1025 69 0 1.87 145 20:57 27.11.2019
3604 Clear -5 1025 69 0 1.87 145 20:57 27.11.2019
3605 Clear -5 1025 69 0 1.87 145 20:37 27.11.2019
3606 Clear -3 1024 57 0 1.87 134 20:19 27.11.2019
3607 Clear -3 1024 57 0 1.87 134 19:56 27.11.2019
3608 Clear -3 1024 57 0 1.87 134 19:37 27.11.2019
3609 Clear -3 1024 57 0 1.87 134 19:19 27.11.2019
3610 Clear -3 1024 57 0 1.87 134 18:57 27.11.2019
3611 Clear -3 1024 57 0 1.87 134 18:36 27.11.2019
3612 Clear -3 1024 57 0 1.87 134 18:18 27.11.2019
3613 Clear -3 1024 57 0 1.87 134 17:55 27.11.2019
3614 Clear -3 1024 57 0 1.87 134 17:37 27.11.2019
3615 Clear -1 1023 42 0 1.77 160 17:18 27.11.2019
3616 Clear -1 1023 42 0 1.77 160 16:55 27.11.2019
3617 Clear -1 1023 42 0 1.77 160 16:55 27.11.2019
3618 Clear -1 1023 42 0 1.77 160 16:36 27.11.2019
3619 Clear -1 1023 42 0 1.77 160 16:18 27.11.2019
3620 Clear -1 1023 42 0 1.77 160 15:56 27.11.2019
3621 Clear -1 1023 42 0 1.77 160 15:37 27.11.2019
3622 Clear -1 1023 42 0 1.77 160 15:19 27.11.2019
3623 Clear -1 1023 42 0 1.77 160 14:55 27.11.2019
3624 Clear -1 1023 42 0 1.77 160 14:37 27.11.2019
3625 Clear 1 1020 22 0 1.16 260 14:19 27.11.2019
3626 Clear 1 1020 22 0 1.16 260 13:55 27.11.2019
3627 Clear 1 1020 22 0 1.16 260 13:36 27.11.2019
3628 Clouds 3 1019 24 0 1.66 206 13:18 27.11.2019
3629 Clouds 3 1019 24 0 1.66 206 12:41 27.11.2019
3630 Clouds 3 1019 24 0 1.66 206 12:41 27.11.2019
3631 Clouds 3 1019 24 0 1.66 206 12:21 27.11.2019
3632 Clouds 3 1019 24 0 1.66 206 11:55 27.11.2019
3633 Clouds 3 1019 24 0 1.66 206 11:36 27.11.2019
3634 Clear 9 1014 9 0 4.16 272 11:18 27.11.2019
3635 Clear 9 1014 9 0 4.16 272 10:43 27.11.2019
3636 Clear 9 1014 9 0 4.16 272 10:24 27.11.2019
3637 Clear 9 1014 9 0 4.16 272 09:57 27.11.2019
3638 Clear 9 1014 9 0 4.16 272 09:38 27.11.2019
3639 Clear 9 1014 9 0 4.16 272 09:18 27.11.2019
3640 Clear 9 1014 9 0 4.16 272 08:42 27.11.2019
3641 Clear 6 1017 24 0 2.68 192 08:23 27.11.2019
3642 Clear 6 1017 24 0 2.68 192 07:48 27.11.2019
3643 Clear 6 1017 24 0 2.68 192 07:29 27.11.2019
3644 Clear 6 1017 24 0 2.68 192 06:54 27.11.2019
3645 Clear 6 1017 24 0 2.68 192 06:36 27.11.2019
3646 Clear 6 1017 24 0 2.68 192 05:49 27.11.2019
3647 Clear 2 1023 31 0 1.66 176 05:22 27.11.2019
3648 Clear 2 1023 31 0 1.66 176 04:49 27.11.2019
3649 Clear 2 1023 31 0 1.66 176 04:30 27.11.2019
3650 Clear 2 1023 31 0 1.66 176 03:41 27.11.2019
3651 Clear 2 1023 31 0 1.66 176 03:20 27.11.2019
3652 Clear 2 1023 31 0 1.66 176 02:32 27.11.2019
3653 Clear -7 1024 39 0 0.87 138 00:50 27.11.2019
3654 Clear -7 1024 39 0 0.87 138 00:31 27.11.2019
3655 Clear -7 1024 39 0 0.87 138 23:56 26.11.2019
3656 Clear -7 1024 39 0 0.87 138 23:38 26.11.2019
3657 Clear -6 1022 27 0 0.9 121 23:19 26.11.2019
3658 Clear -6 1022 27 0 0.9 121 22:40 26.11.2019
3659 Clear -6 1022 27 0 0.9 121 22:40 26.11.2019
3660 Clear -6 1022 27 0 0.9 121 22:20 26.11.2019
3661 Clear -6 1022 27 0 0.9 121 21:59 26.11.2019
3662 Clear -6 1022 27 0 0.9 121 21:39 26.11.2019
3663 Clear -6 1022 27 0 0.9 121 21:39 26.11.2019
3664 Clear -6 1022 27 0 0.9 121 21:21 26.11.2019
3665 Clear -6 1022 27 0 0.9 121 21:21 26.11.2019
3666 Clear -6 1022 27 0 0.9 121 20:57 26.11.2019
3667 Clear -6 1022 27 0 0.9 121 20:37 26.11.2019
3668 Clear -6 1022 27 0 0.9 121 20:37 26.11.2019
3669 Clear -4 1022 23 0 0.64 136 20:19 26.11.2019
3670 Clear -4 1022 23 0 0.64 136 20:19 26.11.2019
3671 Clear -4 1022 23 0 0.64 136 19:56 26.11.2019
3672 Clear -4 1022 23 0 0.64 136 19:38 26.11.2019
3673 Clear -4 1022 23 0 0.64 136 19:19 26.11.2019
3674 Clear -4 1022 23 0 0.64 136 18:57 26.11.2019
3675 Clear -4 1022 23 0 0.64 136 18:39 26.11.2019
3676 Clear -4 1022 23 0 0.64 136 18:21 26.11.2019
3677 Clear -4 1022 23 0 0.64 136 17:58 26.11.2019
3678 Clear -4 1022 23 0 0.64 136 17:40 26.11.2019
3679 Clear -2 1022 20 0 1.84 303 17:21 26.11.2019
3680 Clear -2 1022 20 0 1.84 303 16:57 26.11.2019
3681 Clear -2 1022 20 0 1.84 303 16:37 26.11.2019
3682 Clear -2 1022 20 0 1.84 303 16:19 26.11.2019
3683 Clear -2 1022 20 0 1.84 303 15:59 26.11.2019
3684 Clear -2 1022 20 0 1.84 303 15:38 26.11.2019
3685 Clear -2 1022 20 0 1.84 303 15:19 26.11.2019
3686 Clear -2 1022 20 0 1.84 303 14:50 26.11.2019
3687 Clear -2 1022 20 0 1.84 303 14:26 26.11.2019
3688 Clouds 1 1019 17 0 3.89 304 13:57 26.11.2019
3689 Clouds 1 1019 17 0 3.89 304 13:38 26.11.2019
3690 Clouds 1 1019 20 0 2.73 306 13:19 26.11.2019
3691 Clouds 1 1019 20 0 2.73 306 12:39 26.11.2019
3692 Clouds 1 1019 20 0 2.73 306 12:20 26.11.2019
3693 Clouds 1 1019 20 0 2.73 306 11:58 26.11.2019
3694 Clouds 1 1019 20 0 2.73 306 11:39 26.11.2019
3695 Clouds 8 1013 10 0 9.07 273 11:20 26.11.2019
3696 Clouds 8 1013 10 0 9.07 273 10:58 26.11.2019
3697 Clouds 8 1013 10 0 9.07 273 10:40 26.11.2019
3698 Clouds 8 1013 10 0 9.07 273 10:20 26.11.2019
3699 Clouds 8 1013 10 0 9.07 273 10:20 26.11.2019
3700 Clouds 8 1013 10 0 9.07 273 09:57 26.11.2019
3701 Clouds 8 1013 10 0 9.07 273 09:37 26.11.2019
3702 Clouds 8 1013 10 0 9.07 273 09:18 26.11.2019
3703 Clouds 8 1013 10 0 9.07 273 08:43 26.11.2019
3704 Clouds 8 1013 10 0 9.07 273 08:43 26.11.2019
3705 Clouds 8 1013 10 0 9.07 273 08:24 26.11.2019
3706 Clouds 7 1015 13 0 3.88 252 07:46 26.11.2019
3707 Clouds 7 1015 13 0 3.88 252 07:27 26.11.2019
3708 Clouds 7 1015 13 0 3.88 252 06:55 26.11.2019
3709 Clouds 7 1015 13 0 3.88 252 06:35 26.11.2019
3710 Clouds 7 1015 13 0 3.88 252 06:35 26.11.2019
3711 Clouds 7 1015 13 0 3.88 252 05:52 26.11.2019
3712 Clouds 7 1015 13 0 3.88 252 05:52 26.11.2019
3713 Clear 2 1021 39 0 2.41 177 04:46 26.11.2019
3714 Clear 2 1021 39 0 2.41 177 02:52 26.11.2019
3715 Clouds -5 1021 72 0 1.4 140 01:33 26.11.2019
3716 Clouds -5 1021 72 0 1.4 140 00:52 26.11.2019
3717 Clouds -5 1021 72 0 1.4 140 00:30 26.11.2019
3718 Clouds -5 1021 72 0 1.4 140 23:41 25.11.2019
3719 Clouds -3 1020 59 0 1.57 141 23:21 25.11.2019
3720 Clouds -3 1020 59 0 1.57 141 22:59 25.11.2019
3721 Clouds -3 1020 59 0 1.57 141 22:39 25.11.2019
3722 Clouds -3 1020 59 0 1.57 141 22:19 25.11.2019
3723 Clouds -3 1020 59 0 1.57 141 21:59 25.11.2019
3724 Clouds -3 1020 59 0 1.57 141 21:40 25.11.2019
3725 Clouds -3 1020 59 0 1.57 141 21:21 25.11.2019
3726 Clouds -3 1020 59 0 1.57 141 20:57 25.11.2019
3727 Clouds -3 1020 59 0 1.57 141 20:39 25.11.2019
3728 Clouds -2 1019 47 0 1.78 134 20:19 25.11.2019
3729 Clouds -2 1019 47 0 1.78 134 19:56 25.11.2019
3730 Clouds -2 1019 47 0 1.78 134 19:56 25.11.2019
3731 Clouds -2 1019 47 0 1.78 134 19:38 25.11.2019
3732 Clouds -2 1019 47 0 1.78 134 19:18 25.11.2019
3733 Clouds -2 1019 47 0 1.78 134 18:57 25.11.2019
3734 Clouds -2 1019 47 0 1.78 134 18:39 25.11.2019
3735 Clouds -2 1019 47 0 1.78 134 18:21 25.11.2019
3736 Clouds -2 1019 47 0 1.78 134 18:21 25.11.2019
3737 Clouds -2 1019 47 0 1.78 134 17:57 25.11.2019
3738 Clouds -2 1019 47 0 1.78 134 17:39 25.11.2019
3739 Clouds 1 1019 22 0 1.47 197 17:20 25.11.2019
3740 Clouds 1 1019 22 0 1.47 197 16:57 25.11.2019
3741 Clouds 1 1019 22 0 1.47 197 16:39 25.11.2019
3742 Clouds 1 1019 22 0 1.47 197 16:20 25.11.2019
3743 Clouds 1 1019 22 0 1.47 197 15:55 25.11.2019
3744 Clouds 1 1019 22 0 1.47 197 15:36 25.11.2019
3745 Clouds 1 1019 22 0 1.47 197 15:18 25.11.2019
3746 Clouds 1 1019 22 0 1.47 197 14:42 25.11.2019
3747 Clouds 3 1015 18 0 3.04 310 14:23 25.11.2019
3748 Clouds 3 1015 18 0 3.04 310 13:55 25.11.2019
3749 Clouds 3 1015 18 0 3.04 310 13:36 25.11.2019
3750 Clouds 3 1015 18 0 3.04 310 13:18 25.11.2019
3751 Clouds 3 1015 19 0 2.24 302 13:18 25.11.2019
3752 Clouds 3 1015 19 0 2.24 302 12:54 25.11.2019
3753 Clouds 3 1015 19 0 2.24 302 12:36 25.11.2019
3754 Clouds 3 1015 19 0 2.24 302 12:18 25.11.2019
3755 Clouds 3 1015 19 0 2.24 302 11:40 25.11.2019
3756 Clouds 3 1015 19 0 2.24 302 11:40 25.11.2019
3757 Clouds 11 1010 9 0 5.79 261 11:21 25.11.2019
3758 Clouds 11 1010 9 0 5.79 261 10:57 25.11.2019
3759 Clouds 11 1010 9 0 5.79 261 10:38 25.11.2019
3760 Clouds 11 1010 9 0 5.79 261 10:18 25.11.2019
3761 Clouds 11 1010 9 0 5.79 261 09:42 25.11.2019
3762 Clouds 11 1010 9 0 5.79 261 09:23 25.11.2019
3763 Clouds 11 1010 9 0 5.79 261 08:42 25.11.2019
3764 Clouds 11 1010 10 0 5.6 247 08:23 25.11.2019
3765 Clouds 9 1013 21 0 2.62 186 07:47 25.11.2019
3766 Clouds 9 1013 21 0 2.62 186 07:29 25.11.2019
3767 Clouds 9 1013 21 0 2.62 186 06:59 25.11.2019
3768 Clouds 9 1013 21 0 2.62 186 06:24 25.11.2019
3769 Clouds 9 1013 21 0 2.62 186 05:51 25.11.2019
3770 Clouds 9 1013 21 0 2.62 186 05:31 25.11.2019
3771 Clouds 5 1019 28 0 1.93 166 04:48 25.11.2019
3772 Clouds 5 1019 28 0 1.93 166 02:36 25.11.2019
3773 Clouds -3 1020 41 0 1.54 141 01:43 25.11.2019
3774 Clouds -3 1019 38 0 1.59 135 01:24 25.11.2019
3775 Clouds -3 1019 38 0 1.59 135 00:45 25.11.2019
3776 Clouds -3 1019 38 0 1.59 135 00:20 25.11.2019
3777 Clouds -3 1019 38 0 1.59 135 23:45 24.11.2019
3778 Clouds -3 1018 30 0 0.96 104 23:21 24.11.2019
3779 Clouds -3 1018 30 0 0.96 104 22:58 24.11.2019
3780 Clouds -3 1018 30 0 0.96 104 22:39 24.11.2019
3781 Clouds -3 1018 30 0 0.96 104 22:19 24.11.2019
3782 Clouds -3 1018 30 0 0.96 104 21:57 24.11.2019
3783 Clouds -3 1018 30 0 0.96 104 21:38 24.11.2019
3784 Clouds -3 1018 30 0 0.96 104 21:20 24.11.2019
3785 Clouds -3 1018 30 0 0.96 104 20:57 24.11.2019
3786 Clouds -3 1018 30 0 0.96 104 20:37 24.11.2019
3787 Clouds -1 1018 21 0 0.26 71 20:18 24.11.2019
3788 Clouds -1 1018 21 0 0.26 71 19:56 24.11.2019
3789 Clouds -1 1018 21 0 0.26 71 19:38 24.11.2019
3790 Clouds -1 1018 21 0 0.26 71 19:19 24.11.2019
3791 Clouds -1 1018 21 0 0.26 71 18:57 24.11.2019
3792 Clouds -1 1018 21 0 0.26 71 18:37 24.11.2019
3793 Clouds -1 1018 21 0 0.26 71 18:19 24.11.2019
3794 Clouds -1 1018 21 0 0.26 71 17:55 24.11.2019
3795 Clouds -1 1018 21 0 0.26 71 17:37 24.11.2019
3796 Clear 0 1018 18 0 1.66 295 17:19 24.11.2019
3797 Clear 0 1018 18 0 1.66 295 17:19 24.11.2019
3798 Clear 0 1018 18 0 1.66 295 16:57 24.11.2019
3799 Clear 0 1018 18 0 1.66 295 16:38 24.11.2019
3800 Clear 0 1018 18 0 1.66 295 16:19 24.11.2019
3801 Clear 0 1018 18 0 1.66 295 15:43 24.11.2019
3802 Clear 0 1018 18 0 1.66 295 15:25 24.11.2019
3803 Clear 0 1018 18 0 1.66 295 14:57 24.11.2019
3804 Clear 0 1018 18 0 1.66 295 14:38 24.11.2019
3805 Clear 3 1015 15 0 2.73 270 14:18 24.11.2019
3806 Clear 3 1015 15 0 2.73 270 13:41 24.11.2019
3807 Clear 3 1015 15 0 2.73 270 13:22 24.11.2019
3808 Clear 3 1015 16 0 1.98 265 13:00 24.11.2019
3809 Clear 3 1015 16 0 1.98 265 12:41 24.11.2019
3810 Clear 3 1015 16 0 1.98 265 12:19 24.11.2019
3811 Clear 3 1015 16 0 1.98 265 11:57 24.11.2019
3812 Clear 3 1015 16 0 1.98 265 11:37 24.11.2019
3813 Clear 3 1015 16 0 1.98 265 11:37 24.11.2019
3814 Clear 11 1009 8 0 6.81 280 11:18 24.11.2019
3815 Clear 11 1009 8 0 6.81 280 10:47 24.11.2019
3816 Clear 11 1009 8 0 6.81 280 10:29 24.11.2019
3817 Clear 11 1009 8 0 6.81 280 09:58 24.11.2019
3818 Clear 11 1009 8 0 6.81 280 09:37 24.11.2019
3819 Clear 11 1009 8 0 6.81 280 09:19 24.11.2019
3820 Clear 11 1009 8 0 6.81 280 08:45 24.11.2019
3821 Clouds 12 1011 8 0 8.03 263 08:23 24.11.2019
3822 Clouds 12 1011 8 0 8.03 263 08:23 24.11.2019
3823 Clouds 12 1011 8 0 8.03 263 07:58 24.11.2019
3824 Clouds 12 1011 8 0 8.03 263 07:38 24.11.2019
3825 Clouds 12 1011 8 0 8.03 263 07:20 24.11.2019
3826 Clouds 12 1011 8 0 8.03 263 06:20 24.11.2019
3827 Clouds 6 1017 29 0 1.71 184 04:49 24.11.2019
3828 Clouds 6 1017 29 0 1.71 184 03:41 24.11.2019
3829 Clouds 6 1017 29 0 1.71 184 02:31 24.11.2019
3830 Clouds -3 1017 52 0 0.53 187 01:41 24.11.2019
3831 Clouds -3 1017 55 0 1.2 157 01:22 24.11.2019
3832 Clouds -3 1017 55 0 1.2 157 00:48 24.11.2019
3833 Clouds -3 1017 55 0 1.2 157 00:24 24.11.2019
3834 Clouds -3 1017 55 0 1.2 157 23:54 23.11.2019
3835 Clouds -3 1017 55 0 1.2 157 23:36 23.11.2019
3836 Clouds -1 1016 50 0 1.18 128 23:18 23.11.2019
3837 Clouds -1 1016 50 0 1.18 128 22:54 23.11.2019
3838 Clouds -1 1016 50 0 1.18 128 22:36 23.11.2019
3839 Clouds -1 1016 50 0 1.18 128 22:18 23.11.2019
3840 Clouds -1 1016 50 0 1.18 128 21:42 23.11.2019
3841 Clouds -1 1016 50 0 1.18 128 21:22 23.11.2019
3842 Clouds -1 1016 50 0 1.18 128 20:58 23.11.2019
3843 Clouds -1 1016 50 0 1.18 128 20:37 23.11.2019
3844 Clouds 1 1017 34 0 1.74 160 20:18 23.11.2019
3845 Clouds 1 1017 42 0 1.89 158 19:56 23.11.2019
3846 Clouds 1 1017 42 0 1.89 158 19:37 23.11.2019
3847 Clouds 1 1017 42 0 1.89 158 19:37 23.11.2019
3848 Clouds 1 1017 42 0 1.89 158 19:37 23.11.2019
3849 Clouds 1 1017 42 0 1.89 158 19:37 23.11.2019
3850 Clouds 1 1017 42 0 1.89 158 19:18 23.11.2019
3851 Clouds 1 1017 42 0 1.89 158 19:18 23.11.2019
3852 Clouds 1 1017 42 0 1.89 158 19:18 23.11.2019
3853 Clouds 1 1017 42 0 1.89 158 18:40 23.11.2019
3854 Clouds 1 1017 42 0 1.89 158 18:21 23.11.2019
3855 Clouds 1 1017 42 0 1.89 158 18:21 23.11.2019
3856 Clouds 1 1017 42 0 1.89 158 18:21 23.11.2019
3857 Clouds 1 1017 42 0 1.89 158 17:59 23.11.2019
3858 Clouds 1 1017 42 0 1.89 158 17:40 23.11.2019
3859 Clouds 1 1016 21 0 0.39 298 17:20 23.11.2019
3860 Clouds 1 1016 21 0 0.39 298 16:56 23.11.2019
3861 Clouds 1 1016 21 0 0.39 298 16:38 23.11.2019
3862 Clouds 1 1016 21 0 0.39 298 16:20 23.11.2019
3863 Clouds 1 1016 21 0 0.39 298 15:57 23.11.2019
3864 Clouds 1 1016 21 0 0.39 298 15:38 23.11.2019
3865 Clouds 1 1016 21 0 0.39 298 15:18 23.11.2019
3866 Clouds 1 1016 21 0 0.39 298 14:55 23.11.2019
3867 Clouds 1 1016 21 0 0.39 298 14:37 23.11.2019
3868 Clouds 4 1013 19 0 2.16 319 14:18 23.11.2019
3869 Clouds 4 1013 19 0 2.16 319 13:42 23.11.2019
3870 Clouds 3 1012 20 0 1.75 325 13:19 23.11.2019
3871 Clouds 3 1012 20 0 1.75 325 12:55 23.11.2019
3872 Clouds 3 1012 20 0 1.75 325 12:37 23.11.2019
3873 Clouds 3 1012 20 0 1.75 325 12:19 23.11.2019
3874 Clouds 3 1012 20 0 1.75 325 11:42 23.11.2019
3875 Clouds 13 1008 8 0 5.19 265 11:19 23.11.2019
3876 Clouds 13 1008 8 0 5.19 265 10:45 23.11.2019
3877 Clouds 13 1008 8 0 5.19 265 10:21 23.11.2019
3878 Clouds 13 1008 8 0 5.19 265 09:42 23.11.2019
3879 Clouds 13 1008 8 0 5.19 265 09:20 23.11.2019
3880 Clouds 13 1008 8 0 5.19 265 08:43 23.11.2019
3881 Clouds 10 1012 12 0 2.58 197 08:20 23.11.2019
3882 Clouds 10 1012 12 0 2.58 197 07:54 23.11.2019
3883 Clouds 10 1012 12 0 2.58 197 07:35 23.11.2019
3884 Clouds 10 1012 12 0 2.58 197 06:46 23.11.2019
3885 Clouds 10 1012 12 0 2.58 197 06:21 23.11.2019
3886 Clouds 10 1012 12 0 2.58 197 05:50 23.11.2019
3887 Clouds 10 1012 12 0 2.58 197 05:29 23.11.2019
3888 Clouds 6 1018 19 0 1.36 175 04:48 23.11.2019
3889 Clouds 6 1018 19 0 1.36 175 04:27 23.11.2019
3890 Clouds 6 1018 19 0 1.36 175 02:48 23.11.2019
3891 Clouds -4 1019 36 0 0.8 117 01:51 23.11.2019
3892 Clouds -4 1019 30 0 0.95 122 01:32 23.11.2019
3893 Clouds -4 1019 30 0 0.95 122 00:40 23.11.2019
3894 Clouds -4 1019 30 0 0.95 122 00:18 23.11.2019
3895 Clouds -4 1019 30 0 0.95 122 23:42 22.11.2019
3896 Clouds -3 1018 25 0 0.66 86 23:20 22.11.2019
3897 Clouds -3 1018 25 0 0.66 86 22:57 22.11.2019
3898 Clouds -3 1018 25 0 0.66 86 22:38 22.11.2019
3899 Clouds -3 1018 25 0 0.66 86 22:20 22.11.2019
3900 Clouds -3 1018 25 0 0.66 86 21:58 22.11.2019
3901 Clouds -3 1018 25 0 0.66 86 21:39 22.11.2019
3902 Clouds -3 1018 25 0 0.66 86 21:19 22.11.2019
3903 Clouds -3 1018 25 0 0.66 86 20:43 22.11.2019
3904 Clouds -3 1018 25 0 0.66 86 20:43 22.11.2019
3905 Clouds -1 1019 22 0 0.74 32 20:22 22.11.2019
3906 Clouds -1 1019 22 0 0.74 32 19:56 22.11.2019
3907 Clouds -1 1019 22 0 0.74 32 19:37 22.11.2019
3908 Clouds -1 1019 22 0 0.74 32 19:19 22.11.2019
3909 Clouds -1 1019 22 0 0.74 32 18:39 22.11.2019
3910 Clouds -1 1019 22 0 0.74 32 18:21 22.11.2019
3911 Clouds -1 1019 22 0 0.74 32 17:57 22.11.2019
3912 Clouds -1 1019 22 0 0.74 32 17:39 22.11.2019
3913 Clear 1 1019 21 0 1.09 337 17:20 22.11.2019
3914 Clear 1 1019 21 0 1.09 337 16:42 22.11.2019
3915 Clear 1 1019 21 0 1.09 337 16:23 22.11.2019
3916 Clear 1 1019 21 0 1.09 337 15:44 22.11.2019
3917 Clear 1 1019 21 0 1.09 337 15:24 22.11.2019
3918 Clear 1 1019 21 0 1.09 337 14:56 22.11.2019
3919 Clear 1 1019 21 0 1.09 337 14:38 22.11.2019
3920 Clouds 3 1016 17 0 1.54 278 14:19 22.11.2019
3921 Clouds 3 1016 17 0 1.54 278 13:57 22.11.2019
3922 Clouds 3 1016 17 0 1.54 278 13:37 22.11.2019
3923 Clouds 3 1015 17 0 0.75 242 13:18 22.11.2019
3924 Clouds 3 1015 17 0 0.75 242 12:55 22.11.2019
3925 Clouds 3 1015 17 0 0.75 242 12:36 22.11.2019
3926 Clouds 3 1015 17 0 0.75 242 12:18 22.11.2019
3927 Clouds 3 1015 17 0 0.75 242 11:55 22.11.2019
3928 Clouds 3 1015 17 0 0.75 242 11:36 22.11.2019
3929 Clouds 12 1012 8 0 4.98 267 11:18 22.11.2019
3930 Clouds 12 1012 8 0 4.98 267 11:18 22.11.2019
3931 Clouds 12 1012 8 0 4.98 267 10:40 22.11.2019
3932 Clouds 12 1012 8 0 4.98 267 10:22 22.11.2019
3933 Clouds 12 1012 8 0 4.98 267 10:22 22.11.2019
3934 Clouds 12 1012 8 0 4.98 267 09:57 22.11.2019
3935 Clouds 12 1012 8 0 4.98 267 09:39 22.11.2019
3936 Clouds 12 1012 8 0 4.98 267 09:21 22.11.2019
3937 Clouds 12 1012 8 0 4.98 267 08:47 22.11.2019
3938 Clouds 12 1012 8 0 4.98 267 08:27 22.11.2019
3939 Clear 9 1014 11 0 1.7 195 07:55 22.11.2019
3940 Clear 9 1014 11 0 1.7 195 07:37 22.11.2019
3941 Clear 9 1014 11 0 1.7 195 07:18 22.11.2019
3942 Clear 9 1014 11 0 1.7 195 06:40 22.11.2019
3943 Clear 9 1014 11 0 1.7 195 05:54 22.11.2019
3944 Clear 4 1020 14 0 1.24 174 04:52 22.11.2019
3945 Clear 4 1020 14 0 1.24 174 02:56 22.11.2019
3946 Clear 4 1020 14 0 1.24 174 02:32 22.11.2019
3947 Clouds -6 1022 41 0 0.9 83 01:46 22.11.2019
3948 Clouds -6 1022 41 0 0.9 83 01:20 22.11.2019
3949 Clouds -6 1022 39 0 0.56 114 00:54 22.11.2019
3950 Clouds -6 1022 39 0 0.56 114 00:25 22.11.2019
3951 Clouds -6 1022 39 0 0.56 114 23:56 21.11.2019
3952 Clouds -6 1022 39 0 0.56 114 23:38 21.11.2019
3953 Clouds -4 1021 23 0 0.92 67 23:20 21.11.2019
3954 Clouds -4 1021 23 0 0.92 67 22:41 21.11.2019
3955 Clouds -4 1021 23 0 0.92 67 22:22 21.11.2019
3956 Clouds -4 1021 23 0 0.92 67 21:58 21.11.2019
3957 Clouds -4 1021 23 0 0.92 67 21:39 21.11.2019
3958 Clouds -4 1021 23 0 0.92 67 21:20 21.11.2019
3959 Clouds -4 1021 23 0 0.92 67 20:59 21.11.2019
3960 Clouds -4 1021 23 0 0.92 67 20:39 21.11.2019
3961 Clouds -4 1021 23 0 0.92 67 20:39 21.11.2019
3962 Clouds -3 1022 24 0 0.4 0 20:19 21.11.2019
3963 Clouds -3 1022 24 0 0.4 0 19:59 21.11.2019
3964 Clouds -3 1022 24 0 0.4 0 19:59 21.11.2019
3965 Clouds -3 1022 24 0 0.4 0 19:41 21.11.2019
3966 Clouds -3 1022 24 0 0.4 0 19:23 21.11.2019
3967 Clouds -3 1022 24 0 0.4 0 18:58 21.11.2019
3968 Clouds -3 1022 24 0 0.4 0 18:40 21.11.2019
3969 Clouds -3 1022 24 0 0.4 0 18:20 21.11.2019
3970 Clouds -3 1022 24 0 0.4 0 17:58 21.11.2019
3971 Clouds -3 1022 24 0 0.4 0 17:39 21.11.2019
3972 Clouds -3 1022 24 0 0.4 0 17:39 21.11.2019
3973 Clouds 0 1022 21 0 1.98 325 17:19 21.11.2019
3974 Clouds 0 1022 21 0 1.98 325 16:55 21.11.2019
3975 Clouds 0 1022 21 0 1.98 325 16:37 21.11.2019
3976 Clouds 0 1022 21 0 1.98 325 16:18 21.11.2019
3977 Clouds 0 1022 21 0 1.98 325 15:42 21.11.2019
3978 Clouds 0 1022 21 0 1.98 325 15:20 21.11.2019
3979 Clouds 0 1022 21 0 1.98 325 14:57 21.11.2019
3980 Clouds 0 1022 21 0 1.98 325 14:37 21.11.2019
3981 Clouds 3 1018 20 0 2.47 312 14:19 21.11.2019
3982 Clouds 3 1018 20 0 2.47 312 13:40 21.11.2019
3983 Clouds 3 1018 20 0 2.47 312 13:21 21.11.2019
3984 Clouds 2 1017 23 0 2.75 304 12:59 21.11.2019
3985 Clouds 2 1017 23 0 2.75 304 12:39 21.11.2019
3986 Clouds 2 1017 23 0 2.75 304 12:21 21.11.2019
3987 Clouds 2 1017 23 0 2.75 304 11:54 21.11.2019
3988 Clouds 2 1017 23 0 2.75 304 11:36 21.11.2019
3989 Clouds 9 1013 12 0 8.29 286 11:18 21.11.2019
3990 Clouds 9 1013 12 0 8.29 286 10:42 21.11.2019
3991 Clouds 9 1013 12 0 8.29 286 10:23 21.11.2019
3992 Clouds 9 1013 12 0 8.29 286 09:57 21.11.2019
3993 Clouds 9 1013 12 0 8.29 286 09:39 21.11.2019
3994 Clouds 9 1013 12 0 8.29 286 09:20 21.11.2019
3995 Clouds 9 1013 12 0 8.29 286 08:43 21.11.2019
3996 Clouds 7 1015 24 0 1.96 185 08:22 21.11.2019
3997 Clouds 7 1015 24 0 1.96 185 07:44 21.11.2019
3998 Clouds 7 1015 24 0 1.96 185 07:19 21.11.2019
3999 Clouds 7 1015 24 0 1.96 185 06:58 21.11.2019
4000 Clouds 7 1015 24 0 1.96 185 06:34 21.11.2019
4001 Clouds 7 1015 24 0 1.96 185 05:42 21.11.2019
4002 Clouds 2 1021 25 0 0.34 71 03:35 21.11.2019
4003 Clouds 2 1021 25 0 0.34 71 02:42 21.11.2019
4004 Clouds -5 1022 38 0 1.56 40 02:23 21.11.2019
4005 Clouds -5 1022 38 0 1.56 40 01:47 21.11.2019
4006 Clouds -5 1022 36 0 1.59 43 01:20 21.11.2019
4007 Clouds -5 1022 36 0 1.59 43 00:38 21.11.2019
4008 Clouds -5 1022 36 0 1.59 43 00:19 21.11.2019
4009 Clouds -5 1022 36 0 1.59 43 23:42 20.11.2019
4010 Clear -4 1021 35 0 1.28 71 23:21 20.11.2019
4011 Clear -4 1021 35 0 1.28 71 22:58 20.11.2019
4012 Clear -4 1021 35 0 1.28 71 22:38 20.11.2019
4013 Clear -4 1021 35 0 1.28 71 22:19 20.11.2019
4014 Clear -4 1021 35 0 1.28 71 22:19 20.11.2019
4015 Clear -4 1021 35 0 1.28 71 21:58 20.11.2019
4016 Clear -4 1021 35 0 1.28 71 21:39 20.11.2019
4017 Clear -4 1021 35 0 1.28 71 21:20 20.11.2019
4018 Clear -4 1021 35 0 1.28 71 20:57 20.11.2019
4019 Clear -4 1021 35 0 1.28 71 20:38 20.11.2019
4020 Clouds -2 1021 26 0 0.17 21 20:20 20.11.2019
4021 Clouds -2 1021 26 0 0.17 21 20:20 20.11.2019
4022 Clouds -2 1021 26 0 0.17 21 19:56 20.11.2019
4023 Clouds -2 1021 26 0 0.17 21 19:37 20.11.2019
4024 Clouds -2 1021 26 0 0.17 21 19:37 20.11.2019
4025 Clouds -2 1021 26 0 0.17 21 19:18 20.11.2019
4026 Clouds -2 1021 26 0 0.17 21 19:18 20.11.2019
4027 Clouds -2 1021 26 0 0.17 21 18:58 20.11.2019
4028 Clouds -2 1021 26 0 0.17 21 18:38 20.11.2019
4029 Clouds -2 1021 26 0 0.17 21 18:20 20.11.2019
4030 Clouds -2 1021 26 0 0.17 21 17:56 20.11.2019
4031 Clouds -2 1021 26 0 0.17 21 17:56 20.11.2019
4032 Clouds -2 1021 26 0 0.17 21 17:38 20.11.2019
4033 Clear -1 1021 17 0 0.84 287 17:19 20.11.2019
4034 Clear -1 1021 17 0 0.84 287 16:55 20.11.2019
4035 Clear -1 1021 17 0 0.84 287 16:36 20.11.2019
4036 Clear -1 1021 17 0 0.84 287 16:18 20.11.2019
4037 Clear -1 1021 17 0 0.84 287 15:41 20.11.2019
4038 Clear -1 1021 17 0 0.84 287 15:21 20.11.2019
4039 Clear -1 1021 17 0 0.84 287 14:59 20.11.2019
4040 Clear -1 1021 17 0 0.84 287 14:40 20.11.2019
4041 Clouds 2 1016 16 0 2.35 306 14:21 20.11.2019
4042 Clouds 2 1016 16 0 2.35 306 13:57 20.11.2019
4043 Clouds 2 1016 16 0 2.35 306 13:39 20.11.2019
4044 Clouds 2 1015 17 0 2.26 302 13:20 20.11.2019
4045 Clouds 2 1015 17 0 2.26 302 12:43 20.11.2019
4046 Clouds 2 1015 17 0 2.26 302 12:43 20.11.2019
4047 Clouds 2 1015 17 0 2.26 302 12:25 20.11.2019
4048 Clouds 2 1015 17 0 2.26 302 11:59 20.11.2019
4049 Clouds 2 1015 17 0 2.26 302 11:40 20.11.2019
4050 Clear 9 1011 8 0 4.03 279 11:21 20.11.2019
4051 Clear 9 1011 8 0 4.03 279 10:55 20.11.2019
4052 Clear 9 1011 8 0 4.03 279 10:37 20.11.2019
4053 Clear 9 1011 8 0 4.03 279 10:37 20.11.2019
4054 Clear 9 1011 8 0 4.03 279 10:19 20.11.2019
4055 Clear 9 1011 8 0 4.03 279 09:43 20.11.2019
4056 Clear 9 1011 8 0 4.03 279 09:21 20.11.2019
4057 Clear 9 1011 8 0 4.03 279 09:21 20.11.2019
4058 Clear 9 1011 8 0 4.03 279 08:56 20.11.2019
4059 Clear 9 1011 8 0 4.03 279 08:38 20.11.2019
4060 Clear 7 1014 16 0 2.62 193 08:20 20.11.2019
4061 Clear 7 1014 16 0 2.62 193 07:45 20.11.2019
4062 Clear 7 1014 16 0 2.62 193 07:25 20.11.2019
4063 Clear 7 1014 16 0 2.62 193 06:49 20.11.2019
4064 Clear 7 1014 16 0 2.62 193 06:22 20.11.2019
4065 Clear 7 1014 16 0 2.62 193 05:39 20.11.2019
4066 Clear 2 1021 44 0 2.29 177 03:36 20.11.2019
4067 Clear -5 1021 75 0 1.5 154 02:21 20.11.2019
4068 Clear -5 1021 75 0 1.6 153 01:33 20.11.2019
4069 Clear -5 1021 75 0 1.6 153 00:41 20.11.2019
4070 Clear -5 1021 75 0 1.6 153 23:55 19.11.2019
4071 Clear -5 1021 75 0 1.6 153 23:27 19.11.2019
4072 Clear -4 1019 61 0 1.49 138 22:59 19.11.2019
4073 Clear -4 1019 61 0 1.49 138 22:41 19.11.2019
4074 Clear -4 1019 61 0 1.49 138 22:19 19.11.2019
4075 Clear -4 1019 61 0 1.49 138 22:19 19.11.2019
4076 Clear -4 1019 61 0 1.49 138 22:19 19.11.2019
4077 Clear -4 1019 61 0 1.49 138 21:57 19.11.2019
4078 Clear -4 1019 61 0 1.49 138 21:38 19.11.2019
4079 Clear -4 1019 61 0 1.49 138 21:19 19.11.2019
4080 Clear -4 1019 61 0 1.49 138 21:19 19.11.2019
4081 Clear -4 1019 61 0 1.49 138 21:19 19.11.2019
4082 Clear -4 1019 61 0 1.49 138 20:56 19.11.2019
4083 Clear -4 1019 61 0 1.49 138 20:38 19.11.2019
4084 Clear -2 1018 46 0 1.18 125 20:19 19.11.2019
4085 Clear -2 1018 46 0 1.18 125 19:56 19.11.2019
4086 Clear -2 1018 46 0 1.18 125 19:38 19.11.2019
4087 Clear -2 1018 46 0 1.18 125 19:19 19.11.2019
4088 Clear -2 1018 46 0 1.18 125 18:55 19.11.2019
4089 Clear -2 1018 46 0 1.18 125 18:36 19.11.2019
4090 Clear -2 1018 46 0 1.18 125 18:18 19.11.2019
4091 Clear -2 1018 46 0 1.18 125 17:55 19.11.2019
4092 Clear -2 1018 46 0 1.18 125 17:37 19.11.2019
4093 Clear 0 1017 20 0 1.57 177 17:18 19.11.2019
4094 Clear 0 1017 20 0 1.57 177 16:42 19.11.2019
4095 Clear 0 1017 20 0 1.57 177 16:23 19.11.2019
4096 Clear 0 1017 20 0 1.57 177 15:57 19.11.2019
4097 Clear 0 1017 20 0 1.57 177 15:39 19.11.2019
4098 Clear 0 1017 20 0 1.57 177 15:20 19.11.2019
4099 Clear 0 1017 20 0 1.57 177 14:55 19.11.2019
4100 Clear 0 1017 20 0 1.57 177 14:37 19.11.2019
4101 Clear 0 1017 20 0 1.57 177 14:37 19.11.2019
4102 Clear 3 1013 13 0 3.6 275 14:19 19.11.2019
4103 Clear 3 1013 13 0 3.6 275 13:40 19.11.2019
4104 Clear 4 1013 13 0 4.24 276 13:19 19.11.2019
4105 Clear 4 1013 13 0 4.24 276 12:41 19.11.2019
4106 Clear 4 1013 13 0 4.24 276 12:22 19.11.2019
4107 Clear 4 1013 13 0 4.24 276 11:58 19.11.2019
4108 Clear 4 1013 13 0 4.24 276 11:38 19.11.2019
4109 Clear 10 1008 7 0 9.39 264 11:19 19.11.2019
4110 Clear 10 1008 7 0 9.39 264 10:48 19.11.2019
4111 Clear 10 1008 7 0 9.39 264 10:23 19.11.2019
4112 Clear 10 1008 7 0 9.39 264 10:23 19.11.2019
4113 Clear 10 1008 7 0 9.39 264 09:58 19.11.2019
4114 Clear 10 1008 7 0 9.39 264 09:40 19.11.2019
4115 Clear 10 1008 7 0 9.39 264 09:19 19.11.2019
4116 Clear 10 1008 7 0 9.39 264 08:41 19.11.2019
4117 Clear 10 1008 7 0 9.39 264 08:41 19.11.2019
4118 Clear 10 1008 7 0 9.25 266 08:23 19.11.2019
4119 Clear 7 1012 20 0 3.01 195 07:58 19.11.2019
4120 Clear 7 1012 20 0 3.01 195 07:39 19.11.2019
4121 Clear 7 1012 20 0 3.01 195 07:20 19.11.2019
4122 Clear 7 1012 20 0 3.01 195 06:52 19.11.2019
4123 Clear 7 1012 20 0 3.01 195 06:33 19.11.2019
4124 Clear 7 1012 20 0 3.01 195 05:40 19.11.2019
4125 Clear 3 1018 46 0 1.96 175 04:24 19.11.2019
4126 Clear 3 1018 46 0 1.96 175 03:34 19.11.2019
4127 Clear 3 1018 46 0 1.96 175 02:57 19.11.2019
4128 Clear 3 1018 46 0 1.96 175 02:31 19.11.2019
4129 Clear -4 1019 75 0 1.54 136 01:43 19.11.2019
4130 Clear -5 1019 76 0 1.45 123 00:22 19.11.2019
4131 Clear -5 1019 76 0 1.45 123 23:57 18.11.2019
4132 Clear -5 1019 76 0 1.45 123 23:37 18.11.2019
4133 Clear -2 1018 61 0 1.63 129 23:18 18.11.2019
4134 Clear -2 1018 61 0 1.63 129 22:45 18.11.2019
4135 Clear -2 1018 61 0 1.63 129 22:23 18.11.2019
4136 Clear -2 1018 61 0 1.63 129 21:56 18.11.2019
4137 Clear -2 1018 61 0 1.63 129 21:38 18.11.2019
4138 Clear -2 1018 61 0 1.63 129 21:20 18.11.2019
4139 Clear -2 1018 61 0 1.63 129 20:57 18.11.2019
4140 Clear -2 1018 61 0 1.63 129 20:38 18.11.2019
4141 Clear -2 1018 61 0 1.63 129 20:38 18.11.2019
4142 Clouds -1 1018 50 0 1.18 100 20:18 18.11.2019
4143 Clouds -1 1018 50 0 1.18 100 19:56 18.11.2019
4144 Clouds -1 1018 50 0 1.18 100 19:37 18.11.2019
4145 Clouds -1 1018 50 0 1.18 100 19:18 18.11.2019
4146 Clouds -1 1018 50 0 1.18 100 18:55 18.11.2019
4147 Clouds -1 1018 50 0 1.18 100 18:37 18.11.2019
4148 Clouds -1 1018 50 0 1.18 100 18:19 18.11.2019
4149 Clouds -1 1018 50 0 1.18 100 17:39 18.11.2019
4150 Clouds -1 1018 50 0 1.18 100 17:39 18.11.2019
4151 Clouds 1 1018 20 0 1.59 160 17:20 18.11.2019
4152 Clouds 1 1018 20 0 1.59 160 16:57 18.11.2019
4153 Clouds 1 1018 20 0 1.59 160 16:39 18.11.2019
4154 Clouds 1 1018 20 0 1.59 160 16:21 18.11.2019
4155 Clouds 1 1018 20 0 1.59 160 15:56 18.11.2019
4156 Clouds 1 1018 20 0 1.59 160 15:56 18.11.2019
4157 Clouds 1 1018 20 0 1.59 160 15:37 18.11.2019
4158 Clouds 1 1018 20 0 1.59 160 15:19 18.11.2019
4159 Clouds 1 1018 20 0 1.59 160 14:42 18.11.2019
4160 Clouds 1 1018 20 0 1.59 160 14:24 18.11.2019
4161 Clear 3 1014 14 0 3.27 305 13:56 18.11.2019
4162 Clear 3 1014 14 0 3.27 305 13:37 18.11.2019
4163 Clear 3 1014 14 0 3.27 305 13:37 18.11.2019
4164 Clouds 3 1014 14 0 2.22 306 13:19 18.11.2019
4165 Clouds 3 1014 14 0 2.22 306 13:19 18.11.2019
4166 Clouds 3 1014 14 0 2.22 306 12:39 18.11.2019
4167 Clouds 3 1014 14 0 2.22 306 12:19 18.11.2019
4168 Clouds 3 1014 14 0 2.22 306 11:46 18.11.2019
4169 Clouds 3 1014 14 0 2.22 306 11:27 18.11.2019
4170 Clear 10 1010 6 0 2.21 265 10:59 18.11.2019
4171 Clear 10 1010 6 0 2.21 265 10:40 18.11.2019
4172 Clear 10 1010 6 0 2.21 265 10:22 18.11.2019
4173 Clear 10 1010 6 0 2.21 265 09:56 18.11.2019
4174 Clear 10 1010 6 0 2.21 265 09:38 18.11.2019
4175 Clear 10 1010 6 0 2.21 265 09:18 18.11.2019
4176 Clear 10 1010 6 0 2.21 265 08:45 18.11.2019
4177 Clouds 9 1014 11 0 2.53 191 08:22 18.11.2019
4178 Clouds 8 1013 14 0 2.29 190 07:49 18.11.2019
4179 Clouds 8 1013 14 0 2.29 190 07:30 18.11.2019
4180 Clouds 8 1013 14 0 2.29 190 06:56 18.11.2019
4181 Clouds 8 1013 14 0 2.29 190 06:37 18.11.2019
4182 Clouds 8 1013 14 0 2.29 190 06:19 18.11.2019
4183 Clouds 8 1013 14 0 2.29 190 05:25 18.11.2019
4184 Clear 3 1020 28 0 0.59 110 03:28 18.11.2019
4185 Clear -5 1021 48 0 1.63 19 01:33 18.11.2019
4186 Clear -5 1021 43 0 1.83 25 00:40 18.11.2019
4187 Clear -5 1021 43 0 1.83 25 23:57 17.11.2019
4188 Clear -5 1021 43 0 1.83 25 23:39 17.11.2019
4189 Clear -3 1021 30 0 1.86 23 23:19 17.11.2019
4190 Clear -3 1021 30 0 1.86 23 22:54 17.11.2019
4191 Clear -3 1021 30 0 1.86 23 22:36 17.11.2019
4192 Clear -3 1021 30 0 1.86 23 22:18 17.11.2019
4193 Clear -3 1021 30 0 1.86 23 21:42 17.11.2019
4194 Clear -3 1021 30 0 1.86 23 21:20 17.11.2019
4195 Clear -3 1021 30 0 1.86 23 20:58 17.11.2019
4196 Clear -3 1021 30 0 1.86 23 20:39 17.11.2019
4197 Clear -2 1020 24 0 0.53 329 20:20 17.11.2019
4198 Clear -2 1020 24 0 0.53 329 19:57 17.11.2019
4199 Clear -2 1020 24 0 0.53 329 19:38 17.11.2019
4200 Clear -2 1020 24 0 0.53 329 19:20 17.11.2019
4201 Clear -2 1020 24 0 0.53 329 18:56 17.11.2019
4202 Clear -2 1020 24 0 0.53 329 18:56 17.11.2019
4203 Clear -2 1020 24 0 0.53 329 18:38 17.11.2019
4204 Clear -2 1020 24 0 0.53 329 18:19 17.11.2019
4205 Clear -2 1020 24 0 0.53 329 17:58 17.11.2019
4206 Clear -2 1020 24 0 0.53 329 17:40 17.11.2019
4207 Clear 1 1020 22 0 1.91 303 17:20 17.11.2019
4208 Clear 1 1020 22 0 1.91 303 16:59 17.11.2019
4209 Clear 1 1020 22 0 1.91 303 16:41 17.11.2019
4210 Clear 1 1020 22 0 1.91 303 16:21 17.11.2019
4211 Clear 1 1020 22 0 1.91 303 15:56 17.11.2019
4212 Clear 1 1020 22 0 1.91 303 15:38 17.11.2019
4213 Clear 1 1020 22 0 1.91 303 15:18 17.11.2019
4214 Clear 1 1020 22 0 1.91 303 14:57 17.11.2019
4215 Clear 1 1020 22 0 1.91 303 14:38 17.11.2019
4216 Clouds 4 1017 22 0 2.5 322 14:20 17.11.2019
4217 Clouds 4 1017 22 0 2.5 322 13:57 17.11.2019
4218 Clouds 4 1017 22 0 2.5 322 13:39 17.11.2019
4219 Clouds 4 1017 22 0 2.5 322 13:19 17.11.2019
4220 Clouds 4 1017 22 0 2.66 316 12:44 17.11.2019
4221 Clouds 4 1017 22 0 2.66 316 12:23 17.11.2019
4222 Clouds 4 1017 22 0 2.66 316 11:57 17.11.2019
4223 Clouds 4 1017 22 0 2.66 316 11:39 17.11.2019
4224 Clouds 10 1013 11 0 9.6 277 11:20 17.11.2019
4225 Clouds 10 1013 11 0 9.6 277 10:44 17.11.2019
4226 Clouds 10 1013 11 0 9.6 277 10:23 17.11.2019
4227 Clouds 10 1013 11 0 9.6 277 09:58 17.11.2019
4228 Clouds 10 1013 11 0 9.6 277 09:39 17.11.2019
4229 Clouds 10 1013 11 0 9.6 277 09:21 17.11.2019
4230 Clouds 10 1013 11 0 9.6 277 08:40 17.11.2019
4231 Clear 10 1015 16 0 2.66 216 08:22 17.11.2019
4232 Clear 10 1015 16 0 2.66 216 07:55 17.11.2019
4233 Clear 10 1015 16 0 2.66 216 07:37 17.11.2019
4234 Clear 10 1015 16 0 2.66 216 07:18 17.11.2019
4235 Clear 10 1015 16 0 2.66 216 06:44 17.11.2019
4236 Clear 10 1015 16 0 2.66 216 06:25 17.11.2019
4237 Clear 6 1020 26 0 0.73 152 04:38 17.11.2019
4238 Clear 6 1020 26 0 0.73 152 03:51 17.11.2019
4239 Clear 6 1020 26 0 0.73 152 03:32 17.11.2019
4240 Clear 6 1020 26 0 0.73 152 02:31 17.11.2019
4241 Clear -3 1021 43 0 0.34 37 01:42 17.11.2019
4242 Clear -3 1021 52 0 0.49 86 00:55 17.11.2019
4243 Clear -3 1021 52 0 0.49 86 00:22 17.11.2019
4244 Clear -3 1021 52 0 0.49 86 23:48 16.11.2019
4245 Clear -1 1020 37 0 1.08 274 23:20 16.11.2019
4246 Clear -1 1020 37 0 1.08 274 22:59 16.11.2019
4247 Clear -1 1020 37 0 1.08 274 22:41 16.11.2019
4248 Clear -1 1020 37 0 1.08 274 22:19 16.11.2019
4249 Clear -1 1020 37 0 1.08 274 21:56 16.11.2019
4250 Clear -1 1020 37 0 1.08 274 21:38 16.11.2019
4251 Clear -1 1020 37 0 1.08 274 21:19 16.11.2019
4252 Clear -1 1020 37 0 1.08 274 20:55 16.11.2019
4253 Clear -1 1020 37 0 1.08 274 20:37 16.11.2019
4254 Clouds 1 1020 32 0 1.61 321 20:18 16.11.2019
4255 Clouds 1 1020 32 0 1.61 321 19:40 16.11.2019
4256 Clouds 1 1020 32 0 1.61 321 19:22 16.11.2019
4257 Clouds 1 1020 32 0 1.61 321 18:47 16.11.2019
4258 Clouds 1 1020 32 0 1.61 321 18:29 16.11.2019
4259 Clouds 1 1020 32 0 1.61 321 17:58 16.11.2019
4260 Clouds 1 1020 32 0 1.61 321 17:39 16.11.2019
4261 Clouds 2 1020 29 0 1.44 332 17:20 16.11.2019
4262 Clouds 2 1020 29 0 1.44 332 16:56 16.11.2019
4263 Clouds 2 1020 29 0 1.44 332 16:37 16.11.2019
4264 Clouds 2 1020 29 0 1.44 332 16:18 16.11.2019
4265 Clouds 2 1020 29 0 1.44 332 15:41 16.11.2019
4266 Clouds 2 1020 29 0 1.44 332 15:21 16.11.2019
4267 Clouds 2 1020 29 0 1.44 332 14:58 16.11.2019
4268 Clouds 2 1020 29 0 1.44 332 14:39 16.11.2019
4269 Clouds 5 1017 23 0 2.59 324 14:21 16.11.2019
4270 Clouds 5 1017 23 0 2.59 324 13:56 16.11.2019
4271 Clouds 5 1017 23 0 2.59 324 13:38 16.11.2019
4272 Clouds 5 1017 24 0 2.58 329 13:18 16.11.2019
4273 Clouds 5 1017 24 0 2.58 329 12:54 16.11.2019
4274 Clouds 5 1017 24 0 2.58 329 12:36 16.11.2019
4275 Clouds 5 1017 24 0 2.58 329 12:18 16.11.2019
4276 Clouds 5 1017 24 0 2.58 329 11:42 16.11.2019
4277 Clouds 12 1012 10 0 5.45 283 11:23 16.11.2019
4278 Clouds 12 1012 10 0 5.45 283 10:56 16.11.2019
4279 Clouds 12 1012 10 0 5.45 283 10:37 16.11.2019
4280 Clouds 12 1012 10 0 5.45 283 10:18 16.11.2019
4281 Clouds 12 1012 10 0 5.45 283 09:40 16.11.2019
4282 Clouds 12 1012 10 0 5.45 283 09:20 16.11.2019
4283 Clouds 12 1012 10 0 5.45 283 08:56 16.11.2019
4284 Clouds 12 1012 10 0 5.45 283 08:36 16.11.2019
4285 Clear 11 1015 12 0 2.41 212 08:18 16.11.2019
4286 Clear 11 1015 12 0 2.41 212 07:41 16.11.2019
4287 Clear 11 1015 12 0 2.41 212 07:19 16.11.2019
4288 Clear 11 1015 12 0 2.41 212 06:43 16.11.2019
4289 Clear 11 1015 12 0 2.41 212 06:23 16.11.2019
4290 Clear 6 1021 22 0 1.24 177 04:49 16.11.2019
4291 Clear 6 1021 22 0 1.24 177 03:26 16.11.2019
4292 Clear 6 1021 22 0 1.24 177 02:54 16.11.2019
4293 Clear -3 1022 48 0 0.42 194 01:43 16.11.2019
4294 Clear -3 1022 55 0 0.68 168 00:59 16.11.2019
4295 Clear -3 1022 55 0 0.68 168 00:37 16.11.2019
4296 Clear -3 1022 55 0 0.68 168 00:18 16.11.2019
4297 Clear -3 1022 55 0 0.68 168 23:39 15.11.2019
4298 Clear -1 1021 37 0 0.76 175 23:20 15.11.2019
4299 Clear -1 1021 37 0 0.76 175 23:20 15.11.2019
4300 Clear -1 1021 37 0 0.76 175 22:43 15.11.2019
4301 Clear -1 1021 37 0 0.76 175 22:20 15.11.2019
4302 Clear -1 1021 37 0 0.76 175 22:00 15.11.2019
4303 Clear -1 1021 37 0 0.76 175 21:40 15.11.2019
4304 Clear -1 1021 37 0 0.76 175 21:20 15.11.2019
4305 Clear -1 1021 37 0 0.76 175 20:58 15.11.2019
4306 Clear -1 1021 37 0 0.76 175 20:39 15.11.2019
4307 Clear -1 1021 37 0 0.76 175 20:39 15.11.2019
4308 Clear 0 1022 26 0 0.91 195 20:21 15.11.2019
4309 Clear 0 1022 26 0 0.91 195 19:58 15.11.2019
4310 Clear 0 1022 26 0 0.91 195 19:39 15.11.2019
4311 Clear 0 1022 26 0 0.91 195 19:20 15.11.2019
4312 Clear 0 1022 26 0 0.91 195 18:58 15.11.2019
4313 Clear 0 1022 26 0 0.91 195 18:40 15.11.2019
4314 Clear 0 1022 26 0 0.91 195 18:21 15.11.2019
4315 Clear 0 1022 26 0 0.91 195 17:43 15.11.2019
4316 Clear 0 1022 26 0 0.91 195 17:25 15.11.2019
4317 Clear 0 1022 26 0 0.91 195 17:25 15.11.2019
4318 Clear 2 1022 24 0 0.62 8 16:57 15.11.2019
4319 Clear 2 1022 24 0 0.62 8 16:38 15.11.2019
4320 Clear 2 1022 24 0 0.62 8 16:19 15.11.2019
4321 Clear 2 1022 24 0 0.62 8 15:39 15.11.2019
4322 Clear 2 1022 24 0 0.62 8 15:20 15.11.2019
4323 Clear 2 1022 24 0 0.62 8 14:57 15.11.2019
4324 Clear 2 1022 24 0 0.62 8 14:38 15.11.2019
4325 Clouds 5 1018 20 0 2.51 330 14:20 15.11.2019
4326 Clouds 5 1018 20 0 2.51 330 13:58 15.11.2019
4327 Clouds 5 1018 20 0 2.51 330 13:39 15.11.2019
4328 Clouds 5 1018 20 0 2.51 330 13:21 15.11.2019
4329 Clouds 5 1018 20 0 2.22 326 13:21 15.11.2019
4330 Clouds 5 1018 20 0 2.22 326 12:59 15.11.2019
4331 Clouds 5 1018 20 0 2.22 326 12:40 15.11.2019
4332 Clouds 5 1018 20 0 2.22 326 12:20 15.11.2019
4333 Clouds 5 1018 20 0 2.22 326 11:59 15.11.2019
4334 Clouds 5 1018 20 0 2.22 326 11:39 15.11.2019
4335 Clouds 13 1014 9 0 8.03 279 11:20 15.11.2019
4336 Clouds 13 1014 9 0 8.03 279 10:57 15.11.2019
4337 Clouds 13 1014 9 0 8.03 279 10:38 15.11.2019
4338 Clouds 13 1014 9 0 8.03 279 10:18 15.11.2019
4339 Clouds 13 1014 9 0 8.03 279 09:41 15.11.2019
4340 Clouds 13 1014 9 0 8.03 279 09:20 15.11.2019
4341 Clouds 13 1014 9 0 8.03 279 08:45 15.11.2019
4342 Clear 11 1017 20 0 3.18 210 08:23 15.11.2019
4343 Clear 11 1017 21 0 3.09 207 07:49 15.11.2019
4344 Clear 11 1017 21 0 3.09 207 07:29 15.11.2019
4345 Clear 11 1017 21 0 3.09 207 06:59 15.11.2019
4346 Clear 11 1017 21 0 3.09 207 06:34 15.11.2019
4347 Clear 11 1017 21 0 3.09 207 05:50 15.11.2019
4348 Clear 11 1017 21 0 3.09 207 05:28 15.11.2019
4349 Clear 6 1023 41 0 1.56 176 04:40 15.11.2019
4350 Clear 6 1023 41 0 1.56 176 03:32 15.11.2019
4351 Clear 6 1023 41 0 1.56 176 02:23 15.11.2019
4352 Clear -2 1025 64 0 1.25 123 01:46 15.11.2019
4353 Clear -2 1024 64 0 1.38 129 01:24 15.11.2019
4354 Clear -2 1024 64 0 1.38 129 00:35 15.11.2019
4355 Clear -2 1024 64 0 1.38 129 23:58 14.11.2019
4356 Clear -2 1024 64 0 1.38 129 23:39 14.11.2019
4357 Clear 0 1023 49 0 1.18 131 23:21 14.11.2019
4358 Clear 0 1023 49 0 1.18 131 22:41 14.11.2019
4359 Clear 0 1023 49 0 1.18 131 22:22 14.11.2019
4360 Clear 0 1023 49 0 1.18 131 21:57 14.11.2019
4361 Clear 0 1023 49 0 1.18 131 21:39 14.11.2019
4362 Clear 0 1023 49 0 1.18 131 21:39 14.11.2019
4363 Clear 0 1023 49 0 1.18 131 21:21 14.11.2019
4364 Clear 0 1023 49 0 1.18 131 20:54 14.11.2019
4365 Clear 0 1023 49 0 1.18 131 20:36 14.11.2019
4366 Clouds 1 1024 30 0 0.64 158 20:18 14.11.2019
4367 Clouds 1 1024 30 0 0.64 158 19:54 14.11.2019
4368 Clouds 1 1024 30 0 0.64 158 19:36 14.11.2019
4369 Clouds 1 1024 30 0 0.64 158 19:18 14.11.2019
4370 Clouds 1 1024 30 0 0.64 158 18:41 14.11.2019
4371 Clouds 1 1024 30 0 0.64 158 18:22 14.11.2019
4372 Clouds 1 1024 30 0 0.64 158 17:57 14.11.2019
4373 Clouds 1 1024 30 0 0.64 158 17:37 14.11.2019
4374 Clouds 3 1024 22 0 1.1 320 17:19 14.11.2019
4375 Clouds 3 1024 22 0 1.1 320 16:57 14.11.2019
4376 Clouds 3 1024 22 0 1.1 320 16:37 14.11.2019
4377 Clouds 3 1024 22 0 1.1 320 16:19 14.11.2019
4378 Clouds 3 1024 22 0 1.1 320 15:57 14.11.2019
4379 Clouds 3 1024 22 0 1.1 320 15:38 14.11.2019
4380 Clouds 3 1024 22 0 1.1 320 15:19 14.11.2019
4381 Clouds 3 1024 22 0 1.1 320 14:46 14.11.2019
4382 Clouds 7 1020 18 0 2.32 331 14:23 14.11.2019
4383 Clouds 7 1020 18 0 2.32 331 13:58 14.11.2019
4384 Clouds 7 1020 18 0 2.32 331 13:39 14.11.2019
4385 Clouds 7 1020 18 0 2.32 331 13:20 14.11.2019
4386 Clouds 8 1020 17 0 2.56 333 12:56 14.11.2019
4387 Clouds 8 1020 17 0 2.56 333 12:37 14.11.2019
4388 Clouds 8 1020 17 0 2.56 333 12:19 14.11.2019
4389 Clouds 8 1020 17 0 2.56 333 11:54 14.11.2019
4390 Clouds 8 1020 17 0 2.56 333 11:36 14.11.2019
4391 Clouds 13 1016 11 0 5.39 276 11:18 14.11.2019
4392 Clouds 13 1016 11 0 5.39 276 10:41 14.11.2019
4393 Clouds 13 1016 11 0 5.39 276 10:41 14.11.2019
4394 Clouds 13 1016 11 0 5.39 276 10:21 14.11.2019
4395 Clouds 13 1016 11 0 5.39 276 09:59 14.11.2019
4396 Clouds 13 1016 11 0 5.39 276 09:41 14.11.2019
4397 Clouds 13 1016 11 0 5.39 276 09:22 14.11.2019
4398 Clouds 13 1016 11 0 5.39 276 08:48 14.11.2019
4399 Clouds 13 1016 11 0 5.39 276 08:26 14.11.2019
4400 Clear 11 1019 18 0 1.81 206 07:57 14.11.2019
4401 Clear 11 1019 18 0 1.81 206 07:38 14.11.2019
4402 Clear 11 1019 18 0 1.81 206 07:20 14.11.2019
4403 Clear 11 1019 18 0 1.81 206 06:44 14.11.2019
4404 Clear 11 1019 18 0 1.81 206 06:19 14.11.2019
4405 Clear 6 1026 16 0 0.32 123 04:48 14.11.2019
4406 Clear 6 1026 16 0 0.32 123 04:26 14.11.2019
4407 Clear 6 1026 16 0 0.32 123 02:49 14.11.2019
4408 Clear 6 1026 16 0 0.32 123 02:28 14.11.2019
4409 Clear -3 1026 26 0 1.59 32 01:34 14.11.2019
4410 Clouds -3 1026 28 0 1.47 33 00:55 14.11.2019
4411 Clouds -3 1026 28 0 1.47 33 00:34 14.11.2019
4412 Clouds -3 1026 28 0 1.47 33 23:58 13.11.2019
4413 Clouds -3 1026 28 0 1.47 33 23:37 13.11.2019
4414 Clear -1 1026 21 0 1.97 29 23:18 13.11.2019
4415 Clear -1 1026 21 0 1.97 29 22:41 13.11.2019
4416 Clear -1 1026 21 0 1.97 29 22:22 13.11.2019
4417 Clear -1 1026 21 0 1.97 29 21:57 13.11.2019
4418 Clear -1 1026 21 0 1.97 29 21:39 13.11.2019
4419 Clear -1 1026 21 0 1.97 29 21:20 13.11.2019
4420 Clear -1 1026 21 0 1.97 29 20:57 13.11.2019
4421 Clear -1 1026 21 0 1.97 29 20:38 13.11.2019
4422 Clear 0 1026 17 0 1.1 18 20:19 13.11.2019
4423 Clear 0 1026 17 0 1.05 27 19:58 13.11.2019
4424 Clear 0 1026 17 0 1.05 27 19:40 13.11.2019
4425 Clear 0 1026 17 0 1.05 27 19:18 13.11.2019
4426 Clear 0 1026 17 0 1.05 27 18:55 13.11.2019
4427 Clear 0 1026 17 0 1.05 27 18:36 13.11.2019
4428 Clear 0 1026 17 0 1.05 27 18:18 13.11.2019
4429 Clear 0 1026 17 0 1.05 27 17:56 13.11.2019
4430 Clear 0 1026 17 0 1.05 27 17:36 13.11.2019
4431 Clear 2 1026 16 0 0.74 284 17:18 13.11.2019
4432 Clear 2 1026 16 0 0.74 284 16:56 13.11.2019
4433 Clear 2 1026 16 0 0.74 284 16:37 13.11.2019
4434 Clear 2 1026 16 0 0.74 284 16:18 13.11.2019
4435 Clear 2 1026 16 0 0.9 285 15:55 13.11.2019
4436 Clear 2 1026 16 0 0.74 284 15:36 13.11.2019
4437 Clear 2 1026 16 0 0.9 285 15:18 13.11.2019
4438 Clear 2 1026 16 0 0.74 284 14:39 13.11.2019
4439 Clear 5 1022 14 0 1.87 341 14:20 13.11.2019
4440 Clear 5 1022 14 0 1.87 341 13:38 13.11.2019
4441 Clear 5 1022 14 0 1.89 333 13:19 13.11.2019
4442 Clear 5 1022 14 0 1.89 333 12:58 13.11.2019
4443 Clear 5 1022 14 0 1.89 333 12:40 13.11.2019
4444 Clear 5 1022 14 0 1.89 333 12:21 13.11.2019
4445 Clear 5 1022 14 0 1.89 333 11:55 13.11.2019
4446 Clear 5 1022 14 0 1.89 333 11:36 13.11.2019
4447 Clear 13 1017 7 0 3.16 269 11:18 13.11.2019
4448 Clear 13 1017 7 0 3.16 269 10:54 13.11.2019
4449 Clear 13 1017 7 0 3.16 269 10:36 13.11.2019
4450 Clear 13 1017 7 0 3.16 269 10:18 13.11.2019
4451 Clear 13 1017 7 0 3.16 269 09:41 13.11.2019
4452 Clear 13 1017 7 0 3.16 269 09:20 13.11.2019
4453 Clear 13 1017 7 0 3.16 269 09:20 13.11.2019
4454 Clear 13 1017 7 0 3.16 269 08:41 13.11.2019
4455 Clear 11 1020 10 0 1.66 190 08:23 13.11.2019
4456 Clear 11 1020 10 0 1.97 186 07:58 13.11.2019
4457 Clear 11 1020 10 0 1.97 186 07:39 13.11.2019
4458 Clear 11 1020 10 0 1.97 186 07:18 13.11.2019
4459 Clear 11 1020 10 0 1.97 186 06:41 13.11.2019
4460 Clear 11 1020 10 0 1.97 186 06:18 13.11.2019
4461 Clear 11 1020 10 0 1.97 186 05:47 13.11.2019
4462 Clear 6 1025 14 0 0.51 118 05:19 13.11.2019
4463 Clear 6 1025 14 0 0.51 118 03:56 13.11.2019
4464 Clear 6 1025 14 0 0.51 118 03:56 13.11.2019
4465 Clear -3 1025 29 0 1.31 28 01:51 13.11.2019
4466 Clear -3 1025 29 0 1.31 28 01:27 13.11.2019
4467 Clear -3 1025 29 0 1.31 28 01:27 13.11.2019
4468 Clear -4 1025 29 0 1.28 25 00:43 13.11.2019
4469 Clear -4 1025 29 0 1.28 25 23:56 12.11.2019
4470 Clear -4 1025 29 0 1.28 25 23:37 12.11.2019
4471 Clear -2 1023 23 0 1.17 13 23:18 12.11.2019
4472 Clear -2 1023 23 0 1.17 13 22:42 12.11.2019
4473 Clear -2 1023 23 0 1.17 13 22:19 12.11.2019
4474 Clear -2 1023 23 0 1.17 13 21:56 12.11.2019
4475 Clear -2 1023 23 0 1.17 13 21:38 12.11.2019
4476 Clear -2 1023 23 0 1.17 13 21:38 12.11.2019
4477 Clear -2 1023 23 0 1.17 13 21:19 12.11.2019
4478 Clear -2 1023 23 0 1.17 13 20:55 12.11.2019
4479 Clear -2 1023 23 0 1.17 13 20:36 12.11.2019
4480 Clear 0 1023 22 0 1.36 337 20:18 12.11.2019
4481 Clear 0 1023 22 0 1.36 337 19:55 12.11.2019
4482 Clear 0 1023 22 0 1.36 337 19:55 12.11.2019
4483 Clear 0 1023 22 0 1.36 337 19:37 12.11.2019
4484 Clear 0 1023 22 0 1.36 337 19:18 12.11.2019
4485 Clear 0 1023 22 0 1.36 337 18:55 12.11.2019
4486 Clear 0 1023 22 0 1.36 337 18:36 12.11.2019
4487 Clear 0 1023 22 0 1.36 337 18:18 12.11.2019
4488 -273 0 0 0 0 0 17:55 12.11.2019
4489 Clear 0 1023 22 0 1.36 337 17:36 12.11.2019
4490 Clear 0 1023 22 0 1.36 337 17:36 12.11.2019
4491 Clear 0 1023 22 0 1.36 337 17:36 12.11.2019
4492 Clear 0 1023 22 0 1.36 337 17:36 12.11.2019
4493 Clear 2 1022 17 0 2.05 318 17:18 12.11.2019
4494 Clear 2 1022 17 0 2.05 318 16:43 12.11.2019
4495 Clear 2 1022 17 0 2.05 318 16:24 12.11.2019
4496 Clear 2 1022 17 0 2.05 318 15:57 12.11.2019
4497 Clear 2 1022 17 0 2.05 318 15:37 12.11.2019
4498 Clear 2 1022 17 0 2.05 318 15:18 12.11.2019
4499 Clear 2 1022 17 0 2.05 318 14:42 12.11.2019
4500 Clear 5 1019 16 0 2.3 310 14:21 12.11.2019
4501 Clear 5 1019 16 0 2.3 310 13:59 12.11.2019
4502 Clear 5 1019 16 0 2.3 310 13:40 12.11.2019
4503 Clear 4 1018 17 0 2.19 298 13:20 12.11.2019
4504 Clear 4 1018 17 0 2.19 298 12:59 12.11.2019
4505 Clear 4 1018 17 0 1.88 306 12:39 12.11.2019
4506 Clear 4 1018 17 0 1.88 306 12:18 12.11.2019
4507 Clear 4 1018 17 0 1.88 306 11:54 12.11.2019
4508 Clear 4 1018 17 0 2.19 298 11:36 12.11.2019
4509 Clear 13 1013 7 0 7.63 278 11:18 12.11.2019
4510 Clear 12 1014 8 0 6.16 284 10:55 12.11.2019
4511 Clear 12 1014 8 0 6.16 284 10:36 12.11.2019
4512 Clear 12 1014 8 0 6.16 284 10:36 12.11.2019
4513 Clear 12 1014 8 0 6.16 284 10:18 12.11.2019
4514 Clear 12 1014 8 0 6.16 284 09:39 12.11.2019
4515 Clear 12 1014 8 0 6.16 284 09:19 12.11.2019
4516 Clear 13 1013 7 0 7.63 278 08:49 12.11.2019
4517 Clear 12 1014 8 0 6.16 284 08:29 12.11.2019
4518 Clear 12 1016 10 0 6.21 261 07:43 12.11.2019
4519 Clear 12 1016 10 0 6.21 261 07:24 12.11.2019
4520 Clear 12 1016 10 0 6.21 261 06:53 12.11.2019
4521 Clear 12 1016 10 0 6.21 261 06:26 12.11.2019
4522 Clear 12 1016 10 0 6.21 261 05:54 12.11.2019
4523 Clear 5 1021 34 0 2.59 175 04:59 12.11.2019
4524 Clear 5 1021 34 0 2.59 175 04:35 12.11.2019
4525 Clear 5 1021 34 0 2.59 175 02:41 12.11.2019
4526 Clear -2 1021 64 0 1.66 154 01:27 12.11.2019
4527 Clear -2 1021 64 0 1.66 154 00:57 12.11.2019
4528 Clear -2 1021 64 0 1.66 154 00:39 12.11.2019
4529 Clear -2 1021 64 0 1.66 154 23:56 11.11.2019
4530 Clear -2 1021 64 0 1.66 154 23:38 11.11.2019
4531 Clear 0 1020 53 0 1.74 139 23:18 11.11.2019
4532 Clear 0 1020 53 0 1.74 139 22:39 11.11.2019
4533 Clear 0 1020 53 0 1.74 139 22:20 11.11.2019
4534 Clear 0 1020 53 0 1.74 139 21:58 11.11.2019
4535 Clear 0 1020 53 0 1.74 139 21:39 11.11.2019
4536 Clear 0 1020 53 0 1.74 139 21:20 11.11.2019
4537 Clear 0 1020 53 0 1.74 139 20:56 11.11.2019
4538 Clear 0 1020 53 0 1.74 139 20:38 11.11.2019
4539 Clouds 1 1019 43 0 1.46 133 20:19 11.11.2019
4540 Clouds 1 1019 43 0 1.46 133 19:55 11.11.2019
4541 Clouds 1 1019 43 0 1.46 133 19:37 11.11.2019
4542 Clouds 1 1019 43 0 1.46 133 19:18 11.11.2019
4543 Clouds 1 1019 43 0 1.46 133 18:41 11.11.2019
4544 Clouds 1 1019 43 0 1.46 133 18:21 11.11.2019
4545 Clouds 1 1019 43 0 1.46 133 17:46 11.11.2019
4546 Clouds 1 1019 43 0 1.46 133 17:46 11.11.2019
4547 Clouds 1 1019 43 0 1.46 133 17:28 11.11.2019
4548 Clouds 2 1018 23 0 0.95 214 16:58 11.11.2019
4549 Clouds 2 1018 23 0 0.95 214 16:38 11.11.2019
4550 Clouds 2 1018 23 0 0.95 214 16:20 11.11.2019
4551 Clouds 2 1018 23 0 0.95 214 15:41 11.11.2019
4552 Clouds 2 1018 23 0 0.95 214 15:20 11.11.2019
4553 Clouds 2 1018 23 0 0.95 214 14:56 11.11.2019
4554 Clouds 2 1018 23 0 0.95 214 14:38 11.11.2019
4555 Clear 5 1013 17 0 2.78 312 14:20 11.11.2019
4556 Clear 5 1013 17 0 2.78 312 13:56 11.11.2019
4557 Clear 5 1013 17 0 2.78 312 13:56 11.11.2019
4558 Clear 5 1013 17 0 2.78 312 13:36 11.11.2019
4559 Clear 5 1013 17 0 2.78 312 13:36 11.11.2019
4560 Clear 5 1012 18 0 2.88 311 13:18 11.11.2019
4561 Clear 5 1012 18 0 2.88 311 12:55 11.11.2019
4562 Clear 5 1012 18 0 2.88 311 12:37 11.11.2019
4563 Clear 5 1012 18 0 2.88 311 12:19 11.11.2019
4564 Clear 5 1012 18 0 2.88 311 11:41 11.11.2019
4565 Clear 13 1008 8 0 7.38 277 11:21 11.11.2019
4566 Clear 13 1008 8 0 7.38 277 10:44 11.11.2019
4567 Clear 13 1008 8 0 7.38 277 10:20 11.11.2019
4568 Clear 13 1008 8 0 7.38 277 09:59 11.11.2019
4569 Clear 13 1008 8 0 7.38 277 09:41 11.11.2019
4570 Clear 13 1008 8 0 7.38 277 09:20 11.11.2019
4571 Clear 13 1008 8 0 7.38 277 08:43 11.11.2019
4572 Clear 10 1011 19 0 2.94 193 08:23 11.11.2019
4573 Clear 9 1011 20 0 3.19 191 07:57 11.11.2019
4574 Clear 9 1011 20 0 3.19 191 07:57 11.11.2019
4575 Clear 9 1011 20 0 3.19 191 07:39 11.11.2019
4576 Clear 9 1011 20 0 3.19 191 07:19 11.11.2019
4577 Clear 9 1011 20 0 3.19 191 06:56 11.11.2019
4578 Clear 9 1011 20 0 3.19 191 06:38 11.11.2019
4579 Clear 9 1011 20 0 3.19 191 06:19 11.11.2019
4580 Clear 9 1011 20 0 3.19 191 05:48 11.11.2019
4581 Clear 4 1018 43 0 2.1 173 03:34 11.11.2019
4582 Clear 4 1018 43 0 2.1 173 02:39 11.11.2019
4583 Clear -3 1020 76 0 1.35 139 01:59 11.11.2019
4584 Clear -3 1020 76 0 1.35 139 01:36 11.11.2019
4585 Clear -3 1020 76 0 1.23 140 00:55 11.11.2019
4586 Clear -3 1020 76 0 1.23 140 00:33 11.11.2019
4587 Clear -3 1020 76 0 1.23 140 23:58 10.11.2019
4588 Clear -3 1020 76 0 1.23 140 23:37 10.11.2019
4589 Clear -1 1018 66 0 1.7 141 23:19 10.11.2019
4590 Clear -1 1018 66 0 1.7 141 22:56 10.11.2019
4591 Clear -1 1018 66 0 1.7 141 22:37 10.11.2019
4592 Clear -1 1018 66 0 1.7 141 22:19 10.11.2019
4593 Clear -1 1018 66 0 1.7 141 21:55 10.11.2019
4594 Clear -1 1018 66 0 1.7 141 21:36 10.11.2019
4595 Clear -1 1018 66 0 1.7 141 21:18 10.11.2019
4596 Clear -1 1018 66 0 1.7 141 20:41 10.11.2019
4597 Clear 1 1018 55 0 2.35 152 20:22 10.11.2019
4598 Clear 1 1018 55 0 2.35 152 19:56 10.11.2019
4599 Clear 1 1018 55 0 2.35 152 19:56 10.11.2019
4600 Clear 1 1018 55 0 2.35 152 19:37 10.11.2019
4601 Clear 1 1018 55 0 2.35 152 19:37 10.11.2019
4602 Clear 1 1018 55 0 2.35 152 19:18 10.11.2019
4603 Clear 1 1018 55 0 2.35 152 18:58 10.11.2019
4604 Clear 1 1018 55 0 2.35 152 18:58 10.11.2019
4605 Clear 1 1018 55 0 2.35 152 18:58 10.11.2019
4606 Clear 1 1018 55 0 2.35 152 18:39 10.11.2019
4607 Clear 1 1018 55 0 2.35 152 18:19 10.11.2019
4608 Clear 1 1018 55 0 2.35 152 18:19 10.11.2019
4609 Clear 1 1018 55 0 2.35 152 17:56 10.11.2019
4610 Clear 1 1018 55 0 2.35 152 17:38 10.11.2019
4611 Clear 4 1018 41 0 2.3 160 17:19 10.11.2019
4612 Clear 4 1018 41 0 2.3 160 16:58 10.11.2019
4613 Clear 4 1018 41 0 2.3 160 16:38 10.11.2019
4614 Clear 4 1018 41 0 2.3 160 16:20 10.11.2019
4615 Clear 4 1018 41 0 2.3 160 15:55 10.11.2019
4616 Clear 4 1018 41 0 2.3 160 15:36 10.11.2019
4617 Clear 4 1018 41 0 2.3 160 15:36 10.11.2019
4618 Clear 4 1018 41 0 2.3 160 15:18 10.11.2019
4619 Clear 4 1018 41 0 2.3 160 14:41 10.11.2019
4620 Clear 5 1014 29 0 0.45 41 14:23 10.11.2019
4621 Clear 5 1014 29 0 0.45 41 13:58 10.11.2019
4622 Clear 5 1014 29 0 0.45 41 13:40 10.11.2019
4623 Clear 5 1013 33 0 0.69 59 13:20 10.11.2019
4624 Clear 5 1013 33 0 0.69 59 12:44 10.11.2019
4625 Clear 5 1013 33 0 0.69 59 12:21 10.11.2019
4626 Clear 5 1013 33 0 0.69 59 11:57 10.11.2019
4627 Clear 5 1013 33 0 0.69 59 11:57 10.11.2019
4628 Clear 5 1013 33 0 0.69 59 11:39 10.11.2019
4629 Clear 10 1010 21 0 0.44 307 11:21 10.11.2019
4630 Clear 10 1010 21 0 0.44 307 10:59 10.11.2019
4631 Clear 10 1010 21 0 0.44 307 10:40 10.11.2019
4632 Clear 10 1010 21 0 0.44 307 10:20 10.11.2019
4633 Clear 10 1010 21 0 0.44 307 09:43 10.11.2019
4634 Clear 10 1010 21 0 0.44 307 09:24 10.11.2019
4635 Clear 10 1010 21 0 0.44 307 08:56 10.11.2019
4636 Clear 10 1010 21 0 0.44 307 08:36 10.11.2019
4637 Clouds 8 1014 28 0 2.71 188 08:18 10.11.2019
4638 Clouds 8 1014 28 0 2.71 188 07:42 10.11.2019
4639 Clouds 8 1014 28 0 2.71 188 07:23 10.11.2019
4640 Clouds 8 1014 28 0 2.71 188 06:33 10.11.2019
4641 Clouds 8 1014 28 0 2.71 188 05:33 10.11.2019
4642 Clouds 5 1021 45 0 2.22 169 03:22 10.11.2019
4643 Clouds -1 1022 70 0 1.72 141 01:53 10.11.2019
4644 Clouds -1 1022 69 0 1.56 135 01:19 10.11.2019
4645 Clouds -1 1022 69 0 1.56 135 01:19 10.11.2019
4646 Clouds -1 1022 69 0 1.56 135 00:41 10.11.2019
4647 Clouds -1 1022 69 0 1.56 135 23:57 09.11.2019
4648 Clouds -1 1022 69 0 1.56 135 23:37 09.11.2019
4649 Clouds 1 1022 61 0 1.78 138 23:18 09.11.2019
4650 Clouds 1 1022 61 0 1.78 138 22:41 09.11.2019
4651 Clouds 1 1022 61 0 1.78 138 22:21 09.11.2019
4652 Clouds 1 1022 61 0 1.78 138 21:56 09.11.2019
4653 Clouds 1 1022 61 0 1.78 138 21:56 09.11.2019
4654 Clouds 1 1022 61 0 1.78 138 21:37 09.11.2019
4655 Clouds 1 1022 61 0 1.78 138 21:19 09.11.2019
4656 Clouds 1 1022 61 0 1.78 138 20:43 09.11.2019
4657 Clouds 2 1022 55 0 1.78 144 20:22 09.11.2019
4658 Clouds 2 1022 55 0 1.78 144 19:58 09.11.2019
4659 Clouds 2 1022 55 0 1.78 144 19:40 09.11.2019
4660 Clouds 2 1022 55 0 1.78 144 19:21 09.11.2019
4661 Clouds 2 1022 55 0 1.78 144 18:56 09.11.2019
4662 Clouds 2 1022 55 0 1.78 144 18:38 09.11.2019
4663 Clouds 2 1022 55 0 1.78 144 18:18 09.11.2019
4664 Clouds 2 1022 55 0 1.78 144 17:41 09.11.2019
4665 Clouds 4 1022 40 0 1.72 166 17:22 09.11.2019
4666 Clouds 4 1022 40 0 1.72 166 16:56 09.11.2019
4667 Clouds 4 1022 40 0 1.72 166 16:37 09.11.2019
4668 Clouds 4 1022 40 0 1.72 166 16:37 09.11.2019
4669 Clouds 4 1022 40 0 1.72 166 16:18 09.11.2019
4670 Clouds 4 1022 40 0 1.72 166 15:41 09.11.2019
4671 Clouds 4 1022 40 0 1.72 166 15:23 09.11.2019
4672 Clouds 4 1022 40 0 1.72 166 14:46 09.11.2019
4673 Clouds 5 1018 41 0 0.31 37 14:23 09.11.2019
4674 Clouds 5 1018 41 0 0.31 37 13:58 09.11.2019
4675 Clouds 5 1018 41 0 0.31 37 13:40 09.11.2019
4676 Clouds 5 1018 41 0 0.31 37 13:21 09.11.2019
4677 Clouds 5 1017 42 0 0.58 339 12:58 09.11.2019
4678 Clouds 5 1017 42 0 0.58 339 12:40 09.11.2019
4679 Clouds 5 1017 42 0 0.58 339 12:21 09.11.2019
4680 Clouds 5 1017 42 0 0.58 339 11:48 09.11.2019
4681 Clouds 10 1015 29 0 0.96 212 11:22 09.11.2019
4682 Clouds 10 1015 29 0 0.96 212 10:58 09.11.2019
4683 Clouds 10 1015 29 0 0.96 212 10:39 09.11.2019
4684 Clouds 10 1015 29 0 0.96 212 10:19 09.11.2019
4685 Clouds 10 1015 29 0 0.96 212 09:45 09.11.2019
4686 Clouds 10 1015 29 0 0.96 212 09:26 09.11.2019
4687 Clouds 10 1015 29 0 0.96 212 08:57 09.11.2019
4688 Clouds 10 1015 29 0 0.96 212 08:38 09.11.2019
4689 Clouds 9 1017 33 0 2.36 194 08:19 09.11.2019
4690 Clouds 9 1017 33 0 2.36 194 08:19 09.11.2019
4691 Clouds 9 1017 33 0 2.36 194 07:43 09.11.2019
4692 Clouds 9 1017 33 0 2.36 194 07:22 09.11.2019
4693 Clouds 9 1017 33 0 2.36 194 06:48 09.11.2019
4694 Clouds 9 1017 33 0 2.36 194 06:30 09.11.2019
4695 Clouds 9 1017 33 0 2.36 194 05:42 09.11.2019
4696 Clouds 5 1024 46 0 1.62 177 04:56 09.11.2019
4697 Clouds 5 1024 46 0 1.62 177 03:35 09.11.2019
4698 Clouds 5 1024 46 0 1.62 177 02:41 09.11.2019
4699 Clouds -1 1023 72 0 1.26 132 01:54 09.11.2019
4700 Clouds -1 1023 72 0 1.13 131 00:49 09.11.2019
4701 Clouds -1 1023 72 0 1.13 131 00:31 09.11.2019
4702 Clouds -1 1023 72 0 1.13 131 23:57 08.11.2019
4703 Clouds -1 1023 72 0 1.13 131 23:38 08.11.2019
4704 Clouds 1 1021 62 0 1.61 129 23:19 08.11.2019
4705 Clouds 1 1021 62 0 1.61 129 22:42 08.11.2019
4706 Clouds 1 1021 62 0 1.61 129 22:21 08.11.2019
4707 Clouds 1 1021 62 0 1.61 129 21:56 08.11.2019
4708 Clouds 1 1021 62 0 1.61 129 21:56 08.11.2019
4709 Clouds 1 1021 62 0 1.61 129 21:37 08.11.2019
4710 Clouds 1 1021 62 0 1.61 129 21:18 08.11.2019
4711 Clouds 1 1021 62 0 1.61 129 20:41 08.11.2019
4712 Clouds 3 1021 54 0 1.45 129 20:21 08.11.2019
4713 Clouds 3 1021 52 0 1.42 133 19:58 08.11.2019
4714 Clouds 3 1021 52 0 1.42 133 19:58 08.11.2019
4715 Clouds 3 1021 52 0 1.42 133 19:38 08.11.2019
4716 Clouds 3 1021 52 0 1.42 133 19:38 08.11.2019
4717 Clouds 3 1021 52 0 1.42 133 19:18 08.11.2019
4718 Clouds 3 1021 52 0 1.42 133 19:18 08.11.2019
4719 Clouds 3 1021 52 0 1.42 133 19:18 08.11.2019
4720 Clouds 3 1021 52 0 1.42 133 18:55 08.11.2019
4721 Clouds 3 1021 52 0 1.42 133 18:55 08.11.2019
4722 Clouds 3 1021 52 0 1.42 133 18:37 08.11.2019
4723 Clouds 3 1021 52 0 1.42 133 18:19 08.11.2019
4724 Clouds 3 1021 52 0 1.42 133 17:55 08.11.2019
4725 Clouds 3 1021 52 0 1.42 133 17:37 08.11.2019
4726 Clouds 4 1021 42 0 1.66 156 17:18 08.11.2019
4727 Clouds 4 1021 42 0 1.66 156 16:57 08.11.2019
4728 Clouds 4 1021 42 0 1.66 156 16:39 08.11.2019
4729 Clouds 4 1021 42 0 1.66 156 16:19 08.11.2019
4730 Clouds 4 1021 42 0 1.66 156 15:56 08.11.2019
4731 Clouds 4 1021 42 0 1.66 156 15:38 08.11.2019
4732 Clouds 4 1021 42 0 1.66 156 15:19 08.11.2019
4733 Clouds 4 1021 42 0 1.66 156 14:55 08.11.2019
4734 Clouds 4 1021 42 0 1.66 156 14:36 08.11.2019
4735 Clouds 4 1021 42 0 1.66 156 14:36 08.11.2019
4736 Clouds 6 1018 41 0 0.86 215 14:18 08.11.2019
4737 Clouds 6 1018 41 0 0.86 215 13:43 08.11.2019
4738 Clouds 6 1017 39 0 1.01 205 13:22 08.11.2019
4739 Clouds 6 1017 39 0 1.01 205 12:58 08.11.2019
4740 Clouds 6 1017 39 0 1.01 205 12:39 08.11.2019
4741 Clouds 6 1017 39 0 1.01 205 12:21 08.11.2019
4742 Clouds 6 1017 39 0 1.01 205 11:55 08.11.2019
4743 Clouds 6 1017 39 0 1.01 205 11:37 08.11.2019
4744 Clouds 10 1014 28 0 1.34 179 11:19 08.11.2019
4745 Clouds 10 1014 28 0 1.34 179 10:43 08.11.2019
4746 Clouds 10 1014 28 0 1.34 179 10:22 08.11.2019
4747 Clouds 10 1014 28 0 1.34 179 09:59 08.11.2019
4748 Clouds 10 1014 28 0 1.34 179 09:41 08.11.2019
4749 Clouds 10 1014 28 0 1.34 179 09:20 08.11.2019
4750 Clouds 10 1014 28 0 1.34 179 08:47 08.11.2019
4751 Clouds 10 1014 28 0 1.34 179 08:29 08.11.2019
4752 Clouds 8 1016 34 0 2.71 193 07:57 08.11.2019
4753 Clouds 8 1016 34 0 2.71 193 07:39 08.11.2019
4754 Clouds 8 1016 34 0 2.71 193 07:20 08.11.2019
4755 Clouds 8 1016 34 0 2.71 193 06:40 08.11.2019
4756 Clouds 8 1016 34 0 2.71 193 06:20 08.11.2019
4757 Clouds 8 1016 34 0 2.71 193 05:39 08.11.2019
4758 Clouds 4 1022 50 0 1.26 169 04:43 08.11.2019
4759 Clouds 4 1022 50 0 1.26 169 03:43 08.11.2019
4760 Clouds 4 1022 50 0 1.26 169 03:20 08.11.2019
4761 Clouds 4 1022 50 0 1.26 169 02:41 08.11.2019
4762 Clouds -2 1023 76 0 1.42 138 01:46 08.11.2019
4763 Clouds -2 1023 76 0 1.42 138 01:18 08.11.2019
4764 Clouds -2 1023 76 0 1.5 136 00:24 08.11.2019
4765 Clouds -2 1023 76 0 1.5 136 23:57 07.11.2019
4766 Clouds -2 1023 76 0 1.5 136 23:39 07.11.2019
4767 Clouds 0 1021 68 0 1.46 136 23:20 07.11.2019
4768 Clouds 0 1021 68 0 1.46 136 22:42 07.11.2019
4769 Clouds 0 1021 68 0 1.46 136 22:21 07.11.2019
4770 Clouds 0 1021 68 0 1.46 136 21:56 07.11.2019
4771 Clouds 0 1021 68 0 1.46 136 21:37 07.11.2019
4772 Clouds 0 1021 68 0 1.46 136 21:19 07.11.2019
4773 Clouds 0 1021 68 0 1.46 136 20:55 07.11.2019
4774 Clouds 0 1021 68 0 1.46 136 20:37 07.11.2019
4775 Clouds 2 1021 57 0 2.28 155 20:19 07.11.2019
4776 Clouds 2 1021 57 0 2.28 155 19:42 07.11.2019
4777 Clouds 2 1021 57 0 2.28 155 19:23 07.11.2019
4778 Clouds 2 1021 57 0 2.28 155 18:59 07.11.2019
4779 Clouds 2 1021 57 0 2.28 155 18:40 07.11.2019
4780 Clouds 2 1021 57 0 2.28 155 18:20 07.11.2019
4781 Clouds 2 1021 57 0 2.28 155 18:20 07.11.2019
4782 Clouds 2 1021 57 0 2.28 155 18:20 07.11.2019
4783 Clouds 2 1021 57 0 2.28 155 17:59 07.11.2019
4784 Clouds 2 1021 57 0 2.28 155 17:39 07.11.2019
4785 Clouds 4 1020 42 0 2.35 158 17:20 07.11.2019
4786 Clouds 4 1020 42 0 2.35 158 16:58 07.11.2019
4787 Clouds 4 1020 42 0 2.35 158 16:39 07.11.2019
4788 Clouds 4 1020 42 0 2.35 158 16:19 07.11.2019
4789 Clouds 4 1020 42 0 2.35 158 15:54 07.11.2019
4790 Clouds 4 1020 42 0 2.35 158 15:36 07.11.2019
4791 Clouds 4 1020 42 0 2.35 158 15:18 07.11.2019
4792 Clouds 4 1020 42 0 2.35 158 14:43 07.11.2019
4793 Clouds 4 1020 42 0 2.35 158 14:25 07.11.2019
4794 Clear 5 1015 42 0 1.01 216 13:56 07.11.2019
4795 Clear 5 1015 42 0 1.01 216 13:56 07.11.2019
4796 Clear 5 1015 42 0 1.01 216 13:38 07.11.2019
4797 Clear 6 1015 41 0 0.96 211 13:20 07.11.2019
4798 Clear 6 1015 41 0 0.96 211 12:58 07.11.2019
4799 Clear 6 1015 41 0 0.96 211 12:39 07.11.2019
4800 Clear 6 1015 41 0 0.96 211 12:20 07.11.2019
4801 Clear 6 1015 41 0 0.96 211 11:44 07.11.2019
4802 Clear 6 1015 41 0 0.96 211 11:23 07.11.2019
4803 Clear 6 1015 41 0 0.96 211 11:23 07.11.2019
4804 Clear 10 1011 28 0 1.63 199 10:59 07.11.2019
4805 Clear 10 1011 28 0 1.63 199 10:40 07.11.2019
4806 Clear 10 1011 28 0 1.63 199 10:18 07.11.2019
4807 Clear 10 1011 28 0 1.63 199 09:42 07.11.2019
4808 Clear 10 1011 28 0 1.63 199 09:22 07.11.2019
4809 -273 0 0 0 0 0 08:56 07.11.2019
4810 -273 0 0 0 0 0 08:56 07.11.2019
4811 Clear 10 1011 28 0 1.63 199 08:56 07.11.2019
4812 -273 0 0 0 0 0 08:55 07.11.2019
4813 Clear 10 1011 28 0 1.63 199 08:37 07.11.2019
4814 Clouds 8 1013 31 0 2.5 186 08:18 07.11.2019
4815 Clouds 8 1013 31 0 2.5 186 07:41 07.11.2019
4816 Clouds 8 1013 31 0 2.5 186 07:21 07.11.2019
4817 Clouds 8 1013 31 0 2.5 186 06:48 07.11.2019
4818 Clouds 8 1013 31 0 2.5 186 06:48 07.11.2019
4819 Clouds 8 1013 31 0 2.5 186 06:28 07.11.2019
4820 -273 0 0 0 0 0 05:57 07.11.2019
4821 Clouds 8 1013 31 0 2.5 186 05:38 07.11.2019
4822 Clear 4 1019 40 0 2.09 168 05:19 07.11.2019
4823 Clear 4 1019 40 0 2.09 168 05:19 07.11.2019
4824 Clear 4 1019 40 0 2.09 168 04:41 07.11.2019
4825 Clear 4 1019 40 0 2.09 168 02:58 07.11.2019
4826 -273 0 0 0 0 0 02:57 07.11.2019
4827 Clear -2 1020 44 0 1.22 104 00:47 07.11.2019
4828 Clear -2 1020 44 0 1.22 104 00:20 07.11.2019
4829 Clear -2 1020 44 0 1.22 104 23:47 06.11.2019
4830 Clear -2 1020 44 0 1.22 104 23:47 06.11.2019
4831 Clear -1 1018 38 0 1.03 69 23:22 06.11.2019
4832 Clear -1 1018 38 0 1.03 69 22:56 06.11.2019
4833 Clear -1 1018 38 0 1.03 69 22:38 06.11.2019
4834 Clear -1 1018 38 0 1.03 69 22:18 06.11.2019
4835 Clear -1 1018 38 0 1.03 69 21:42 06.11.2019
4836 Clear -1 1018 38 0 1.03 69 21:22 06.11.2019
4837 Clear -1 1018 38 0 1.03 69 20:59 06.11.2019
4838 Clear -1 1018 38 0 1.03 69 20:41 06.11.2019
4839 Clear 1 1017 32 0 0.48 66 20:22 06.11.2019
4840 Clear 1 1017 32 0 0.48 66 19:59 06.11.2019
4841 Clear 1 1017 32 0 0.48 66 19:40 06.11.2019
4842 Clear 1 1017 32 0 0.48 66 19:21 06.11.2019
4843 Clear 1 1017 32 0 0.48 66 19:21 06.11.2019
4844 Clear 1 1017 32 0 0.48 66 18:59 06.11.2019
4845 Clear 1 1017 32 0 0.48 66 18:39 06.11.2019
4846 Clear 1 1017 32 0 0.48 66 18:19 06.11.2019
4847 Clear 1 1017 32 0 0.48 66 17:58 06.11.2019
4848 Clear 1 1017 32 0 0.48 66 17:40 06.11.2019
4849 Clear 2 1016 28 0 0.61 145 17:21 06.11.2019
4850 Clear 2 1016 28 0 0.61 145 17:21 06.11.2019
4851 -273 0 0 0 0 0 16:56 06.11.2019
4852 Clear 2 1016 28 0 0.61 145 16:37 06.11.2019
4853 Clear 2 1016 28 0 0.61 145 16:19 06.11.2019
4854 Clear 2 1016 28 0 0.61 145 15:56 06.11.2019
4855 Clear 2 1016 28 0 0.61 145 15:37 06.11.2019
4856 Clear 2 1016 28 0 0.61 145 15:19 06.11.2019
4857 Clear 2 1016 28 0 0.61 145 14:56 06.11.2019
4858 Clear 2 1016 28 0 0.61 145 14:38 06.11.2019
4859 Clear 4 1013 27 0 0.19 185 14:20 06.11.2019
4860 Clear 4 1013 27 0 0.19 185 13:41 06.11.2019
4861 Clear 4 1013 27 0 0.19 185 13:41 06.11.2019
4862 Clear 4 1013 27 0 0.19 185 13:22 06.11.2019
4863 Clear 4 1012 28 0 0.06 279 12:58 06.11.2019
4864 Clear 4 1012 28 0 0.06 279 12:40 06.11.2019
4865 Clear 4 1012 28 0 0.06 279 12:21 06.11.2019
4866 Clear 4 1012 28 0 0.06 279 11:58 06.11.2019
4867 Clear 4 1012 28 0 0.06 279 11:38 06.11.2019
4868 Clear 10 1009 12 0 0.65 107 11:19 06.11.2019
4869 Clear 10 1009 12 0 0.65 107 10:57 06.11.2019
4870 Clear 10 1009 12 0 0.65 107 10:39 06.11.2019
4871 Clear 10 1009 12 0 0.65 107 10:21 06.11.2019
4872 Clear 10 1009 12 0 0.65 107 09:57 06.11.2019
4873 Clear 10 1009 12 0 0.65 107 09:38 06.11.2019
4874 Clear 10 1009 12 0 0.65 107 09:19 06.11.2019
4875 Clear 10 1009 12 0 0.65 107 08:55 06.11.2019
4876 Clear 10 1009 12 0 0.65 107 08:36 06.11.2019
4877 Clear 8 1011 19 0 2.23 194 08:18 06.11.2019
4878 Clear 8 1011 19 0 2.23 194 08:18 06.11.2019
4879 Clear 8 1011 19 0 2.23 194 07:41 06.11.2019
4880 Clear 8 1011 19 0 2.23 194 07:22 06.11.2019
4881 Clear 8 1011 19 0 2.23 194 06:47 06.11.2019
4882 Clear 8 1011 19 0 2.23 194 06:28 06.11.2019
4883 Clear 4 1017 25 0 0.55 61 04:53 06.11.2019
4884 Clear 4 1017 25 0 0.55 61 02:28 06.11.2019
4885 Clear -3 1019 37 0 1.87 21 01:40 06.11.2019
4886 Clear -3 1019 42 0 1.83 28 00:46 06.11.2019
4887 Clear -3 1019 42 0 1.83 28 23:58 05.11.2019
4888 Clear -3 1019 42 0 1.83 28 23:39 05.11.2019
4889 Clear -2 1018 37 0 1.92 27 23:21 05.11.2019
4890 Clear -2 1018 37 0 1.92 27 22:55 05.11.2019
4891 Clear -2 1018 37 0 1.92 27 22:36 05.11.2019
4892 Clear -2 1018 37 0 1.92 27 22:18 05.11.2019
4893 Clear -2 1018 37 0 1.92 27 21:42 05.11.2019
4894 Clear -2 1018 37 0 1.92 27 21:21 05.11.2019
4895 Clear -2 1018 37 0 1.92 27 20:59 05.11.2019
4896 Clear -2 1018 37 0 1.92 27 20:39 05.11.2019
4897 Clear 0 1017 34 0 1.51 24 20:20 05.11.2019
4898 Clear 0 1017 34 0 1.51 24 19:58 05.11.2019
4899 Clear 0 1017 34 0 1.51 24 19:38 05.11.2019
4900 Clear 0 1017 34 0 1.51 24 19:20 05.11.2019
4901 Clear 0 1017 34 0 1.51 24 18:58 05.11.2019
4902 Clear 0 1017 34 0 1.51 24 18:39 05.11.2019
4903 Clear 0 1017 34 0 1.51 24 18:20 05.11.2019
4904 Clear 0 1017 34 0 1.51 24 17:58 05.11.2019
4905 Clear 0 1017 34 0 1.51 24 17:39 05.11.2019
4906 Clear 2 1016 29 0 1.97 357 17:19 05.11.2019
4907 Clear 2 1016 29 0 1.97 357 16:55 05.11.2019
4908 Clear 2 1016 29 0 1.97 357 16:37 05.11.2019
4909 Clear 2 1016 29 0 1.97 357 16:18 05.11.2019
4910 Clear 2 1016 29 0 1.97 357 15:38 05.11.2019
4911 Clear 2 1016 29 0 1.97 357 15:19 05.11.2019
4912 Clear 2 1016 29 0 1.97 357 14:58 05.11.2019
4913 Clear 2 1016 29 0 1.97 357 14:39 05.11.2019
4914 Clouds 4 1013 27 0 1.12 331 14:21 05.11.2019
4915 Clouds 4 1013 27 0 1.12 331 14:21 05.11.2019
4916 Clouds 4 1013 27 0 1.12 331 13:55 05.11.2019
4917 Clouds 4 1013 27 0 1.12 331 13:37 05.11.2019
4918 Clouds 4 1012 27 0 1.46 341 13:18 05.11.2019
4919 Clouds 4 1012 27 0 1.46 341 12:39 05.11.2019
4920 Clouds 4 1012 27 0 1.46 341 12:20 05.11.2019
4921 Clouds 4 1012 27 0 1.46 341 11:56 05.11.2019
4922 Clouds 4 1012 27 0 1.46 341 11:37 05.11.2019
4923 Clouds 9 1008 17 0 5.19 281 11:19 05.11.2019
4924 Clouds 9 1008 17 0 5.19 281 10:42 05.11.2019
4925 Clouds 9 1008 17 0 5.19 281 10:24 05.11.2019
4926 Clouds 9 1008 17 0 5.19 281 10:24 05.11.2019
4927 Clouds 9 1008 17 0 5.19 281 09:58 05.11.2019
4928 Clouds 9 1008 17 0 5.19 281 09:40 05.11.2019
4929 Clouds 9 1008 17 0 5.19 281 09:19 05.11.2019
4930 -273 0 0 0 0 0 08:55 05.11.2019
4931 Clouds 9 1008 17 0 5.19 281 08:55 05.11.2019
4932 Clouds 9 1008 17 0 5.19 281 08:37 05.11.2019
4933 Clear 7 1012 26 0 2.7 206 08:18 05.11.2019
4934 Clear 7 1012 26 0 2.7 206 07:43 05.11.2019
4935 Clear 7 1012 26 0 2.7 206 07:24 05.11.2019
4936 Clear 7 1012 26 0 2.7 206 06:51 05.11.2019
4937 Clear 7 1012 26 0 2.7 206 06:26 05.11.2019
4938 Clear 7 1012 26 0 2.7 206 05:39 05.11.2019
4939 Clear 3 1018 46 0 2.43 179 05:19 05.11.2019
4940 Clear 3 1018 46 0 2.43 179 04:20 05.11.2019
4941 Clear 3 1018 46 0 2.43 179 03:24 05.11.2019
4942 Clear 3 1018 46 0 2.43 179 02:42 05.11.2019
4943 Clear 3 1018 46 0 2.43 179 02:42 05.11.2019
4944 Clouds -2 1019 69 0 1.78 146 01:52 05.11.2019
4945 Clouds -2 1019 69 0 1.78 146 01:52 05.11.2019
4946 Clouds -2 1019 70 0 1.89 144 00:46 05.11.2019
4947 Clouds -2 1019 70 0 1.89 144 00:25 05.11.2019
4948 Clouds -2 1019 70 0 1.89 144 23:42 04.11.2019
4949 Clouds -1 1018 63 0 2.13 146 23:19 04.11.2019
4950 Clouds -1 1018 63 0 2.13 146 22:57 04.11.2019
4951 Clouds -1 1018 63 0 2.13 146 22:39 04.11.2019
4952 Clouds -1 1018 63 0 2.13 146 22:20 04.11.2019
4953 Clouds -1 1018 63 0 2.13 146 21:55 04.11.2019
4954 Clouds -1 1018 63 0 2.13 146 21:37 04.11.2019
4955 Clouds -1 1018 63 0 2.13 146 21:18 04.11.2019
4956 Clouds -1 1018 63 0 2.13 146 20:55 04.11.2019
4957 Clouds -1 1018 63 0 2.13 146 20:37 04.11.2019
4958 Snow 2 1018 51 0 2.63 146 20:18 04.11.2019
4959 Snow 2 1018 51 0 2.63 146 19:43 04.11.2019
4960 Snow 2 1018 51 0 2.63 146 19:25 04.11.2019
4961 Snow 2 1018 51 0 2.63 146 18:59 04.11.2019
4962 Snow 2 1018 51 0 2.63 146 18:41 04.11.2019
4963 Snow 2 1018 51 0 2.63 146 18:23 04.11.2019
4964 Snow 2 1018 51 0 2.63 146 17:59 04.11.2019
4965 Snow 2 1018 51 0 2.63 146 17:37 04.11.2019
4966 Snow 3 1017 56 0 1.62 116 17:19 04.11.2019
4967 Snow 3 1017 56 0 1.62 116 16:44 04.11.2019
4968 Snow 3 1017 56 0 1.62 116 16:25 04.11.2019
4969 Snow 3 1017 56 0 1.62 116 15:59 04.11.2019
4970 Snow 3 1017 56 0 1.62 116 15:41 04.11.2019
4971 Snow 3 1017 56 0 1.62 116 15:21 04.11.2019
4972 Snow 3 1017 56 0 1.62 116 14:58 04.11.2019
4973 Snow 3 1017 56 0 1.62 116 14:58 04.11.2019
4974 Snow 3 1017 56 0 1.62 116 14:40 04.11.2019
4975 Clouds 5 1015 42 0 0.49 118 14:20 04.11.2019
4976 Clouds 5 1015 42 0 0.49 118 14:20 04.11.2019
4977 Clouds 5 1015 42 0 0.49 118 13:58 04.11.2019
4978 Clouds 5 1015 42 0 0.49 118 13:40 04.11.2019
4979 Clouds 5 1014 46 0 0.34 61 13:21 04.11.2019
4980 Clouds 5 1014 46 0 0.34 61 12:56 04.11.2019
4981 Clouds 5 1014 46 0 0.34 61 12:38 04.11.2019
4982 Clouds 5 1014 46 0 0.34 61 12:18 04.11.2019
4983 Clouds 5 1014 46 0 0.34 61 11:43 04.11.2019
4984 Clouds 7 1011 36 0 1.79 232 11:23 04.11.2019
4985 Clouds 7 1011 36 0 1.79 232 10:59 04.11.2019
4986 Clouds 7 1011 36 0 1.79 232 10:41 04.11.2019
4987 Clouds 7 1011 36 0 1.79 232 10:23 04.11.2019
4988 Clouds 7 1011 36 0 1.79 232 09:45 04.11.2019
4989 Clouds 7 1011 36 0 1.79 232 09:27 04.11.2019
4990 Clouds 7 1011 36 0 1.79 232 08:58 04.11.2019
4991 Clouds 7 1011 36 0 1.79 232 08:38 04.11.2019
4992 Clear 7 1015 35 0 2.87 173 08:19 04.11.2019
4993 Clear 7 1015 35 0 2.86 173 08:19 04.11.2019
4994 Clear 7 1015 35 0 2.86 173 07:43 04.11.2019
4995 Clear 7 1015 35 0 2.86 173 07:23 04.11.2019
4996 Clear 7 1015 35 0 2.86 173 06:57 04.11.2019
4997 Clear 7 1015 35 0 2.86 173 06:33 04.11.2019
4998 Clear 7 1015 35 0 2.86 173 05:48 04.11.2019
4999 Clear 3 1020 49 0 2.85 169 04:43 04.11.2019
5000 Clear 3 1020 49 0 2.85 169 04:21 04.11.2019
5001 Clear 3 1020 49 0 2.85 169 02:32 04.11.2019
5002 Clear -2 1022 70 0 1.71 140 01:22 04.11.2019
5003 Clear -2 1022 70 0 1.71 140 00:41 04.11.2019
5004 Clear -2 1022 70 0 1.71 140 00:20 04.11.2019
5005 Clear -2 1022 70 0 1.71 140 23:43 03.11.2019
5006 Clear -1 1020 64 0 1.96 140 23:21 03.11.2019
5007 Clear -1 1020 64 0 1.96 140 22:59 03.11.2019
5008 Clear -1 1020 64 0 1.96 140 22:41 03.11.2019
5009 Clear -1 1020 64 0 1.96 140 22:20 03.11.2019
5010 Clear -1 1020 64 0 1.96 140 21:58 03.11.2019
5011 Clear -1 1020 64 0 1.96 140 21:39 03.11.2019
5012 Clear -1 1020 64 0 1.96 140 21:20 03.11.2019
5013 Clear -1 1020 64 0 1.96 140 20:55 03.11.2019
5014 Clear -1 1020 64 0 1.96 140 20:36 03.11.2019
5015 Clouds 2 1020 55 0 2.37 137 20:18 03.11.2019
5016 Clouds 2 1020 55 0 2.37 137 19:55 03.11.2019
5017 Clouds 2 1020 55 0 2.37 137 19:37 03.11.2019
5018 Clouds 2 1020 55 0 2.37 137 19:19 03.11.2019
5019 Clouds 2 1020 55 0 2.37 137 18:39 03.11.2019
5020 Clouds 2 1020 55 0 2.37 137 18:19 03.11.2019
5021 Clouds 2 1020 55 0 2.37 137 17:58 03.11.2019
5022 Clouds 2 1020 55 0 2.37 137 17:40 03.11.2019
5023 Clouds 3 1020 51 0 1.01 94 17:19 03.11.2019
5024 Clouds 3 1020 51 0 1.01 94 16:55 03.11.2019
5025 Clouds 3 1020 51 0 1.01 94 16:55 03.11.2019
5026 Clouds 3 1020 51 0 1.01 94 16:55 03.11.2019
5027 Clouds 3 1020 51 0 1.01 94 16:37 03.11.2019
5028 Clouds 3 1020 51 0 1.01 94 16:18 03.11.2019
5029 Clouds 3 1020 51 0 1.01 94 15:54 03.11.2019
5030 Clouds 3 1020 51 0 1.01 94 15:36 03.11.2019
5031 Clouds 3 1020 51 0 1.01 94 15:18 03.11.2019
5032 Clouds 3 1020 51 0 1.01 94 14:40 03.11.2019
5033 Clouds 5 1016 36 0 0.4 122 14:19 03.11.2019
5034 Clouds 5 1016 36 0 0.4 122 14:19 03.11.2019
5035 Clouds 5 1016 36 0 0.4 122 14:19 03.11.2019
5036 Clouds 5 1016 36 0 0.4 122 13:55 03.11.2019
5037 Clouds 5 1016 36 0 0.4 122 13:36 03.11.2019
5038 Clouds 5 1016 39 0 0.77 141 13:18 03.11.2019
5039 Clouds 5 1016 39 0 0.77 141 12:38 03.11.2019
5040 Clouds 5 1016 39 0 0.77 141 12:19 03.11.2019
5041 Clouds 5 1016 39 0 0.77 141 11:56 03.11.2019
5042 Clouds 5 1016 39 0 0.77 141 11:37 03.11.2019
5043 Clear 9 1012 24 0 2.4 219 11:19 03.11.2019
5044 Clear 9 1012 24 0 2.4 219 10:40 03.11.2019
5045 Clear 9 1012 24 0 2.4 219 10:22 03.11.2019
5046 Clear 9 1012 24 0 2.4 219 10:22 03.11.2019
5047 Clear 9 1012 24 0 2.4 219 10:22 03.11.2019
5048 Clear 9 1012 24 0 2.4 219 09:58 03.11.2019
5049 Clear 9 1012 24 0 2.4 219 09:40 03.11.2019
5050 Clear 9 1012 24 0 2.4 219 09:21 03.11.2019
5051 Clear 9 1012 24 0 2.4 219 08:43 03.11.2019
5052 Clear 9 1012 23 0 1.86 221 08:24 03.11.2019
5053 Clear 9 1012 23 0 1.86 221 08:24 03.11.2019
5054 Clear 8 1016 30 0 2.17 187 07:47 03.11.2019
5055 Clear 8 1016 30 0 2.17 187 07:28 03.11.2019
5056 Clear 8 1016 30 0 2.17 187 06:53 03.11.2019
5057 Clear 8 1016 30 0 2.17 187 06:34 03.11.2019
5058 Clear 8 1016 30 0 2.17 187 05:40 03.11.2019
5059 Clear 4 1023 43 0 1.56 170 05:18 03.11.2019
5060 Clear 4 1023 43 0 1.56 170 04:45 03.11.2019
5061 Clear 4 1023 43 0 1.56 170 03:39 03.11.2019
5062 Clear 4 1023 43 0 1.56 170 02:45 03.11.2019
5063 Clear -2 1024 57 0 1.08 114 02:20 03.11.2019
5064 Clear -2 1024 57 0 1.08 114 01:43 03.11.2019
5065 Clear -2 1024 59 0 1.13 111 01:21 03.11.2019
5066 Clear -2 1024 59 0 1.13 111 00:46 03.11.2019
5067 Clear -2 1024 59 0 1.13 111 00:27 03.11.2019
5068 Clear -2 1024 59 0 1.13 111 23:58 02.11.2019
5069 Clear -2 1024 59 0 1.13 111 23:38 02.11.2019
5070 Clear -1 1024 50 0 1.21 112 23:19 02.11.2019
5071 Clear -1 1024 50 0 1.21 112 23:19 02.11.2019
5072 Clear -1 1024 50 0 1.21 112 22:56 02.11.2019
5073 Clear -1 1024 50 0 1.21 112 22:37 02.11.2019
5074 Clear -1 1024 50 0 1.21 112 22:19 02.11.2019
5075 Clear -1 1024 50 0 1.21 112 21:56 02.11.2019
5076 Clear -1 1024 50 0 1.21 112 21:38 02.11.2019
5077 Clear -1 1024 50 0 1.21 112 21:18 02.11.2019
5078 Clear -1 1024 50 0 1.21 112 20:59 02.11.2019
5079 Clear -1 1024 50 0 1.21 112 20:39 02.11.2019
5080 Clouds 1 1024 44 0 0.52 131 20:20 02.11.2019
5081 Clouds 1 1024 44 0 0.52 131 19:55 02.11.2019
5082 Clouds 1 1024 44 0 0.52 131 19:36 02.11.2019
5083 Clouds 1 1024 44 0 0.52 131 19:18 02.11.2019
5084 Clouds 1 1024 44 0 0.52 131 18:42 02.11.2019
5085 Clouds 1 1024 44 0 0.52 131 18:24 02.11.2019
5086 Clouds 1 1024 44 0 0.52 131 17:59 02.11.2019
5087 Clouds 1 1024 44 0 0.52 131 17:39 02.11.2019
5088 Clouds 2 1024 42 0 0.87 336 17:21 02.11.2019
5089 Clouds 2 1024 42 0 0.87 336 16:57 02.11.2019
5090 Clouds 2 1024 42 0 0.87 336 16:38 02.11.2019
5091 Clouds 2 1024 42 0 0.87 336 16:18 02.11.2019
5092 Clouds 2 1024 42 0 0.87 336 15:42 02.11.2019
5093 Clouds 2 1024 42 0 0.87 336 15:20 02.11.2019
5094 Clouds 2 1024 42 0 0.87 336 14:43 02.11.2019
5095 Clouds 2 1024 42 0 0.87 336 14:24 02.11.2019
5096 Clear 4 1020 37 0 1.57 6 13:58 02.11.2019
5097 Clear 4 1020 37 0 1.57 6 13:39 02.11.2019
5098 Clear 4 1020 36 0 1.56 2 13:20 02.11.2019
5099 Clear 4 1020 36 0 1.56 2 12:56 02.11.2019
5100 Clear 4 1020 36 0 1.56 2 12:37 02.11.2019
5101 Clear 4 1020 36 0 1.56 2 12:18 02.11.2019
5102 Clear 4 1020 36 0 1.56 2 11:41 02.11.2019
5103 Clear 8 1018 22 0 0.2 23 11:23 02.11.2019
5104 Clear 8 1018 22 0 0.2 23 10:56 02.11.2019
5105 Clear 8 1018 22 0 0.2 23 10:38 02.11.2019
5106 Clear 8 1018 22 0 0.2 23 10:18 02.11.2019
5107 Clear 8 1018 22 0 0.2 23 09:40 02.11.2019
5108 Clear 8 1018 22 0 0.2 23 09:22 02.11.2019
5109 Clear 8 1018 22 0 0.2 23 08:50 02.11.2019
5110 Clear 6 1018 32 0 1.67 5 08:24 02.11.2019
5111 Clear 6 1018 32 0 1.67 5 08:24 02.11.2019
5112 Clear 5 1021 46 0 1.26 339 07:57 02.11.2019
5113 Clear 5 1021 46 0 1.26 339 07:57 02.11.2019
5114 Clear 5 1021 46 0 1.26 339 07:39 02.11.2019
5115 Clear 5 1021 46 0 1.26 339 07:20 02.11.2019
5116 Clear 5 1021 46 0 1.26 339 06:46 02.11.2019
5117 Clear 5 1021 46 0 1.26 339 06:22 02.11.2019
5118 Clear 5 1021 46 0 1.26 339 05:41 02.11.2019
5119 Clear 2 1026 55 0 0.99 33 04:24 02.11.2019
5120 Clear 2 1026 55 0 0.99 33 03:51 02.11.2019
5121 Clear 2 1026 55 0 0.99 33 03:28 02.11.2019
5122 Clear -3 1028 73 0 1.63 16 02:19 02.11.2019
5123 Clear -3 1027 73 0 1.43 8 01:29 02.11.2019
5124 Clear -3 1027 73 0 1.43 8 00:56 02.11.2019
5125 Clear -3 1027 73 0 1.43 8 00:30 02.11.2019
5126 Clear -3 1027 73 0 1.43 8 23:56 01.11.2019
5127 Clear -3 1027 73 0 1.43 8 23:37 01.11.2019
5128 Clear -3 1026 73 0 1.71 11 23:19 01.11.2019
5129 Clear -3 1026 73 0 1.71 11 22:42 01.11.2019
5130 Clear -3 1026 73 0 1.71 11 22:20 01.11.2019
5131 Clear -3 1026 73 0 1.71 11 21:43 01.11.2019
5132 Clear -3 1026 73 0 1.71 11 21:24 01.11.2019
5133 Clear -3 1026 73 0 1.71 11 20:59 01.11.2019
5134 Clear -3 1026 73 0 1.71 11 20:41 01.11.2019
5135 Clouds -2 1025 69 0 1.58 17 20:23 01.11.2019
5136 Clouds -2 1025 69 0 1.58 17 19:59 01.11.2019
5137 Clouds -2 1025 69 0 1.58 17 19:59 01.11.2019
5138 Clouds -2 1025 69 0 1.58 17 19:40 01.11.2019
5139 Clouds -2 1025 69 0 1.58 17 19:21 01.11.2019
5140 Clouds -2 1025 69 0 1.58 17 18:41 01.11.2019
5141 Clouds -2 1025 69 0 1.58 17 18:21 01.11.2019
5142 Clouds -2 1025 69 0 1.58 17 17:59 01.11.2019
5143 Clouds -2 1025 69 0 1.58 17 17:41 01.11.2019
5144 Clouds 0 1024 67 0 0.19 206 17:22 01.11.2019
5145 Clouds 0 1024 67 0 0.19 206 16:40 01.11.2019
5146 Clouds 0 1024 67 0 0.19 206 16:20 01.11.2019
5147 Clouds 0 1024 67 0 0.19 206 15:58 01.11.2019
5148 Clouds 0 1024 67 0 0.19 206 15:40 01.11.2019
5149 Clouds 0 1024 67 0 0.19 206 15:22 01.11.2019
5150 Clouds 0 1024 67 0 0.19 206 14:44 01.11.2019
5151 Clouds 0 1024 67 0 0.19 206 14:25 01.11.2019
5152 Snow 2 1020 65 0 0.75 291 13:59 01.11.2019
5153 Snow 2 1020 65 0 0.75 291 13:40 01.11.2019
5154 Snow 2 1020 66 0 1.68 20 13:21 01.11.2019
5155 Snow 2 1020 66 0 1.68 20 12:55 01.11.2019
5156 Snow 2 1020 66 0 1.68 20 12:55 01.11.2019
5157 Snow 2 1020 66 0 1.68 20 12:37 01.11.2019
5158 Snow 2 1020 66 0 1.68 20 12:19 01.11.2019
5159 Snow 2 1020 66 0 1.68 20 11:42 01.11.2019
5160 Clouds 4 1015 59 0 2.85 329 11:23 01.11.2019
5161 Clouds 4 1015 59 0 2.85 329 10:44 01.11.2019
5162 Clouds 4 1015 59 0 2.85 329 10:25 01.11.2019
5163 Clouds 4 1015 59 0 2.85 329 09:59 01.11.2019
5164 Clouds 4 1015 59 0 2.85 329 09:41 01.11.2019
5165 Clouds 4 1015 59 0 2.85 329 09:21 01.11.2019
5166 Clouds 4 1015 59 0 2.85 329 08:54 01.11.2019
5167 Clouds 4 1015 59 0 2.85 329 08:36 01.11.2019
5168 Snow 3 1018 76 0 1.62 346 08:18 01.11.2019
5169 Snow 3 1018 76 0 1.62 346 07:44 01.11.2019
5170 Snow 3 1018 76 0 1.62 346 07:22 01.11.2019
5171 Snow 3 1018 76 0 1.62 346 06:54 01.11.2019
5172 Snow 3 1018 76 0 1.62 346 06:23 01.11.2019
5173 Snow 3 1018 76 0 1.62 346 05:57 01.11.2019
5174 Snow 3 1018 76 0 1.62 346 05:35 01.11.2019
5175 Snow 0 1022 94 0 0.94 131 03:32 01.11.2019
5176 Snow -1 1023 96 0 1.21 30 01:48 01.11.2019
5177 Snow -1 1023 96 0 1.48 38 01:19 01.11.2019
5178 Snow -1 1023 96 0 1.48 38 00:20 01.11.2019
5179 Snow -1 1023 96 0 1.48 38 23:45 31.10.2019
5180 Snow -1 1023 96 0 1.48 38 23:25 31.10.2019
5181 Snow -1 1021 93 0 2.08 25 22:59 31.10.2019
5182 Snow -1 1021 93 0 2.08 25 22:40 31.10.2019
5183 Snow -1 1021 93 0 2.08 25 22:22 31.10.2019
5184 Snow -1 1021 93 0 2.08 25 21:56 31.10.2019
5185 Snow -1 1021 93 0 2.08 25 21:38 31.10.2019
5186 Snow -1 1021 93 0 2.08 25 21:18 31.10.2019
5187 Snow -1 1021 93 0 2.08 25 20:41 31.10.2019
5188 Snow 1 1020 91 0 1.54 43 20:22 31.10.2019
5189 Snow 1 1020 91 0 1.54 43 19:56 31.10.2019
5190 Snow 1 1020 91 0 1.54 43 19:38 31.10.2019
5191 Snow 1 1020 91 0 1.54 43 19:18 31.10.2019
5192 Snow 1 1020 91 0 1.54 43 18:43 31.10.2019
5193 Snow 1 1020 91 0 1.54 43 18:25 31.10.2019
5194 Snow 1 1020 91 0 1.54 43 17:58 31.10.2019
5195 Snow 1 1020 91 0 1.54 43 17:39 31.10.2019
5196 Snow 1 1019 88 0 2.63 11 17:19 31.10.2019
5197 Snow 1 1019 88 0 2.63 11 16:54 31.10.2019
5198 Snow 1 1019 88 0 2.63 11 16:36 31.10.2019
5199 Snow 1 1019 88 0 2.63 11 16:18 31.10.2019
5200 Snow 1 1019 88 0 2.63 11 15:40 31.10.2019
5201 Snow 1 1019 88 0 2.63 11 15:21 31.10.2019
5202 Snow 1 1019 88 0 2.63 11 14:58 31.10.2019
5203 Snow 1 1019 88 0 2.63 11 14:40 31.10.2019
5204 Snow 5 1016 64 0 1.28 89 14:22 31.10.2019
5205 Snow 5 1016 64 0 1.28 89 13:59 31.10.2019
5206 Snow 5 1016 64 0 1.28 89 13:38 31.10.2019
5207 Rain 4 1016 66 0 1.84 70 13:19 31.10.2019
5208 Rain 4 1016 66 0 1.84 70 12:55 31.10.2019
5209 Rain 4 1016 66 0 1.84 70 12:37 31.10.2019
5210 Rain 4 1016 66 0 1.84 70 12:18 31.10.2019
5211 Rain 4 1016 66 0 1.84 70 11:45 31.10.2019
5212 Clouds 10 1011 40 0 4.57 160 11:20 31.10.2019
5213 Clouds 10 1011 40 0 4.57 160 10:58 31.10.2019
5214 Clouds 10 1011 40 0 4.57 160 10:58 31.10.2019
5215 Clouds 10 1011 40 0 4.57 160 10:39 31.10.2019
5216 Clouds 10 1011 40 0 4.57 160 10:20 31.10.2019
5217 Clouds 10 1011 40 0 4.57 160 09:46 31.10.2019
5218 Clouds 10 1011 40 0 4.57 160 09:20 31.10.2019
5219 Clouds 10 1011 40 0 4.57 160 09:20 31.10.2019
5220 Clouds 10 1011 40 0 4.57 160 08:58 31.10.2019
5221 Clouds 10 1011 40 0 4.57 160 08:39 31.10.2019
5222 Clouds 10 1011 40 0 4.57 160 08:39 31.10.2019
5223 Clouds 9 1013 36 0 2.77 194 08:21 31.10.2019
5224 Clouds 9 1013 36 0 2.77 194 07:46 31.10.2019
5225 Clouds 9 1013 36 0 2.77 194 07:26 31.10.2019
5226 Clouds 9 1013 36 0 2.77 194 06:53 31.10.2019
5227 Clouds 9 1013 36 0 2.77 194 06:32 31.10.2019
5228 Clouds 5 1017 51 0 2.44 181 05:20 31.10.2019
5229 Clouds 5 1017 51 0 2.44 181 05:20 31.10.2019
5230 Clouds 5 1017 51 0 2.44 181 02:50 31.10.2019
5231 Clouds 5 1017 51 0 2.44 181 02:27 31.10.2019
5232 Clouds 1 1018 69 0 1.01 67 01:21 31.10.2019
5233 Clouds 1 1018 69 0 0.78 60 00:26 31.10.2019
5234 Clouds 1 1018 69 0 0.78 60 23:49 30.10.2019
5235 Clouds 1 1018 69 0 0.78 60 23:25 30.10.2019
5236 Clouds 2 1016 63 0 1.85 139 22:42 30.10.2019
5237 Clouds 2 1016 63 0 1.85 139 22:20 30.10.2019
5238 Clouds 2 1016 63 0 1.85 139 21:55 30.10.2019
5239 Clouds 2 1016 63 0 1.85 139 21:37 30.10.2019
5240 Clouds 2 1016 63 0 1.85 139 21:18 30.10.2019
5241 Clouds 2 1016 63 0 1.85 139 20:58 30.10.2019
5242 Clouds 2 1016 63 0 1.85 139 20:39 30.10.2019
5243 Clouds 3 1016 53 0 2.22 137 20:21 30.10.2019
5244 Clouds 3 1016 53 0 2.22 137 19:54 30.10.2019
5245 Clouds 3 1016 53 0 2.22 137 19:36 30.10.2019
5246 Clouds 3 1016 53 0 2.22 137 19:18 30.10.2019
5247 Clouds 3 1016 53 0 2.22 137 18:39 30.10.2019
5248 Clouds 3 1016 53 0 2.22 137 18:19 30.10.2019
5249 Clouds 3 1016 53 0 2.22 137 18:19 30.10.2019
5250 Clouds 3 1016 53 0 2.22 137 17:57 30.10.2019
5251 Clouds 3 1016 53 0 2.22 137 17:38 30.10.2019
5252 Clouds 5 1017 43 0 1.63 153 17:18 30.10.2019
5253 Clouds 5 1017 43 0 1.63 153 16:55 30.10.2019
5254 Clouds 5 1017 43 0 1.63 153 16:55 30.10.2019
5255 Clouds 5 1017 43 0 1.63 153 16:37 30.10.2019
5256 Clouds 5 1017 43 0 1.63 153 16:18 30.10.2019
5257 Clouds 5 1017 43 0 1.63 153 15:54 30.10.2019
5258 Clouds 5 1017 43 0 1.63 153 15:36 30.10.2019
5259 Clouds 5 1017 43 0 1.63 153 15:18 30.10.2019
5260 Clouds 5 1017 43 0 1.63 153 14:41 30.10.2019
5261 Clouds 7 1014 36 0 2.24 147 14:22 30.10.2019
5262 Clouds 7 1014 36 0 2.24 147 13:58 30.10.2019
5263 Clouds 7 1014 36 0 2.24 147 13:40 30.10.2019
5264 Clouds 7 1014 38 0 2.35 154 13:20 30.10.2019
5265 Clouds 7 1014 38 0 2.35 154 12:56 30.10.2019
5266 Clouds 7 1014 38 0 2.35 154 12:37 30.10.2019
5267 Clouds 7 1014 38 0 2.35 154 12:19 30.10.2019
5268 Clouds 7 1014 38 0 2.35 154 11:41 30.10.2019
5269 Clouds 11 1010 22 0 1.56 184 11:22 30.10.2019
5270 Clouds 11 1010 22 0 1.56 184 10:45 30.10.2019
5271 Clouds 11 1010 22 0 1.56 184 10:45 30.10.2019
5272 Clouds 11 1010 22 0 1.56 184 10:26 30.10.2019
5273 Clouds 11 1010 22 0 1.56 184 09:58 30.10.2019
5274 Clouds 11 1010 22 0 1.56 184 09:58 30.10.2019
5275 Clouds 11 1010 22 0 1.56 184 09:58 30.10.2019
5276 Clouds 11 1010 22 0 1.56 184 09:39 30.10.2019
5277 Clouds 11 1010 22 0 1.56 184 09:19 30.10.2019
5278 Clouds 11 1010 22 0 1.56 184 08:41 30.10.2019
5279 Clouds 11 1010 22 0 1.56 184 08:41 30.10.2019
5280 Clouds 9 1014 29 0 2.69 189 08:22 30.10.2019
5281 Clouds 9 1014 29 0 2.69 189 07:56 30.10.2019
5282 Clouds 9 1014 29 0 2.69 189 07:37 30.10.2019
5283 Clouds 9 1014 29 0 2.69 189 07:37 30.10.2019
5284 Clouds 9 1014 29 0 2.69 189 06:43 30.10.2019
5285 Clouds 9 1014 29 0 2.69 189 06:25 30.10.2019
5286 Clouds 9 1014 29 0 2.69 189 05:54 30.10.2019
5287 Clouds 9 1014 29 0 2.69 189 05:54 30.10.2019
5288 Clouds 9 1014 29 0 2.69 189 05:35 30.10.2019
5289 Clouds 5 1020 42 0 1.11 171 03:48 30.10.2019
5290 Clouds 5 1020 42 0 1.11 171 03:21 30.10.2019
5291 Clouds 5 1020 42 0 1.11 171 02:39 30.10.2019
5292 Clouds -1 1022 51 0 0.99 76 01:42 30.10.2019
5293 Clouds -1 1021 55 0 1.07 84 00:36 30.10.2019
5294 Clouds -1 1021 55 0 1.07 84 00:18 30.10.2019
5295 Clouds -1 1021 55 0 1.07 84 23:38 29.10.2019
5296 Clouds 1 1021 41 0 1.31 96 23:18 29.10.2019
5297 Clouds 1 1021 41 0 1.31 96 22:41 29.10.2019
5298 Clouds 1 1021 41 0 1.31 96 22:19 29.10.2019
5299 Clouds 1 1021 41 0 1.31 96 21:55 29.10.2019
5300 Clouds 1 1021 41 0 1.31 96 21:36 29.10.2019
5301 Clouds 1 1021 41 0 1.31 96 21:18 29.10.2019
5302 Clouds 1 1021 41 0 1.31 96 20:42 29.10.2019
5303 Clouds 2 1022 32 0 1.04 98 20:22 29.10.2019
5304 Clouds 2 1022 32 0 1.04 98 19:58 29.10.2019
5305 Clouds 2 1022 32 0 1.04 98 19:39 29.10.2019
5306 Clouds 2 1022 32 0 1.04 98 19:20 29.10.2019
5307 Clouds 2 1022 32 0 1.04 98 18:58 29.10.2019
5308 Clouds 2 1022 32 0 1.04 98 18:39 29.10.2019
5309 Clouds 2 1022 32 0 1.04 98 18:20 29.10.2019
5310 Clouds 2 1022 32 0 1.04 98 17:57 29.10.2019
5311 Clouds 2 1022 32 0 1.04 98 17:38 29.10.2019
5312 Clouds 5 1021 24 0 0.64 152 17:20 29.10.2019
5313 Clouds 5 1021 24 0 0.64 152 16:41 29.10.2019
5314 Clouds 5 1021 24 0 0.64 152 16:23 29.10.2019
5315 Clouds 5 1021 24 0 0.64 152 15:59 29.10.2019
5316 Clouds 5 1021 24 0 0.64 152 15:41 29.10.2019
5317 Clouds 5 1021 24 0 0.64 152 15:21 29.10.2019
5318 Clouds 5 1021 24 0 0.64 152 14:57 29.10.2019
5319 Clouds 5 1021 24 0 0.64 152 14:39 29.10.2019
5320 Clouds 6 1018 22 0 1.79 15 14:21 29.10.2019
5321 Clouds 6 1018 22 0 1.79 15 13:57 29.10.2019
5322 Clouds 6 1018 22 0 1.79 15 13:36 29.10.2019
5323 Clouds 6 1018 23 0 1.71 14 13:18 29.10.2019
5324 Clouds 6 1018 23 0 1.71 14 12:42 29.10.2019
5325 Clouds 6 1018 23 0 1.71 14 12:24 29.10.2019
5326 Clouds 6 1018 23 0 1.71 14 11:54 29.10.2019
5327 Clouds 6 1018 23 0 1.71 14 11:36 29.10.2019
5328 Clouds 11 1015 13 0 0.48 66 11:18 29.10.2019
5329 Clouds 11 1015 13 0 0.48 66 10:55 29.10.2019
5330 Clouds 11 1015 13 0 0.48 66 10:36 29.10.2019
5331 Clouds 11 1015 13 0 0.48 66 10:18 29.10.2019
5332 Clouds 11 1015 13 0 0.48 66 09:41 29.10.2019
5333 Clouds 11 1015 13 0 0.48 66 09:41 29.10.2019
5334 Clouds 11 1015 13 0 0.48 66 09:23 29.10.2019
5335 Clouds 11 1015 13 0 0.48 66 09:23 29.10.2019
5336 Clouds 11 1015 13 0 0.48 66 08:55 29.10.2019
5337 Clouds 11 1015 13 0 0.65 122 08:36 29.10.2019
5338 Clouds 9 1019 19 0 1.11 185 08:18 29.10.2019
5339 Clouds 9 1019 19 0 1.11 185 07:47 29.10.2019
5340 Clouds 9 1019 19 0 1.11 185 07:19 29.10.2019
5341 Clouds 9 1019 19 0 1.11 185 06:47 29.10.2019
5342 Clouds 9 1019 19 0 1.11 185 06:28 29.10.2019
5343 Clouds 9 1019 19 0 1.11 185 05:53 29.10.2019
5344 Clouds 9 1019 19 0 1.11 185 05:35 29.10.2019
5345 Clouds 5 1023 26 0 0.86 38 04:34 29.10.2019
5346 Clouds 5 1023 26 0 0.86 38 02:34 29.10.2019
5347 Clouds -1 1024 37 0 2.34 28 01:55 29.10.2019
5348 Clouds -1 1024 37 0 2.34 28 01:34 29.10.2019
5349 Clouds -1 1024 37 0 2.32 27 00:52 29.10.2019
5350 Clouds -1 1024 37 0 2.32 27 00:52 29.10.2019
5351 Clouds -1 1024 37 0 2.32 27 23:59 28.10.2019
5352 Clouds -1 1024 37 0 2.32 27 23:37 28.10.2019
5353 Clouds -1 1023 30 0 1.92 25 23:19 28.10.2019
5354 Clouds -1 1023 30 0 1.92 25 22:39 28.10.2019
5355 Clouds -1 1023 30 0 1.92 25 22:20 28.10.2019
5356 Clouds -1 1023 30 0 1.92 25 21:58 28.10.2019
5357 Clouds -1 1023 30 0 1.92 25 21:39 28.10.2019
5358 Clouds -1 1023 30 0 1.92 25 21:21 28.10.2019
5359 Clouds -1 1023 30 0 1.92 25 20:58 28.10.2019
5360 Clouds -1 1023 30 0 1.92 25 20:39 28.10.2019
5361 Clouds 2 1023 29 0 0.75 145 20:20 28.10.2019
5362 Clouds 2 1023 29 0 0.75 145 19:54 28.10.2019
5363 Clouds 2 1023 29 0 0.75 145 19:36 28.10.2019
5364 Clouds 2 1023 29 0 0.75 145 19:36 28.10.2019
5365 Clouds 2 1023 29 0 0.75 145 19:18 28.10.2019
5366 Clouds 2 1023 29 0 0.75 145 19:18 28.10.2019
5367 Clouds 2 1023 29 0 0.75 145 18:56 28.10.2019
5368 Clouds 2 1023 29 0 0.75 145 18:56 28.10.2019
5369 Clouds 2 1023 29 0 0.75 145 18:38 28.10.2019
5370 Clouds 2 1023 29 0 0.75 145 18:20 28.10.2019
5371 Clouds 2 1023 29 0 0.75 145 17:55 28.10.2019
5372 Clouds 2 1023 29 0 0.75 145 17:36 28.10.2019
5373 Clouds 3 1022 28 0 0.28 232 17:18 28.10.2019
5374 Clouds 3 1022 28 0 0.28 232 17:18 28.10.2019
5375 Clouds 3 1022 28 0 0.28 232 16:54 28.10.2019
5376 Clouds 3 1022 28 0 0.28 232 16:36 28.10.2019
5377 Clouds 3 1022 28 0 0.28 232 16:18 28.10.2019
5378 Clouds 3 1022 28 0 0.28 232 15:55 28.10.2019
5379 Clouds 3 1022 28 0 0.28 232 15:37 28.10.2019
5380 Clouds 3 1022 28 0 0.28 232 15:18 28.10.2019
5381 Clouds 3 1022 28 0 0.28 232 14:54 28.10.2019
5382 Clouds 3 1022 28 0 0.28 232 14:36 28.10.2019
5383 Clouds 5 1019 27 0 0.27 96 14:18 28.10.2019
5384 Clouds 5 1019 27 0 0.27 96 13:41 28.10.2019
5385 Clear 5 1018 27 0 0.36 69 13:18 28.10.2019
5386 Clear 5 1018 27 0 0.36 69 12:58 28.10.2019
5387 Clear 5 1018 27 0 0.36 69 12:40 28.10.2019
5388 Clear 5 1018 27 0 0.36 69 12:19 28.10.2019
5389 Clear 5 1018 27 0 0.36 69 11:38 28.10.2019
5390 Clear 10 1015 14 0 0.63 153 11:19 28.10.2019
5391 Clear 10 1015 14 0 0.63 153 10:42 28.10.2019
5392 Clear 10 1015 14 0 0.63 153 10:24 28.10.2019
5393 Clear 10 1015 14 0 0.63 153 09:58 28.10.2019
5394 Clear 10 1015 14 0 0.63 153 09:39 28.10.2019
5395 Clear 10 1015 14 0 0.63 153 09:20 28.10.2019
5396 Clear 10 1015 14 0 0.63 153 08:57 28.10.2019
5397 Clear 10 1015 14 0 0.63 153 08:39 28.10.2019
5398 Clouds 8 1018 19 0 1.44 203 08:19 28.10.2019
5399 Clouds 8 1018 19 0 1.44 203 07:57 28.10.2019
5400 Clouds 8 1018 19 0 1.44 203 07:38 28.10.2019
5401 Clouds 8 1018 19 0 1.44 203 07:19 28.10.2019
5402 Clouds 8 1018 19 0 1.44 203 06:40 28.10.2019
5403 Clouds 8 1018 19 0 1.44 203 05:53 28.10.2019
5404 Clear 5 1024 26 0 1.19 23 03:56 28.10.2019
5405 Clear 5 1024 26 0 1.19 23 03:38 28.10.2019
5406 Clear 5 1024 26 0 1.19 23 02:40 28.10.2019
5407 Clear -2 1025 39 0 1.67 28 01:19 28.10.2019
5408 Clear -2 1025 39 0 1.67 28 00:42 28.10.2019
5409 Clear -2 1025 39 0 1.67 28 00:20 28.10.2019
5410 Clear -2 1025 39 0 1.67 28 23:42 27.10.2019
5411 Clear -1 1024 34 0 2.37 20 23:19 27.10.2019
5412 Clear -1 1024 34 0 2.37 20 22:43 27.10.2019
5413 Clear -1 1024 34 0 2.37 20 22:23 27.10.2019
5414 Clear -1 1024 34 0 2.37 20 21:58 27.10.2019
5415 Clear -1 1024 34 0 2.37 20 21:39 27.10.2019
5416 Clear -1 1024 34 0 2.37 20 21:21 27.10.2019
5417 Clear -1 1024 33 0 2.36 22 20:58 27.10.2019
5418 Clear -1 1024 34 0 2.37 20 20:39 27.10.2019
5419 Clear 1 1024 26 0 3.04 19 20:21 27.10.2019
5420 Clear 1 1024 26 0 3.04 19 19:56 27.10.2019
5421 Clear 1 1024 26 0 3.04 19 19:36 27.10.2019
5422 Clear 1 1024 26 0 3.04 19 19:18 27.10.2019
5423 Clear 1 1024 26 0 3.04 19 18:55 27.10.2019
5424 Clear 1 1024 26 0 3.04 19 18:37 27.10.2019
5425 Clear 1 1024 26 0 3.04 19 18:19 27.10.2019
5426 Clear 1 1024 26 0 3.04 19 17:40 27.10.2019
5427 Clear 2 1023 25 0 1.26 314 17:21 27.10.2019
5428 Clear 2 1023 25 0 1.26 314 16:58 27.10.2019
5429 Clear 2 1023 25 0 1.26 314 16:40 27.10.2019
5430 Clear 2 1023 25 0 1.26 314 16:22 27.10.2019
5431 Clear 2 1023 25 0 1.26 314 15:56 27.10.2019
5432 Clear 2 1023 25 0 1.26 314 15:56 27.10.2019
5433 Clear 2 1023 25 0 1.26 314 15:38 27.10.2019
5434 Clear 2 1023 25 0 1.26 314 15:20 27.10.2019
5435 Clear 2 1023 25 0 1.26 314 14:43 27.10.2019
5436 Clear 4 1019 24 0 0.78 162 14:23 27.10.2019
5437 Clear 4 1019 24 0 0.78 162 13:58 27.10.2019
5438 Clear 4 1019 24 0 0.78 162 13:39 27.10.2019
5439 Clear 4 1019 26 0 0.63 209 13:21 27.10.2019
5440 Clear 4 1019 26 0 0.63 209 12:59 27.10.2019
5441 Clear 4 1019 26 0 0.63 209 12:40 27.10.2019
5442 Clear 4 1019 26 0 0.63 209 12:22 27.10.2019
5443 Clear 4 1019 26 0 0.63 209 11:41 27.10.2019
5444 Clear 10 1014 14 0 4.56 299 11:23 27.10.2019
5445 Clear 10 1014 14 0 4.56 299 10:55 27.10.2019
5446 Clear 10 1014 14 0 4.56 299 10:36 27.10.2019
5447 Clear 10 1014 14 0 4.56 299 10:18 27.10.2019
5448 Clear 10 1014 14 0 4.56 299 09:42 27.10.2019
5449 Clear 10 1014 14 0 4.56 299 09:19 27.10.2019
5450 Clear 10 1014 14 0 4.56 299 08:56 27.10.2019
5451 Clear 10 1014 14 0 4.56 299 08:37 27.10.2019
5452 Clear 10 1014 14 0 4.56 299 08:37 27.10.2019
5453 Clear 10 1014 14 0 4.56 299 08:37 27.10.2019
5454 Clear 9 1018 17 0 3.33 234 08:18 27.10.2019
5455 Clear 9 1018 17 0 3.33 234 07:45 27.10.2019
5456 Clear 9 1018 17 0 3.33 234 07:25 27.10.2019
5457 Clear 9 1018 17 0 3.33 234 06:52 27.10.2019
5458 Clear 9 1018 17 0 3.33 234 06:29 27.10.2019
5459 Clear 9 1018 17 0 3.33 234 05:54 27.10.2019
5460 Clear 9 1018 17 0 3.33 234 05:34 27.10.2019
5461 Clear 5 1022 44 0 1.67 195 03:34 27.10.2019
5462 Clear -1 1023 69 0 1.01 156 02:28 27.10.2019
5463 Clear -1 1023 69 0 1.04 160 01:25 27.10.2019
5464 Clear -1 1023 69 0 1.04 160 00:52 27.10.2019
5465 Clear -1 1023 69 0 1.04 160 00:33 27.10.2019
5466 Clear 0 1020 67 0 1.05 156 23:58 26.10.2019
5467 Clear 0 1020 67 0 1.05 156 23:40 26.10.2019
5468 Clear 0 1020 67 0 1.05 156 23:21 26.10.2019
5469 Clear 0 1020 67 0 1.05 156 22:57 26.10.2019
5470 Clear 0 1020 67 0 1.05 156 22:38 26.10.2019
5471 Clear 0 1020 67 0 1.05 156 22:19 26.10.2019
5472 Clear 0 1020 67 0 1.05 156 21:55 26.10.2019
5473 Clear 0 1020 67 0 1.02 144 21:36 26.10.2019
5474 Clouds 2 1019 61 0 1.27 148 21:18 26.10.2019
5475 Clouds 2 1019 61 0 1.27 148 20:42 26.10.2019
5476 Clouds 2 1019 61 0 1.27 148 20:19 26.10.2019
5477 Clouds 2 1019 61 0 1.27 148 19:43 26.10.2019
5478 Clouds 2 1019 61 0 1.27 148 19:21 26.10.2019
5479 Clouds 2 1019 61 0 1.27 148 18:58 26.10.2019
5480 Clouds 2 1019 61 0 1.27 148 18:40 26.10.2019
5481 Clear 3 1018 53 0 0.88 153 18:20 26.10.2019
5482 Clear 3 1018 53 0 0.88 153 17:59 26.10.2019
5483 Clear 3 1018 53 0 0.88 153 17:39 26.10.2019
5484 Clear 3 1018 53 0 0.88 153 17:20 26.10.2019
5485 Clear 3 1018 53 0 0.88 153 16:47 26.10.2019
5486 Clear 3 1018 53 0 0.88 153 16:25 26.10.2019
5487 Clear 3 1018 53 0 0.88 153 15:59 26.10.2019
5488 Clear 3 1018 53 0 0.88 153 15:40 26.10.2019
5489 Clouds 5 1014 47 0 1.67 329 15:18 26.10.2019
5490 Clouds 5 1013 48 0 1.92 323 14:40 26.10.2019
5491 Clouds 5 1013 48 0 1.92 323 14:20 26.10.2019
5492 Clouds 5 1013 48 0 1.92 323 13:59 26.10.2019
5493 Clouds 5 1013 48 0 1.92 323 13:39 26.10.2019
5494 Clouds 5 1013 48 0 1.92 323 13:20 26.10.2019
5495 Clouds 5 1013 48 0 1.92 323 12:45 26.10.2019
5496 Rain 9 1009 41 0 0.77 274 12:22 26.10.2019
5497 Rain 9 1009 41 0 0.77 274 11:48 26.10.2019
5498 Rain 9 1009 41 0 0.77 274 11:26 26.10.2019
5499 Rain 9 1009 41 0 0.77 274 10:47 26.10.2019
5500 Rain 9 1009 41 0 0.77 274 10:27 26.10.2019
5501 Rain 9 1009 41 0 0.77 274 09:56 26.10.2019
5502 Rain 8 1011 49 0 1.96 206 09:38 26.10.2019
5503 Rain 5 1013 74 0 0.32 122 09:20 26.10.2019
5504 Rain 5 1013 74 0 0.32 122 08:42 26.10.2019
5505 Rain 5 1013 74 0 0.32 122 08:24 26.10.2019
5506 Rain 5 1013 74 0 0.32 122 07:44 26.10.2019
5507 Rain 5 1013 74 0 0.32 122 07:24 26.10.2019
5508 Rain 5 1013 74 0 0.32 122 06:41 26.10.2019
5509 Snow 2 1016 96 0 1.58 176 06:18 26.10.2019
5510 Snow 2 1016 96 0 1.58 176 05:19 26.10.2019
5511 Snow 2 1016 96 0 1.58 176 04:23 26.10.2019
5512 Snow 1 1016 98 0 1.35 166 02:37 26.10.2019
5513 Snow 1 1015 99 0 1.06 176 01:48 26.10.2019
5514 Snow 1 1015 99 0 1.06 176 01:20 26.10.2019
5515 Snow 0 1014 99 0 1.43 176 00:23 26.10.2019
5516 Snow 0 1014 99 0 1.43 176 23:41 25.10.2019
5517 Snow 0 1014 99 0 1.43 176 23:20 25.10.2019
5518 Snow 0 1014 99 0 1.43 176 22:40 25.10.2019
5519 Snow 0 1014 99 0 1.43 176 22:22 25.10.2019
5520 Snow 0 1014 99 0 1.43 176 21:57 25.10.2019
5521 Snow 0 1014 99 0 1.43 176 21:39 25.10.2019
5522 Snow 1 1015 97 0 0.49 104 21:19 25.10.2019
5523 Snow 1 1015 97 0 0.49 104 20:55 25.10.2019
5524 Snow 1 1015 97 0 0.49 104 20:37 25.10.2019
5525 Snow 1 1015 97 0 0.49 104 20:18 25.10.2019
5526 Snow 1 1015 97 0 0.49 104 19:41 25.10.2019
5527 Snow 1 1015 97 0 0.49 104 19:23 25.10.2019
5528 Snow 1 1015 97 0 0.49 104 18:44 25.10.2019
5529 Rain 3 1016 91 0 0.5 142 18:22 25.10.2019
5530 Rain 3 1016 91 0 0.5 142 17:41 25.10.2019
5531 Rain 3 1016 91 0 0.5 142 17:21 25.10.2019
5532 Rain 3 1016 91 0 0.5 142 16:54 25.10.2019
5533 Rain 3 1016 91 0 0.5 142 16:36 25.10.2019
5534 Rain 3 1016 91 0 0.5 142 16:18 25.10.2019
5535 Rain 3 1016 91 0 0.5 142 16:18 25.10.2019
5536 Rain 3 1016 91 0 0.5 142 15:40 25.10.2019
5537 Clouds 7 1013 51 0 2.76 156 15:21 25.10.2019
5538 Clouds 7 1013 51 0 2.76 156 14:58 25.10.2019
5539 Clouds 7 1013 51 0 2.76 156 14:58 25.10.2019
5540 Clouds 7 1013 53 0 2.56 174 14:39 25.10.2019
5541 Clouds 7 1013 53 0 2.56 174 14:20 25.10.2019
5542 Clouds 7 1013 53 0 2.56 174 13:42 25.10.2019
5543 Clouds 7 1013 53 0 2.56 174 13:24 25.10.2019
5544 Clouds 7 1013 53 0 2.56 174 12:56 25.10.2019
5545 Clouds 7 1013 53 0 2.56 174 12:38 25.10.2019
5546 Clouds 11 1008 34 0 0.89 234 12:19 25.10.2019
5547 Clouds 11 1008 34 0 0.89 234 11:40 25.10.2019
5548 Clouds 11 1008 34 0 0.89 234 11:22 25.10.2019
5549 Clouds 11 1008 34 0 0.89 234 10:57 25.10.2019
5550 Clouds 11 1008 34 0 0.89 234 10:39 25.10.2019
5551 Clouds 11 1008 34 0 0.89 234 10:19 25.10.2019
5552 Clouds 11 1008 34 0 0.89 234 09:54 25.10.2019
5553 Clouds 10 1008 39 0 2.38 192 09:36 25.10.2019
5554 Clouds 10 1011 36 0 3.58 172 09:18 25.10.2019
5555 Clouds 10 1011 36 0 3.58 172 08:42 25.10.2019
5556 Clouds 10 1011 36 0 3.58 172 08:23 25.10.2019
5557 Clouds 10 1011 36 0 3.58 172 07:49 25.10.2019
5558 Clouds 10 1011 36 0 3.58 172 07:49 25.10.2019
5559 Clouds 10 1011 36 0 3.58 172 07:30 25.10.2019
5560 Clouds 10 1011 36 0 3.58 172 06:38 25.10.2019
5561 Clouds 6 1016 52 0 2.29 173 05:50 25.10.2019
5562 Clouds 6 1016 52 0 2.29 173 05:32 25.10.2019
5563 Clouds 6 1016 52 0 2.29 173 04:37 25.10.2019
5564 Clouds -1 1017 87 0 1.19 137 02:44 25.10.2019
5565 Clouds -1 1017 87 0 1.19 137 01:53 25.10.2019
5566 Clouds -1 1017 87 0 1.19 137 00:39 25.10.2019
5567 Clear 1 1016 82 0 1.72 139 23:57 24.10.2019
5568 Clear 1 1016 82 0 1.72 139 23:37 24.10.2019
5569 Clear 1 1016 82 0 1.72 139 23:19 24.10.2019
5570 Clear 1 1016 82 0 1.72 139 22:54 24.10.2019
5571 Clear 1 1016 82 0 1.72 139 22:36 24.10.2019
5572 Clear 1 1016 82 0 1.72 139 22:18 24.10.2019
5573 Clear 1 1016 82 0 1.72 139 21:54 24.10.2019
5574 Clear 1 1016 82 0 1.72 139 21:54 24.10.2019
5575 Clear 1 1016 84 0 1.86 143 21:36 24.10.2019
5576 Snow 3 1016 77 0 2.49 145 21:18 24.10.2019
5577 Snow 3 1016 77 0 2.49 145 20:54 24.10.2019
5578 Snow 3 1016 77 0 2.49 145 20:36 24.10.2019
5579 Snow 3 1016 77 0 2.49 145 20:18 24.10.2019
5580 Snow 3 1016 77 0 2.49 145 19:41 24.10.2019
5581 Snow 3 1016 77 0 2.49 145 19:22 24.10.2019
5582 Snow 3 1016 77 0 2.49 145 18:57 24.10.2019
5583 Snow 3 1016 77 0 2.49 145 18:38 24.10.2019
5584 Rain 5 1015 64 0 2.09 147 18:20 24.10.2019
5585 Rain 5 1015 64 0 2.09 147 17:42 24.10.2019
5586 Rain 5 1015 64 0 2.09 147 17:21 24.10.2019
5587 Rain 5 1015 64 0 2.09 147 16:58 24.10.2019
5588 Rain 5 1015 64 0 2.09 147 16:40 24.10.2019
5589 Rain 5 1015 64 0 2.09 147 16:22 24.10.2019
5590 Rain 5 1015 64 0 2.09 147 15:59 24.10.2019
5591 Rain 5 1015 64 0 2.09 147 15:40 24.10.2019
5592 Clouds 7 1011 43 0 0.9 188 15:22 24.10.2019
5593 Clouds 7 1011 43 0 0.9 188 14:59 24.10.2019
5594 Clouds 7 1011 43 0 0.9 188 14:41 24.10.2019
5595 Clouds 7 1010 36 0 0.9 250 14:22 24.10.2019
5596 Clouds 7 1010 36 0 0.9 250 13:42 24.10.2019
5597 Clouds 7 1010 36 0 0.9 250 13:21 24.10.2019
5598 Clouds 7 1010 36 0 0.9 250 12:58 24.10.2019
5599 Clouds 7 1010 36 0 0.9 250 12:40 24.10.2019
5600 Clouds 12 1007 27 0 2.45 212 12:20 24.10.2019
5601 Clouds 12 1007 27 0 2.45 212 11:57 24.10.2019
5602 Clouds 12 1007 27 0 2.45 212 11:39 24.10.2019
5603 Clouds 12 1007 27 0 2.45 212 11:20 24.10.2019
5604 Clouds 12 1007 27 0 2.45 212 10:59 24.10.2019
5605 Clouds 12 1007 27 0 2.45 212 10:41 24.10.2019
5606 Clouds 12 1007 27 0 2.45 212 10:41 24.10.2019
5607 Clouds 12 1007 27 0 2.45 212 10:22 24.10.2019
5608 Clouds 11 1007 29 0 3.1 201 09:39 24.10.2019
5609 Clouds 9 1010 41 0 3.42 184 09:19 24.10.2019
5610 Clouds 9 1010 41 0 3.42 184 08:56 24.10.2019
5611 Clouds 9 1010 41 0 3.42 184 08:37 24.10.2019
5612 Clouds 9 1010 41 0 3.42 184 08:18 24.10.2019
5613 Clouds 9 1010 41 0 3.42 184 07:45 24.10.2019
5614 Clouds 9 1010 41 0 3.42 184 07:22 24.10.2019
5615 Clouds 9 1010 41 0 3.42 184 06:47 24.10.2019
5616 Clouds 9 1010 41 0 3.42 184 06:24 24.10.2019
5617 Snow 4 1016 70 0 2.11 174 05:50 24.10.2019
5618 Snow 4 1016 70 0 2.11 174 05:29 24.10.2019
5619 Snow 4 1016 70 0 2.11 174 03:38 24.10.2019
5620 Snow 1 1016 90 0 1.9 168 03:18 24.10.2019
5621 Snow 1 1016 91 0 1.82 187 02:26 24.10.2019
5622 Snow 1 1016 91 0 1.82 187 01:52 24.10.2019
5623 Snow 1 1016 91 0 1.82 187 01:28 24.10.2019
5624 Snow 1 1016 91 0 1.82 187 00:44 24.10.2019
5625 Snow 1 1016 91 0 1.82 187 00:44 24.10.2019
5626 Clouds 3 1015 72 0 2.15 181 00:23 24.10.2019
5627 Clouds 3 1015 72 0 2.15 181 23:43 23.10.2019
5628 Clouds 3 1015 72 0 2.15 181 23:43 23.10.2019
5629 Clouds 3 1015 72 0 2.15 181 23:23 23.10.2019
5630 Clouds 3 1015 72 0 2.15 181 23:23 23.10.2019
5631 Clouds 3 1015 72 0 2.15 181 22:57 23.10.2019
5632 Clouds 3 1015 72 0 2.15 181 22:38 23.10.2019
5633 Clouds 3 1015 72 0 2.15 181 22:19 23.10.2019
5634 Clouds 3 1015 72 0 2.15 181 21:58 23.10.2019
5635 Snow 3 1015 80 0 2.48 183 21:38 23.10.2019
5636 Snow 3 1015 73 0 3.15 161 21:20 23.10.2019
5637 Snow 3 1015 73 0 3.15 161 20:58 23.10.2019
5638 Snow 3 1015 73 0 3.15 161 20:39 23.10.2019
5639 Snow 3 1015 73 0 3.15 161 20:20 23.10.2019
5640 Snow 3 1015 73 0 3.15 161 19:57 23.10.2019
5641 Snow 3 1015 73 0 3.15 161 19:38 23.10.2019
5642 Snow 3 1015 73 0 3.15 161 19:18 23.10.2019
5643 Snow 3 1015 73 0 3.15 161 18:55 23.10.2019
5644 Snow 3 1015 73 0 3.15 161 18:36 23.10.2019
5645 Clouds 6 1015 43 0 2.69 148 18:18 23.10.2019
5646 Clouds 6 1015 43 0 2.69 148 17:43 23.10.2019
5647 Clouds 6 1015 43 0 2.69 148 17:20 23.10.2019
5648 Clouds 6 1015 43 0 2.69 148 16:56 23.10.2019
5649 Clouds 6 1015 43 0 2.69 148 16:38 23.10.2019
5650 Clouds 6 1015 43 0 2.69 148 16:19 23.10.2019
5651 Clouds 6 1015 43 0 2.69 148 16:19 23.10.2019
5652 Clouds 6 1015 43 0 2.69 148 15:42 23.10.2019
5653 Clouds 8 1012 29 0 1 178 15:22 23.10.2019
5654 Clouds 8 1012 29 0 1 178 14:58 23.10.2019
5655 Clouds 9 1011 24 0 1.01 35 14:38 23.10.2019
5656 Clouds 9 1011 24 0 1.01 35 14:19 23.10.2019
5657 Clouds 9 1011 24 0 1.01 35 13:57 23.10.2019
5658 Clouds 9 1011 24 0 1.01 35 13:39 23.10.2019
5659 Clouds 9 1011 24 0 1.01 35 13:21 23.10.2019
5660 Clouds 9 1011 24 0 1.01 35 12:55 23.10.2019
5661 Clouds 9 1011 24 0 1.01 35 12:37 23.10.2019
5662 Clouds 13 1006 13 0 2.54 208 12:18 23.10.2019
5663 Clouds 13 1006 13 0 2.54 208 11:55 23.10.2019
5664 Clouds 13 1006 13 0 2.54 208 11:37 23.10.2019
5665 Clouds 13 1006 13 0 2.54 208 11:19 23.10.2019
5666 Clouds 13 1006 13 0 2.54 208 10:42 23.10.2019
5667 Clouds 13 1006 13 0 2.54 208 10:24 23.10.2019
5668 Clouds 13 1006 13 0 2.54 208 09:42 23.10.2019
5669 Clouds 11 1009 23 0 3.54 183 09:24 23.10.2019
5670 Clouds 11 1009 23 0 3.54 183 09:24 23.10.2019
5671 Clouds 11 1009 23 0 3.54 183 08:59 23.10.2019
5672 Clouds 11 1009 23 0 3.54 183 08:41 23.10.2019
5673 Clouds 11 1009 23 0 3.54 183 08:41 23.10.2019
5674 Clouds 11 1009 23 0 3.54 183 08:22 23.10.2019
5675 Clouds 11 1009 23 0 3.54 183 07:45 23.10.2019
5676 Clouds 11 1009 23 0 3.54 183 07:22 23.10.2019
5677 Clouds 11 1009 23 0 3.54 183 06:46 23.10.2019
5678 Clear 7 1014 43 0 2.56 169 06:22 23.10.2019
5679 Clear 7 1014 43 0 2.56 169 05:41 23.10.2019
5680 Clear 7 1014 43 0 2.56 169 04:41 23.10.2019
5681 Clear 7 1014 43 0 2.56 169 03:34 23.10.2019
5682 Clouds 0 1016 51 0 1.8 134 02:40 23.10.2019
5683 Clouds 0 1016 51 0 1.8 134 01:32 23.10.2019
5684 Clouds 0 1016 51 0 1.8 134 00:56 23.10.2019
5685 Clouds 0 1016 51 0 1.8 134 00:28 23.10.2019
5686 Clouds 1 1014 34 0 1 108 23:40 22.10.2019
5687 Clouds 1 1014 34 0 1 108 23:18 22.10.2019
5688 Clouds 1 1014 34 0 1 108 22:56 22.10.2019
5689 Clouds 1 1014 34 0 1 108 22:38 22.10.2019
5690 Clouds 1 1014 34 0 1 108 22:19 22.10.2019
5691 Clouds 1 1014 34 0 1 108 21:56 22.10.2019
5692 Clouds 1 1014 37 0 1.3 129 21:37 22.10.2019
5693 Clouds 2 1015 25 0 0.6 71 21:18 22.10.2019
5694 Clouds 2 1015 25 0 0.6 71 20:55 22.10.2019
5695 Clouds 2 1015 25 0 0.6 71 20:37 22.10.2019
5696 Clouds 2 1015 25 0 0.6 71 20:19 22.10.2019
5697 Clouds 2 1015 25 0 0.6 71 19:45 22.10.2019
5698 Clouds 2 1015 25 0 0.6 71 19:27 22.10.2019
5699 Clouds 2 1015 25 0 0.6 71 18:58 22.10.2019
5700 Clouds 2 1015 25 0 0.6 71 18:58 22.10.2019
5701 Clouds 2 1015 25 0 0.6 71 18:40 22.10.2019
5702 Clouds 3 1015 22 0 1 270 18:21 22.10.2019
5703 Clouds 3 1015 22 0 1 270 17:57 22.10.2019
5704 Clouds 3 1015 22 0 1 270 17:38 22.10.2019
5705 Clouds 3 1015 22 0 1 270 17:20 22.10.2019
5706 Clouds 3 1015 22 0 1 270 17:20 22.10.2019
5707 Clouds 3 1015 22 0 1 270 17:20 22.10.2019
5708 Clouds 3 1015 22 0 1 270 16:57 22.10.2019
5709 Clouds 3 1015 22 0 1 270 16:37 22.10.2019
5710 Clouds 3 1015 22 0 1 270 16:19 22.10.2019
5711 Clouds 3 1015 22 0 1 270 16:19 22.10.2019
5712 Clouds 3 1015 22 0 1 270 15:44 22.10.2019
5713 Clear 7 1012 17 0 3.63 331 15:21 22.10.2019
5714 Clear 7 1012 17 0 3.63 331 14:58 22.10.2019
5715 Clear 7 1012 18 0 3 323 14:40 22.10.2019
5716 Clear 7 1012 18 0 3 323 14:19 22.10.2019
5717 Clear 7 1012 18 0 3 323 13:42 22.10.2019
5718 Clear 7 1012 18 0 3 323 13:21 22.10.2019
5719 Clear 7 1012 18 0 3 323 12:58 22.10.2019
5720 Clear 7 1012 18 0 3 323 12:40 22.10.2019
5721 Clear 7 1012 18 0 3 323 12:40 22.10.2019
5722 Clear 13 1008 10 0 8.65 275 12:21 22.10.2019
5723 Clear 13 1008 10 0 8.65 275 11:56 22.10.2019
5724 Clear 13 1008 10 0 8.65 275 11:37 22.10.2019
5725 Clear 13 1008 10 0 8.65 275 11:19 22.10.2019
5726 Clear 13 1008 10 0 8.65 275 10:55 22.10.2019
5727 Clear 13 1008 10 0 8.65 275 10:36 22.10.2019
5728 Clear 13 1008 10 0 8.65 275 10:18 22.10.2019
5729 Clear 13 1009 12 0 6.43 288 09:42 22.10.2019
5730 Clear 12 1012 12 0 4.15 254 09:22 22.10.2019
5731 Clear 12 1012 12 0 4.15 254 08:59 22.10.2019
5732 Clear 12 1012 12 0 4.15 254 08:41 22.10.2019
5733 Clear 12 1012 12 0 4.15 254 08:19 22.10.2019
5734 Clear 12 1012 12 0 4.15 254 07:45 22.10.2019
5735 Clear 12 1012 12 0 4.15 254 07:26 22.10.2019
5736 Clear 12 1012 12 0 4.15 254 06:47 22.10.2019
5737 Clear 12 1012 12 0 4.15 254 06:29 22.10.2019
5738 Clear 8 1016 46 0 2.32 181 05:48 22.10.2019
5739 Clear 8 1016 46 0 2.32 181 05:18 22.10.2019
5740 Snow 1 1017 81 0 1.4 170 02:32 22.10.2019
5741 Snow 1 1017 81 0 1.4 170 01:50 22.10.2019
5742 Snow 1 1017 81 0 1.4 170 01:24 22.10.2019
5743 Snow 1 1017 81 0 1.4 170 00:56 22.10.2019
5744 Snow 1 1017 81 0 1.4 170 00:38 22.10.2019
5745 Rain 2 1015 82 0 0.98 176 00:19 22.10.2019
5746 Rain 2 1015 82 0 0.98 176 23:39 21.10.2019
5747 Rain 2 1015 82 0 0.98 176 23:20 21.10.2019
5748 Rain 2 1015 82 0 0.98 176 22:59 21.10.2019
5749 Rain 2 1015 82 0 0.98 176 22:40 21.10.2019
5750 Rain 2 1015 82 0 0.98 176 22:20 21.10.2019
5751 Rain 2 1015 82 0 0.98 176 21:58 21.10.2019
5752 Rain 2 1015 82 0 0.98 176 21:39 21.10.2019
5753 Rain 2 1015 82 0 0.98 176 21:39 21.10.2019
5754 Rain 3 1015 79 0 1.54 188 21:21 21.10.2019
5755 Rain 3 1015 79 0 1.54 188 20:58 21.10.2019
5756 Rain 3 1015 79 0 1.54 188 20:40 21.10.2019
5757 Rain 3 1015 79 0 1.54 188 20:40 21.10.2019
5758 Rain 3 1015 79 0 1.54 188 20:21 21.10.2019
5759 Rain 3 1015 79 0 1.54 188 19:57 21.10.2019
5760 Rain 3 1015 79 0 1.54 188 19:57 21.10.2019
5761 Rain 3 1015 79 0 1.54 188 19:39 21.10.2019
5762 Rain 3 1015 79 0 1.54 188 19:21 21.10.2019
5763 Rain 3 1015 79 0 1.54 188 18:55 21.10.2019
5764 Rain 3 1015 79 0 1.54 188 18:37 21.10.2019
5765 Rain 5 1015 66 0 1.66 168 18:18 21.10.2019
5766 Rain 5 1015 66 0 1.66 168 17:55 21.10.2019
5767 Rain 5 1015 66 0 1.66 168 17:37 21.10.2019
5768 Rain 5 1015 66 0 1.66 168 17:18 21.10.2019
5769 Rain 5 1015 66 0 1.66 168 16:55 21.10.2019
5770 Rain 5 1015 66 0 1.66 168 16:37 21.10.2019
5771 Rain 5 1015 66 0 1.66 168 16:18 21.10.2019
5772 Rain 5 1015 66 0 1.66 168 15:42 21.10.2019
5773 Rain 7 1013 56 0 1.96 172 15:23 21.10.2019
5774 Rain 7 1013 56 0 1.96 172 14:56 21.10.2019
5775 Rain 7 1012 60 0 3.04 159 14:37 21.10.2019
5776 Rain 7 1012 60 0 3.04 159 14:18 21.10.2019
5777 Rain 7 1012 60 0 3.04 159 13:55 21.10.2019
5778 Rain 7 1012 60 0 3.04 159 13:37 21.10.2019
5779 Rain 7 1012 60 0 3.04 159 13:18 21.10.2019
5780 Rain 7 1012 60 0 3.04 159 12:41 21.10.2019
5781 Clouds 11 1008 42 0 2.17 200.096 12:22 21.10.2019
5782 Clouds 11 1008 42 0 2.17 200.096 11:55 21.10.2019
5783 Clouds 11 1008 42 0 2.17 200.096 11:37 21.10.2019
5784 Clouds 11 1008 42 0 2.17 200.096 11:18 21.10.2019
5785 Clouds 11 1008 42 0 2.17 200.096 10:55 21.10.2019
5786 Clouds 11 1008 42 0 2.17 200.096 10:37 21.10.2019
5787 Clouds 11 1008 42 0 2.17 200.096 10:18 21.10.2019
5788 Clouds 11 1008 42 0 2.17 200.096 09:43 21.10.2019
5789 Rain 7 1012 60 0 0.69 173.393 09:23 21.10.2019
5790 Rain 7 1012 65 0 0.86 172.012 08:43 21.10.2019
5791 Rain 7 1012 65 0 0.86 172.012 08:23 21.10.2019
5792 Rain 7 1012 65 0 0.86 172.012 07:59 21.10.2019
5793 Rain 7 1012 65 0 0.86 172.012 07:37 21.10.2019
5794 Rain 7 1012 65 0 0.86 172.012 07:19 21.10.2019
5795 Rain 7 1012 65 0 0.86 172.012 06:51 21.10.2019
5796 Rain 7 1012 65 0 0.86 172.012 06:32 21.10.2019
5797 Clouds 2 1017 92 0 0.64 22.73 05:46 21.10.2019
5798 Clouds 2 1017 92 0 0.64 22.73 04:42 21.10.2019
5799 Clouds 1 1019 94 0 1.76 13.082 02:41 21.10.2019
5800 Clouds 1 1019 94 0 1.76 13.082 02:21 21.10.2019
5801 Clouds 1 1019 94 0 1.76 13.082 01:49 21.10.2019
5802 Clouds 1 1019 94 0 1.76 14.329 01:22 21.10.2019
5803 Clouds 1 1019 94 0 1.76 14.329 00:42 21.10.2019
5804 Clouds 1 1019 94 0 1.76 14.329 00:42 21.10.2019
5805 Rain 2 1018 89 0 2.63 23.067 00:23 21.10.2019
5806 Rain 2 1018 89 0 2.63 23.067 00:23 21.10.2019
5807 Rain 2 1018 89 0 2.63 23.067 23:40 20.10.2019
5808 Rain 2 1018 89 0 2.63 23.067 23:22 20.10.2019
5809 Rain 2 1018 89 0 2.63 23.067 22:55 20.10.2019
5810 Rain 2 1018 89 0 2.63 23.067 22:36 20.10.2019
5811 Rain 2 1018 89 0 2.63 23.067 22:18 20.10.2019
5812 Rain 2 1018 89 0 2.63 23.067 21:56 20.10.2019
5813 Rain 2 1018 89 0 2.63 23.067 21:38 20.10.2019
5814 Rain 5 1019 70 0 3.07 19.924 21:19 20.10.2019
5815 Clouds 5 1019 62 0 1.83 29.14 20:39 20.10.2019
5816 Clouds 5 1019 62 0 1.83 29.14 20:18 20.10.2019
5817 Clouds 5 1019 62 0 1.83 29.14 19:56 20.10.2019
5818 Clouds 5 1019 62 0 1.83 29.14 19:37 20.10.2019
5819 Clouds 5 1019 62 0 1.83 29.14 19:19 20.10.2019
5820 Clouds 5 1019 62 0 1.83 29.14 18:42 20.10.2019
5821 Clouds 5 1019 62 0 1.83 29.14 18:24 20.10.2019
5822 Clouds 8 1018 49 0 2.38 153.37 17:59 20.10.2019
5823 Clouds 8 1018 49 0 2.38 153.37 17:59 20.10.2019
5824 Clouds 8 1018 49 0 2.38 153.37 17:41 20.10.2019
5825 Clouds 8 1018 49 0 2.38 153.37 17:22 20.10.2019
5826 Clouds 8 1018 49 0 2.38 153.37 16:56 20.10.2019
5827 Clouds 8 1018 49 0 2.38 153.37 16:38 20.10.2019
5828 Clouds 8 1018 49 0 2.38 153.37 16:19 20.10.2019
5829 Clouds 8 1018 49 0 2.38 153.37 15:55 20.10.2019
5830 Clouds 8 1018 49 0 2.38 153.37 15:36 20.10.2019
5831 Clouds 9 1014 46 0 2.85 123.037 15:18 20.10.2019
5832 Clouds 9 1014 46 0 2.85 123.037 14:41 20.10.2019
5833 Clouds 9 1014 46 0 2.85 123.037 14:23 20.10.2019
5834 Clouds 9 1014 46 0 2.85 123.037 13:56 20.10.2019
5835 Clouds 9 1014 46 0 2.85 123.037 13:37 20.10.2019
5836 Clouds 9 1014 42 0 2.53 121.061 13:19 20.10.2019
5837 Clouds 9 1014 42 0 2.53 121.061 12:58 20.10.2019
5838 Clouds 9 1014 42 0 2.53 121.061 12:39 20.10.2019
5839 Clouds 13 1010 31 0 3.04 181.302 12:21 20.10.2019
5840 Clouds 13 1010 31 0 3.04 181.302 11:59 20.10.2019
5841 Clouds 13 1010 31 0 3.04 181.302 11:40 20.10.2019
5842 Clouds 13 1010 31 0 3.04 181.302 11:22 20.10.2019
5843 Clouds 13 1010 31 0 3.04 181.302 10:58 20.10.2019
5844 Clouds 13 1010 31 0 3.04 181.302 10:39 20.10.2019
5845 Clouds 13 1010 31 0 3.04 181.302 10:39 20.10.2019
5846 Clouds 13 1010 31 0 3.04 181.302 10:21 20.10.2019
5847 Clouds 13 1010 31 0 3.04 181.302 09:56 20.10.2019
5848 Clouds 13 1010 31 0 3.04 181.302 09:37 20.10.2019
5849 Clouds 12 1014 30 0 3.02 200.041 09:18 20.10.2019
5850 Clouds 12 1012 29 0 2.87 200.149 08:40 20.10.2019
5851 Clouds 12 1012 29 0 2.87 200.149 08:21 20.10.2019
5852 Clouds 12 1012 29 0 2.87 200.149 07:47 20.10.2019
5853 Clouds 12 1012 29 0 2.87 200.149 07:26 20.10.2019
5854 Clouds 12 1012 29 0 2.87 200.149 06:30 20.10.2019
5855 Clouds 8 1019 43 0 2.15 180.613 04:30 20.10.2019
5856 Clouds 8 1019 43 0 2.15 180.613 03:51 20.10.2019
5857 Clouds 3 1021 58 0 1.78 149.534 03:22 20.10.2019
5858 Clouds 3 1021 58 0 1.78 149.534 02:49 20.10.2019
5859 Clouds 3 1021 58 0 1.78 149.534 02:22 20.10.2019
5860 Clouds 3 1021 58 0 1.78 149.534 01:49 20.10.2019
5861 Clouds 3 1021 58 0 1.49 152.662 01:21 20.10.2019
5862 Clouds 3 1021 58 0 1.49 152.662 00:48 20.10.2019
5863 Clouds 4 1020 56 0 1.34 135.483 00:21 20.10.2019
5864 Clouds 4 1020 56 0 1.34 135.483 23:54 19.10.2019
5865 Clouds 4 1020 56 0 1.34 135.483 23:36 19.10.2019
5866 Clouds 4 1020 56 0 1.34 135.483 23:18 19.10.2019
5867 Clouds 4 1020 56 0 1.34 135.483 22:40 19.10.2019
5868 Clouds 4 1020 56 0 1.34 135.483 22:22 19.10.2019
5869 Clouds 4 1020 56 0 1.34 135.483 21:57 19.10.2019
5870 Clouds 4 1020 56 0 1.34 135.483 21:39 19.10.2019
5871 Clouds 6 1022 49 0 1.92 155.118 21:20 19.10.2019
5872 Clouds 6 1021 48 0 2 154.437 20:42 19.10.2019
5873 Clouds 6 1021 48 0 2 154.437 20:21 19.10.2019
5874 Clouds 6 1021 48 0 2 154.437 19:42 19.10.2019
5875 Clouds 6 1021 48 0 2 154.437 19:24 19.10.2019
5876 Clouds 6 1021 48 0 2 154.437 18:57 19.10.2019
5877 Clouds 6 1021 48 0 2 154.437 18:39 19.10.2019
5878 Clouds 7 1021 39 0 1.97 151.084 18:19 19.10.2019
5879 Clouds 7 1021 39 0 1.97 151.084 17:41 19.10.2019
5880 Clouds 7 1021 39 0 1.97 151.084 17:23 19.10.2019
5881 Clouds 7 1021 39 0 1.97 151.084 16:57 19.10.2019
5882 Clouds 7 1021 39 0 1.97 151.084 16:38 19.10.2019
5883 Clouds 7 1021 39 0 1.97 151.084 16:19 19.10.2019
5884 Clouds 7 1021 39 0 1.97 151.084 15:42 19.10.2019
5885 Clouds 7 1021 39 0 1.97 151.084 15:24 19.10.2019
5886 Clouds 9 1017 29 0 1.29 149.388 14:39 19.10.2019
5887 Clouds 9 1017 29 0 1.29 149.388 14:39 19.10.2019
5888 Clouds 9 1017 29 0 1.29 149.388 14:21 19.10.2019
5889 Clouds 9 1017 29 0 1.29 149.388 14:21 19.10.2019
5890 Clouds 9 1017 29 0 1.29 149.388 13:58 19.10.2019
5891 Clouds 9 1017 29 0 1.29 149.388 13:40 19.10.2019
5892 Clouds 9 1016 31 0 1.63 177.613 13:19 19.10.2019
5893 Clouds 9 1016 31 0 1.63 177.613 12:57 19.10.2019
5894 Clouds 9 1016 31 0 1.63 177.613 12:38 19.10.2019
5895 Clouds 13 1013 22 0 2.58 206.099 12:19 19.10.2019
5896 Clouds 13 1013 22 0 2.58 206.099 11:41 19.10.2019
5897 Clouds 13 1013 22 0 2.58 206.099 11:23 19.10.2019
5898 Clouds 13 1013 22 0 2.58 206.099 10:58 19.10.2019
5899 Clouds 13 1013 22 0 2.58 206.099 10:39 19.10.2019
5900 Clouds 13 1013 22 0 2.58 206.099 10:21 19.10.2019
5901 Clouds 13 1013 22 0 2.58 206.099 09:44 19.10.2019
5902 Clouds 13 1013 22 0 2.58 206.099 09:26 19.10.2019
5903 Clouds 11 1017 29 0 2.98 197.024 09:00 19.10.2019
5904 Clouds 11 1017 29 0 2.98 197.024 08:40 19.10.2019
5905 Clouds 11 1017 29 0 2.98 197.024 08:21 19.10.2019
5906 Clouds 11 1017 29 0 2.98 197.024 07:45 19.10.2019
5907 Clouds 11 1017 29 0 2.98 197.024 07:25 19.10.2019
5908 Clouds 11 1017 29 0 2.98 197.024 06:48 19.10.2019
5909 Clouds 11 1017 29 0 2.98 197.024 06:48 19.10.2019
5910 Clouds 11 1017 29 0 2.98 197.024 06:28 19.10.2019
5911 Clouds 11 1017 29 0 2.98 197.024 06:28 19.10.2019
5912 Clouds 7 1022 43 0 2.25 178.317 05:34 19.10.2019
5913 Clouds 7 1022 43 0 2.25 178.317 04:26 19.10.2019
5914 Clear 0 1023 65 0 1.49 136.275 02:50 19.10.2019
5915 Clear 0 1023 65 0 1.49 136.275 01:55 19.10.2019
5916 Clear 0 1023 65 0 1.49 136.275 01:36 19.10.2019
5917 Clear 0 1024 67 0 1.46 133.501 00:49 19.10.2019
5918 Clear 0 1024 67 0 1.46 133.501 00:28 19.10.2019
5919 Clear 2 1022 61 0 1.32 123.522 23:56 18.10.2019
5920 Clear 2 1022 61 0 1.32 123.522 23:37 18.10.2019
5921 Clear 2 1022 61 0 1.32 123.522 23:19 18.10.2019
5922 Clear 2 1022 61 0 1.32 123.522 22:43 18.10.2019
5923 Clear 2 1022 61 0 1.32 123.522 22:21 18.10.2019
5924 Clear 2 1022 61 0 1.32 123.522 21:59 18.10.2019
5925 Clear 2 1022 61 0 1.32 123.522 21:39 18.10.2019
5926 Clear 3 1022 56 0 1.17 108.824 21:20 18.10.2019
5927 Clear 3 1022 56 0 1.17 108.824 20:59 18.10.2019
5928 Clear 3 1022 56 0 1.17 108.824 20:41 18.10.2019
5929 Clear 3 1022 56 0 1.17 108.824 20:22 18.10.2019
5930 Clear 3 1022 56 0 1.17 108.824 19:58 18.10.2019
5931 Clear 3 1022 56 0 1.17 108.824 19:58 18.10.2019
5932 Clear 3 1022 56 0 1.17 108.824 19:39 18.10.2019
5933 Clear 3 1022 56 0 1.17 108.824 19:39 18.10.2019
5934 Clear 3 1022 56 0 1.17 108.824 19:21 18.10.2019
5935 Clear 3 1022 56 0 1.17 108.824 18:57 18.10.2019
5936 Clear 3 1022 56 0 1.17 108.824 18:39 18.10.2019
5937 Clear 5 1022 52 0 0.86 135.942 18:20 18.10.2019
5938 Clear 5 1022 52 0 0.86 135.942 17:39 18.10.2019
5939 Clear 5 1022 52 0 0.86 135.942 17:21 18.10.2019
5940 Clear 5 1022 52 0 0.86 135.942 16:59 18.10.2019
5941 Clear 5 1022 52 0 0.86 135.942 16:38 18.10.2019
5942 Clear 5 1022 52 0 0.86 135.942 16:19 18.10.2019
5943 Clear 5 1022 52 0 0.86 135.942 15:54 18.10.2019
5944 Clear 5 1022 52 0 0.86 135.942 15:54 18.10.2019
5945 Clear 5 1022 52 0 0.86 135.942 15:36 18.10.2019
5946 Clouds 7 1017 38 0 2.04 198.836 15:18 18.10.2019
5947 Clouds 7 1017 38 0 2.04 198.836 14:56 18.10.2019
5948 Clouds 7 1017 38 0 2.04 198.836 14:38 18.10.2019
5949 Clouds 7 1017 38 0 2.04 198.836 14:18 18.10.2019
5950 Clouds 7 1017 38 0 2.04 198.836 13:41 18.10.2019
5951 Clouds 7 1017 44 0 1.57 190.673 13:23 18.10.2019
5952 Clouds 7 1017 44 0 1.57 190.673 12:58 18.10.2019
5953 Clouds 7 1017 44 0 1.57 190.673 12:39 18.10.2019
5954 Clouds 12 1014 26 0 2.95 230.428 12:21 18.10.2019
5955 Clouds 12 1014 26 0 2.95 230.428 11:56 18.10.2019
5956 Clouds 12 1014 26 0 2.95 230.428 11:38 18.10.2019
5957 Clouds 12 1014 26 0 2.95 230.428 11:19 18.10.2019
5958 Clouds 12 1014 26 0 2.95 230.428 11:19 18.10.2019
5959 Clouds 12 1014 26 0 2.95 230.428 10:56 18.10.2019
5960 Clouds 12 1014 26 0 2.95 230.428 10:38 18.10.2019
5961 Clouds 12 1014 26 0 2.95 230.428 10:18 18.10.2019
5962 Clouds 12 1014 26 0 2.95 230.428 09:55 18.10.2019
5963 Clouds 12 1014 26 0 2.95 230.428 09:36 18.10.2019
5964 Clouds 10 1016 31 0 2.97 192.079 09:18 18.10.2019
5965 Clouds 10 1016 31 0 2.97 192.079 08:42 18.10.2019
5966 Clouds 10 1016 31 0 2.97 192.079 08:42 18.10.2019
5967 Clouds 10 1016 31 0 2.97 192.079 08:23 18.10.2019
5968 Clouds 10 1016 31 0 2.97 192.079 07:44 18.10.2019
5969 Clouds 10 1016 31 0 2.97 192.079 07:26 18.10.2019
5970 Clouds 10 1016 31 0 2.97 192.079 06:41 18.10.2019
5971 Clouds 6 1022 44 0 2.28 172.679 06:22 18.10.2019
5972 Clouds 6 1022 44 0 2.28 172.679 05:58 18.10.2019
5973 Clouds 6 1022 44 0 2.28 172.679 05:24 18.10.2019
5974 Clouds 6 1022 44 0 2.28 172.679 04:49 18.10.2019
5975 Clouds 6 1022 44 0 2.28 172.679 03:34 18.10.2019
5976 Clouds 0 1024 57 0 0.68 104.649 02:37 18.10.2019
5977 Clouds 0 1024 57 0 0.68 104.649 02:18 18.10.2019
5978 Clouds 0 1024 57 0 1.29 122.877 01:31 18.10.2019
5979 Clouds 0 1024 57 0 1.29 122.877 00:46 18.10.2019
5980 Clear 1 1023 50 0 1.01 23.526 00:21 18.10.2019
5981 Clear 1 1023 50 0 1.01 23.526 00:21 18.10.2019
5982 Clear 1 1023 50 0 1.01 23.526 23:59 17.10.2019
5983 Clear 1 1023 50 0 1.01 23.526 23:38 17.10.2019
5984 Clear 1 1023 50 0 1.01 23.526 23:19 17.10.2019
5985 Clear 1 1023 50 0 1.01 23.526 22:55 17.10.2019
5986 Clear 1 1023 50 0 1.01 23.526 22:55 17.10.2019
5987 Clear 1 1023 50 0 1.01 23.526 22:55 17.10.2019
5988 Clear 1 1023 50 0 1.01 23.526 22:37 17.10.2019
5989 Clear 1 1023 50 0 1.01 23.526 22:37 17.10.2019
5990 Clear 1 1023 50 0 1.01 23.526 22:18 17.10.2019
5991 Clear 1 1023 50 0 1.01 23.526 21:56 17.10.2019
5992 Clear 1 1023 50 0 1.01 23.526 21:37 17.10.2019
5993 Clouds 3 1023 44 0 1.88 9.962 21:19 17.10.2019
5994 -273 0 0 0 0 0 20:56 17.10.2019
5995 Clouds 2 1023 49 0 1.75 28.832 20:38 17.10.2019
5996 Clouds 2 1023 49 0 1.75 28.832 20:18 17.10.2019
5997 Clouds 2 1023 49 0 1.75 28.832 19:55 17.10.2019
5998 Clouds 2 1023 49 0 1.75 28.832 19:37 17.10.2019
5999 Clouds 2 1023 49 0 1.75 28.832 19:18 17.10.2019
6000 Clouds 2 1023 49 0 1.75 28.832 19:18 17.10.2019
6001 Clouds 2 1023 49 0 1.75 28.832 18:42 17.10.2019
6002 Clouds 4 1023 39 0 2.59 347.839 18:21 17.10.2019
6003 Clouds 4 1023 39 0 2.59 347.839 17:55 17.10.2019
6004 Clouds 4 1023 39 0 2.587 347 17:37 17.10.2019
6005 Clouds 4 1023 39 0 2.587 347 17:19 17.10.2019
6006 Clouds 4 1023 39 0 2.587 347 16:55 17.10.2019
6007 Clouds 4 1023 39 0 2.587 347 16:36 17.10.2019
6008 Clouds 4 1023 39 0 2.587 347 16:18 17.10.2019
6009 Clouds 4 1023 39 0 2.587 347 15:41 17.10.2019
6010 Clear 6 1019 31 0 2.935 340 15:21 17.10.2019
6011 Clear 6 1019 31 0 2.935 340 14:58 17.10.2019
6012 Clear 6 1019 29 0 1.612 355 14:39 17.10.2019
6013 Clear 6 1019 29 0 1.612 355 14:21 17.10.2019
6014 Clear 6 1019 29 0 1.612 355 13:42 17.10.2019
6015 Clear 6 1019 29 0 1.612 355 13:21 17.10.2019
6016 Clear 6 1019 29 0 1.612 355 12:58 17.10.2019
6017 Clear 6 1019 29 0 1.612 355 12:40 17.10.2019
6018 Clear 10 1016 19 0 1.336 268 12:20 17.10.2019
6019 Clear 10 1016 19 0 1.336 268 12:20 17.10.2019
6020 Clear 10 1016 19 0 1.336 268 11:57 17.10.2019
6021 Clear 10 1016 19 0 1.336 268 11:57 17.10.2019
6022 Clear 10 1016 19 0 1.336 268 11:38 17.10.2019
6023 Clear 10 1016 19 0 1.336 268 11:18 17.10.2019
6024 Clear 10 1016 19 0 1.336 268 10:42 17.10.2019
6025 Clear 10 1016 19 0 1.336 268 10:20 17.10.2019
6026 Clear 10 1016 19 0 1.336 268 09:59 17.10.2019
6027 Clear 10 1016 19 0 1.336 268 09:41 17.10.2019
6028 Clouds 9 1021 18 0 0.639 244 09:21 17.10.2019
6029 Clouds 9 1021 18 0 0.639 244 08:58 17.10.2019
6030 Clouds 9 1021 18 0 0.639 244 08:39 17.10.2019
6031 Clouds 9 1021 18 0 0.639 244 08:19 17.10.2019
6032 Clouds 9 1021 18 0 0.639 244 07:50 17.10.2019
6033 Clouds 9 1021 18 0 0.639 244 07:21 17.10.2019
6034 Clouds 9 1021 18 0 0.639 244 07:21 17.10.2019
6035 Clouds 9 1021 18 0 0.639 244 06:59 17.10.2019
6036 Clouds 9 1021 18 0 0.639 244 06:39 17.10.2019
6037 Clouds 5 1028 17 0 1.038 6 06:20 17.10.2019
6038 Clouds 5 1028 17 0 1.038 6 05:46 17.10.2019
6039 Clouds 5 1028 17 0 1.038 6 05:28 17.10.2019
6040 Clouds 5 1028 17 0 1.038 6 04:50 17.10.2019
6041 Clouds 5 1028 17 0 1.038 6 03:52 17.10.2019
6042 Clouds -1 1028 38 0 1.987 35 02:35 17.10.2019
6043 Clouds -1 1028 38 0 1.987 35 00:56 17.10.2019
6044 Clouds -1 1028 38 0 1.987 35 00:36 17.10.2019
6045 Clouds 2 1028 42 0 2.428 30 00:18 17.10.2019
6046 Clouds 2 1028 42 0 2.428 30 23:42 16.10.2019
6047 Clouds 2 1028 42 0 2.428 30 23:20 16.10.2019
6048 Clouds 2 1028 42 0 2.428 30 22:55 16.10.2019
6049 Clouds 2 1028 42 0 2.428 30 22:36 16.10.2019
6050 Clouds 2 1028 42 0 2.428 30 22:18 16.10.2019
6051 Clouds 2 1028 42 0 2.428 30 21:56 16.10.2019
6052 Clouds 2 1028 46 0 1.985 36 21:37 16.10.2019
6053 Clouds 2 1028 55 0 2.042 28 21:18 16.10.2019
6054 Clouds 2 1028 55 0 2.042 28 20:56 16.10.2019
6055 Clouds 2 1028 55 0 2.042 28 20:38 16.10.2019
6056 Clouds 2 1028 55 0 2.042 28 20:20 16.10.2019
6057 Clouds 2 1028 55 0 2.042 28 19:56 16.10.2019
6058 Clouds 2 1028 55 0 2.042 28 19:38 16.10.2019
6059 Clouds 2 1028 55 0 2.042 28 19:38 16.10.2019
6060 Clouds 2 1028 55 0 2.042 28 19:19 16.10.2019
6061 Clouds 2 1028 55 0 2.042 28 18:39 16.10.2019
6062 Clouds 2 1028 55 0 2.042 28 18:39 16.10.2019
6063 Clouds 4 1028 56 0 3.334 24 18:19 16.10.2019
6064 Clouds 4 1028 56 0 3.334 24 17:56 16.10.2019
6065 Clouds 4 1028 56 0 3.334 24 17:38 16.10.2019
6066 Clouds 4 1028 56 0 3.334 24 17:20 16.10.2019
6067 Clouds 4 1028 56 0 3.334 24 16:58 16.10.2019
6068 Clouds 4 1028 56 0 3.334 24 16:40 16.10.2019
6069 Clouds 4 1028 56 0 3.334 24 16:20 16.10.2019
6070 Clouds 4 1028 56 0 3.334 24 15:56 16.10.2019
6071 Clouds 4 1028 56 0 3.334 24 15:56 16.10.2019
6072 Clouds 4 1028 56 0 3.334 24 15:37 16.10.2019
6073 Clouds 5 1022 52 0 3.67 27 15:18 16.10.2019
6074 Clouds 5 1022 52 0 3.67 27 14:56 16.10.2019
6075 Clouds 5 1023 56 0 3.006 16 14:38 16.10.2019
6076 Clouds 5 1023 56 0 3.006 16 14:18 16.10.2019
6077 -273 0 0 0 0 0 13:56 16.10.2019
6078 Clouds 5 1023 56 0 3.006 16 13:56 16.10.2019
6079 Clouds 5 1023 56 0 3.006 16 13:37 16.10.2019
6080 Clouds 5 1023 56 0 3.006 16 13:18 16.10.2019
6081 Clouds 5 1023 56 0 3.006 16 12:41 16.10.2019
6082 Clouds 8 1017 45 0 6.923 355 12:19 16.10.2019
6083 Clouds 8 1017 45 0 6.923 355 11:43 16.10.2019
6084 Clouds 8 1017 45 0 6.923 355 11:18 16.10.2019
6085 Clouds 8 1017 45 0 6.923 355 10:40 16.10.2019
6086 Clouds 8 1017 45 0 6.923 355 10:22 16.10.2019
6087 Clouds 8 1017 45 0 6.923 355 09:58 16.10.2019
6088 Snow 7 1017 50 0 6.48 352 09:38 16.10.2019
6089 Clear 11 1018 29 0 2.216 185 09:20 16.10.2019
6090 Clear 11 1018 29 0 2.216 185 08:43 16.10.2019
6091 Clear 11 1018 29 0 2.216 185 08:25 16.10.2019
6092 Clear 11 1018 29 0 2.216 185 07:56 16.10.2019
6093 Clear 11 1018 29 0 2.216 185 07:38 16.10.2019
6094 Clear 11 1018 29 0 2.216 185 07:19 16.10.2019
6095 Clear 11 1018 29 0 2.216 185 06:40 16.10.2019
6096 Clear 6 1023 45 0 2.371 173 05:56 16.10.2019
6097 Clear 6 1023 45 0 2.371 173 03:33 16.10.2019
6098 Clear 0 1024 73 0 1.334 137 02:50 16.10.2019
6099 Clouds 0 1024 73 0 1.334 143 01:20 16.10.2019
6100 Clouds 0 1024 73 0 1.334 143 00:54 16.10.2019
6101 Clouds 0 1024 73 0 1.334 143 00:35 16.10.2019
6102 Clear 2 1023 69 0 1.489 42 23:42 15.10.2019
6103 Clear 2 1023 69 0 1.489 42 23:42 15.10.2019
6104 Clear 2 1023 69 0 1.489 42 23:22 15.10.2019
6105 Clear 2 1023 69 0 1.489 42 22:57 15.10.2019
6106 Clear 2 1023 69 0 1.489 42 22:38 15.10.2019
6107 Clear 2 1023 69 0 1.489 42 22:20 15.10.2019
6108 Clear 2 1023 69 0 1.489 42 21:56 15.10.2019
6109 Clear 2 1023 69 0 1.489 42 21:56 15.10.2019
6110 Clear 2 1023 69 0 1.489 42 21:56 15.10.2019
6111 Clouds 2 1023 64 0 1.23 61 21:38 15.10.2019
6112 Clouds 4 1022 61 0 1.481 34 21:20 15.10.2019
6113 Clouds 4 1022 61 0 1.481 34 20:58 15.10.2019
6114 Clouds 4 1022 61 0 1.481 34 20:39 15.10.2019
6115 Clouds 4 1022 61 0 1.481 34 20:20 15.10.2019
6116 Clouds 4 1022 61 0 1.481 34 19:59 15.10.2019
6117 Clouds 4 1022 61 0 1.481 34 19:40 15.10.2019
6118 Clouds 4 1022 61 0 1.481 34 19:40 15.10.2019
6119 Clouds 4 1022 61 0 1.481 34 19:20 15.10.2019
6120 Clouds 4 1022 61 0 1.481 34 18:48 15.10.2019
6121 Clouds 4 1022 61 0 1.481 34 18:30 15.10.2019
6122 Clouds 5 1022 52 0 1.993 32 17:59 15.10.2019
6123 Clouds 5 1022 52 0 1.993 32 17:41 15.10.2019
6124 Clouds 5 1022 52 0 1.993 32 17:41 15.10.2019
6125 Clouds 5 1022 52 0 1.993 32 17:41 15.10.2019
6126 Clouds 5 1022 52 0 1.993 32 17:20 15.10.2019
6127 Clouds 5 1022 52 0 1.993 32 17:20 15.10.2019
6128 Clouds 5 1022 52 0 1.993 32 16:58 15.10.2019
6129 Clouds 5 1022 52 0 1.993 32 16:39 15.10.2019
6130 Clouds 5 1022 52 0 1.993 32 16:20 15.10.2019
6131 Clouds 5 1022 52 0 1.993 32 15:55 15.10.2019
6132 Clouds 5 1022 52 0 1.993 32 15:55 15.10.2019
6133 Clouds 5 1022 52 0 1.993 32 15:36 15.10.2019
6134 Clouds 10 1018 28 0 0.79 332 15:18 15.10.2019
6135 Clouds 10 1018 30 0 1.568 38 14:38 15.10.2019
6136 Clouds 10 1018 30 0 1.568 38 14:20 15.10.2019
6137 Clouds 10 1018 30 0 1.568 38 13:58 15.10.2019
6138 Clouds 10 1018 30 0 1.568 38 13:40 15.10.2019
6139 Clouds 10 1018 30 0 1.568 38 13:19 15.10.2019
6140 Clouds 10 1018 30 0 1.568 38 12:44 15.10.2019
6141 Clouds 13 1014 23 0 3.49 199 12:22 15.10.2019
6142 Clouds 13 1014 23 0 3.49 199 11:57 15.10.2019
6143 Clouds 13 1014 23 0 3.49 199 11:57 15.10.2019
6144 Clouds 13 1014 23 0 3.49 199 11:38 15.10.2019
6145 Clouds 13 1014 23 0 3.49 199 11:19 15.10.2019
6146 Clouds 13 1014 23 0 3.49 199 10:45 15.10.2019
6147 Clouds 13 1014 23 0 3.49 199.328 10:22 15.10.2019
6148 Clouds 13 1014 23 0 3.49 199.328 09:58 15.10.2019
6149 Clouds 13 1014 23 0 3.49 199.328 09:39 15.10.2019
6150 Clear 11 1016 32 0 2.84 189.403 09:20 15.10.2019
6151 Clouds 11 1017 32 0 2.89 197.356 08:57 15.10.2019
6152 Clouds 11 1017 32 0 2.89 197.356 08:37 15.10.2019
6153 Clouds 11 1017 32 0 2.89 197.356 08:18 15.10.2019
6154 Clouds 11 1017 32 0 2.89 197.356 07:42 15.10.2019
6155 Clouds 11 1017 32 0 2.89 197.356 07:21 15.10.2019
6156 Clouds 11 1017 32 0 2.89 197.356 06:54 15.10.2019
6157 Clouds 11 1017 32 0 2.89 197.356 06:36 15.10.2019
6158 Clear 7 1022 47 0 2.25 172.591 05:56 15.10.2019
6159 Clear 7 1022 47 0 2.25 172.591 05:36 15.10.2019
6160 Clear 7 1022 47 0 2.25 172.591 04:40 15.10.2019
6161 Clear 7 1022 47 0 2.25 172.591 03:59 15.10.2019
6162 Clear 7 1022 47 0 2.25 172.591 03:30 15.10.2019
6163 Clear 1 1022 72 0 1.8 139.958 01:51 15.10.2019
6164 Clear 0 1023 72 0 1.85 139.694 01:24 15.10.2019
6165 Clear 0 1023 72 0 1.85 139.694 00:58 15.10.2019
6166 Clear 0 1023 72 0 1.85 139.694 00:24 15.10.2019
6167 Clear 2 1021 62 0 2.07 140.791 23:55 14.10.2019
6168 Clear 2 1021 62 0 2.07 140.791 23:36 14.10.2019
6169 Clear 2 1021 62 0 2.07 140.791 23:18 14.10.2019
6170 Clear 2 1021 62 0 2.07 140.791 22:39 14.10.2019
6171 Clear 2 1021 62 0 2.07 140.791 22:20 14.10.2019
6172 Clear 2 1021 62 0 2.07 140.791 21:57 14.10.2019
6173 Clear 2 1021 62 0 2.07 140.791 21:39 14.10.2019
6174 Clear 4 1020 51 0 2.3 135.741 21:20 14.10.2019
6175 Clouds 4 1020 52 0 2.25 138.034 20:56 14.10.2019
6176 Clouds 4 1020 52 0 2.25 138.034 20:38 14.10.2019
6177 Clouds 4 1020 52 0 2.25 138.034 20:38 14.10.2019
6178 Clouds 4 1020 52 0 2.25 138.034 20:18 14.10.2019
6179 Clouds 4 1020 52 0 2.245 138 19:43 14.10.2019
6180 Clouds 4 1020 52 0 2.245 138 19:25 14.10.2019
6181 Clouds 4 1020 52 0 2.25 138.034 18:59 14.10.2019
6182 Clouds 4 1020 52 0 2.25 138.034 18:40 14.10.2019
6183 Clouds 4 1020 52 0 2.25 138.034 18:40 14.10.2019
6184 Clouds 7 1020 38 0 2.92 167.588 18:20 14.10.2019
6185 Clouds 7 1020 38 0 2.92 167.588 18:20 14.10.2019
6186 Clouds 7 1020 38 0 2.92 167.588 17:58 14.10.2019
6187 Clouds 7 1020 38 0 2.92 167.588 17:40 14.10.2019
6188 Clouds 7 1020 38 0 2.92 167.588 17:22 14.10.2019
6189 Clouds 7 1020 38 0 2.92 167.588 16:44 14.10.2019
6190 Clouds 7 1020 38 0 2.92 167.588 16:22 14.10.2019
6191 Clouds 7 1020 38 0 2.92 167.588 15:58 14.10.2019
6192 Clouds 7 1020 38 0 2.92 167.588 15:38 14.10.2019
6193 Clouds 9 1015 30 0 0.9 242.322 15:20 14.10.2019
6194 Clouds 9 1015 30 0 0.9 242.322 14:43 14.10.2019
6195 Clouds 9 1015 30 0 0.9 242.322 14:24 14.10.2019
6196 Clouds 9 1015 30 0 0.9 242.322 13:57 14.10.2019
6197 Clouds 9 1015 30 0 0.9 242.322 13:39 14.10.2019
6198 Clouds 9 1015 33 0 1.8 177.228 13:20 14.10.2019
6199 -273 0 0 0 0 0 12:41 14.10.2019
6200 Clouds 14 1011 22 0 2.58 190.408 12:20 14.10.2019
6201 Clouds 14 1011 22 0 2.58 190.408 11:54 14.10.2019
6202 Clouds 14 1011 22 0 2.58 190.408 11:36 14.10.2019
6203 Clouds 14 1011 22 0 2.58 190.408 11:18 14.10.2019
6204 Clouds 14 1011 22 0 2.58 190.408 10:43 14.10.2019
6205 Clouds 14 1011 22 0 2.58 190.408 10:21 14.10.2019
6206 Clouds 14 1011 22 0 2.58 190.408 09:59 14.10.2019
6207 Clouds 14 1011 22 0 2.58 190.408 09:59 14.10.2019
6208 Clouds 14 1011 22 0 2.58 190.408 09:38 14.10.2019
6209 Clouds 14 1011 22 0 2.58 190.408 09:38 14.10.2019
6210 Clear 11 1015 32 0 2.92 184.919 09:19 14.10.2019
6211 Clear 11 1015 32 0 2.92 184.919 08:47 14.10.2019
6212 Clear 11 1015 32 0 2.92 184.919 08:23 14.10.2019
6213 Clear 11 1015 32 0 2.92 184.919 07:44 14.10.2019
6214 Clear 11 1015 32 0 2.92 184.919 07:21 14.10.2019
6215 Clear 11 1015 32 0 2.92 184.919 06:55 14.10.2019
6216 Clear 11 1015 32 0 2.92 184.919 06:27 14.10.2019
6217 Clear 7 1021 47 0 2.81 167.797 05:52 14.10.2019
6218 Clear 7 1021 47 0 2.81 167.797 04:51 14.10.2019
6219 Clear 7 1021 47 0 2.81 167.797 03:48 14.10.2019
6220 Clear 1 1021 76 0 2.39 144.239 03:22 14.10.2019
6221 Clear 1 1021 76 0 2.39 144.239 01:52 14.10.2019
6222 Clear 1 1021 75 0 2.29 143.982 01:18 14.10.2019
6223 Clear 1 1021 75 0 2.29 143.982 00:36 14.10.2019
6224 Clear 3 1019 62 0 2.16 145.296 00:18 14.10.2019
6225 Clear 3 1019 62 0 2.16 145.296 23:40 13.10.2019
6226 Clear 3 1019 62 0 2.16 145.296 23:19 13.10.2019
6227 Clear 3 1019 62 0 2.16 145.296 22:54 13.10.2019
6228 Clear 3 1019 62 0 2.16 145.296 22:36 13.10.2019
6229 Clear 3 1019 62 0 2.16 145.296 22:18 13.10.2019
6230 Clear 3 1019 62 0 2.16 145.296 22:18 13.10.2019
6231 Clear 3 1019 62 0 2.16 145.296 21:55 13.10.2019
6232 Clear 3 1019 62 0 2.16 145.296 21:36 13.10.2019
6233 Clear 5 1019 39 0 2.17 138.988 21:18 13.10.2019
6234 Clear 5 1019 39 0 2.17 138.988 21:18 13.10.2019
6235 Clear 5 1019 39 0 2.17 138.988 20:55 13.10.2019
6236 Clear 5 1019 39 0 2.17 138.988 20:55 13.10.2019
6237 Clear 5 1019 42 0 2.08 136.207 20:36 13.10.2019
6238 Clear 5 1019 42 0 2.08 136.207 20:18 13.10.2019
6239 Clear 5 1019 42 0 2.08 136.207 19:40 13.10.2019
6240 Clear 5 1019 42 0 2.08 136.207 19:22 13.10.2019
6241 Clear 5 1019 42 0 2.08 136.207 18:59 13.10.2019
6242 Clear 5 1019 42 0 2.08 136.207 18:38 13.10.2019
6243 Clear 6 1018 31 0 0.76 337.363 18:20 13.10.2019
6244 Clear 6 1018 31 0 0.76 337.363 17:59 13.10.2019
6245 Clear 6 1018 31 0 0.76 337.363 17:40 13.10.2019
6246 Clear 6 1018 31 0 0.76 337.363 17:22 13.10.2019
6247 Clear 6 1018 31 0 0.76 337.363 17:22 13.10.2019
6248 Clear 6 1018 31 0 0.76 337.363 16:43 13.10.2019
6249 Clear 6 1018 31 0 0.76 337.363 16:19 13.10.2019
6250 Clear 6 1018 31 0 0.76 337.363 15:57 13.10.2019
6251 Clear 6 1018 31 0 0.76 337.363 15:39 13.10.2019
6252 Clouds 8 1013 28 0 0.9 74.806 15:20 13.10.2019
6253 Clouds 8 1013 28 0 0.9 74.806 15:20 13.10.2019
6254 Clouds 8 1013 28 0 0.9 74.806 14:58 13.10.2019
6255 Clouds 8 1013 28 0 0.9 74.806 14:39 13.10.2019
6256 Clouds 8 1013 28 0 0.9 74.806 14:20 13.10.2019
6257 Clouds 8 1013 28 0 0.9 74.806 13:56 13.10.2019
6258 Clouds 8 1013 28 0 0.9 74.806 13:37 13.10.2019
6259 Clouds 8 1013 31 0 0.98 8.693 13:18 13.10.2019
6260 Clouds 8 1013 31 0 0.98 8.693 12:55 13.10.2019
6261 Clouds 8 1013 31 0 0.98 8.693 12:37 13.10.2019
6262 Clouds 14 1011 19 0 1.19 200.32 12:18 13.10.2019
6263 Clouds 14 1011 19 0 1.19 200.32 11:55 13.10.2019
6264 Clouds 14 1011 19 0 1.19 200.32 11:36 13.10.2019
6265 Clouds 14 1011 19 0 1.19 200.32 11:18 13.10.2019
6266 Clouds 14 1011 19 0 1.19 200.32 10:41 13.10.2019
6267 Clouds 14 1011 19 0 1.19 200.32 10:22 13.10.2019
6268 Clouds 14 1011 19 0 1.19 200.32 09:41 13.10.2019
6269 Clear 12 1014 26 0 2.63 186.631 09:21 13.10.2019
6270 Clear 12 1014 26 0 2.56 185.263 08:57 13.10.2019
6271 Clear 12 1014 26 0 2.56 185.263 08:38 13.10.2019
6272 Clear 12 1014 26 0 2.56 185.263 08:19 13.10.2019
6273 Clear 12 1014 26 0 2.56 185.263 07:46 13.10.2019
6274 Clear 12 1014 26 0 2.56 185.263 06:59 13.10.2019
6275 Clear 12 1014 26 0 2.56 185.263 06:40 13.10.2019
6276 Clear 8 1019 44 0 2.08 173.721 05:34 13.10.2019
6277 Clear 8 1019 44 0 2.08 173.721 04:46 13.10.2019
6278 Clear 8 1019 44 0 2.08 173.721 03:40 13.10.2019
6279 Clear 1 1020 65 0 1.62 132.846 02:39 13.10.2019
6280 Clear 1 1020 65 0 1.62 132.846 01:53 13.10.2019
6281 Clear 1 1021 65 0 1.71 134.311 01:26 13.10.2019
6282 Clear 1 1021 65 0 1.71 134.311 01:26 13.10.2019
6283 Clear 1 1021 65 0 1.71 134.311 00:46 13.10.2019
6284 Clear 3 1018 59 0 1.63 136.77 00:21 13.10.2019
6285 Clear 3 1018 59 0 1.63 136.77 23:55 12.10.2019
6286 Clear 3 1018 59 0 1.63 136.77 23:36 12.10.2019
6287 Clear 3 1018 59 0 1.63 136.77 23:18 12.10.2019
6288 Clear 3 1018 59 0 1.63 136.77 22:56 12.10.2019
6289 Clear 3 1018 59 0 1.63 136.77 22:37 12.10.2019
6290 Clear 3 1018 59 0 1.63 136.77 22:37 12.10.2019
6291 Clear 3 1018 59 0 1.63 136.77 22:19 12.10.2019
6292 Clear 3 1018 59 0 1.63 136.77 21:42 12.10.2019
6293 Clear 5 1018 53 0 2.23 147.738 21:24 12.10.2019
6294 Clear 5 1018 53 0 2.23 147.738 20:58 12.10.2019
6295 Clear 5 1018 51 0 2.13 148.602 20:39 12.10.2019
6296 Clear 5 1018 51 0 2.13 148.602 20:21 12.10.2019
6297 Clear 5 1018 51 0 2.13 148.602 19:37 12.10.2019
6298 Clear 5 1018 51 0 2.13 148.602 19:19 12.10.2019
6299 -273 0 0 0 0 0 18:56 12.10.2019
6300 Clear 5 1018 51 0 2.13 148.602 18:37 12.10.2019
6301 Clear 7 1017 40 0 2.02 176.394 18:19 12.10.2019
6302 Clear 7 1017 40 0 2.02 176.394 17:42 12.10.2019
6303 Clear 7 1017 40 0 2.02 176.394 17:19 12.10.2019
6304 Clear 7 1017 40 0 2.02 176.394 16:54 12.10.2019
6305 Clear 7 1017 40 0 2.02 176.394 16:36 12.10.2019
6306 Clear 7 1017 40 0 2.02 176.394 16:18 12.10.2019
6307 Clear 7 1017 40 0 2.02 176.394 15:43 12.10.2019
6308 Clear 8 1012 32 0 0.42 242.511 15:23 12.10.2019
6309 Clear 8 1012 32 0 0.42 242.511 14:43 12.10.2019
6310 Clear 8 1012 32 0 0.42 242.511 14:22 12.10.2019
6311 Clear 8 1012 32 0 0.42 242.511 13:58 12.10.2019
6312 Clear 8 1012 32 0 0.42 242.511 13:40 12.10.2019
6313 Clear 8 1012 32 0 0.42 242.511 13:40 12.10.2019
6314 Clear 9 1012 33 0 0.51 264.602 13:21 12.10.2019
6315 Clear 9 1012 33 0 0.51 264.602 12:39 12.10.2019
6316 Clear 14 1009 21 0 1.19 187.406 12:21 12.10.2019
6317 Clear 14 1009 21 0 1.19 187.406 11:58 12.10.2019
6318 Clear 14 1009 21 0 1.19 187.406 11:39 12.10.2019
6319 Clear 14 1009 21 0 1.19 187.406 11:20 12.10.2019
6320 Clear 14 1009 21 0 1.19 187.406 10:43 12.10.2019
6321 Clear 14 1009 21 0 1.19 187.406 10:23 12.10.2019
6322 Clear 14 1009 21 0 1.19 187.406 09:58 12.10.2019
6323 Clear 14 1009 21 0 1.19 187.406 09:58 12.10.2019
6324 Clear 14 1009 21 0 1.19 187.406 09:39 12.10.2019
6325 Clear 12 1013 31 0 2.56 182.504 09:21 12.10.2019
6326 Clear 12 1013 31 0 2.6 185.206 08:57 12.10.2019
6327 Clear 12 1013 31 0 2.6 185.206 08:38 12.10.2019
6328 Clear 12 1013 31 0 2.6 185.206 08:19 12.10.2019
6329 Clear 12 1013 31 0 2.6 185.206 07:35 12.10.2019
6330 Clear 12 1013 31 0 2.6 185.206 06:56 12.10.2019
6331 Clear 7 1018 47 0 2.63 166.855 05:47 12.10.2019
6332 Clear 7 1018 47 0 2.63 166.855 05:23 12.10.2019
6333 Clear 7 1018 47 0 2.63 166.855 04:24 12.10.2019
6334 Clear 7 1018 47 0 2.63 166.855 03:31 12.10.2019
6335 Clear 1 1019 68 0 1.38 116.602 01:45 12.10.2019
6336 Clear 1 1019 67 0 1.24 112.84 01:21 12.10.2019
6337 Clear 1 1019 67 0 1.24 112.84 00:42 12.10.2019
6338 Clear 2 1018 54 0 1.29 44.122 23:59 11.10.2019
6339 Clear 2 1018 54 0 1.29 44.122 23:40 11.10.2019
6340 Clear 2 1018 54 0 1.29 44.122 23:20 11.10.2019
6341 Clear 2 1018 54 0 1.29 44.122 22:41 11.10.2019
6342 Clear 2 1018 54 0 1.29 44.122 22:21 11.10.2019
6343 Clear 2 1018 54 0 1.29 44.122 21:57 11.10.2019
6344 Clear 2 1018 54 0 1.29 44.122 21:39 11.10.2019
6345 Clouds 4 1018 38 0 0.87 88.881 21:20 11.10.2019
6346 Clouds 4 1018 38 0 1.59 47.501 20:44 11.10.2019
6347 Clouds 4 1018 38 0 1.59 47.501 20:26 11.10.2019
6348 Clouds 4 1018 38 0 1.59 47.501 19:58 11.10.2019
6349 Clouds 4 1018 38 0 1.59 47.501 19:39 11.10.2019
6350 Clouds 4 1018 38 0 1.59 47.501 19:39 11.10.2019
6351 Clouds 4 1018 38 0 1.59 47.501 19:18 11.10.2019
6352 Clouds 4 1018 38 0 1.59 47.501 18:59 11.10.2019
6353 Clouds 4 1018 38 0 1.59 47.501 18:38 11.10.2019
6354 Clear 6 1017 29 0 1.6 2.047 18:19 11.10.2019
6355 Clear 6 1017 29 0 1.6 2.047 18:19 11.10.2019
6356 Clear 6 1017 29 0 1.6 2.047 18:19 11.10.2019
6357 Clear 6 1017 29 0 1.6 2.047 17:58 11.10.2019
6358 Clear 6 1017 29 0 1.6 2.047 17:38 11.10.2019
6359 Clear 6 1017 29 0 1.6 2.047 17:19 11.10.2019
6360 Clear 6 1017 29 0 1.6 2.047 16:58 11.10.2019
6361 Clear 6 1017 29 0 1.6 2.047 16:39 11.10.2019
6362 Clear 6 1017 29 0 1.6 2.047 16:19 11.10.2019
6363 Clear 6 1017 29 0 1.6 2.047 15:42 11.10.2019
6364 Clouds 8 1013 32 0 0.21 251.65 15:22 11.10.2019
6365 Clouds 8 1013 32 0 0.21 251.65 14:59 11.10.2019
6366 Clouds 8 1013 32 0 0.21 251.65 14:40 11.10.2019
6367 Clouds 8 1013 32 0 0.21 251.65 14:21 11.10.2019
6368 Clouds 8 1013 32 0 0.21 251.65 13:45 11.10.2019
6369 Clouds 8 1013 31 0 0.47 271.601 13:25 11.10.2019
6370 Clouds 8 1013 31 0 0.47 271.601 12:58 11.10.2019
6371 Clouds 8 1013 31 0 0.47 271.601 12:39 11.10.2019
6372 Clouds 14 1009 20 0 2.1 206.565 12:20 11.10.2019
6373 Clouds 14 1009 20 0 2.1 206.565 11:58 11.10.2019
6374 Clouds 14 1009 20 0 2.1 206.565 11:39 11.10.2019
6375 Clouds 14 1009 20 0 2.1 206.565 11:39 11.10.2019
6376 Clouds 14 1009 20 0 2.1 206.565 11:20 11.10.2019
6377 Clouds 14 1009 20 0 2.1 206.565 10:56 11.10.2019
6378 Clouds 14 1009 20 0 2.1 206.565 10:56 11.10.2019
6379 Clouds 14 1009 20 0 2.1 206.565 10:36 11.10.2019
6380 Clouds 14 1009 20 0 2.1 206.565 10:18 11.10.2019
6381 Clouds 14 1009 20 0 2.1 206.565 09:42 11.10.2019
6382 Clear 12 1012 28 0 2.86 198.568 09:21 11.10.2019
6383 Clear 12 1012 28 0 2.86 198.568 08:59 11.10.2019
6384 Clear 12 1012 28 0 2.86 198.568 08:39 11.10.2019
6385 Clear 12 1012 28 0 2.86 198.568 08:20 11.10.2019
6386 Clear 12 1012 28 0 2.86 198.568 07:54 11.10.2019
6387 Clear 12 1012 28 0 2.86 198.568 07:34 11.10.2019
6388 Clear 12 1012 28 0 2.86 198.568 06:50 11.10.2019
6389 Clear 12 1012 28 0 2.86 198.568 06:25 11.10.2019
6390 Clear 8 1018 46 0 2.46 174.818 05:48 11.10.2019
6391 Clear 8 1018 46 0 2.46 174.818 05:30 11.10.2019
6392 Clear 8 1018 46 0 2.46 174.818 04:58 11.10.2019
6393 Clear 8 1018 46 0 2.46 174.818 03:40 11.10.2019
6394 Clear 2 1020 69 0 1.77 136.967 01:28 11.10.2019
6395 Clear 2 1020 69 0 1.77 136.967 00:41 11.10.2019
6396 Clear 3 1018 62 0 1.61 139.611 00:20 11.10.2019
6397 Clear 3 1018 62 0 1.61 139.611 00:20 11.10.2019
6398 Clear 3 1018 62 0 1.61 139.611 23:41 10.10.2019
6399 Clear 3 1018 62 0 1.61 139.611 23:20 10.10.2019
6400 Clear 3 1018 62 0 1.61 139.611 22:56 10.10.2019
6401 Clear 3 1018 62 0 1.61 139.611 22:36 10.10.2019
6402 Clear 3 1018 62 0 1.61 139.611 22:18 10.10.2019
6403 Clear 3 1018 62 0 1.61 139.611 22:18 10.10.2019
6404 Clear 3 1018 62 0 1.61 139.611 21:42 10.10.2019
6405 Clear 5 1017 52 0 1.98 143.286 21:22 10.10.2019
6406 Clear 5 1018 51 0 2.17 147.387 20:59 10.10.2019
6407 Clear 5 1018 51 0 2.17 147.387 20:40 10.10.2019
6408 Clear 5 1018 51 0 2.17 147.387 20:20 10.10.2019
6409 Clear 5 1018 51 0 2.17 147.387 19:57 10.10.2019
6410 Clear 5 1018 51 0 2.17 147.387 19:39 10.10.2019
6411 Clear 5 1018 51 0 2.17 147.387 19:19 10.10.2019
6412 -273 0 0 0 0 0 18:54 10.10.2019
6413 Clear 5 1018 51 0 2.17 147.387 18:36 10.10.2019
6414 Clear 6 1016 38 0 0.54 139.364 18:18 10.10.2019
6415 -273 0 0 0 0 0 17:40 10.10.2019
6416 Clear 6 1016 38 0 0.54 139.364 17:19 10.10.2019
6417 Clear 6 1016 38 0 0.54 139.364 16:58 10.10.2019
6418 Clear 6 1016 38 0 0.54 139.364 16:39 10.10.2019
6419 Clear 6 1016 38 0 0.54 139.364 16:21 10.10.2019
6420 Clear 6 1016 38 0 0.54 139.364 15:43 10.10.2019
6421 Clouds 9 1012 30 0 0.88 64.05 15:23 10.10.2019
6422 Clouds 9 1012 30 0 0.88 64.05 14:59 10.10.2019
6423 Clouds 9 1012 30 0 0.88 64.05 14:37 10.10.2019
6424 Clouds 9 1012 30 0 0.88 64.05 14:19 10.10.2019
6425 Clouds 9 1012 30 0 0.88 64.05 13:58 10.10.2019
6426 Clouds 9 1012 30 0 0.88 64.05 13:39 10.10.2019
6427 Clouds 9 1011 32 0 0.98 97.973 13:18 10.10.2019
6428 Clouds 9 1011 32 0 0.98 97.973 12:54 10.10.2019
6429 Clouds 9 1011 32 0 0.98 97.973 12:36 10.10.2019
6430 Clouds 14 1008 20 0 0.78 215.359 12:18 10.10.2019
6431 Clouds 14 1008 20 0 0.78 215.359 11:41 10.10.2019
6432 Clouds 14 1008 20 0 0.78 215.359 11:20 10.10.2019
6433 Clouds 14 1008 20 0 0.78 215.359 11:20 10.10.2019
6434 Clouds 14 1008 20 0 0.78 215.359 10:58 10.10.2019
6435 Clouds 14 1008 20 0 0.78 215.359 10:40 10.10.2019
6436 Clouds 14 1008 20 0 0.78 215.359 10:21 10.10.2019
6437 Clouds 14 1008 20 0 0.78 215.359 09:41 10.10.2019
6438 Clouds 14 1008 20 0 0.78 215.359 09:41 10.10.2019
6439 Clouds 12 1012 32 0 2.76 196.21 09:23 10.10.2019
6440 Clouds 12 1012 31 0 2.64 196.271 08:59 10.10.2019
6441 Clouds 12 1012 31 0 2.64 196.271 08:41 10.10.2019
6442 Clouds 12 1012 31 0 2.64 196.271 08:21 10.10.2019
6443 Clouds 12 1012 31 0 2.64 196.271 07:57 10.10.2019
6444 Clouds 12 1012 31 0 2.64 196.271 07:36 10.10.2019
6445 Clouds 12 1012 31 0 2.64 196.271 07:18 10.10.2019
6446 Clouds 12 1012 31 0 2.64 196.271 06:39 10.10.2019
6447 Clouds 8 1018 47 0 2.67 174.249 05:56 10.10.2019
6448 Clouds 8 1018 47 0 2.67 174.249 05:21 10.10.2019
6449 Clouds 8 1018 47 0 2.67 174.249 04:36 10.10.2019
6450 Clear 2 1019 70 0 1.57 140.896 02:46 10.10.2019
6451 Clear 2 1019 70 0 1.57 140.896 01:39 10.10.2019
6452 Clear 2 1019 69 0 1.62 139.66 01:21 10.10.2019
6453 Clear 2 1019 69 0 1.62 139.66 00:41 10.10.2019
6454 Clear 4 1017 63 0 2.06 146.086 23:57 09.10.2019
6455 Clear 4 1017 63 0 2.06 146.086 23:36 09.10.2019
6456 Clear 4 1017 63 0 2.06 146.086 23:18 09.10.2019
6457 Clear 4 1017 63 0 2.06 146.086 22:42 09.10.2019
6458 Clear 4 1017 63 0 2.06 146.086 22:22 09.10.2019
6459 Clear 4 1017 63 0 2.06 146.086 21:58 09.10.2019
6460 Clear 4 1017 63 0 2.06 146.086 21:39 09.10.2019
6461 Clear 4 1017 63 0 2.06 146.086 21:39 09.10.2019
6462 Clouds 6 1017 56 0 2.33 151.529 21:19 09.10.2019
6463 Clouds 6 1016 55 0 2.44 151.661 20:55 09.10.2019
6464 Clouds 6 1016 55 0 2.44 151.661 20:37 09.10.2019
6465 Clouds 6 1016 55 0 2.44 151.661 20:18 09.10.2019
6466 Clouds 6 1016 55 0 2.44 151.661 19:45 09.10.2019
6467 Clouds 6 1016 55 0 2.44 151.661 19:23 09.10.2019
6468 Clouds 6 1016 55 0 2.44 151.661 18:56 09.10.2019
6469 Clouds 6 1016 55 0 2.44 151.661 18:37 09.10.2019
6470 Clouds 9 1016 44 0 2.84 169.09 18:18 09.10.2019
6471 Clouds 9 1016 44 0 2.84 169.09 17:54 09.10.2019
6472 Clouds 9 1016 44 0 2.84 169.09 17:36 09.10.2019
6473 Clouds 9 1016 44 0 2.84 169.09 17:18 09.10.2019
6474 Clouds 9 1016 44 0 2.84 169.09 16:40 09.10.2019
6475 Clouds 9 1016 44 0 2.84 169.09 16:21 09.10.2019
6476 Clouds 9 1016 44 0 2.84 169.09 16:21 09.10.2019
6477 Clouds 9 1016 44 0 2.84 169.09 15:57 09.10.2019
6478 Clouds 9 1016 44 0 2.84 169.09 15:57 09.10.2019
6479 Clouds 9 1016 44 0 2.84 169.09 15:39 09.10.2019
6480 Clouds 11 1011 34 0 1.68 121.139 15:19 09.10.2019
6481 Clouds 11 1011 34 0 1.68 121.139 14:56 09.10.2019
6482 Clouds 11 1011 34 0 1.68 121.139 14:37 09.10.2019
6483 Clouds 11 1011 34 0 1.68 121.139 14:18 09.10.2019
6484 Clouds 11 1011 34 0 1.68 121.139 13:39 09.10.2019
6485 Clouds 11 1011 34 0 1.2 103.353 13:20 09.10.2019
6486 Clouds 11 1011 34 0 1.2 103.353 12:58 09.10.2019
6487 Clouds 11 1011 34 0 1.2 103.353 12:40 09.10.2019
6488 Clouds 14 1007 23 0 1.02 227.272 12:21 09.10.2019
6489 Clouds 14 1007 23 0 1.02 227.272 11:55 09.10.2019
6490 Clouds 14 1007 23 0 1.02 227.272 11:36 09.10.2019
6491 Clouds 14 1007 23 0 1.02 227.272 11:18 09.10.2019
6492 Clouds 14 1007 23 0 1.02 227.272 10:43 09.10.2019
6493 Clouds 14 1007 23 0 1.02 227.272 10:21 09.10.2019
6494 Clouds 14 1007 23 0 1.02 227.272 09:57 09.10.2019
6495 Clouds 14 1007 23 0 1.02 227.272 09:38 09.10.2019
6496 Clouds 12 1012 33 0 2.71 200.892 09:18 09.10.2019
6497 Clear 12 1012 32 0 2.71 207.787 08:40 09.10.2019
6498 Clear 12 1012 32 0 2.71 207.787 08:21 09.10.2019
6499 Clear 12 1012 32 0 2.71 207.787 07:54 09.10.2019
6500 Clear 12 1012 32 0 2.71 207.787 07:36 09.10.2019
6501 Clear 12 1012 32 0 2.71 207.787 07:18 09.10.2019
6502 Clear 12 1012 32 0 2.71 207.787 06:47 09.10.2019
6503 Clouds 9 1018 47 0 2.51 180.547 05:55 09.10.2019
6504 Clouds 9 1018 47 0 2.51 180.547 05:23 09.10.2019
6505 Clouds 9 1018 47 0 2.51 180.547 04:20 09.10.2019
6506 Clouds 4 1021 71 0 1.99 152.753 02:45 09.10.2019
6507 Clouds 4 1021 71 0 1.99 152.753 01:42 09.10.2019
6508 Clouds 4 1020 73 0 2.06 146.664 01:19 09.10.2019
6509 Clouds 4 1020 73 0 2.06 146.664 01:19 09.10.2019
6510 Clouds 4 1020 73 0 2.06 146.664 00:56 09.10.2019
6511 Clouds 4 1020 73 0 2.06 146.664 00:38 09.10.2019
6512 Clouds 4 1020 73 0 2.06 146.664 00:38 09.10.2019
6513 Clouds 4 1020 73 0 2.06 146.664 00:38 09.10.2019
6514 Clouds 5 1019 71 0 1.91 143.454 00:19 09.10.2019
6515 Clouds 5 1019 71 0 1.91 143.454 23:39 08.10.2019
6516 Clouds 5 1019 71 0 1.91 143.454 23:18 08.10.2019
6517 Clouds 5 1019 71 0 1.91 143.454 22:56 08.10.2019
6518 Clouds 5 1019 71 0 1.91 143.454 22:38 08.10.2019
6519 Clouds 5 1019 71 0 1.91 143.454 22:19 08.10.2019
6520 Clouds 5 1019 71 0 1.91 143.454 21:57 08.10.2019
6521 Clouds 5 1019 71 0 1.91 143.454 21:38 08.10.2019
6522 Rain 6 1019 68 0 1.99 160.424 21:18 08.10.2019
6523 Rain 6 1019 68 0 1.99 160.424 20:55 08.10.2019
6524 Rain 6 1019 68 0 2.01 153.46 20:37 08.10.2019
6525 Rain 6 1019 68 0 2.01 153.46 20:37 08.10.2019
6526 Rain 6 1019 68 0 2.01 153.46 20:19 08.10.2019
6527 Rain 6 1019 68 0 2.01 153.46 19:56 08.10.2019
6528 Rain 6 1019 68 0 2.01 153.46 19:36 08.10.2019
6529 Rain 6 1019 68 0 2.01 153.46 19:18 08.10.2019
6530 Rain 6 1019 68 0 2.01 153.46 18:45 08.10.2019
6531 Rain 6 1019 68 0 2.01 153.46 18:25 08.10.2019
6532 Rain 7 1017 66 0 1.4 171.313 17:58 08.10.2019
6533 Rain 7 1017 66 0 1.4 171.313 17:39 08.10.2019
6534 Rain 7 1017 66 0 1.4 171.313 17:39 08.10.2019
6535 Rain 7 1017 66 0 1.4 171.313 17:20 08.10.2019
6536 Rain 7 1017 66 0 1.4 171.313 16:56 08.10.2019
6537 Rain 7 1017 66 0 1.4 171.313 16:56 08.10.2019
6538 Rain 7 1017 66 0 1.4 171.313 16:37 08.10.2019
6539 Rain 7 1017 66 0 1.4 171.313 16:19 08.10.2019
6540 Rain 7 1017 66 0 1.4 171.313 15:40 08.10.2019
6541 Rain 9 1013 54 0 1.75 92.65 15:20 08.10.2019
6542 Rain 9 1013 54 0 1.75 92.65 15:20 08.10.2019
6543 Rain 9 1013 54 0 1.75 92.65 14:57 08.10.2019
6544 Rain 9 1013 54 0 1.75 92.65 14:38 08.10.2019
6545 Rain 9 1013 54 0 1.75 92.65 14:19 08.10.2019
6546 Rain 9 1013 54 0 1.75 92.65 13:55 08.10.2019
6547 Rain 9 1013 54 0 1.75 92.65 13:55 08.10.2019
6548 Rain 9 1013 54 0 1.75 92.65 13:37 08.10.2019
6549 Rain 9 1013 54 0 1.75 92.65 13:37 08.10.2019
6550 Rain 9 1013 54 0 1.75 92.65 13:18 08.10.2019
6551 Clouds 10 1013 47 0 0.74 191.676 12:41 08.10.2019
6552 Clouds 14 1010 33 0 2.24 241.821 12:20 08.10.2019
6553 Clouds 14 1010 33 0 2.24 241.821 11:58 08.10.2019
6554 Clouds 14 1010 33 0 2.24 241.821 11:39 08.10.2019
6555 Clouds 14 1010 33 0 2.24 241.821 11:21 08.10.2019
6556 Clouds 14 1010 33 0 2.24 241.821 10:55 08.10.2019
6557 Clouds 14 1010 33 0 2.24 241.821 10:36 08.10.2019
6558 Clouds 14 1010 33 0 2.24 241.821 10:18 08.10.2019
6559 Clouds 14 1010 33 0 2.24 241.821 09:41 08.10.2019
6560 Clouds 13 1014 37 0 3.1 182.037 09:22 08.10.2019
6561 Clouds 13 1014 37 0 3.1 182.037 08:54 08.10.2019
6562 Clouds 13 1014 36 0 3.12 183.657 08:36 08.10.2019
6563 Clouds 13 1014 36 0 3.12 183.657 08:18 08.10.2019
6564 Clouds 13 1014 36 0 3.12 183.657 07:41 08.10.2019
6565 Clouds 13 1014 36 0 3.12 183.657 07:19 08.10.2019
6566 Clouds 13 1014 36 0 3.12 183.657 06:46 08.10.2019
6567 Clear 10 1019 47 0 2.28 173.336 06:23 08.10.2019
6568 Clear 10 1019 47 0 2.28 173.336 05:43 08.10.2019
6569 Clear 10 1019 47 0 2.28 173.336 05:21 08.10.2019
6570 Clear 10 1019 47 0 2.28 173.336 03:32 08.10.2019
6571 Clouds 4 1021 71 0 1.84 143.877 02:44 08.10.2019
6572 Clouds 4 1021 71 0 1.84 143.877 02:25 08.10.2019
6573 Clouds 4 1021 71 0 1.84 143.877 01:42 08.10.2019
6574 Clouds 4 1021 72 0 1.7 143.697 00:57 08.10.2019
6575 Clouds 4 1021 72 0 1.7 143.697 00:25 08.10.2019
6576 Clouds 6 1019 67 0 2.06 148.329 23:58 07.10.2019
6577 Clouds 6 1019 67 0 2.06 148.329 23:38 07.10.2019
6578 Clouds 6 1019 67 0 2.06 148.329 23:19 07.10.2019
6579 Clouds 6 1019 67 0 2.06 148.329 23:19 07.10.2019
6580 Clouds 6 1019 67 0 2.06 148.329 22:55 07.10.2019
6581 Clouds 6 1019 67 0 2.06 148.329 22:37 07.10.2019
6582 Clouds 6 1019 67 0 2.06 148.329 22:18 07.10.2019
6583 Clouds 6 1019 67 0 2.06 148.329 21:54 07.10.2019
6584 Clouds 6 1019 67 0 2.06 148.329 21:36 07.10.2019
6585 Clouds 6 1019 67 0 2.06 148.329 21:36 07.10.2019
6586 Rain 8 1020 62 0 1.86 174.044 21:18 07.10.2019
6587 Rain 8 1019 63 0 1.83 159.704 20:56 07.10.2019
6588 Rain 8 1019 63 0 1.83 159.704 20:56 07.10.2019
6589 Rain 8 1019 63 0 1.83 159.704 20:37 07.10.2019
6590 Rain 8 1019 63 0 1.83 159.704 20:18 07.10.2019
6591 Rain 8 1019 63 0 1.83 159.704 19:41 07.10.2019
6592 Rain 8 1019 63 0 1.83 159.704 19:21 07.10.2019
6593 Rain 8 1019 63 0 1.83 159.704 18:59 07.10.2019
6594 Rain 8 1019 63 0 1.83 159.704 18:59 07.10.2019
6595 Rain 8 1019 63 0 1.83 159.704 18:41 07.10.2019
6596 Rain 10 1019 51 0 1.11 135.182 18:19 07.10.2019
6597 Rain 10 1019 51 0 1.11 135.182 17:56 07.10.2019
6598 Rain 10 1019 51 0 1.11 135.182 17:38 07.10.2019
6599 Rain 10 1019 51 0 1.11 135.182 17:18 07.10.2019
6600 Rain 10 1019 51 0 1.11 135.182 16:44 07.10.2019
6601 Rain 10 1019 51 0 1.11 135.182 16:26 07.10.2019
6602 Rain 10 1019 51 0 1.11 135.182 15:57 07.10.2019
6603 Rain 10 1019 51 0 1.11 135.182 15:38 07.10.2019
6604 Clouds 13 1014 38 0 1.7 313.382 15:20 07.10.2019
6605 Clouds 13 1014 38 0 1.7 313.382 14:41 07.10.2019
6606 Clouds 13 1014 38 0 1.7 313.382 14:23 07.10.2019
6607 Clouds 13 1014 38 0 1.7 313.382 13:45 07.10.2019
6608 Clouds 12 1014 44 0 0.48 327.714 13:21 07.10.2019
6609 Clouds 12 1014 44 0 0.48 327.714 12:58 07.10.2019
6610 Clouds 12 1014 44 0 0.48 327.714 12:58 07.10.2019
6611 Clouds 12 1014 44 0 0.48 327.714 12:40 07.10.2019
6612 Clear 16 1012 29 0 0.61 228.062 12:21 07.10.2019
6613 Clear 16 1012 29 0 0.61 228.062 11:59 07.10.2019
6614 Clear 16 1012 29 0 0.61 228.062 11:40 07.10.2019
6615 Clear 16 1012 29 0 0.61 228.062 11:40 07.10.2019
6616 Clear 16 1012 29 0 0.61 228.062 11:21 07.10.2019
6617 Clear 16 1012 29 0 0.61 228.062 10:56 07.10.2019
6618 Clear 16 1012 29 0 0.61 228.062 10:37 07.10.2019
6619 Clear 16 1012 29 0 0.61 228.062 10:37 07.10.2019
6620 Clear 16 1012 29 0 0.61 228.062 10:19 07.10.2019
6621 Clear 16 1012 29 0 0.61 228.062 09:38 07.10.2019
6622 Rain 14 1016 37 0 2 185.973 09:20 07.10.2019
6623 Clear 14 1015 35 0 2.37 180.991 08:44 07.10.2019
6624 Clear 14 1015 35 0 2.37 180.991 08:21 07.10.2019
6625 Clear 14 1015 35 0 2.37 180.991 07:55 07.10.2019
6626 Clear 14 1015 35 0 2.37 180.991 07:36 07.10.2019
6627 Clear 14 1015 35 0 2.37 180.991 07:18 07.10.2019
6628 Clear 14 1015 35 0 2.37 180.991 06:43 07.10.2019
6629 Clear 10 1021 54 0 1.97 163.743 06:20 07.10.2019
6630 Clear 10 1021 54 0 1.97 163.743 05:27 07.10.2019
6631 Clear 10 1021 54 0 1.97 163.743 04:56 07.10.2019
6632 Clear 10 1021 54 0 1.97 163.743 03:51 07.10.2019
6633 Clear 10 1021 54 0 1.97 163.743 03:51 07.10.2019
6634 Clear 10 1021 54 0 1.97 163.743 03:32 07.10.2019
6635 Rain 5 1022 82 0 1.07 36.268 02:55 07.10.2019
6636 Rain 5 1022 82 0 1.07 36.268 02:19 07.10.2019
6637 Rain 5 1022 82 0 1.07 36.268 02:19 07.10.2019
6638 -273 0 0 0 0 0 01:24 07.10.2019
6639 Rain 4 1022 80 0 0.62 57.917 00:55 07.10.2019
6640 Rain 4 1022 80 0 0.62 57.917 00:36 07.10.2019
6641 Rain 6 1020 73 0 1.23 40.045 00:18 07.10.2019
6642 Rain 6 1020 73 0 1.23 40.045 23:40 06.10.2019
6643 Rain 6 1020 73 0 1.23 40.045 23:21 06.10.2019
6644 Rain 6 1020 73 0 1.23 40.045 22:58 06.10.2019
6645 Rain 6 1020 73 0 1.23 40.045 22:39 06.10.2019
6646 Rain 6 1020 73 0 1.23 40.045 22:21 06.10.2019
6647 Rain 6 1020 73 0 1.23 40.045 21:56 06.10.2019
6648 Rain 6 1020 73 0 1.23 40.045 21:37 06.10.2019
6649 Rain 8 1020 67 0 1.23 25.624 21:19 06.10.2019
6650 Rain 8 1020 67 0 1.23 25.624 20:57 06.10.2019
6651 Rain 7 1020 73 0 0.84 120.542 20:38 06.10.2019
6652 Rain 7 1020 73 0 0.84 120.542 20:20 06.10.2019
6653 Rain 7 1020 73 0 0.84 120.542 19:57 06.10.2019
6654 Rain 7 1020 73 0 0.84 120.542 19:37 06.10.2019
6655 Rain 7 1020 73 0 0.84 120.542 19:19 06.10.2019
6656 Rain 7 1020 73 0 0.84 120.542 18:56 06.10.2019
6657 Rain 7 1020 73 0 0.84 120.542 18:56 06.10.2019
6658 Rain 7 1020 73 0 0.84 120.542 18:37 06.10.2019
6659 Rain 9 1019 59 0 2.62 134.566 18:19 06.10.2019
6660 Rain 9 1019 59 0 2.62 134.566 17:43 06.10.2019
6661 Rain 9 1019 59 0 2.62 134.566 17:20 06.10.2019
6662 Rain 9 1019 59 0 2.62 134.566 16:58 06.10.2019
6663 Rain 9 1019 59 0 2.62 134.566 16:40 06.10.2019
6664 Rain 9 1019 59 0 2.62 134.566 16:22 06.10.2019
6665 Rain 9 1019 59 0 2.62 134.566 15:44 06.10.2019
6666 Rain 9 1019 59 0 2.62 134.566 15:44 06.10.2019
6667 Clouds 13 1014 37 0 3.53 304.463 15:22 06.10.2019
6668 Clouds 13 1014 37 0 3.53 304.463 14:58 06.10.2019
6669 Clouds 13 1014 37 0 3.53 304.463 14:40 06.10.2019
6670 Clouds 13 1014 37 0 3.53 304.463 14:21 06.10.2019
6671 Clouds 13 1014 37 0 3.53 304.463 13:55 06.10.2019
6672 Clouds 13 1014 37 0 3.53 304.463 13:37 06.10.2019
6673 Clouds 12 1013 39 0 0.77 264.684 13:18 06.10.2019
6674 Clouds 12 1013 39 0 0.77 264.684 12:55 06.10.2019
6675 Clouds 12 1013 39 0 0.77 264.684 12:55 06.10.2019
6676 Clouds 12 1013 39 0 0.77 264.684 12:37 06.10.2019
6677 Clear 17 1010 26 0 0.45 223.751 12:19 06.10.2019
6678 Clear 17 1010 26 0 0.45 223.751 11:43 06.10.2019
6679 -273 0 0 0 0 0 11:24 06.10.2019
6680 Clear 17 1010 26 0 0.45 223.751 10:58 06.10.2019
6681 Clear 17 1010 26 0 0.45 223.751 10:39 06.10.2019
6682 Clear 17 1010 26 0 0.45 223.751 10:21 06.10.2019
6683 Clear 17 1010 26 0 0.45 223.751 09:41 06.10.2019
6684 Clouds 15 1014 32 0 2.56 187.778 09:21 06.10.2019
6685 Clouds 15 1014 32 0 2.56 187.778 08:57 06.10.2019
6686 Clouds 15 1014 32 0 2.49 181.313 08:38 06.10.2019
6687 Clouds 15 1014 32 0 2.49 181.313 08:19 06.10.2019
6688 Clouds 15 1014 32 0 2.49 181.313 07:40 06.10.2019
6689 Clouds 15 1014 32 0 2.49 181.313 06:59 06.10.2019
6690 Clouds 11 1019 49 0 2.39 177.77 05:57 06.10.2019
6691 Clouds 11 1019 49 0 2.39 177.77 04:44 06.10.2019
6692 Clouds 11 1019 49 0 2.39 177.77 04:44 06.10.2019
6693 Clouds 11 1019 49 0 2.39 177.77 04:44 06.10.2019
6694 Rain 5 1020 72 0 1.37 135.237 02:56 06.10.2019
6695 Rain 5 1020 72 0 1.37 135.237 02:37 06.10.2019
6696 Rain 5 1020 72 0 1.37 135.237 01:50 06.10.2019
6697 Rain 5 1021 71 0 1.4 143.457 01:31 06.10.2019
6698 Rain 5 1021 71 0 1.4 143.457 01:31 06.10.2019
6699 Rain 5 1021 71 0 1.4 143.457 00:59 06.10.2019
6700 Rain 5 1021 71 0 1.4 143.457 00:59 06.10.2019
6701 Rain 5 1021 71 0 1.4 143.457 00:40 06.10.2019
6702 Rain 6 1019 65 0 1.43 143.958 00:20 06.10.2019
6703 Rain 6 1019 65 0 1.43 143.958 23:42 05.10.2019
6704 Rain 6 1019 65 0 1.43 143.958 23:21 05.10.2019
6705 Rain 6 1019 65 0 1.43 143.958 22:56 05.10.2019
6706 Rain 6 1019 65 0 1.43 143.958 22:37 05.10.2019
6707 Rain 6 1019 65 0 1.43 143.958 22:19 05.10.2019
6708 Rain 6 1019 65 0 1.43 143.958 21:42 05.10.2019
6709 Rain 8 1019 58 0 1.55 132.023 21:23 05.10.2019
6710 Rain 8 1019 58 0 1.55 132.023 20:58 05.10.2019
6711 Rain 8 1019 58 0 1.55 132.023 20:58 05.10.2019
6712 Rain 8 1019 60 0 1.37 147.087 20:39 05.10.2019
6713 Rain 8 1019 60 0 1.37 147.087 20:19 05.10.2019
6714 Rain 8 1019 60 0 1.37 147.087 19:56 05.10.2019
6715 Rain 8 1019 60 0 1.37 147.087 19:37 05.10.2019
6716 Rain 8 1019 60 0 1.37 147.087 19:18 05.10.2019
6717 Rain 8 1019 60 0 1.37 147.087 18:55 05.10.2019
6718 Rain 8 1019 60 0 1.37 147.087 18:55 05.10.2019
6719 Rain 8 1019 60 0 1.37 147.087 18:36 05.10.2019
6720 Clear 10 1018 44 0 1.3 144.943 18:18 05.10.2019
6721 Clear 10 1018 44 0 1.3 144.943 17:42 05.10.2019
6722 Clear 10 1018 44 0 1.3 144.943 17:21 05.10.2019
6723 Clear 10 1018 44 0 1.3 144.943 16:56 05.10.2019
6724 Clear 10 1018 44 0 1.3 144.943 16:37 05.10.2019
6725 Clear 10 1018 44 0 1.3 144.943 16:18 05.10.2019
6726 Clear 10 1018 44 0 1.3 144.943 15:55 05.10.2019
6727 Clear 10 1018 44 0 1.3 144.943 15:37 05.10.2019
6728 Clouds 12 1013 34 0 1.45 242.055 15:18 05.10.2019
6729 Clouds 12 1013 34 0 1.45 242.055 14:42 05.10.2019
6730 Clouds 12 1013 34 0 1.45 242.055 14:23 05.10.2019
6731 Clouds 12 1013 34 0 1.45 242.055 13:44 05.10.2019
6732 Clouds 12 1012 35 0 1.17 242.385 13:26 05.10.2019
6733 Clouds 12 1012 35 0 1.17 242.385 12:58 05.10.2019
6734 Clouds 12 1012 35 0 1.17 242.385 12:40 05.10.2019
6735 Clear 17 1010 23 0 0.8 190.208 12:19 05.10.2019
6736 Clear 17 1010 23 0 0.8 190.208 11:41 05.10.2019
6737 Clear 17 1010 23 0 0.8 190.208 11:41 05.10.2019
6738 Clear 17 1010 23 0 0.8 190.208 11:20 05.10.2019
6739 Clear 17 1010 23 0 0.8 190.208 10:57 05.10.2019
6740 Clear 17 1010 23 0 0.8 190.208 10:38 05.10.2019
6741 Clear 17 1010 23 0 0.8 190.208 10:38 05.10.2019
6742 Clear 17 1010 23 0 0.8 190.208 10:19 05.10.2019
6743 Clear 17 1010 23 0 0.8 190.208 10:19 05.10.2019
6744 Clear 17 1010 23 0 0.8 190.208 09:40 05.10.2019
6745 Clear 15 1013 30 0 2.43 175.397 09:22 05.10.2019
6746 Clear 15 1013 29 0 2.33 174.612 08:42 05.10.2019
6747 Clear 15 1013 29 0 2.33 174.612 08:23 05.10.2019
6748 Clear 15 1013 29 0 2.33 174.612 07:59 05.10.2019
6749 Clear 15 1013 29 0 2.33 174.612 07:39 05.10.2019
6750 Clear 15 1013 29 0 2.33 174.612 07:20 05.10.2019
6751 Clear 15 1013 29 0 2.33 174.612 06:52 05.10.2019
6752 Clear 11 1018 46 0 2.46 176.409 06:21 05.10.2019
6753 Clear 11 1018 46 0 2.46 176.409 04:46 05.10.2019
6754 Clear 11 1018 46 0 2.46 176.409 03:32 05.10.2019
6755 Clouds 5 1020 70 0 1.61 149.646 02:26 05.10.2019
6756 Clouds 5 1019 71 0 1.7 148.868 01:26 05.10.2019
6757 Clouds 5 1019 71 0 1.7 148.868 00:48 05.10.2019
6758 Clouds 5 1019 71 0 1.7 148.868 00:48 05.10.2019
6759 Clouds 5 1019 71 0 1.7 148.868 00:27 05.10.2019
6760 Clouds 6 1017 64 0 1.72 153.257 23:57 04.10.2019
6761 Clouds 6 1017 64 0 1.72 153.257 23:39 04.10.2019
6762 Clouds 6 1017 64 0 1.72 153.257 23:21 04.10.2019
6763 Clouds 6 1017 64 0 1.72 153.257 22:42 04.10.2019
6764 Clouds 6 1017 64 0 1.72 153.257 22:24 04.10.2019
6765 Clouds 6 1017 64 0 1.72 153.257 21:59 04.10.2019
6766 Clouds 6 1017 64 0 1.72 153.257 21:40 04.10.2019
6767 Clouds 8 1017 49 0 2.35 151.409 21:22 04.10.2019
6768 Clouds 8 1017 49 0 2.35 151.409 20:58 04.10.2019
6769 Clouds 8 1017 50 0 2.18 149.968 20:40 04.10.2019
6770 Clouds 8 1017 50 0 2.18 149.968 20:22 04.10.2019
6771 Clouds 8 1017 50 0 2.18 149.968 19:56 04.10.2019
6772 Clouds 8 1017 50 0 2.18 149.968 19:55 04.10.2019
6773 Clouds 8 1017 50 0 2.18 149.968 19:55 04.10.2019
6774 Clouds 8 1017 50 0 2.18 149.968 19:55 04.10.2019
6775 Clouds 8 1017 50 0 2.18 149.968 19:36 04.10.2019
6776 Clouds 8 1017 50 0 2.18 149.968 19:18 04.10.2019
6777 Clouds 8 1017 50 0 2.18 149.968 18:39 04.10.2019
6778 Clouds 10 1016 43 0 0.88 131.229 18:19 04.10.2019
6779 Clouds 10 1016 43 0 0.88 131.229 17:57 04.10.2019
6780 Clouds 10 1016 43 0 0.88 131.229 17:38 04.10.2019
6781 Clouds 10 1016 43 0 0.88 131.229 17:20 04.10.2019
6782 Clouds 10 1016 43 0 0.88 131.229 16:55 04.10.2019
6783 Clouds 10 1016 43 0 0.88 131.229 16:36 04.10.2019
6784 Clouds 10 1016 43 0 0.88 131.229 16:18 04.10.2019
6785 Clouds 10 1016 43 0 0.88 131.229 15:55 04.10.2019
6786 Clouds 10 1016 43 0 0.88 131.229 15:36 04.10.2019
6787 Clear 12 1011 40 0 1.02 348.054 15:18 04.10.2019
6788 Clear 12 1011 40 0 1.02 348.054 14:42 04.10.2019
6789 Clear 12 1011 40 0 1.02 348.054 14:22 04.10.2019
6790 Clear 12 1011 40 0 1.02 348.054 13:59 04.10.2019
6791 Clear 12 1011 40 0 1.02 348.054 13:40 04.10.2019
6792 Clear 12 1011 40 0 1.06 348.933 13:19 04.10.2019
6793 Clear 12 1011 40 0 1.06 348.933 12:45 04.10.2019
6794 Clear 12 1011 40 0 1.06 348.933 12:27 04.10.2019
6795 Clear 17 1009 26 0 1.41 222.102 11:55 04.